<?xml version="1.0" encoding="UTF-8" standalone="no" ?>
<gpx xmlns="http://www.topografix.com/GPX/1/1" xmlns:xsi="http://www.w3.org/2001/XMLSchema-instance" xsi:schemaLocation="http://www.topografix.com/GPX/1/1 http://www.topografix.com/GPX/1/1/gpx.xsd" version="1.1" creator="VisuGPX - https://www.visugpx.com">
  <metadata>
    <name>Parcours Rumes du groupe B du 9 octobre 2018</name>
    <desc><![CDATA[Parcours Rumes du groupe B du 9 octobre 2018]]></desc>
  </metadata>
  <trk>
    <name><![CDATA[Rumes]]></name>
    <trkseg>
      <trkpt lat="50.55556" lon="3.30329">
        <ele>54.338104</ele>
        <time>2018-10-09T12:00:12Z</time>
      </trkpt>
      <trkpt lat="50.55559" lon="3.30335">
        <ele>54.33189</ele>
        <time>2018-10-09T12:00:14Z</time>
      </trkpt>
      <trkpt lat="50.55581" lon="3.30375">
        <ele>54.3125</ele>
        <time>2018-10-09T12:00:16Z</time>
      </trkpt>
      <trkpt lat="50.55585" lon="3.30373">
        <ele>54.259796</ele>
        <time>2018-10-09T12:00:18Z</time>
      </trkpt>
      <trkpt lat="50.55589" lon="3.30373">
        <ele>54.214897</ele>
        <time>2018-10-09T12:00:20Z</time>
      </trkpt>
      <trkpt lat="50.55592" lon="3.30373">
        <ele>54.208366</ele>
        <time>2018-10-09T12:00:22Z</time>
      </trkpt>
      <trkpt lat="50.55594" lon="3.30376">
        <ele>54.209358</ele>
        <time>2018-10-09T12:00:24Z</time>
      </trkpt>
      <trkpt lat="50.55596" lon="3.3038">
        <ele>54.193134</ele>
        <time>2018-10-09T12:00:26Z</time>
      </trkpt>
      <trkpt lat="50.55597" lon="3.30385">
        <ele>54.172173</ele>
        <time>2018-10-09T12:00:28Z</time>
      </trkpt>
      <trkpt lat="50.55599" lon="3.3039">
        <ele>54.147957</ele>
        <time>2018-10-09T12:00:30Z</time>
      </trkpt>
      <trkpt lat="50.55602" lon="3.30393">
        <ele>54.15155</ele>
        <time>2018-10-09T12:00:32Z</time>
      </trkpt>
      <trkpt lat="50.55607" lon="3.30394">
        <ele>54.025726</ele>
        <time>2018-10-09T12:00:34Z</time>
      </trkpt>
      <trkpt lat="50.55611" lon="3.3039">
        <ele>53.967072</ele>
        <time>2018-10-09T12:00:36Z</time>
      </trkpt>
      <trkpt lat="50.55616" lon="3.30386">
        <ele>53.900055</ele>
        <time>2018-10-09T12:00:38Z</time>
      </trkpt>
      <trkpt lat="50.55622" lon="3.30382">
        <ele>53.762856</ele>
        <time>2018-10-09T12:00:40Z</time>
      </trkpt>
      <trkpt lat="50.55628" lon="3.30378">
        <ele>53.711426</ele>
        <time>2018-10-09T12:00:42Z</time>
      </trkpt>
      <trkpt lat="50.55634" lon="3.30374">
        <ele>53.642906</ele>
        <time>2018-10-09T12:00:44Z</time>
      </trkpt>
      <trkpt lat="50.55641" lon="3.3037">
        <ele>53.629719</ele>
        <time>2018-10-09T12:00:46Z</time>
      </trkpt>
      <trkpt lat="50.55649" lon="3.30366">
        <ele>53.467781</ele>
        <time>2018-10-09T12:00:48Z</time>
      </trkpt>
      <trkpt lat="50.55657" lon="3.30363">
        <ele>53.435558</ele>
        <time>2018-10-09T12:00:50Z</time>
      </trkpt>
      <trkpt lat="50.55665" lon="3.3036">
        <ele>53.376057</ele>
        <time>2018-10-09T12:00:52Z</time>
      </trkpt>
      <trkpt lat="50.55674" lon="3.30357">
        <ele>53.280109</ele>
        <time>2018-10-09T12:00:54Z</time>
      </trkpt>
      <trkpt lat="50.55682" lon="3.30356">
        <ele>53.229698</ele>
        <time>2018-10-09T12:00:56Z</time>
      </trkpt>
      <trkpt lat="50.55691" lon="3.30356">
        <ele>53.21534</ele>
        <time>2018-10-09T12:00:58Z</time>
      </trkpt>
      <trkpt lat="50.55701" lon="3.30356">
        <ele>53.214561</ele>
        <time>2018-10-09T12:01:00Z</time>
      </trkpt>
      <trkpt lat="50.5571" lon="3.30355">
        <ele>53.168846</ele>
        <time>2018-10-09T12:01:02Z</time>
      </trkpt>
      <trkpt lat="50.55719" lon="3.30353">
        <ele>53.105022</ele>
        <time>2018-10-09T12:01:04Z</time>
      </trkpt>
      <trkpt lat="50.55727" lon="3.30348">
        <ele>53.039925</ele>
        <time>2018-10-09T12:01:06Z</time>
      </trkpt>
      <trkpt lat="50.55734" lon="3.30341">
        <ele>53.002327</ele>
        <time>2018-10-09T12:01:08Z</time>
      </trkpt>
      <trkpt lat="50.5574" lon="3.30332">
        <ele>52.95575</ele>
        <time>2018-10-09T12:01:10Z</time>
      </trkpt>
      <trkpt lat="50.55746" lon="3.30321">
        <ele>52.973869</ele>
        <time>2018-10-09T12:01:12Z</time>
      </trkpt>
      <trkpt lat="50.5575" lon="3.3031">
        <ele>53.007862</ele>
        <time>2018-10-09T12:01:14Z</time>
      </trkpt>
      <trkpt lat="50.55754" lon="3.30297">
        <ele>53.083813</ele>
        <time>2018-10-09T12:01:16Z</time>
      </trkpt>
      <trkpt lat="50.55758" lon="3.30286">
        <ele>53.164001</ele>
        <time>2018-10-09T12:01:18Z</time>
      </trkpt>
      <trkpt lat="50.55766" lon="3.30281">
        <ele>53.248554</ele>
        <time>2018-10-09T12:01:20Z</time>
      </trkpt>
      <trkpt lat="50.55775" lon="3.30283">
        <ele>53.328949</ele>
        <time>2018-10-09T12:01:22Z</time>
      </trkpt>
      <trkpt lat="50.55784" lon="3.30286">
        <ele>53.422649</ele>
        <time>2018-10-09T12:01:24Z</time>
      </trkpt>
      <trkpt lat="50.55793" lon="3.3029">
        <ele>53.563793</ele>
        <time>2018-10-09T12:01:26Z</time>
      </trkpt>
      <trkpt lat="50.55802" lon="3.30293">
        <ele>53.652599</ele>
        <time>2018-10-09T12:01:28Z</time>
      </trkpt>
      <trkpt lat="50.55811" lon="3.30298">
        <ele>53.794365</ele>
        <time>2018-10-09T12:01:30Z</time>
      </trkpt>
      <trkpt lat="50.55819" lon="3.30302">
        <ele>53.871174</ele>
        <time>2018-10-09T12:01:32Z</time>
      </trkpt>
      <trkpt lat="50.55828" lon="3.30305">
        <ele>54.020058</ele>
        <time>2018-10-09T12:01:34Z</time>
      </trkpt>
      <trkpt lat="50.55837" lon="3.30308">
        <ele>54.152504</ele>
        <time>2018-10-09T12:01:36Z</time>
      </trkpt>
      <trkpt lat="50.55845" lon="3.30312">
        <ele>54.263115</ele>
        <time>2018-10-09T12:01:38Z</time>
      </trkpt>
      <trkpt lat="50.55854" lon="3.30316">
        <ele>54.395435</ele>
        <time>2018-10-09T12:01:40Z</time>
      </trkpt>
      <trkpt lat="50.55863" lon="3.30319">
        <ele>54.601398</ele>
        <time>2018-10-09T12:01:42Z</time>
      </trkpt>
      <trkpt lat="50.55872" lon="3.30322">
        <ele>54.774971</ele>
        <time>2018-10-09T12:01:44Z</time>
      </trkpt>
      <trkpt lat="50.5588" lon="3.30326">
        <ele>54.965893</ele>
        <time>2018-10-09T12:01:46Z</time>
      </trkpt>
      <trkpt lat="50.55888" lon="3.30329">
        <ele>55.160736</ele>
        <time>2018-10-09T12:01:48Z</time>
      </trkpt>
      <trkpt lat="50.55897" lon="3.30332">
        <ele>55.356506</ele>
        <time>2018-10-09T12:01:50Z</time>
      </trkpt>
      <trkpt lat="50.55905" lon="3.30335">
        <ele>55.566895</ele>
        <time>2018-10-09T12:01:52Z</time>
      </trkpt>
      <trkpt lat="50.55914" lon="3.30339">
        <ele>55.69854</ele>
        <time>2018-10-09T12:01:54Z</time>
      </trkpt>
      <trkpt lat="50.55922" lon="3.30342">
        <ele>55.879101</ele>
        <time>2018-10-09T12:01:56Z</time>
      </trkpt>
      <trkpt lat="50.55932" lon="3.30344">
        <ele>56.053658</ele>
        <time>2018-10-09T12:01:58Z</time>
      </trkpt>
      <trkpt lat="50.5594" lon="3.30347">
        <ele>56.213409</ele>
        <time>2018-10-09T12:02:00Z</time>
      </trkpt>
      <trkpt lat="50.55948" lon="3.30351">
        <ele>56.350842</ele>
        <time>2018-10-09T12:02:02Z</time>
      </trkpt>
      <trkpt lat="50.55956" lon="3.30355">
        <ele>56.548798</ele>
        <time>2018-10-09T12:02:04Z</time>
      </trkpt>
      <trkpt lat="50.55963" lon="3.30358">
        <ele>56.67527</ele>
        <time>2018-10-09T12:02:06Z</time>
      </trkpt>
      <trkpt lat="50.55971" lon="3.30361">
        <ele>56.793285</ele>
        <time>2018-10-09T12:02:08Z</time>
      </trkpt>
      <trkpt lat="50.55979" lon="3.30364">
        <ele>56.893291</ele>
        <time>2018-10-09T12:02:10Z</time>
      </trkpt>
      <trkpt lat="50.55988" lon="3.30366">
        <ele>57.052002</ele>
        <time>2018-10-09T12:02:12Z</time>
      </trkpt>
      <trkpt lat="50.55996" lon="3.30369">
        <ele>57.175964</ele>
        <time>2018-10-09T12:02:14Z</time>
      </trkpt>
      <trkpt lat="50.56006" lon="3.30372">
        <ele>57.287056</ele>
        <time>2018-10-09T12:02:16Z</time>
      </trkpt>
      <trkpt lat="50.56015" lon="3.30376">
        <ele>57.433662</ele>
        <time>2018-10-09T12:02:18Z</time>
      </trkpt>
      <trkpt lat="50.56025" lon="3.3038">
        <ele>57.598076</ele>
        <time>2018-10-09T12:02:20Z</time>
      </trkpt>
      <trkpt lat="50.56034" lon="3.30384">
        <ele>57.674187</ele>
        <time>2018-10-09T12:02:22Z</time>
      </trkpt>
      <trkpt lat="50.56043" lon="3.30387">
        <ele>57.720581</ele>
        <time>2018-10-09T12:02:24Z</time>
      </trkpt>
      <trkpt lat="50.56053" lon="3.30391">
        <ele>57.868755</ele>
        <time>2018-10-09T12:02:26Z</time>
      </trkpt>
      <trkpt lat="50.56062" lon="3.30395">
        <ele>57.949409</ele>
        <time>2018-10-09T12:02:28Z</time>
      </trkpt>
      <trkpt lat="50.56072" lon="3.30399">
        <ele>58.023304</ele>
        <time>2018-10-09T12:02:30Z</time>
      </trkpt>
      <trkpt lat="50.56081" lon="3.30402">
        <ele>58.120441</ele>
        <time>2018-10-09T12:02:32Z</time>
      </trkpt>
      <trkpt lat="50.5609" lon="3.30406">
        <ele>58.213348</ele>
        <time>2018-10-09T12:02:34Z</time>
      </trkpt>
      <trkpt lat="50.56099" lon="3.30409">
        <ele>58.307373</ele>
        <time>2018-10-09T12:02:36Z</time>
      </trkpt>
      <trkpt lat="50.56109" lon="3.30414">
        <ele>58.350647</ele>
        <time>2018-10-09T12:02:38Z</time>
      </trkpt>
      <trkpt lat="50.56118" lon="3.30421">
        <ele>58.461792</ele>
        <time>2018-10-09T12:02:40Z</time>
      </trkpt>
      <trkpt lat="50.56127" lon="3.30428">
        <ele>58.511055</ele>
        <time>2018-10-09T12:02:42Z</time>
      </trkpt>
      <trkpt lat="50.56136" lon="3.30437">
        <ele>58.534355</ele>
        <time>2018-10-09T12:02:44Z</time>
      </trkpt>
      <trkpt lat="50.56144" lon="3.30447">
        <ele>58.508339</ele>
        <time>2018-10-09T12:02:46Z</time>
      </trkpt>
      <trkpt lat="50.56152" lon="3.30457">
        <ele>58.543194</ele>
        <time>2018-10-09T12:02:48Z</time>
      </trkpt>
      <trkpt lat="50.5616" lon="3.30468">
        <ele>58.582226</ele>
        <time>2018-10-09T12:02:50Z</time>
      </trkpt>
      <trkpt lat="50.56168" lon="3.30479">
        <ele>58.609997</ele>
        <time>2018-10-09T12:02:52Z</time>
      </trkpt>
      <trkpt lat="50.56176" lon="3.3049">
        <ele>58.624748</ele>
        <time>2018-10-09T12:02:54Z</time>
      </trkpt>
      <trkpt lat="50.56184" lon="3.30501">
        <ele>58.680298</ele>
        <time>2018-10-09T12:02:56Z</time>
      </trkpt>
      <trkpt lat="50.56193" lon="3.30513">
        <ele>58.686596</ele>
        <time>2018-10-09T12:02:58Z</time>
      </trkpt>
      <trkpt lat="50.56202" lon="3.30524">
        <ele>58.682903</ele>
        <time>2018-10-09T12:03:00Z</time>
      </trkpt>
      <trkpt lat="50.5621" lon="3.30536">
        <ele>58.649117</ele>
        <time>2018-10-09T12:03:02Z</time>
      </trkpt>
      <trkpt lat="50.56219" lon="3.30547">
        <ele>58.664143</ele>
        <time>2018-10-09T12:03:04Z</time>
      </trkpt>
      <trkpt lat="50.56228" lon="3.30557">
        <ele>58.66803</ele>
        <time>2018-10-09T12:03:06Z</time>
      </trkpt>
      <trkpt lat="50.56238" lon="3.30567">
        <ele>58.626747</ele>
        <time>2018-10-09T12:03:08Z</time>
      </trkpt>
      <trkpt lat="50.56247" lon="3.30575">
        <ele>58.60918</ele>
        <time>2018-10-09T12:03:10Z</time>
      </trkpt>
      <trkpt lat="50.56258" lon="3.30582">
        <ele>58.536835</ele>
        <time>2018-10-09T12:03:12Z</time>
      </trkpt>
      <trkpt lat="50.56267" lon="3.3059">
        <ele>58.429222</ele>
        <time>2018-10-09T12:03:14Z</time>
      </trkpt>
      <trkpt lat="50.56275" lon="3.30598">
        <ele>58.362812</ele>
        <time>2018-10-09T12:03:16Z</time>
      </trkpt>
      <trkpt lat="50.56284" lon="3.30605">
        <ele>58.322777</ele>
        <time>2018-10-09T12:03:18Z</time>
      </trkpt>
      <trkpt lat="50.56294" lon="3.30613">
        <ele>58.219902</ele>
        <time>2018-10-09T12:03:20Z</time>
      </trkpt>
      <trkpt lat="50.56302" lon="3.30622">
        <ele>58.116535</ele>
        <time>2018-10-09T12:03:22Z</time>
      </trkpt>
      <trkpt lat="50.56311" lon="3.30634">
        <ele>58.042519</ele>
        <time>2018-10-09T12:03:24Z</time>
      </trkpt>
      <trkpt lat="50.56318" lon="3.30647">
        <ele>57.96405</ele>
        <time>2018-10-09T12:03:26Z</time>
      </trkpt>
      <trkpt lat="50.56322" lon="3.30661">
        <ele>57.867279</ele>
        <time>2018-10-09T12:03:28Z</time>
      </trkpt>
      <trkpt lat="50.56322" lon="3.30676">
        <ele>57.769356</ele>
        <time>2018-10-09T12:03:30Z</time>
      </trkpt>
      <trkpt lat="50.5632" lon="3.30692">
        <ele>57.647804</ele>
        <time>2018-10-09T12:03:32Z</time>
      </trkpt>
      <trkpt lat="50.56317" lon="3.30708">
        <ele>57.518471</ele>
        <time>2018-10-09T12:03:34Z</time>
      </trkpt>
      <trkpt lat="50.56313" lon="3.30723">
        <ele>57.398186</ele>
        <time>2018-10-09T12:03:36Z</time>
      </trkpt>
      <trkpt lat="50.56308" lon="3.30739">
        <ele>57.246502</ele>
        <time>2018-10-09T12:03:38Z</time>
      </trkpt>
      <trkpt lat="50.56304" lon="3.30756">
        <ele>57.152458</ele>
        <time>2018-10-09T12:03:40Z</time>
      </trkpt>
      <trkpt lat="50.56299" lon="3.30772">
        <ele>57.050739</ele>
        <time>2018-10-09T12:03:42Z</time>
      </trkpt>
      <trkpt lat="50.56295" lon="3.3079">
        <ele>56.992943</ele>
        <time>2018-10-09T12:03:44Z</time>
      </trkpt>
      <trkpt lat="50.56293" lon="3.30808">
        <ele>56.88913</ele>
        <time>2018-10-09T12:03:46Z</time>
      </trkpt>
      <trkpt lat="50.56291" lon="3.30826">
        <ele>56.766041</ele>
        <time>2018-10-09T12:03:48Z</time>
      </trkpt>
      <trkpt lat="50.56291" lon="3.30845">
        <ele>56.692482</ele>
        <time>2018-10-09T12:03:50Z</time>
      </trkpt>
      <trkpt lat="50.5629" lon="3.30861">
        <ele>56.601734</ele>
        <time>2018-10-09T12:03:52Z</time>
      </trkpt>
      <trkpt lat="50.5629" lon="3.30876">
        <ele>56.547718</ele>
        <time>2018-10-09T12:03:54Z</time>
      </trkpt>
      <trkpt lat="50.56291" lon="3.30889">
        <ele>56.455383</ele>
        <time>2018-10-09T12:03:56Z</time>
      </trkpt>
      <trkpt lat="50.56295" lon="3.30902">
        <ele>56.349751</ele>
        <time>2018-10-09T12:03:58Z</time>
      </trkpt>
      <trkpt lat="50.563" lon="3.30913">
        <ele>56.266777</ele>
        <time>2018-10-09T12:04:00Z</time>
      </trkpt>
      <trkpt lat="50.56305" lon="3.30922">
        <ele>56.201263</ele>
        <time>2018-10-09T12:04:02Z</time>
      </trkpt>
      <trkpt lat="50.56312" lon="3.30932">
        <ele>56.129284</ele>
        <time>2018-10-09T12:04:04Z</time>
      </trkpt>
      <trkpt lat="50.5632" lon="3.30942">
        <ele>56.093414</ele>
        <time>2018-10-09T12:04:06Z</time>
      </trkpt>
      <trkpt lat="50.56327" lon="3.30951">
        <ele>55.976868</ele>
        <time>2018-10-09T12:04:08Z</time>
      </trkpt>
      <trkpt lat="50.56335" lon="3.30961">
        <ele>55.860138</ele>
        <time>2018-10-09T12:04:10Z</time>
      </trkpt>
      <trkpt lat="50.56343" lon="3.30972">
        <ele>55.873127</ele>
        <time>2018-10-09T12:04:12Z</time>
      </trkpt>
      <trkpt lat="50.5635" lon="3.30983">
        <ele>55.822609</ele>
        <time>2018-10-09T12:04:14Z</time>
      </trkpt>
      <trkpt lat="50.56358" lon="3.30996">
        <ele>55.777081</ele>
        <time>2018-10-09T12:04:16Z</time>
      </trkpt>
      <trkpt lat="50.56366" lon="3.31009">
        <ele>55.705463</ele>
        <time>2018-10-09T12:04:18Z</time>
      </trkpt>
      <trkpt lat="50.56373" lon="3.31023">
        <ele>55.618244</ele>
        <time>2018-10-09T12:04:20Z</time>
      </trkpt>
      <trkpt lat="50.56379" lon="3.31038">
        <ele>55.468079</ele>
        <time>2018-10-09T12:04:22Z</time>
      </trkpt>
      <trkpt lat="50.56386" lon="3.31053">
        <ele>55.315716</ele>
        <time>2018-10-09T12:04:24Z</time>
      </trkpt>
      <trkpt lat="50.56391" lon="3.31068">
        <ele>55.163647</ele>
        <time>2018-10-09T12:04:26Z</time>
      </trkpt>
      <trkpt lat="50.56397" lon="3.31084">
        <ele>55.025482</ele>
        <time>2018-10-09T12:04:28Z</time>
      </trkpt>
      <trkpt lat="50.56403" lon="3.31098">
        <ele>54.839031</ele>
        <time>2018-10-09T12:04:30Z</time>
      </trkpt>
      <trkpt lat="50.56411" lon="3.31108">
        <ele>54.696716</ele>
        <time>2018-10-09T12:04:32Z</time>
      </trkpt>
      <trkpt lat="50.56421" lon="3.31114">
        <ele>54.502819</ele>
        <time>2018-10-09T12:04:34Z</time>
      </trkpt>
      <trkpt lat="50.56432" lon="3.31116">
        <ele>54.406628</ele>
        <time>2018-10-09T12:04:36Z</time>
      </trkpt>
      <trkpt lat="50.56443" lon="3.31114">
        <ele>54.221069</ele>
        <time>2018-10-09T12:04:38Z</time>
      </trkpt>
      <trkpt lat="50.56453" lon="3.31107">
        <ele>54.0354</ele>
        <time>2018-10-09T12:04:40Z</time>
      </trkpt>
      <trkpt lat="50.56463" lon="3.31097">
        <ele>53.793739</ele>
        <time>2018-10-09T12:04:42Z</time>
      </trkpt>
      <trkpt lat="50.56472" lon="3.31087">
        <ele>53.611626</ele>
        <time>2018-10-09T12:04:44Z</time>
      </trkpt>
      <trkpt lat="50.56484" lon="3.31078">
        <ele>53.366356</ele>
        <time>2018-10-09T12:04:46Z</time>
      </trkpt>
      <trkpt lat="50.56496" lon="3.31072">
        <ele>53.188072</ele>
        <time>2018-10-09T12:04:48Z</time>
      </trkpt>
      <trkpt lat="50.56508" lon="3.31069">
        <ele>53.040325</ele>
        <time>2018-10-09T12:04:50Z</time>
      </trkpt>
      <trkpt lat="50.56519" lon="3.31068">
        <ele>52.959023</ele>
        <time>2018-10-09T12:04:52Z</time>
      </trkpt>
      <trkpt lat="50.56529" lon="3.3107">
        <ele>52.781105</ele>
        <time>2018-10-09T12:04:54Z</time>
      </trkpt>
      <trkpt lat="50.56538" lon="3.31072">
        <ele>52.648853</ele>
        <time>2018-10-09T12:04:56Z</time>
      </trkpt>
      <trkpt lat="50.56547" lon="3.31073">
        <ele>52.583549</ele>
        <time>2018-10-09T12:04:58Z</time>
      </trkpt>
      <trkpt lat="50.56556" lon="3.31075">
        <ele>52.520802</ele>
        <time>2018-10-09T12:05:00Z</time>
      </trkpt>
      <trkpt lat="50.56565" lon="3.31076">
        <ele>52.540321</ele>
        <time>2018-10-09T12:05:02Z</time>
      </trkpt>
      <trkpt lat="50.56574" lon="3.31078">
        <ele>52.553009</ele>
        <time>2018-10-09T12:05:04Z</time>
      </trkpt>
      <trkpt lat="50.56583" lon="3.31079">
        <ele>52.642296</ele>
        <time>2018-10-09T12:05:06Z</time>
      </trkpt>
      <trkpt lat="50.56592" lon="3.31081">
        <ele>52.741486</ele>
        <time>2018-10-09T12:05:08Z</time>
      </trkpt>
      <trkpt lat="50.56601" lon="3.31082">
        <ele>52.838215</ele>
        <time>2018-10-09T12:05:10Z</time>
      </trkpt>
      <trkpt lat="50.56611" lon="3.31084">
        <ele>52.952454</ele>
        <time>2018-10-09T12:05:12Z</time>
      </trkpt>
      <trkpt lat="50.5662" lon="3.31086">
        <ele>53.095543</ele>
        <time>2018-10-09T12:05:14Z</time>
      </trkpt>
      <trkpt lat="50.5663" lon="3.31088">
        <ele>53.192169</ele>
        <time>2018-10-09T12:05:16Z</time>
      </trkpt>
      <trkpt lat="50.5664" lon="3.31093">
        <ele>53.287415</ele>
        <time>2018-10-09T12:05:18Z</time>
      </trkpt>
      <trkpt lat="50.5665" lon="3.311">
        <ele>53.414326</ele>
        <time>2018-10-09T12:05:20Z</time>
      </trkpt>
      <trkpt lat="50.56661" lon="3.31107">
        <ele>53.539368</ele>
        <time>2018-10-09T12:05:22Z</time>
      </trkpt>
      <trkpt lat="50.56673" lon="3.31116">
        <ele>53.630127</ele>
        <time>2018-10-09T12:05:24Z</time>
      </trkpt>
      <trkpt lat="50.56686" lon="3.31124">
        <ele>53.648266</ele>
        <time>2018-10-09T12:05:26Z</time>
      </trkpt>
      <trkpt lat="50.56699" lon="3.31133">
        <ele>53.679726</ele>
        <time>2018-10-09T12:05:28Z</time>
      </trkpt>
      <trkpt lat="50.56708" lon="3.31138">
        <ele>53.649609</ele>
        <time>2018-10-09T12:05:30Z</time>
      </trkpt>
      <trkpt lat="50.56715" lon="3.31142">
        <ele>53.629478</ele>
        <time>2018-10-09T12:05:32Z</time>
      </trkpt>
      <trkpt lat="50.5672" lon="3.31147">
        <ele>53.519459</ele>
        <time>2018-10-09T12:05:34Z</time>
      </trkpt>
      <trkpt lat="50.56722" lon="3.31153">
        <ele>53.367474</ele>
        <time>2018-10-09T12:05:36Z</time>
      </trkpt>
      <trkpt lat="50.56722" lon="3.31162">
        <ele>53.298164</ele>
        <time>2018-10-09T12:05:38Z</time>
      </trkpt>
      <trkpt lat="50.56719" lon="3.31171">
        <ele>53.14912</ele>
        <time>2018-10-09T12:05:40Z</time>
      </trkpt>
      <trkpt lat="50.56715" lon="3.31181">
        <ele>52.94986</ele>
        <time>2018-10-09T12:05:42Z</time>
      </trkpt>
      <trkpt lat="50.56712" lon="3.31193">
        <ele>52.70459</ele>
        <time>2018-10-09T12:05:44Z</time>
      </trkpt>
      <trkpt lat="50.56709" lon="3.31206">
        <ele>52.47776</ele>
        <time>2018-10-09T12:05:46Z</time>
      </trkpt>
      <trkpt lat="50.56705" lon="3.31219">
        <ele>52.165833</ele>
        <time>2018-10-09T12:05:48Z</time>
      </trkpt>
      <trkpt lat="50.56701" lon="3.31232">
        <ele>51.883343</ele>
        <time>2018-10-09T12:05:50Z</time>
      </trkpt>
      <trkpt lat="50.56697" lon="3.31246">
        <ele>51.636963</ele>
        <time>2018-10-09T12:05:52Z</time>
      </trkpt>
      <trkpt lat="50.56693" lon="3.3126">
        <ele>51.384563</ele>
        <time>2018-10-09T12:05:54Z</time>
      </trkpt>
      <trkpt lat="50.5669" lon="3.31274">
        <ele>51.1194</ele>
        <time>2018-10-09T12:05:56Z</time>
      </trkpt>
      <trkpt lat="50.56686" lon="3.31288">
        <ele>50.883629</ele>
        <time>2018-10-09T12:05:58Z</time>
      </trkpt>
      <trkpt lat="50.56682" lon="3.31302">
        <ele>50.7038</ele>
        <time>2018-10-09T12:06:00Z</time>
      </trkpt>
      <trkpt lat="50.56678" lon="3.31316">
        <ele>50.50742</ele>
        <time>2018-10-09T12:06:02Z</time>
      </trkpt>
      <trkpt lat="50.56674" lon="3.3133">
        <ele>50.341938</ele>
        <time>2018-10-09T12:06:04Z</time>
      </trkpt>
      <trkpt lat="50.5667" lon="3.31344">
        <ele>50.238758</ele>
        <time>2018-10-09T12:06:06Z</time>
      </trkpt>
      <trkpt lat="50.56666" lon="3.31358">
        <ele>50.112022</ele>
        <time>2018-10-09T12:06:08Z</time>
      </trkpt>
      <trkpt lat="50.56663" lon="3.31371">
        <ele>50.130173</ele>
        <time>2018-10-09T12:06:10Z</time>
      </trkpt>
      <trkpt lat="50.56659" lon="3.31384">
        <ele>50.14064</ele>
        <time>2018-10-09T12:06:12Z</time>
      </trkpt>
      <trkpt lat="50.56656" lon="3.31397">
        <ele>50.141602</ele>
        <time>2018-10-09T12:06:14Z</time>
      </trkpt>
      <trkpt lat="50.56653" lon="3.3141">
        <ele>50.19725</ele>
        <time>2018-10-09T12:06:16Z</time>
      </trkpt>
      <trkpt lat="50.56653" lon="3.31423">
        <ele>50.233376</ele>
        <time>2018-10-09T12:06:18Z</time>
      </trkpt>
      <trkpt lat="50.56657" lon="3.31433">
        <ele>50.241703</ele>
        <time>2018-10-09T12:06:20Z</time>
      </trkpt>
      <trkpt lat="50.56665" lon="3.31439">
        <ele>50.328819</ele>
        <time>2018-10-09T12:06:22Z</time>
      </trkpt>
      <trkpt lat="50.56673" lon="3.31445">
        <ele>50.355553</ele>
        <time>2018-10-09T12:06:24Z</time>
      </trkpt>
      <trkpt lat="50.5668" lon="3.31451">
        <ele>50.425514</ele>
        <time>2018-10-09T12:06:26Z</time>
      </trkpt>
      <trkpt lat="50.56688" lon="3.31458">
        <ele>50.451347</ele>
        <time>2018-10-09T12:06:28Z</time>
      </trkpt>
      <trkpt lat="50.56696" lon="3.31466">
        <ele>50.538235</ele>
        <time>2018-10-09T12:06:30Z</time>
      </trkpt>
      <trkpt lat="50.56705" lon="3.31475">
        <ele>50.607819</ele>
        <time>2018-10-09T12:06:32Z</time>
      </trkpt>
      <trkpt lat="50.56713" lon="3.31485">
        <ele>50.616417</ele>
        <time>2018-10-09T12:06:34Z</time>
      </trkpt>
      <trkpt lat="50.56721" lon="3.31496">
        <ele>50.652653</ele>
        <time>2018-10-09T12:06:36Z</time>
      </trkpt>
      <trkpt lat="50.56728" lon="3.31506">
        <ele>50.654427</ele>
        <time>2018-10-09T12:06:38Z</time>
      </trkpt>
      <trkpt lat="50.56736" lon="3.31516">
        <ele>50.684223</ele>
        <time>2018-10-09T12:06:40Z</time>
      </trkpt>
      <trkpt lat="50.56744" lon="3.31526">
        <ele>50.701012</ele>
        <time>2018-10-09T12:06:42Z</time>
      </trkpt>
      <trkpt lat="50.56751" lon="3.31538">
        <ele>50.700497</ele>
        <time>2018-10-09T12:06:44Z</time>
      </trkpt>
      <trkpt lat="50.56757" lon="3.3155">
        <ele>50.723389</ele>
        <time>2018-10-09T12:06:46Z</time>
      </trkpt>
      <trkpt lat="50.56764" lon="3.31563">
        <ele>50.723278</ele>
        <time>2018-10-09T12:06:48Z</time>
      </trkpt>
      <trkpt lat="50.56769" lon="3.31576">
        <ele>50.738358</ele>
        <time>2018-10-09T12:06:50Z</time>
      </trkpt>
      <trkpt lat="50.56775" lon="3.3159">
        <ele>50.722591</ele>
        <time>2018-10-09T12:06:52Z</time>
      </trkpt>
      <trkpt lat="50.56781" lon="3.31603">
        <ele>50.755535</ele>
        <time>2018-10-09T12:06:54Z</time>
      </trkpt>
      <trkpt lat="50.56787" lon="3.31616">
        <ele>50.703472</ele>
        <time>2018-10-09T12:06:56Z</time>
      </trkpt>
      <trkpt lat="50.56792" lon="3.3163">
        <ele>50.691826</ele>
        <time>2018-10-09T12:06:58Z</time>
      </trkpt>
      <trkpt lat="50.56798" lon="3.31643">
        <ele>50.669334</ele>
        <time>2018-10-09T12:07:00Z</time>
      </trkpt>
      <trkpt lat="50.56804" lon="3.31656">
        <ele>50.638531</ele>
        <time>2018-10-09T12:07:02Z</time>
      </trkpt>
      <trkpt lat="50.56809" lon="3.31669">
        <ele>50.605236</ele>
        <time>2018-10-09T12:07:04Z</time>
      </trkpt>
      <trkpt lat="50.56815" lon="3.31682">
        <ele>50.616657</ele>
        <time>2018-10-09T12:07:06Z</time>
      </trkpt>
      <trkpt lat="50.56821" lon="3.31696">
        <ele>50.58498</ele>
        <time>2018-10-09T12:07:08Z</time>
      </trkpt>
      <trkpt lat="50.56826" lon="3.31709">
        <ele>50.607079</ele>
        <time>2018-10-09T12:07:10Z</time>
      </trkpt>
      <trkpt lat="50.56832" lon="3.31722">
        <ele>50.49667</ele>
        <time>2018-10-09T12:07:12Z</time>
      </trkpt>
      <trkpt lat="50.56837" lon="3.31734">
        <ele>50.44772</ele>
        <time>2018-10-09T12:07:14Z</time>
      </trkpt>
      <trkpt lat="50.56842" lon="3.31747">
        <ele>50.415611</ele>
        <time>2018-10-09T12:07:16Z</time>
      </trkpt>
      <trkpt lat="50.56848" lon="3.3176">
        <ele>50.40546</ele>
        <time>2018-10-09T12:07:18Z</time>
      </trkpt>
      <trkpt lat="50.56854" lon="3.31772">
        <ele>50.332359</ele>
        <time>2018-10-09T12:07:20Z</time>
      </trkpt>
      <trkpt lat="50.56859" lon="3.31785">
        <ele>50.261253</ele>
        <time>2018-10-09T12:07:22Z</time>
      </trkpt>
      <trkpt lat="50.56865" lon="3.31798">
        <ele>50.251099</ele>
        <time>2018-10-09T12:07:24Z</time>
      </trkpt>
      <trkpt lat="50.56871" lon="3.31811">
        <ele>50.218185</ele>
        <time>2018-10-09T12:07:26Z</time>
      </trkpt>
      <trkpt lat="50.56876" lon="3.31823">
        <ele>50.143559</ele>
        <time>2018-10-09T12:07:28Z</time>
      </trkpt>
      <trkpt lat="50.56881" lon="3.31835">
        <ele>50.109859</ele>
        <time>2018-10-09T12:07:30Z</time>
      </trkpt>
      <trkpt lat="50.56887" lon="3.31848">
        <ele>50.060612</ele>
        <time>2018-10-09T12:07:32Z</time>
      </trkpt>
      <trkpt lat="50.56892" lon="3.31861">
        <ele>50.026665</ele>
        <time>2018-10-09T12:07:34Z</time>
      </trkpt>
      <trkpt lat="50.56896" lon="3.31874">
        <ele>49.928219</ele>
        <time>2018-10-09T12:07:36Z</time>
      </trkpt>
      <trkpt lat="50.569" lon="3.31887">
        <ele>49.894707</ele>
        <time>2018-10-09T12:07:38Z</time>
      </trkpt>
      <trkpt lat="50.56905" lon="3.31901">
        <ele>49.809402</ele>
        <time>2018-10-09T12:07:40Z</time>
      </trkpt>
      <trkpt lat="50.56908" lon="3.31915">
        <ele>49.773991</ele>
        <time>2018-10-09T12:07:42Z</time>
      </trkpt>
      <trkpt lat="50.56911" lon="3.31928">
        <ele>49.736595</ele>
        <time>2018-10-09T12:07:44Z</time>
      </trkpt>
      <trkpt lat="50.56914" lon="3.31941">
        <ele>49.681545</ele>
        <time>2018-10-09T12:07:46Z</time>
      </trkpt>
      <trkpt lat="50.56917" lon="3.31954">
        <ele>49.652016</ele>
        <time>2018-10-09T12:07:48Z</time>
      </trkpt>
      <trkpt lat="50.5692" lon="3.31968">
        <ele>49.654671</ele>
        <time>2018-10-09T12:07:50Z</time>
      </trkpt>
      <trkpt lat="50.56923" lon="3.31981">
        <ele>49.610134</ele>
        <time>2018-10-09T12:07:52Z</time>
      </trkpt>
      <trkpt lat="50.56926" lon="3.31994">
        <ele>49.61837</ele>
        <time>2018-10-09T12:07:54Z</time>
      </trkpt>
      <trkpt lat="50.56929" lon="3.32006">
        <ele>49.60355</ele>
        <time>2018-10-09T12:07:56Z</time>
      </trkpt>
      <trkpt lat="50.56932" lon="3.32019">
        <ele>49.60815</ele>
        <time>2018-10-09T12:07:58Z</time>
      </trkpt>
      <trkpt lat="50.56934" lon="3.32033">
        <ele>49.575336</ele>
        <time>2018-10-09T12:08:00Z</time>
      </trkpt>
      <trkpt lat="50.56937" lon="3.32048">
        <ele>49.599892</ele>
        <time>2018-10-09T12:08:02Z</time>
      </trkpt>
      <trkpt lat="50.5694" lon="3.32064">
        <ele>49.625298</ele>
        <time>2018-10-09T12:08:04Z</time>
      </trkpt>
      <trkpt lat="50.56942" lon="3.32079">
        <ele>49.605026</ele>
        <time>2018-10-09T12:08:06Z</time>
      </trkpt>
      <trkpt lat="50.56945" lon="3.32094">
        <ele>49.583504</ele>
        <time>2018-10-09T12:08:08Z</time>
      </trkpt>
      <trkpt lat="50.56947" lon="3.32108">
        <ele>49.560726</ele>
        <time>2018-10-09T12:08:10Z</time>
      </trkpt>
      <trkpt lat="50.56949" lon="3.32123">
        <ele>49.529343</ele>
        <time>2018-10-09T12:08:12Z</time>
      </trkpt>
      <trkpt lat="50.56952" lon="3.32137">
        <ele>49.485844</ele>
        <time>2018-10-09T12:08:14Z</time>
      </trkpt>
      <trkpt lat="50.56954" lon="3.32152">
        <ele>49.416439</ele>
        <time>2018-10-09T12:08:16Z</time>
      </trkpt>
      <trkpt lat="50.56957" lon="3.32167">
        <ele>49.358772</ele>
        <time>2018-10-09T12:08:18Z</time>
      </trkpt>
      <trkpt lat="50.56959" lon="3.32181">
        <ele>49.350136</ele>
        <time>2018-10-09T12:08:20Z</time>
      </trkpt>
      <trkpt lat="50.56961" lon="3.32195">
        <ele>49.322029</ele>
        <time>2018-10-09T12:08:22Z</time>
      </trkpt>
      <trkpt lat="50.56965" lon="3.32209">
        <ele>49.264069</ele>
        <time>2018-10-09T12:08:24Z</time>
      </trkpt>
      <trkpt lat="50.56969" lon="3.32222">
        <ele>49.244839</ele>
        <time>2018-10-09T12:08:26Z</time>
      </trkpt>
      <trkpt lat="50.56974" lon="3.32234">
        <ele>49.172245</ele>
        <time>2018-10-09T12:08:28Z</time>
      </trkpt>
      <trkpt lat="50.5698" lon="3.32246">
        <ele>49.129944</ele>
        <time>2018-10-09T12:08:30Z</time>
      </trkpt>
      <trkpt lat="50.56987" lon="3.32257">
        <ele>49.054222</ele>
        <time>2018-10-09T12:08:32Z</time>
      </trkpt>
      <trkpt lat="50.56994" lon="3.32268">
        <ele>49.060692</ele>
        <time>2018-10-09T12:08:34Z</time>
      </trkpt>
      <trkpt lat="50.57" lon="3.32279">
        <ele>49.016224</ele>
        <time>2018-10-09T12:08:36Z</time>
      </trkpt>
      <trkpt lat="50.57007" lon="3.32289">
        <ele>48.9828</ele>
        <time>2018-10-09T12:08:38Z</time>
      </trkpt>
      <trkpt lat="50.57014" lon="3.323">
        <ele>48.885601</ele>
        <time>2018-10-09T12:08:40Z</time>
      </trkpt>
      <trkpt lat="50.57021" lon="3.32312">
        <ele>48.825722</ele>
        <time>2018-10-09T12:08:42Z</time>
      </trkpt>
      <trkpt lat="50.57028" lon="3.32323">
        <ele>48.772404</ele>
        <time>2018-10-09T12:08:44Z</time>
      </trkpt>
      <trkpt lat="50.57035" lon="3.32334">
        <ele>48.704475</ele>
        <time>2018-10-09T12:08:46Z</time>
      </trkpt>
      <trkpt lat="50.57042" lon="3.32345">
        <ele>48.655388</ele>
        <time>2018-10-09T12:08:48Z</time>
      </trkpt>
      <trkpt lat="50.57048" lon="3.32355">
        <ele>48.601768</ele>
        <time>2018-10-09T12:08:50Z</time>
      </trkpt>
      <trkpt lat="50.57055" lon="3.32365">
        <ele>48.50462</ele>
        <time>2018-10-09T12:08:52Z</time>
      </trkpt>
      <trkpt lat="50.57061" lon="3.32376">
        <ele>48.426838</ele>
        <time>2018-10-09T12:08:54Z</time>
      </trkpt>
      <trkpt lat="50.57068" lon="3.32387">
        <ele>48.352306</ele>
        <time>2018-10-09T12:08:56Z</time>
      </trkpt>
      <trkpt lat="50.57075" lon="3.32397">
        <ele>48.305534</ele>
        <time>2018-10-09T12:08:58Z</time>
      </trkpt>
      <trkpt lat="50.57081" lon="3.32408">
        <ele>48.255333</ele>
        <time>2018-10-09T12:09:00Z</time>
      </trkpt>
      <trkpt lat="50.57088" lon="3.32419">
        <ele>48.196056</ele>
        <time>2018-10-09T12:09:02Z</time>
      </trkpt>
      <trkpt lat="50.57095" lon="3.32429">
        <ele>48.158455</ele>
        <time>2018-10-09T12:09:04Z</time>
      </trkpt>
      <trkpt lat="50.57101" lon="3.3244">
        <ele>48.078102</ele>
        <time>2018-10-09T12:09:06Z</time>
      </trkpt>
      <trkpt lat="50.57107" lon="3.3245">
        <ele>47.997906</ele>
        <time>2018-10-09T12:09:08Z</time>
      </trkpt>
      <trkpt lat="50.57114" lon="3.32461">
        <ele>47.934509</ele>
        <time>2018-10-09T12:09:10Z</time>
      </trkpt>
      <trkpt lat="50.5712" lon="3.32471">
        <ele>47.826492</ele>
        <time>2018-10-09T12:09:12Z</time>
      </trkpt>
      <trkpt lat="50.57127" lon="3.32482">
        <ele>47.749516</ele>
        <time>2018-10-09T12:09:14Z</time>
      </trkpt>
      <trkpt lat="50.57134" lon="3.32494">
        <ele>47.655804</ele>
        <time>2018-10-09T12:09:16Z</time>
      </trkpt>
      <trkpt lat="50.5714" lon="3.32505">
        <ele>47.568729</ele>
        <time>2018-10-09T12:09:18Z</time>
      </trkpt>
      <trkpt lat="50.57147" lon="3.32516">
        <ele>47.453007</ele>
        <time>2018-10-09T12:09:20Z</time>
      </trkpt>
      <trkpt lat="50.57153" lon="3.32527">
        <ele>47.382126</ele>
        <time>2018-10-09T12:09:22Z</time>
      </trkpt>
      <trkpt lat="50.5716" lon="3.32538">
        <ele>47.309994</ele>
        <time>2018-10-09T12:09:24Z</time>
      </trkpt>
      <trkpt lat="50.57167" lon="3.32549">
        <ele>47.186317</ele>
        <time>2018-10-09T12:09:26Z</time>
      </trkpt>
      <trkpt lat="50.57174" lon="3.3256">
        <ele>47.073612</ele>
        <time>2018-10-09T12:09:28Z</time>
      </trkpt>
      <trkpt lat="50.57182" lon="3.3257">
        <ele>46.972031</ele>
        <time>2018-10-09T12:09:30Z</time>
      </trkpt>
      <trkpt lat="50.57188" lon="3.32582">
        <ele>46.88134</ele>
        <time>2018-10-09T12:09:32Z</time>
      </trkpt>
      <trkpt lat="50.57194" lon="3.32594">
        <ele>46.784328</ele>
        <time>2018-10-09T12:09:34Z</time>
      </trkpt>
      <trkpt lat="50.57199" lon="3.32608">
        <ele>46.741184</ele>
        <time>2018-10-09T12:09:36Z</time>
      </trkpt>
      <trkpt lat="50.57203" lon="3.32622">
        <ele>46.67255</ele>
        <time>2018-10-09T12:09:38Z</time>
      </trkpt>
      <trkpt lat="50.57206" lon="3.32637">
        <ele>46.635555</ele>
        <time>2018-10-09T12:09:40Z</time>
      </trkpt>
      <trkpt lat="50.57209" lon="3.32651">
        <ele>46.609035</ele>
        <time>2018-10-09T12:09:42Z</time>
      </trkpt>
      <trkpt lat="50.57212" lon="3.32666">
        <ele>46.549442</ele>
        <time>2018-10-09T12:09:44Z</time>
      </trkpt>
      <trkpt lat="50.57214" lon="3.32681">
        <ele>46.510921</ele>
        <time>2018-10-09T12:09:46Z</time>
      </trkpt>
      <trkpt lat="50.57215" lon="3.32696">
        <ele>46.45607</ele>
        <time>2018-10-09T12:09:48Z</time>
      </trkpt>
      <trkpt lat="50.57217" lon="3.32712">
        <ele>46.401188</ele>
        <time>2018-10-09T12:09:50Z</time>
      </trkpt>
      <trkpt lat="50.5722" lon="3.32727">
        <ele>46.320835</ele>
        <time>2018-10-09T12:09:52Z</time>
      </trkpt>
      <trkpt lat="50.57222" lon="3.32743">
        <ele>46.257912</ele>
        <time>2018-10-09T12:09:54Z</time>
      </trkpt>
      <trkpt lat="50.57224" lon="3.32759">
        <ele>46.129265</ele>
        <time>2018-10-09T12:09:56Z</time>
      </trkpt>
      <trkpt lat="50.57227" lon="3.32775">
        <ele>45.997765</ele>
        <time>2018-10-09T12:09:58Z</time>
      </trkpt>
      <trkpt lat="50.57229" lon="3.32791">
        <ele>45.913216</ele>
        <time>2018-10-09T12:10:00Z</time>
      </trkpt>
      <trkpt lat="50.57232" lon="3.32807">
        <ele>45.799248</ele>
        <time>2018-10-09T12:10:02Z</time>
      </trkpt>
      <trkpt lat="50.57234" lon="3.32822">
        <ele>45.730717</ele>
        <time>2018-10-09T12:10:04Z</time>
      </trkpt>
      <trkpt lat="50.57237" lon="3.32836">
        <ele>45.644833</ele>
        <time>2018-10-09T12:10:06Z</time>
      </trkpt>
      <trkpt lat="50.57239" lon="3.32851">
        <ele>45.615185</ele>
        <time>2018-10-09T12:10:08Z</time>
      </trkpt>
      <trkpt lat="50.57242" lon="3.32867">
        <ele>45.538895</ele>
        <time>2018-10-09T12:10:10Z</time>
      </trkpt>
      <trkpt lat="50.57245" lon="3.32882">
        <ele>45.470894</ele>
        <time>2018-10-09T12:10:12Z</time>
      </trkpt>
      <trkpt lat="50.57248" lon="3.32898">
        <ele>45.39579</ele>
        <time>2018-10-09T12:10:14Z</time>
      </trkpt>
      <trkpt lat="50.57252" lon="3.32913">
        <ele>45.380505</ele>
        <time>2018-10-09T12:10:16Z</time>
      </trkpt>
      <trkpt lat="50.57255" lon="3.32928">
        <ele>45.306301</ele>
        <time>2018-10-09T12:10:18Z</time>
      </trkpt>
      <trkpt lat="50.57258" lon="3.32943">
        <ele>45.22303</ele>
        <time>2018-10-09T12:10:20Z</time>
      </trkpt>
      <trkpt lat="50.5726" lon="3.32956">
        <ele>45.16851</ele>
        <time>2018-10-09T12:10:22Z</time>
      </trkpt>
      <trkpt lat="50.57262" lon="3.3297">
        <ele>45.04607</ele>
        <time>2018-10-09T12:10:24Z</time>
      </trkpt>
      <trkpt lat="50.57265" lon="3.32981">
        <ele>44.917698</ele>
        <time>2018-10-09T12:10:26Z</time>
      </trkpt>
      <trkpt lat="50.57267" lon="3.32993">
        <ele>44.858891</ele>
        <time>2018-10-09T12:10:28Z</time>
      </trkpt>
      <trkpt lat="50.57269" lon="3.33006">
        <ele>44.796738</ele>
        <time>2018-10-09T12:10:30Z</time>
      </trkpt>
      <trkpt lat="50.57271" lon="3.33019">
        <ele>44.766151</ele>
        <time>2018-10-09T12:10:32Z</time>
      </trkpt>
      <trkpt lat="50.57273" lon="3.33033">
        <ele>44.801109</ele>
        <time>2018-10-09T12:10:34Z</time>
      </trkpt>
      <trkpt lat="50.57275" lon="3.33046">
        <ele>44.824768</ele>
        <time>2018-10-09T12:10:36Z</time>
      </trkpt>
      <trkpt lat="50.57277" lon="3.3306">
        <ele>44.834404</ele>
        <time>2018-10-09T12:10:38Z</time>
      </trkpt>
      <trkpt lat="50.5728" lon="3.33074">
        <ele>44.843864</ele>
        <time>2018-10-09T12:10:40Z</time>
      </trkpt>
      <trkpt lat="50.57282" lon="3.33088">
        <ele>44.805351</ele>
        <time>2018-10-09T12:10:42Z</time>
      </trkpt>
      <trkpt lat="50.57284" lon="3.331">
        <ele>44.787315</ele>
        <time>2018-10-09T12:10:44Z</time>
      </trkpt>
      <trkpt lat="50.57286" lon="3.33112">
        <ele>44.729004</ele>
        <time>2018-10-09T12:10:46Z</time>
      </trkpt>
      <trkpt lat="50.57288" lon="3.33124">
        <ele>44.679726</ele>
        <time>2018-10-09T12:10:48Z</time>
      </trkpt>
      <trkpt lat="50.57295" lon="3.3313">
        <ele>44.641327</ele>
        <time>2018-10-09T12:10:50Z</time>
      </trkpt>
      <trkpt lat="50.57303" lon="3.33132">
        <ele>44.567146</ele>
        <time>2018-10-09T12:10:52Z</time>
      </trkpt>
      <trkpt lat="50.57312" lon="3.33133">
        <ele>44.528683</ele>
        <time>2018-10-09T12:10:54Z</time>
      </trkpt>
      <trkpt lat="50.57322" lon="3.33134">
        <ele>44.484768</ele>
        <time>2018-10-09T12:10:56Z</time>
      </trkpt>
      <trkpt lat="50.57332" lon="3.33135">
        <ele>44.392521</ele>
        <time>2018-10-09T12:10:58Z</time>
      </trkpt>
      <trkpt lat="50.57342" lon="3.33136">
        <ele>44.30748</ele>
        <time>2018-10-09T12:11:00Z</time>
      </trkpt>
      <trkpt lat="50.57352" lon="3.33138">
        <ele>44.205692</ele>
        <time>2018-10-09T12:11:02Z</time>
      </trkpt>
      <trkpt lat="50.57362" lon="3.3314">
        <ele>44.100124</ele>
        <time>2018-10-09T12:11:04Z</time>
      </trkpt>
      <trkpt lat="50.57372" lon="3.33143">
        <ele>44.006149</ele>
        <time>2018-10-09T12:11:06Z</time>
      </trkpt>
      <trkpt lat="50.57382" lon="3.33145">
        <ele>43.909676</ele>
        <time>2018-10-09T12:11:08Z</time>
      </trkpt>
      <trkpt lat="50.57393" lon="3.33147">
        <ele>43.767479</ele>
        <time>2018-10-09T12:11:10Z</time>
      </trkpt>
      <trkpt lat="50.57403" lon="3.33149">
        <ele>43.631645</ele>
        <time>2018-10-09T12:11:12Z</time>
      </trkpt>
      <trkpt lat="50.57414" lon="3.33152">
        <ele>43.388695</ele>
        <time>2018-10-09T12:11:14Z</time>
      </trkpt>
      <trkpt lat="50.57425" lon="3.33153">
        <ele>43.119919</ele>
        <time>2018-10-09T12:11:16Z</time>
      </trkpt>
      <trkpt lat="50.57436" lon="3.33155">
        <ele>42.957352</ele>
        <time>2018-10-09T12:11:18Z</time>
      </trkpt>
      <trkpt lat="50.57446" lon="3.33155">
        <ele>42.768257</ele>
        <time>2018-10-09T12:11:20Z</time>
      </trkpt>
      <trkpt lat="50.57457" lon="3.33153">
        <ele>42.55574</ele>
        <time>2018-10-09T12:11:22Z</time>
      </trkpt>
      <trkpt lat="50.57467" lon="3.33151">
        <ele>42.37178</ele>
        <time>2018-10-09T12:11:24Z</time>
      </trkpt>
      <trkpt lat="50.57478" lon="3.33148">
        <ele>42.285366</ele>
        <time>2018-10-09T12:11:26Z</time>
      </trkpt>
      <trkpt lat="50.57488" lon="3.33145">
        <ele>42.105587</ele>
        <time>2018-10-09T12:11:28Z</time>
      </trkpt>
      <trkpt lat="50.57498" lon="3.33143">
        <ele>41.917679</ele>
        <time>2018-10-09T12:11:30Z</time>
      </trkpt>
      <trkpt lat="50.57508" lon="3.33141">
        <ele>41.746998</ele>
        <time>2018-10-09T12:11:32Z</time>
      </trkpt>
      <trkpt lat="50.57519" lon="3.33141">
        <ele>41.578262</ele>
        <time>2018-10-09T12:11:34Z</time>
      </trkpt>
      <trkpt lat="50.57529" lon="3.33143">
        <ele>41.401161</ele>
        <time>2018-10-09T12:11:36Z</time>
      </trkpt>
      <trkpt lat="50.5754" lon="3.33146">
        <ele>41.173973</ele>
        <time>2018-10-09T12:11:38Z</time>
      </trkpt>
      <trkpt lat="50.5755" lon="3.33148">
        <ele>40.983559</ele>
        <time>2018-10-09T12:11:40Z</time>
      </trkpt>
      <trkpt lat="50.5756" lon="3.33151">
        <ele>40.784645</ele>
        <time>2018-10-09T12:11:42Z</time>
      </trkpt>
      <trkpt lat="50.5757" lon="3.33154">
        <ele>40.641468</ele>
        <time>2018-10-09T12:11:44Z</time>
      </trkpt>
      <trkpt lat="50.5758" lon="3.33156">
        <ele>40.485611</ele>
        <time>2018-10-09T12:11:46Z</time>
      </trkpt>
      <trkpt lat="50.5759" lon="3.33158">
        <ele>40.352329</ele>
        <time>2018-10-09T12:11:48Z</time>
      </trkpt>
      <trkpt lat="50.57604" lon="3.33157">
        <ele>40.183266</ele>
        <time>2018-10-09T12:11:51Z</time>
      </trkpt>
      <trkpt lat="50.57613" lon="3.33156">
        <ele>40.027878</ele>
        <time>2018-10-09T12:11:53Z</time>
      </trkpt>
      <trkpt lat="50.57622" lon="3.33154">
        <ele>39.927628</ele>
        <time>2018-10-09T12:11:55Z</time>
      </trkpt>
      <trkpt lat="50.5763" lon="3.33151">
        <ele>39.847107</ele>
        <time>2018-10-09T12:11:57Z</time>
      </trkpt>
      <trkpt lat="50.57638" lon="3.33148">
        <ele>39.803627</ele>
        <time>2018-10-09T12:11:59Z</time>
      </trkpt>
      <trkpt lat="50.57647" lon="3.33145">
        <ele>39.703224</ele>
        <time>2018-10-09T12:12:01Z</time>
      </trkpt>
      <trkpt lat="50.57655" lon="3.33142">
        <ele>39.673103</ele>
        <time>2018-10-09T12:12:03Z</time>
      </trkpt>
      <trkpt lat="50.57663" lon="3.33138">
        <ele>39.697208</ele>
        <time>2018-10-09T12:12:05Z</time>
      </trkpt>
      <trkpt lat="50.57671" lon="3.33135">
        <ele>39.704506</ele>
        <time>2018-10-09T12:12:07Z</time>
      </trkpt>
      <trkpt lat="50.57679" lon="3.33132">
        <ele>39.733665</ele>
        <time>2018-10-09T12:12:09Z</time>
      </trkpt>
      <trkpt lat="50.57687" lon="3.33129">
        <ele>39.773121</ele>
        <time>2018-10-09T12:12:11Z</time>
      </trkpt>
      <trkpt lat="50.57693" lon="3.33125">
        <ele>39.815987</ele>
        <time>2018-10-09T12:12:13Z</time>
      </trkpt>
      <trkpt lat="50.57699" lon="3.33119">
        <ele>39.84528</ele>
        <time>2018-10-09T12:12:15Z</time>
      </trkpt>
      <trkpt lat="50.57703" lon="3.33109">
        <ele>39.917908</ele>
        <time>2018-10-09T12:12:17Z</time>
      </trkpt>
      <trkpt lat="50.57705" lon="3.33098">
        <ele>40.048626</ele>
        <time>2018-10-09T12:12:19Z</time>
      </trkpt>
      <trkpt lat="50.57706" lon="3.33086">
        <ele>40.152828</ele>
        <time>2018-10-09T12:12:21Z</time>
      </trkpt>
      <trkpt lat="50.57705" lon="3.33074">
        <ele>40.308006</ele>
        <time>2018-10-09T12:12:23Z</time>
      </trkpt>
      <trkpt lat="50.57703" lon="3.33062">
        <ele>40.459099</ele>
        <time>2018-10-09T12:12:25Z</time>
      </trkpt>
      <trkpt lat="50.577" lon="3.3305">
        <ele>40.63316</ele>
        <time>2018-10-09T12:12:27Z</time>
      </trkpt>
      <trkpt lat="50.57697" lon="3.33039">
        <ele>40.76194</ele>
        <time>2018-10-09T12:12:29Z</time>
      </trkpt>
      <trkpt lat="50.57693" lon="3.33028">
        <ele>40.958679</ele>
        <time>2018-10-09T12:12:31Z</time>
      </trkpt>
      <trkpt lat="50.57689" lon="3.33016">
        <ele>41.150814</ele>
        <time>2018-10-09T12:12:33Z</time>
      </trkpt>
      <trkpt lat="50.57685" lon="3.33004">
        <ele>41.36594</ele>
        <time>2018-10-09T12:12:35Z</time>
      </trkpt>
      <trkpt lat="50.57681" lon="3.32992">
        <ele>41.583904</ele>
        <time>2018-10-09T12:12:37Z</time>
      </trkpt>
      <trkpt lat="50.57677" lon="3.32981">
        <ele>41.795547</ele>
        <time>2018-10-09T12:12:39Z</time>
      </trkpt>
      <trkpt lat="50.57673" lon="3.32969">
        <ele>41.974812</ele>
        <time>2018-10-09T12:12:41Z</time>
      </trkpt>
      <trkpt lat="50.57669" lon="3.32957">
        <ele>42.172913</ele>
        <time>2018-10-09T12:12:43Z</time>
      </trkpt>
      <trkpt lat="50.57665" lon="3.32944">
        <ele>42.312164</ele>
        <time>2018-10-09T12:12:45Z</time>
      </trkpt>
      <trkpt lat="50.5766" lon="3.3293">
        <ele>42.437397</ele>
        <time>2018-10-09T12:12:47Z</time>
      </trkpt>
      <trkpt lat="50.57656" lon="3.32917">
        <ele>42.500465</ele>
        <time>2018-10-09T12:12:49Z</time>
      </trkpt>
      <trkpt lat="50.57651" lon="3.32902">
        <ele>42.598705</ele>
        <time>2018-10-09T12:12:51Z</time>
      </trkpt>
      <trkpt lat="50.57647" lon="3.32888">
        <ele>42.704159</ele>
        <time>2018-10-09T12:12:53Z</time>
      </trkpt>
      <trkpt lat="50.57645" lon="3.32874">
        <ele>42.783539</ele>
        <time>2018-10-09T12:12:55Z</time>
      </trkpt>
      <trkpt lat="50.57646" lon="3.32859">
        <ele>42.838459</ele>
        <time>2018-10-09T12:12:57Z</time>
      </trkpt>
      <trkpt lat="50.57649" lon="3.32846">
        <ele>42.863235</ele>
        <time>2018-10-09T12:12:59Z</time>
      </trkpt>
      <trkpt lat="50.57655" lon="3.32834">
        <ele>42.903038</ele>
        <time>2018-10-09T12:13:01Z</time>
      </trkpt>
      <trkpt lat="50.57663" lon="3.32825">
        <ele>42.941284</ele>
        <time>2018-10-09T12:13:03Z</time>
      </trkpt>
      <trkpt lat="50.57672" lon="3.32818">
        <ele>43.008385</ele>
        <time>2018-10-09T12:13:05Z</time>
      </trkpt>
      <trkpt lat="50.57682" lon="3.32813">
        <ele>43.013252</ele>
        <time>2018-10-09T12:13:07Z</time>
      </trkpt>
      <trkpt lat="50.57691" lon="3.32808">
        <ele>43.077744</ele>
        <time>2018-10-09T12:13:09Z</time>
      </trkpt>
      <trkpt lat="50.577" lon="3.32805">
        <ele>43.177681</ele>
        <time>2018-10-09T12:13:11Z</time>
      </trkpt>
      <trkpt lat="50.57708" lon="3.32802">
        <ele>43.232372</ele>
        <time>2018-10-09T12:13:13Z</time>
      </trkpt>
      <trkpt lat="50.57717" lon="3.328">
        <ele>43.283207</ele>
        <time>2018-10-09T12:13:15Z</time>
      </trkpt>
      <trkpt lat="50.57726" lon="3.32797">
        <ele>43.338825</ele>
        <time>2018-10-09T12:13:17Z</time>
      </trkpt>
      <trkpt lat="50.57734" lon="3.32795">
        <ele>43.457634</ele>
        <time>2018-10-09T12:13:19Z</time>
      </trkpt>
      <trkpt lat="50.57742" lon="3.32794">
        <ele>43.568604</ele>
        <time>2018-10-09T12:13:21Z</time>
      </trkpt>
      <trkpt lat="50.5775" lon="3.32793">
        <ele>43.682667</ele>
        <time>2018-10-09T12:13:23Z</time>
      </trkpt>
      <trkpt lat="50.57759" lon="3.32793">
        <ele>43.780586</ele>
        <time>2018-10-09T12:13:25Z</time>
      </trkpt>
      <trkpt lat="50.57768" lon="3.32793">
        <ele>43.965874</ele>
        <time>2018-10-09T12:13:27Z</time>
      </trkpt>
      <trkpt lat="50.57777" lon="3.32794">
        <ele>44.120029</ele>
        <time>2018-10-09T12:13:29Z</time>
      </trkpt>
      <trkpt lat="50.57786" lon="3.32796">
        <ele>44.285294</ele>
        <time>2018-10-09T12:13:31Z</time>
      </trkpt>
      <trkpt lat="50.57795" lon="3.32797">
        <ele>44.531971</ele>
        <time>2018-10-09T12:13:33Z</time>
      </trkpt>
      <trkpt lat="50.57803" lon="3.32799">
        <ele>44.749992</ele>
        <time>2018-10-09T12:13:35Z</time>
      </trkpt>
      <trkpt lat="50.57811" lon="3.32801">
        <ele>44.992786</ele>
        <time>2018-10-09T12:13:37Z</time>
      </trkpt>
      <trkpt lat="50.5782" lon="3.32803">
        <ele>45.279182</ele>
        <time>2018-10-09T12:13:39Z</time>
      </trkpt>
      <trkpt lat="50.57829" lon="3.32805">
        <ele>45.53936</ele>
        <time>2018-10-09T12:13:41Z</time>
      </trkpt>
      <trkpt lat="50.57837" lon="3.32807">
        <ele>45.807079</ele>
        <time>2018-10-09T12:13:43Z</time>
      </trkpt>
      <trkpt lat="50.57846" lon="3.32809">
        <ele>46.055252</ele>
        <time>2018-10-09T12:13:45Z</time>
      </trkpt>
      <trkpt lat="50.57855" lon="3.32811">
        <ele>46.350506</ele>
        <time>2018-10-09T12:13:47Z</time>
      </trkpt>
      <trkpt lat="50.57864" lon="3.32813">
        <ele>46.622913</ele>
        <time>2018-10-09T12:13:49Z</time>
      </trkpt>
      <trkpt lat="50.57873" lon="3.32816">
        <ele>46.837746</ele>
        <time>2018-10-09T12:13:51Z</time>
      </trkpt>
      <trkpt lat="50.57883" lon="3.32818">
        <ele>47.094604</ele>
        <time>2018-10-09T12:13:53Z</time>
      </trkpt>
      <trkpt lat="50.57892" lon="3.3282">
        <ele>47.336971</ele>
        <time>2018-10-09T12:13:55Z</time>
      </trkpt>
      <trkpt lat="50.57902" lon="3.32821">
        <ele>47.577328</ele>
        <time>2018-10-09T12:13:57Z</time>
      </trkpt>
      <trkpt lat="50.57911" lon="3.32822">
        <ele>47.748871</ele>
        <time>2018-10-09T12:13:59Z</time>
      </trkpt>
      <trkpt lat="50.5792" lon="3.32824">
        <ele>47.844082</ele>
        <time>2018-10-09T12:14:01Z</time>
      </trkpt>
      <trkpt lat="50.57929" lon="3.32826">
        <ele>47.963867</ele>
        <time>2018-10-09T12:14:03Z</time>
      </trkpt>
      <trkpt lat="50.57938" lon="3.32827">
        <ele>48.121208</ele>
        <time>2018-10-09T12:14:05Z</time>
      </trkpt>
      <trkpt lat="50.57948" lon="3.32829">
        <ele>48.218754</ele>
        <time>2018-10-09T12:14:07Z</time>
      </trkpt>
      <trkpt lat="50.57956" lon="3.3283">
        <ele>48.295128</ele>
        <time>2018-10-09T12:14:09Z</time>
      </trkpt>
      <trkpt lat="50.57966" lon="3.32831">
        <ele>48.423363</ele>
        <time>2018-10-09T12:14:11Z</time>
      </trkpt>
      <trkpt lat="50.57975" lon="3.32833">
        <ele>48.513638</ele>
        <time>2018-10-09T12:14:13Z</time>
      </trkpt>
      <trkpt lat="50.57984" lon="3.32835">
        <ele>48.656303</ele>
        <time>2018-10-09T12:14:15Z</time>
      </trkpt>
      <trkpt lat="50.57993" lon="3.32838">
        <ele>48.761436</ele>
        <time>2018-10-09T12:14:17Z</time>
      </trkpt>
      <trkpt lat="50.58002" lon="3.32841">
        <ele>48.840904</ele>
        <time>2018-10-09T12:14:19Z</time>
      </trkpt>
      <trkpt lat="50.58011" lon="3.32845">
        <ele>48.922371</ele>
        <time>2018-10-09T12:14:21Z</time>
      </trkpt>
      <trkpt lat="50.58021" lon="3.32848">
        <ele>49.015572</ele>
        <time>2018-10-09T12:14:23Z</time>
      </trkpt>
      <trkpt lat="50.5803" lon="3.32852">
        <ele>49.122849</ele>
        <time>2018-10-09T12:14:25Z</time>
      </trkpt>
      <trkpt lat="50.5804" lon="3.32856">
        <ele>49.181847</ele>
        <time>2018-10-09T12:14:27Z</time>
      </trkpt>
      <trkpt lat="50.58049" lon="3.3286">
        <ele>49.284576</ele>
        <time>2018-10-09T12:14:29Z</time>
      </trkpt>
      <trkpt lat="50.58058" lon="3.32864">
        <ele>49.327507</ele>
        <time>2018-10-09T12:14:31Z</time>
      </trkpt>
      <trkpt lat="50.58067" lon="3.32867">
        <ele>49.408127</ele>
        <time>2018-10-09T12:14:33Z</time>
      </trkpt>
      <trkpt lat="50.58077" lon="3.32871">
        <ele>49.461315</ele>
        <time>2018-10-09T12:14:35Z</time>
      </trkpt>
      <trkpt lat="50.58085" lon="3.32874">
        <ele>49.504021</ele>
        <time>2018-10-09T12:14:37Z</time>
      </trkpt>
      <trkpt lat="50.58094" lon="3.32878">
        <ele>49.56852</ele>
        <time>2018-10-09T12:14:39Z</time>
      </trkpt>
      <trkpt lat="50.58103" lon="3.32882">
        <ele>49.616333</ele>
        <time>2018-10-09T12:14:41Z</time>
      </trkpt>
      <trkpt lat="50.58112" lon="3.32886">
        <ele>49.692719</ele>
        <time>2018-10-09T12:14:43Z</time>
      </trkpt>
      <trkpt lat="50.58122" lon="3.32889">
        <ele>49.724796</ele>
        <time>2018-10-09T12:14:45Z</time>
      </trkpt>
      <trkpt lat="50.58131" lon="3.32893">
        <ele>49.798836</ele>
        <time>2018-10-09T12:14:47Z</time>
      </trkpt>
      <trkpt lat="50.5814" lon="3.32896">
        <ele>49.938103</ele>
        <time>2018-10-09T12:14:49Z</time>
      </trkpt>
      <trkpt lat="50.58149" lon="3.329">
        <ele>49.987633</ele>
        <time>2018-10-09T12:14:51Z</time>
      </trkpt>
      <trkpt lat="50.58159" lon="3.32904">
        <ele>50.09066</ele>
        <time>2018-10-09T12:14:53Z</time>
      </trkpt>
      <trkpt lat="50.58168" lon="3.32908">
        <ele>50.109501</ele>
        <time>2018-10-09T12:14:55Z</time>
      </trkpt>
      <trkpt lat="50.58176" lon="3.32911">
        <ele>50.111061</ele>
        <time>2018-10-09T12:14:57Z</time>
      </trkpt>
      <trkpt lat="50.58184" lon="3.32914">
        <ele>50.14489</ele>
        <time>2018-10-09T12:14:59Z</time>
      </trkpt>
      <trkpt lat="50.58192" lon="3.32917">
        <ele>50.211914</ele>
        <time>2018-10-09T12:15:01Z</time>
      </trkpt>
      <trkpt lat="50.582" lon="3.32921">
        <ele>50.280437</ele>
        <time>2018-10-09T12:15:03Z</time>
      </trkpt>
      <trkpt lat="50.58207" lon="3.32926">
        <ele>50.336811</ele>
        <time>2018-10-09T12:15:05Z</time>
      </trkpt>
      <trkpt lat="50.58215" lon="3.32934">
        <ele>50.361835</ele>
        <time>2018-10-09T12:15:07Z</time>
      </trkpt>
      <trkpt lat="50.58221" lon="3.32943">
        <ele>50.411766</ele>
        <time>2018-10-09T12:15:09Z</time>
      </trkpt>
      <trkpt lat="50.58227" lon="3.32954">
        <ele>50.48819</ele>
        <time>2018-10-09T12:15:11Z</time>
      </trkpt>
      <trkpt lat="50.58232" lon="3.32967">
        <ele>50.56958</ele>
        <time>2018-10-09T12:15:13Z</time>
      </trkpt>
      <trkpt lat="50.58236" lon="3.3298">
        <ele>50.645611</ele>
        <time>2018-10-09T12:15:15Z</time>
      </trkpt>
      <trkpt lat="50.58239" lon="3.32995">
        <ele>50.736763</ele>
        <time>2018-10-09T12:15:17Z</time>
      </trkpt>
      <trkpt lat="50.58242" lon="3.33008">
        <ele>50.816833</ele>
        <time>2018-10-09T12:15:19Z</time>
      </trkpt>
      <trkpt lat="50.58245" lon="3.33022">
        <ele>50.826897</ele>
        <time>2018-10-09T12:15:21Z</time>
      </trkpt>
      <trkpt lat="50.58247" lon="3.33035">
        <ele>50.906292</ele>
        <time>2018-10-09T12:15:23Z</time>
      </trkpt>
      <trkpt lat="50.5825" lon="3.33048">
        <ele>50.995583</ele>
        <time>2018-10-09T12:15:25Z</time>
      </trkpt>
      <trkpt lat="50.58254" lon="3.33062">
        <ele>51.12096</ele>
        <time>2018-10-09T12:15:27Z</time>
      </trkpt>
      <trkpt lat="50.58257" lon="3.33075">
        <ele>51.229015</ele>
        <time>2018-10-09T12:15:29Z</time>
      </trkpt>
      <trkpt lat="50.5826" lon="3.33089">
        <ele>51.370941</ele>
        <time>2018-10-09T12:15:31Z</time>
      </trkpt>
      <trkpt lat="50.58263" lon="3.33103">
        <ele>51.511314</ele>
        <time>2018-10-09T12:15:33Z</time>
      </trkpt>
      <trkpt lat="50.58266" lon="3.33116">
        <ele>51.670311</ele>
        <time>2018-10-09T12:15:35Z</time>
      </trkpt>
      <trkpt lat="50.58269" lon="3.3313">
        <ele>51.848499</ele>
        <time>2018-10-09T12:15:37Z</time>
      </trkpt>
      <trkpt lat="50.58272" lon="3.33143">
        <ele>52.011665</ele>
        <time>2018-10-09T12:15:39Z</time>
      </trkpt>
      <trkpt lat="50.58275" lon="3.33157">
        <ele>52.208271</ele>
        <time>2018-10-09T12:15:41Z</time>
      </trkpt>
      <trkpt lat="50.58278" lon="3.3317">
        <ele>52.377758</ele>
        <time>2018-10-09T12:15:43Z</time>
      </trkpt>
      <trkpt lat="50.58281" lon="3.33183">
        <ele>52.506756</ele>
        <time>2018-10-09T12:15:45Z</time>
      </trkpt>
      <trkpt lat="50.58284" lon="3.33196">
        <ele>52.595448</ele>
        <time>2018-10-09T12:15:47Z</time>
      </trkpt>
      <trkpt lat="50.58287" lon="3.33208">
        <ele>52.759911</ele>
        <time>2018-10-09T12:15:49Z</time>
      </trkpt>
      <trkpt lat="50.58289" lon="3.3322">
        <ele>52.938526</ele>
        <time>2018-10-09T12:15:51Z</time>
      </trkpt>
      <trkpt lat="50.58292" lon="3.33233">
        <ele>53.085888</ele>
        <time>2018-10-09T12:15:53Z</time>
      </trkpt>
      <trkpt lat="50.58295" lon="3.33245">
        <ele>53.24049</ele>
        <time>2018-10-09T12:15:55Z</time>
      </trkpt>
      <trkpt lat="50.58299" lon="3.33258">
        <ele>53.384411</ele>
        <time>2018-10-09T12:15:57Z</time>
      </trkpt>
      <trkpt lat="50.58302" lon="3.3327">
        <ele>53.542992</ele>
        <time>2018-10-09T12:15:59Z</time>
      </trkpt>
      <trkpt lat="50.58305" lon="3.33282">
        <ele>53.741901</ele>
        <time>2018-10-09T12:16:01Z</time>
      </trkpt>
      <trkpt lat="50.58308" lon="3.33293">
        <ele>53.901665</ele>
        <time>2018-10-09T12:16:03Z</time>
      </trkpt>
      <trkpt lat="50.5831" lon="3.33305">
        <ele>54.094585</ele>
        <time>2018-10-09T12:16:05Z</time>
      </trkpt>
      <trkpt lat="50.58313" lon="3.33315">
        <ele>54.234863</ele>
        <time>2018-10-09T12:16:07Z</time>
      </trkpt>
      <trkpt lat="50.58315" lon="3.33321">
        <ele>54.383278</ele>
        <time>2018-10-09T12:16:09Z</time>
      </trkpt>
      <trkpt lat="50.58319" lon="3.33325">
        <ele>54.420357</ele>
        <time>2018-10-09T12:16:11Z</time>
      </trkpt>
      <trkpt lat="50.58324" lon="3.33324">
        <ele>54.556519</ele>
        <time>2018-10-09T12:16:13Z</time>
      </trkpt>
      <trkpt lat="50.58328" lon="3.33317">
        <ele>54.694038</ele>
        <time>2018-10-09T12:16:15Z</time>
      </trkpt>
      <trkpt lat="50.58333" lon="3.33308">
        <ele>54.804634</ele>
        <time>2018-10-09T12:16:17Z</time>
      </trkpt>
      <trkpt lat="50.58337" lon="3.33296">
        <ele>54.877186</ele>
        <time>2018-10-09T12:16:19Z</time>
      </trkpt>
      <trkpt lat="50.58343" lon="3.33285">
        <ele>54.99638</ele>
        <time>2018-10-09T12:16:21Z</time>
      </trkpt>
      <trkpt lat="50.58349" lon="3.33273">
        <ele>55.017132</ele>
        <time>2018-10-09T12:16:23Z</time>
      </trkpt>
      <trkpt lat="50.58355" lon="3.3326">
        <ele>55.108528</ele>
        <time>2018-10-09T12:16:25Z</time>
      </trkpt>
      <trkpt lat="50.58361" lon="3.33247">
        <ele>55.220295</ele>
        <time>2018-10-09T12:16:27Z</time>
      </trkpt>
      <trkpt lat="50.58367" lon="3.33234">
        <ele>55.277351</ele>
        <time>2018-10-09T12:16:29Z</time>
      </trkpt>
      <trkpt lat="50.58373" lon="3.33222">
        <ele>55.313385</ele>
        <time>2018-10-09T12:16:31Z</time>
      </trkpt>
      <trkpt lat="50.58379" lon="3.3321">
        <ele>55.373993</ele>
        <time>2018-10-09T12:16:33Z</time>
      </trkpt>
      <trkpt lat="50.58385" lon="3.33198">
        <ele>55.355377</ele>
        <time>2018-10-09T12:16:35Z</time>
      </trkpt>
      <trkpt lat="50.58391" lon="3.33187">
        <ele>55.373737</ele>
        <time>2018-10-09T12:16:37Z</time>
      </trkpt>
      <trkpt lat="50.58397" lon="3.33175">
        <ele>55.386017</ele>
        <time>2018-10-09T12:16:39Z</time>
      </trkpt>
      <trkpt lat="50.58403" lon="3.33164">
        <ele>55.354668</ele>
        <time>2018-10-09T12:16:41Z</time>
      </trkpt>
      <trkpt lat="50.58409" lon="3.33153">
        <ele>55.339142</ele>
        <time>2018-10-09T12:16:43Z</time>
      </trkpt>
      <trkpt lat="50.58415" lon="3.33143">
        <ele>55.352619</ele>
        <time>2018-10-09T12:16:45Z</time>
      </trkpt>
      <trkpt lat="50.58422" lon="3.33132">
        <ele>55.357513</ele>
        <time>2018-10-09T12:16:47Z</time>
      </trkpt>
      <trkpt lat="50.58428" lon="3.33122">
        <ele>55.36451</ele>
        <time>2018-10-09T12:16:49Z</time>
      </trkpt>
      <trkpt lat="50.58435" lon="3.33112">
        <ele>55.372124</ele>
        <time>2018-10-09T12:16:51Z</time>
      </trkpt>
      <trkpt lat="50.58442" lon="3.33103">
        <ele>55.38908</ele>
        <time>2018-10-09T12:16:53Z</time>
      </trkpt>
      <trkpt lat="50.58448" lon="3.33094">
        <ele>55.450481</ele>
        <time>2018-10-09T12:16:55Z</time>
      </trkpt>
      <trkpt lat="50.58455" lon="3.33084">
        <ele>55.506905</ele>
        <time>2018-10-09T12:16:57Z</time>
      </trkpt>
      <trkpt lat="50.58462" lon="3.33075">
        <ele>55.633587</ele>
        <time>2018-10-09T12:16:59Z</time>
      </trkpt>
      <trkpt lat="50.58469" lon="3.33066">
        <ele>55.719025</ele>
        <time>2018-10-09T12:17:01Z</time>
      </trkpt>
      <trkpt lat="50.58476" lon="3.33056">
        <ele>55.80088</ele>
        <time>2018-10-09T12:17:03Z</time>
      </trkpt>
      <trkpt lat="50.58482" lon="3.33047">
        <ele>55.85923</ele>
        <time>2018-10-09T12:17:05Z</time>
      </trkpt>
      <trkpt lat="50.58489" lon="3.33038">
        <ele>55.978371</ele>
        <time>2018-10-09T12:17:07Z</time>
      </trkpt>
      <trkpt lat="50.58495" lon="3.33029">
        <ele>56.111237</ele>
        <time>2018-10-09T12:17:09Z</time>
      </trkpt>
      <trkpt lat="50.58501" lon="3.3302">
        <ele>56.237663</ele>
        <time>2018-10-09T12:17:11Z</time>
      </trkpt>
      <trkpt lat="50.58507" lon="3.33011">
        <ele>56.376671</ele>
        <time>2018-10-09T12:17:13Z</time>
      </trkpt>
      <trkpt lat="50.58514" lon="3.33003">
        <ele>56.468941</ele>
        <time>2018-10-09T12:17:15Z</time>
      </trkpt>
      <trkpt lat="50.5852" lon="3.32994">
        <ele>56.639942</ele>
        <time>2018-10-09T12:17:17Z</time>
      </trkpt>
      <trkpt lat="50.58527" lon="3.32986">
        <ele>56.82502</ele>
        <time>2018-10-09T12:17:19Z</time>
      </trkpt>
      <trkpt lat="50.58533" lon="3.32977">
        <ele>57.000526</ele>
        <time>2018-10-09T12:17:21Z</time>
      </trkpt>
      <trkpt lat="50.58539" lon="3.32968">
        <ele>57.167656</ele>
        <time>2018-10-09T12:17:23Z</time>
      </trkpt>
      <trkpt lat="50.58546" lon="3.32959">
        <ele>57.362617</ele>
        <time>2018-10-09T12:17:25Z</time>
      </trkpt>
      <trkpt lat="50.58553" lon="3.3295">
        <ele>57.500202</ele>
        <time>2018-10-09T12:17:27Z</time>
      </trkpt>
      <trkpt lat="50.5856" lon="3.32941">
        <ele>57.706123</ele>
        <time>2018-10-09T12:17:29Z</time>
      </trkpt>
      <trkpt lat="50.58566" lon="3.32931">
        <ele>57.927387</ele>
        <time>2018-10-09T12:17:31Z</time>
      </trkpt>
      <trkpt lat="50.58573" lon="3.32922">
        <ele>58.114399</ele>
        <time>2018-10-09T12:17:33Z</time>
      </trkpt>
      <trkpt lat="50.58579" lon="3.32913">
        <ele>58.31147</ele>
        <time>2018-10-09T12:17:35Z</time>
      </trkpt>
      <trkpt lat="50.58584" lon="3.32906">
        <ele>58.461113</ele>
        <time>2018-10-09T12:17:37Z</time>
      </trkpt>
      <trkpt lat="50.5859" lon="3.32897">
        <ele>58.589397</ele>
        <time>2018-10-09T12:17:39Z</time>
      </trkpt>
      <trkpt lat="50.58596" lon="3.32887">
        <ele>58.779839</ele>
        <time>2018-10-09T12:17:41Z</time>
      </trkpt>
      <trkpt lat="50.58601" lon="3.32877">
        <ele>58.990868</ele>
        <time>2018-10-09T12:17:43Z</time>
      </trkpt>
      <trkpt lat="50.58608" lon="3.32865">
        <ele>59.180012</ele>
        <time>2018-10-09T12:17:45Z</time>
      </trkpt>
      <trkpt lat="50.58613" lon="3.32853">
        <ele>59.365284</ele>
        <time>2018-10-09T12:17:47Z</time>
      </trkpt>
      <trkpt lat="50.58619" lon="3.32841">
        <ele>59.513691</ele>
        <time>2018-10-09T12:17:49Z</time>
      </trkpt>
      <trkpt lat="50.58624" lon="3.32829">
        <ele>59.553356</ele>
        <time>2018-10-09T12:17:51Z</time>
      </trkpt>
      <trkpt lat="50.5863" lon="3.32817">
        <ele>59.67218</ele>
        <time>2018-10-09T12:17:53Z</time>
      </trkpt>
      <trkpt lat="50.58635" lon="3.32805">
        <ele>59.740467</ele>
        <time>2018-10-09T12:17:55Z</time>
      </trkpt>
      <trkpt lat="50.5864" lon="3.32794">
        <ele>59.861256</ele>
        <time>2018-10-09T12:17:57Z</time>
      </trkpt>
      <trkpt lat="50.58646" lon="3.32783">
        <ele>60.018219</ele>
        <time>2018-10-09T12:17:59Z</time>
      </trkpt>
      <trkpt lat="50.58651" lon="3.32772">
        <ele>60.175549</ele>
        <time>2018-10-09T12:18:01Z</time>
      </trkpt>
      <trkpt lat="50.58656" lon="3.32762">
        <ele>60.335449</ele>
        <time>2018-10-09T12:18:03Z</time>
      </trkpt>
      <trkpt lat="50.58661" lon="3.32751">
        <ele>60.491432</ele>
        <time>2018-10-09T12:18:05Z</time>
      </trkpt>
      <trkpt lat="50.58666" lon="3.3274">
        <ele>60.641052</ele>
        <time>2018-10-09T12:18:07Z</time>
      </trkpt>
      <trkpt lat="50.58671" lon="3.32729">
        <ele>60.789513</ele>
        <time>2018-10-09T12:18:09Z</time>
      </trkpt>
      <trkpt lat="50.58676" lon="3.32717">
        <ele>60.927971</ele>
        <time>2018-10-09T12:18:11Z</time>
      </trkpt>
      <trkpt lat="50.58681" lon="3.32706">
        <ele>61.105156</ele>
        <time>2018-10-09T12:18:13Z</time>
      </trkpt>
      <trkpt lat="50.58686" lon="3.32695">
        <ele>61.207928</ele>
        <time>2018-10-09T12:18:15Z</time>
      </trkpt>
      <trkpt lat="50.58691" lon="3.32684">
        <ele>61.375805</ele>
        <time>2018-10-09T12:18:17Z</time>
      </trkpt>
      <trkpt lat="50.58696" lon="3.32674">
        <ele>61.572762</ele>
        <time>2018-10-09T12:18:19Z</time>
      </trkpt>
      <trkpt lat="50.58701" lon="3.32663">
        <ele>61.727837</ele>
        <time>2018-10-09T12:18:21Z</time>
      </trkpt>
      <trkpt lat="50.58706" lon="3.32653">
        <ele>61.881561</ele>
        <time>2018-10-09T12:18:23Z</time>
      </trkpt>
      <trkpt lat="50.58711" lon="3.32642">
        <ele>62.042717</ele>
        <time>2018-10-09T12:18:25Z</time>
      </trkpt>
      <trkpt lat="50.58715" lon="3.32632">
        <ele>62.222755</ele>
        <time>2018-10-09T12:18:27Z</time>
      </trkpt>
      <trkpt lat="50.5872" lon="3.32621">
        <ele>62.460503</ele>
        <time>2018-10-09T12:18:29Z</time>
      </trkpt>
      <trkpt lat="50.58725" lon="3.32611">
        <ele>62.551746</ele>
        <time>2018-10-09T12:18:31Z</time>
      </trkpt>
      <trkpt lat="50.5873" lon="3.32601">
        <ele>62.811596</ele>
        <time>2018-10-09T12:18:33Z</time>
      </trkpt>
      <trkpt lat="50.58736" lon="3.3259">
        <ele>63.043037</ele>
        <time>2018-10-09T12:18:35Z</time>
      </trkpt>
      <trkpt lat="50.58741" lon="3.3258">
        <ele>63.268597</ele>
        <time>2018-10-09T12:18:37Z</time>
      </trkpt>
      <trkpt lat="50.58746" lon="3.32571">
        <ele>63.4375</ele>
        <time>2018-10-09T12:18:39Z</time>
      </trkpt>
      <trkpt lat="50.58751" lon="3.32561">
        <ele>63.596973</ele>
        <time>2018-10-09T12:18:41Z</time>
      </trkpt>
      <trkpt lat="50.58756" lon="3.32551">
        <ele>63.788567</ele>
        <time>2018-10-09T12:18:43Z</time>
      </trkpt>
      <trkpt lat="50.58762" lon="3.32541">
        <ele>63.994789</ele>
        <time>2018-10-09T12:18:45Z</time>
      </trkpt>
      <trkpt lat="50.58767" lon="3.3253">
        <ele>64.232864</ele>
        <time>2018-10-09T12:18:47Z</time>
      </trkpt>
      <trkpt lat="50.58773" lon="3.32519">
        <ele>64.451767</ele>
        <time>2018-10-09T12:18:49Z</time>
      </trkpt>
      <trkpt lat="50.58778" lon="3.32508">
        <ele>64.640137</ele>
        <time>2018-10-09T12:18:51Z</time>
      </trkpt>
      <trkpt lat="50.58784" lon="3.32497">
        <ele>64.731674</ele>
        <time>2018-10-09T12:18:53Z</time>
      </trkpt>
      <trkpt lat="50.5879" lon="3.32487">
        <ele>64.891342</ele>
        <time>2018-10-09T12:18:55Z</time>
      </trkpt>
      <trkpt lat="50.58795" lon="3.32476">
        <ele>65.056686</ele>
        <time>2018-10-09T12:18:57Z</time>
      </trkpt>
      <trkpt lat="50.58801" lon="3.32465">
        <ele>65.231857</ele>
        <time>2018-10-09T12:18:59Z</time>
      </trkpt>
      <trkpt lat="50.58807" lon="3.32454">
        <ele>65.449028</ele>
        <time>2018-10-09T12:19:01Z</time>
      </trkpt>
      <trkpt lat="50.58812" lon="3.32444">
        <ele>65.587814</ele>
        <time>2018-10-09T12:19:03Z</time>
      </trkpt>
      <trkpt lat="50.58818" lon="3.32433">
        <ele>65.702034</ele>
        <time>2018-10-09T12:19:05Z</time>
      </trkpt>
      <trkpt lat="50.58823" lon="3.32422">
        <ele>65.898872</ele>
        <time>2018-10-09T12:19:07Z</time>
      </trkpt>
      <trkpt lat="50.58829" lon="3.32411">
        <ele>66.072166</ele>
        <time>2018-10-09T12:19:09Z</time>
      </trkpt>
      <trkpt lat="50.58835" lon="3.324">
        <ele>66.243896</ele>
        <time>2018-10-09T12:19:11Z</time>
      </trkpt>
      <trkpt lat="50.58841" lon="3.32389">
        <ele>66.455986</ele>
        <time>2018-10-09T12:19:13Z</time>
      </trkpt>
      <trkpt lat="50.58846" lon="3.32378">
        <ele>66.613724</ele>
        <time>2018-10-09T12:19:15Z</time>
      </trkpt>
      <trkpt lat="50.58852" lon="3.32367">
        <ele>66.817886</ele>
        <time>2018-10-09T12:19:17Z</time>
      </trkpt>
      <trkpt lat="50.58857" lon="3.32357">
        <ele>67.088394</ele>
        <time>2018-10-09T12:19:19Z</time>
      </trkpt>
      <trkpt lat="50.58863" lon="3.32346">
        <ele>67.302238</ele>
        <time>2018-10-09T12:19:21Z</time>
      </trkpt>
      <trkpt lat="50.58868" lon="3.32336">
        <ele>67.538261</ele>
        <time>2018-10-09T12:19:23Z</time>
      </trkpt>
      <trkpt lat="50.58873" lon="3.32325">
        <ele>67.750206</ele>
        <time>2018-10-09T12:19:25Z</time>
      </trkpt>
      <trkpt lat="50.58879" lon="3.32315">
        <ele>67.982109</ele>
        <time>2018-10-09T12:19:27Z</time>
      </trkpt>
      <trkpt lat="50.58884" lon="3.32305">
        <ele>68.08091</ele>
        <time>2018-10-09T12:19:29Z</time>
      </trkpt>
      <trkpt lat="50.5889" lon="3.32295">
        <ele>68.264221</ele>
        <time>2018-10-09T12:19:31Z</time>
      </trkpt>
      <trkpt lat="50.58896" lon="3.32285">
        <ele>68.468002</ele>
        <time>2018-10-09T12:19:33Z</time>
      </trkpt>
      <trkpt lat="50.58901" lon="3.32274">
        <ele>68.705521</ele>
        <time>2018-10-09T12:19:35Z</time>
      </trkpt>
      <trkpt lat="50.58907" lon="3.32264">
        <ele>68.977196</ele>
        <time>2018-10-09T12:19:37Z</time>
      </trkpt>
      <trkpt lat="50.58913" lon="3.32254">
        <ele>69.222336</ele>
        <time>2018-10-09T12:19:39Z</time>
      </trkpt>
      <trkpt lat="50.58919" lon="3.32244">
        <ele>69.458572</ele>
        <time>2018-10-09T12:19:41Z</time>
      </trkpt>
      <trkpt lat="50.58926" lon="3.32234">
        <ele>69.669052</ele>
        <time>2018-10-09T12:19:43Z</time>
      </trkpt>
      <trkpt lat="50.58932" lon="3.32225">
        <ele>69.917534</ele>
        <time>2018-10-09T12:19:45Z</time>
      </trkpt>
      <trkpt lat="50.58939" lon="3.32215">
        <ele>70.198959</ele>
        <time>2018-10-09T12:19:47Z</time>
      </trkpt>
      <trkpt lat="50.58946" lon="3.32206">
        <ele>70.469627</ele>
        <time>2018-10-09T12:19:49Z</time>
      </trkpt>
      <trkpt lat="50.58952" lon="3.32197">
        <ele>70.713364</ele>
        <time>2018-10-09T12:19:51Z</time>
      </trkpt>
      <trkpt lat="50.58959" lon="3.32188">
        <ele>70.884384</ele>
        <time>2018-10-09T12:19:53Z</time>
      </trkpt>
      <trkpt lat="50.58966" lon="3.32179">
        <ele>71.15609</ele>
        <time>2018-10-09T12:19:55Z</time>
      </trkpt>
      <trkpt lat="50.58973" lon="3.32171">
        <ele>71.429581</ele>
        <time>2018-10-09T12:19:57Z</time>
      </trkpt>
      <trkpt lat="50.58979" lon="3.32162">
        <ele>71.704468</ele>
        <time>2018-10-09T12:19:59Z</time>
      </trkpt>
      <trkpt lat="50.58986" lon="3.32153">
        <ele>71.96344</ele>
        <time>2018-10-09T12:20:01Z</time>
      </trkpt>
      <trkpt lat="50.58993" lon="3.32145">
        <ele>72.247963</ele>
        <time>2018-10-09T12:20:03Z</time>
      </trkpt>
      <trkpt lat="50.59001" lon="3.32137">
        <ele>72.515396</ele>
        <time>2018-10-09T12:20:05Z</time>
      </trkpt>
      <trkpt lat="50.59008" lon="3.32129">
        <ele>72.650558</ele>
        <time>2018-10-09T12:20:07Z</time>
      </trkpt>
      <trkpt lat="50.59015" lon="3.32121">
        <ele>72.906128</ele>
        <time>2018-10-09T12:20:09Z</time>
      </trkpt>
      <trkpt lat="50.59023" lon="3.32113">
        <ele>73.22744</ele>
        <time>2018-10-09T12:20:11Z</time>
      </trkpt>
      <trkpt lat="50.5903" lon="3.32104">
        <ele>73.553543</ele>
        <time>2018-10-09T12:20:13Z</time>
      </trkpt>
      <trkpt lat="50.59037" lon="3.32096">
        <ele>73.851051</ele>
        <time>2018-10-09T12:20:15Z</time>
      </trkpt>
      <trkpt lat="50.59045" lon="3.32089">
        <ele>74.119522</ele>
        <time>2018-10-09T12:20:17Z</time>
      </trkpt>
      <trkpt lat="50.59052" lon="3.3208">
        <ele>74.400696</ele>
        <time>2018-10-09T12:20:19Z</time>
      </trkpt>
      <trkpt lat="50.59059" lon="3.32073">
        <ele>74.663086</ele>
        <time>2018-10-09T12:20:21Z</time>
      </trkpt>
      <trkpt lat="50.59066" lon="3.32065">
        <ele>74.97567</ele>
        <time>2018-10-09T12:20:23Z</time>
      </trkpt>
      <trkpt lat="50.59073" lon="3.32057">
        <ele>75.316422</ele>
        <time>2018-10-09T12:20:25Z</time>
      </trkpt>
      <trkpt lat="50.5908" lon="3.32049">
        <ele>75.676498</ele>
        <time>2018-10-09T12:20:27Z</time>
      </trkpt>
      <trkpt lat="50.59087" lon="3.32041">
        <ele>75.945557</ele>
        <time>2018-10-09T12:20:29Z</time>
      </trkpt>
      <trkpt lat="50.59094" lon="3.32033">
        <ele>76.202522</ele>
        <time>2018-10-09T12:20:31Z</time>
      </trkpt>
      <trkpt lat="50.59101" lon="3.32026">
        <ele>76.585205</ele>
        <time>2018-10-09T12:20:33Z</time>
      </trkpt>
      <trkpt lat="50.59108" lon="3.32018">
        <ele>76.920265</ele>
        <time>2018-10-09T12:20:35Z</time>
      </trkpt>
      <trkpt lat="50.59115" lon="3.3201">
        <ele>77.222687</ele>
        <time>2018-10-09T12:20:37Z</time>
      </trkpt>
      <trkpt lat="50.59121" lon="3.32003">
        <ele>77.437576</ele>
        <time>2018-10-09T12:20:39Z</time>
      </trkpt>
      <trkpt lat="50.59128" lon="3.31995">
        <ele>77.659637</ele>
        <time>2018-10-09T12:20:41Z</time>
      </trkpt>
      <trkpt lat="50.59135" lon="3.31987">
        <ele>77.89418</ele>
        <time>2018-10-09T12:20:43Z</time>
      </trkpt>
      <trkpt lat="50.59141" lon="3.31979">
        <ele>78.013695</ele>
        <time>2018-10-09T12:20:45Z</time>
      </trkpt>
      <trkpt lat="50.59147" lon="3.31972">
        <ele>78.190933</ele>
        <time>2018-10-09T12:20:47Z</time>
      </trkpt>
      <trkpt lat="50.59152" lon="3.31967">
        <ele>78.386017</ele>
        <time>2018-10-09T12:20:49Z</time>
      </trkpt>
      <trkpt lat="50.59156" lon="3.31964">
        <ele>78.591965</ele>
        <time>2018-10-09T12:20:51Z</time>
      </trkpt>
      <trkpt lat="50.5916" lon="3.31962">
        <ele>78.746178</ele>
        <time>2018-10-09T12:20:53Z</time>
      </trkpt>
      <trkpt lat="50.59163" lon="3.31961">
        <ele>78.940201</ele>
        <time>2018-10-09T12:20:55Z</time>
      </trkpt>
      <trkpt lat="50.59166" lon="3.31962">
        <ele>79.112198</ele>
        <time>2018-10-09T12:20:57Z</time>
      </trkpt>
      <trkpt lat="50.59168" lon="3.31964">
        <ele>79.295128</ele>
        <time>2018-10-09T12:20:59Z</time>
      </trkpt>
      <trkpt lat="50.59171" lon="3.31967">
        <ele>79.37336</ele>
        <time>2018-10-09T12:21:01Z</time>
      </trkpt>
      <trkpt lat="50.59174" lon="3.31972">
        <ele>79.445381</ele>
        <time>2018-10-09T12:21:03Z</time>
      </trkpt>
      <trkpt lat="50.59177" lon="3.31979">
        <ele>79.510124</ele>
        <time>2018-10-09T12:21:05Z</time>
      </trkpt>
      <trkpt lat="50.5918" lon="3.31987">
        <ele>79.54052</ele>
        <time>2018-10-09T12:21:07Z</time>
      </trkpt>
      <trkpt lat="50.59183" lon="3.31997">
        <ele>79.554443</ele>
        <time>2018-10-09T12:21:09Z</time>
      </trkpt>
      <trkpt lat="50.59187" lon="3.32007">
        <ele>79.577515</ele>
        <time>2018-10-09T12:21:11Z</time>
      </trkpt>
      <trkpt lat="50.59191" lon="3.32017">
        <ele>79.583252</ele>
        <time>2018-10-09T12:21:13Z</time>
      </trkpt>
      <trkpt lat="50.59194" lon="3.32026">
        <ele>79.551804</ele>
        <time>2018-10-09T12:21:15Z</time>
      </trkpt>
      <trkpt lat="50.59198" lon="3.32036">
        <ele>79.519005</ele>
        <time>2018-10-09T12:21:17Z</time>
      </trkpt>
      <trkpt lat="50.59201" lon="3.32046">
        <ele>79.497604</ele>
        <time>2018-10-09T12:21:19Z</time>
      </trkpt>
      <trkpt lat="50.59205" lon="3.32057">
        <ele>79.439278</ele>
        <time>2018-10-09T12:21:21Z</time>
      </trkpt>
      <trkpt lat="50.59209" lon="3.32069">
        <ele>79.351013</ele>
        <time>2018-10-09T12:21:23Z</time>
      </trkpt>
      <trkpt lat="50.59213" lon="3.3208">
        <ele>79.307236</ele>
        <time>2018-10-09T12:21:25Z</time>
      </trkpt>
      <trkpt lat="50.59217" lon="3.32091">
        <ele>79.25975</ele>
        <time>2018-10-09T12:21:27Z</time>
      </trkpt>
      <trkpt lat="50.59221" lon="3.32103">
        <ele>79.225479</ele>
        <time>2018-10-09T12:21:29Z</time>
      </trkpt>
      <trkpt lat="50.59226" lon="3.32115">
        <ele>79.146004</ele>
        <time>2018-10-09T12:21:31Z</time>
      </trkpt>
      <trkpt lat="50.5923" lon="3.32127">
        <ele>79.042168</ele>
        <time>2018-10-09T12:21:33Z</time>
      </trkpt>
      <trkpt lat="50.59235" lon="3.32139">
        <ele>78.957932</ele>
        <time>2018-10-09T12:21:35Z</time>
      </trkpt>
      <trkpt lat="50.5924" lon="3.32151">
        <ele>78.809341</ele>
        <time>2018-10-09T12:21:37Z</time>
      </trkpt>
      <trkpt lat="50.59247" lon="3.32159">
        <ele>78.695488</ele>
        <time>2018-10-09T12:21:39Z</time>
      </trkpt>
      <trkpt lat="50.59256" lon="3.32161">
        <ele>78.598511</ele>
        <time>2018-10-09T12:21:41Z</time>
      </trkpt>
      <trkpt lat="50.59264" lon="3.32157">
        <ele>78.482483</ele>
        <time>2018-10-09T12:21:43Z</time>
      </trkpt>
      <trkpt lat="50.59271" lon="3.32152">
        <ele>78.437653</ele>
        <time>2018-10-09T12:21:45Z</time>
      </trkpt>
      <trkpt lat="50.59279" lon="3.32147">
        <ele>78.300087</ele>
        <time>2018-10-09T12:21:47Z</time>
      </trkpt>
      <trkpt lat="50.59287" lon="3.32143">
        <ele>78.227089</ele>
        <time>2018-10-09T12:21:49Z</time>
      </trkpt>
      <trkpt lat="50.59296" lon="3.32139">
        <ele>78.142685</ele>
        <time>2018-10-09T12:21:51Z</time>
      </trkpt>
      <trkpt lat="50.59306" lon="3.32137">
        <ele>78.038361</ele>
        <time>2018-10-09T12:21:53Z</time>
      </trkpt>
      <trkpt lat="50.59316" lon="3.32136">
        <ele>77.929611</ele>
        <time>2018-10-09T12:21:55Z</time>
      </trkpt>
      <trkpt lat="50.59326" lon="3.32136">
        <ele>77.775986</ele>
        <time>2018-10-09T12:21:57Z</time>
      </trkpt>
      <trkpt lat="50.59337" lon="3.32136">
        <ele>77.67067</ele>
        <time>2018-10-09T12:21:59Z</time>
      </trkpt>
      <trkpt lat="50.59347" lon="3.32138">
        <ele>77.572365</ele>
        <time>2018-10-09T12:22:01Z</time>
      </trkpt>
      <trkpt lat="50.59359" lon="3.3214">
        <ele>77.44838</ele>
        <time>2018-10-09T12:22:03Z</time>
      </trkpt>
      <trkpt lat="50.59371" lon="3.32141">
        <ele>77.331871</ele>
        <time>2018-10-09T12:22:05Z</time>
      </trkpt>
      <trkpt lat="50.59383" lon="3.32142">
        <ele>77.215233</ele>
        <time>2018-10-09T12:22:07Z</time>
      </trkpt>
      <trkpt lat="50.59396" lon="3.32143">
        <ele>77.055984</ele>
        <time>2018-10-09T12:22:09Z</time>
      </trkpt>
      <trkpt lat="50.59409" lon="3.32144">
        <ele>76.919838</ele>
        <time>2018-10-09T12:22:11Z</time>
      </trkpt>
      <trkpt lat="50.59423" lon="3.32144">
        <ele>76.78231</ele>
        <time>2018-10-09T12:22:13Z</time>
      </trkpt>
      <trkpt lat="50.59437" lon="3.32141">
        <ele>76.596893</ele>
        <time>2018-10-09T12:22:15Z</time>
      </trkpt>
      <trkpt lat="50.59451" lon="3.32136">
        <ele>76.405319</ele>
        <time>2018-10-09T12:22:17Z</time>
      </trkpt>
      <trkpt lat="50.59464" lon="3.3213">
        <ele>76.274055</ele>
        <time>2018-10-09T12:22:19Z</time>
      </trkpt>
      <trkpt lat="50.59475" lon="3.32122">
        <ele>76.042</ele>
        <time>2018-10-09T12:22:21Z</time>
      </trkpt>
      <trkpt lat="50.59487" lon="3.32114">
        <ele>75.827133</ele>
        <time>2018-10-09T12:22:23Z</time>
      </trkpt>
      <trkpt lat="50.59498" lon="3.32106">
        <ele>75.554352</ele>
        <time>2018-10-09T12:22:25Z</time>
      </trkpt>
      <trkpt lat="50.59509" lon="3.32097">
        <ele>75.421288</ele>
        <time>2018-10-09T12:22:27Z</time>
      </trkpt>
      <trkpt lat="50.59521" lon="3.32088">
        <ele>75.104797</ele>
        <time>2018-10-09T12:22:29Z</time>
      </trkpt>
      <trkpt lat="50.59532" lon="3.3208">
        <ele>74.724442</ele>
        <time>2018-10-09T12:22:31Z</time>
      </trkpt>
      <trkpt lat="50.59544" lon="3.32074">
        <ele>74.274323</ele>
        <time>2018-10-09T12:22:33Z</time>
      </trkpt>
      <trkpt lat="50.59556" lon="3.32074">
        <ele>73.848083</ele>
        <time>2018-10-09T12:22:35Z</time>
      </trkpt>
      <trkpt lat="50.59569" lon="3.32078">
        <ele>73.323685</ele>
        <time>2018-10-09T12:22:37Z</time>
      </trkpt>
      <trkpt lat="50.59583" lon="3.32083">
        <ele>72.917374</ele>
        <time>2018-10-09T12:22:39Z</time>
      </trkpt>
      <trkpt lat="50.59597" lon="3.32088">
        <ele>72.487411</ele>
        <time>2018-10-09T12:22:41Z</time>
      </trkpt>
      <trkpt lat="50.59611" lon="3.32093">
        <ele>71.976112</ele>
        <time>2018-10-09T12:22:43Z</time>
      </trkpt>
      <trkpt lat="50.59625" lon="3.32097">
        <ele>71.531273</ele>
        <time>2018-10-09T12:22:45Z</time>
      </trkpt>
      <trkpt lat="50.59638" lon="3.32102">
        <ele>71.009773</ele>
        <time>2018-10-09T12:22:47Z</time>
      </trkpt>
      <trkpt lat="50.59653" lon="3.32107">
        <ele>70.418564</ele>
        <time>2018-10-09T12:22:49Z</time>
      </trkpt>
      <trkpt lat="50.59667" lon="3.32112">
        <ele>69.887917</ele>
        <time>2018-10-09T12:22:51Z</time>
      </trkpt>
      <trkpt lat="50.59681" lon="3.32117">
        <ele>69.391228</ele>
        <time>2018-10-09T12:22:53Z</time>
      </trkpt>
      <trkpt lat="50.59695" lon="3.32122">
        <ele>69.088257</ele>
        <time>2018-10-09T12:22:55Z</time>
      </trkpt>
      <trkpt lat="50.59709" lon="3.32127">
        <ele>68.566147</ele>
        <time>2018-10-09T12:22:57Z</time>
      </trkpt>
      <trkpt lat="50.59724" lon="3.32132">
        <ele>68.036278</ele>
        <time>2018-10-09T12:22:59Z</time>
      </trkpt>
      <trkpt lat="50.59739" lon="3.32137">
        <ele>67.443161</ele>
        <time>2018-10-09T12:23:01Z</time>
      </trkpt>
      <trkpt lat="50.59755" lon="3.32142">
        <ele>66.888992</ele>
        <time>2018-10-09T12:23:03Z</time>
      </trkpt>
      <trkpt lat="50.5977" lon="3.32148">
        <ele>66.293648</ele>
        <time>2018-10-09T12:23:05Z</time>
      </trkpt>
      <trkpt lat="50.59785" lon="3.32154">
        <ele>65.798103</ele>
        <time>2018-10-09T12:23:07Z</time>
      </trkpt>
      <trkpt lat="50.598" lon="3.32159">
        <ele>65.237991</ele>
        <time>2018-10-09T12:23:09Z</time>
      </trkpt>
      <trkpt lat="50.59816" lon="3.32164">
        <ele>64.729683</ele>
        <time>2018-10-09T12:23:11Z</time>
      </trkpt>
      <trkpt lat="50.59831" lon="3.32169">
        <ele>64.178032</ele>
        <time>2018-10-09T12:23:13Z</time>
      </trkpt>
      <trkpt lat="50.59845" lon="3.32174">
        <ele>63.707367</ele>
        <time>2018-10-09T12:23:15Z</time>
      </trkpt>
      <trkpt lat="50.5986" lon="3.32179">
        <ele>63.269524</ele>
        <time>2018-10-09T12:23:17Z</time>
      </trkpt>
      <trkpt lat="50.59874" lon="3.32184">
        <ele>62.741638</ele>
        <time>2018-10-09T12:23:19Z</time>
      </trkpt>
      <trkpt lat="50.5989" lon="3.32189">
        <ele>62.172863</ele>
        <time>2018-10-09T12:23:21Z</time>
      </trkpt>
      <trkpt lat="50.59905" lon="3.32194">
        <ele>61.639912</ele>
        <time>2018-10-09T12:23:23Z</time>
      </trkpt>
      <trkpt lat="50.59921" lon="3.32199">
        <ele>61.434681</ele>
        <time>2018-10-09T12:23:25Z</time>
      </trkpt>
      <trkpt lat="50.59935" lon="3.32204">
        <ele>60.907646</ele>
        <time>2018-10-09T12:23:27Z</time>
      </trkpt>
      <trkpt lat="50.59949" lon="3.32209">
        <ele>60.444324</ele>
        <time>2018-10-09T12:23:29Z</time>
      </trkpt>
      <trkpt lat="50.59964" lon="3.32214">
        <ele>60.046837</ele>
        <time>2018-10-09T12:23:31Z</time>
      </trkpt>
      <trkpt lat="50.59978" lon="3.32218">
        <ele>59.580597</ele>
        <time>2018-10-09T12:23:33Z</time>
      </trkpt>
      <trkpt lat="50.59992" lon="3.32223">
        <ele>59.153542</ele>
        <time>2018-10-09T12:23:35Z</time>
      </trkpt>
      <trkpt lat="50.60004" lon="3.3223">
        <ele>58.725147</ele>
        <time>2018-10-09T12:23:37Z</time>
      </trkpt>
      <trkpt lat="50.60015" lon="3.3224">
        <ele>58.279594</ele>
        <time>2018-10-09T12:23:39Z</time>
      </trkpt>
      <trkpt lat="50.60025" lon="3.32254">
        <ele>57.877686</ele>
        <time>2018-10-09T12:23:41Z</time>
      </trkpt>
      <trkpt lat="50.60032" lon="3.32271">
        <ele>57.498322</ele>
        <time>2018-10-09T12:23:43Z</time>
      </trkpt>
      <trkpt lat="50.60039" lon="3.32288">
        <ele>57.174755</ele>
        <time>2018-10-09T12:23:45Z</time>
      </trkpt>
      <trkpt lat="50.60046" lon="3.32306">
        <ele>56.831665</ele>
        <time>2018-10-09T12:23:47Z</time>
      </trkpt>
      <trkpt lat="50.60053" lon="3.32324">
        <ele>56.42173</ele>
        <time>2018-10-09T12:23:49Z</time>
      </trkpt>
      <trkpt lat="50.60061" lon="3.32342">
        <ele>56.035912</ele>
        <time>2018-10-09T12:23:51Z</time>
      </trkpt>
      <trkpt lat="50.60068" lon="3.3236">
        <ele>55.871269</ele>
        <time>2018-10-09T12:23:53Z</time>
      </trkpt>
      <trkpt lat="50.60075" lon="3.32377">
        <ele>55.637962</ele>
        <time>2018-10-09T12:23:55Z</time>
      </trkpt>
      <trkpt lat="50.60082" lon="3.32393">
        <ele>55.316223</ele>
        <time>2018-10-09T12:23:57Z</time>
      </trkpt>
      <trkpt lat="50.60089" lon="3.32409">
        <ele>55.00877</ele>
        <time>2018-10-09T12:23:59Z</time>
      </trkpt>
      <trkpt lat="50.60095" lon="3.32424">
        <ele>54.76844</ele>
        <time>2018-10-09T12:24:01Z</time>
      </trkpt>
      <trkpt lat="50.60101" lon="3.32438">
        <ele>54.515705</ele>
        <time>2018-10-09T12:24:03Z</time>
      </trkpt>
      <trkpt lat="50.60109" lon="3.32453">
        <ele>54.281807</ele>
        <time>2018-10-09T12:24:05Z</time>
      </trkpt>
      <trkpt lat="50.60118" lon="3.32464">
        <ele>54.038086</ele>
        <time>2018-10-09T12:24:07Z</time>
      </trkpt>
      <trkpt lat="50.6013" lon="3.32471">
        <ele>53.755756</ele>
        <time>2018-10-09T12:24:09Z</time>
      </trkpt>
      <trkpt lat="50.60142" lon="3.32474">
        <ele>53.475658</ele>
        <time>2018-10-09T12:24:11Z</time>
      </trkpt>
      <trkpt lat="50.60155" lon="3.32477">
        <ele>53.194977</ele>
        <time>2018-10-09T12:24:13Z</time>
      </trkpt>
      <trkpt lat="50.60168" lon="3.32477">
        <ele>52.922676</ele>
        <time>2018-10-09T12:24:15Z</time>
      </trkpt>
      <trkpt lat="50.6018" lon="3.32472">
        <ele>52.63726</ele>
        <time>2018-10-09T12:24:17Z</time>
      </trkpt>
      <trkpt lat="50.60191" lon="3.32465">
        <ele>52.354755</ele>
        <time>2018-10-09T12:24:19Z</time>
      </trkpt>
      <trkpt lat="50.60203" lon="3.32458">
        <ele>52.132862</ele>
        <time>2018-10-09T12:24:21Z</time>
      </trkpt>
      <trkpt lat="50.60214" lon="3.3245">
        <ele>51.856361</ele>
        <time>2018-10-09T12:24:23Z</time>
      </trkpt>
      <trkpt lat="50.60225" lon="3.32444">
        <ele>51.609718</ele>
        <time>2018-10-09T12:24:25Z</time>
      </trkpt>
      <trkpt lat="50.60237" lon="3.32437">
        <ele>51.488838</ele>
        <time>2018-10-09T12:24:27Z</time>
      </trkpt>
      <trkpt lat="50.60248" lon="3.3243">
        <ele>51.223999</ele>
        <time>2018-10-09T12:24:29Z</time>
      </trkpt>
      <trkpt lat="50.60259" lon="3.32421">
        <ele>50.977741</ele>
        <time>2018-10-09T12:24:31Z</time>
      </trkpt>
      <trkpt lat="50.6027" lon="3.32412">
        <ele>50.814636</ele>
        <time>2018-10-09T12:24:33Z</time>
      </trkpt>
      <trkpt lat="50.6028" lon="3.32403">
        <ele>50.569836</ele>
        <time>2018-10-09T12:24:35Z</time>
      </trkpt>
      <trkpt lat="50.6029" lon="3.32394">
        <ele>50.313789</ele>
        <time>2018-10-09T12:24:37Z</time>
      </trkpt>
      <trkpt lat="50.603" lon="3.32384">
        <ele>50.052326</ele>
        <time>2018-10-09T12:24:39Z</time>
      </trkpt>
      <trkpt lat="50.6031" lon="3.32374">
        <ele>49.751179</ele>
        <time>2018-10-09T12:24:41Z</time>
      </trkpt>
      <trkpt lat="50.6032" lon="3.32366">
        <ele>49.513348</ele>
        <time>2018-10-09T12:24:43Z</time>
      </trkpt>
      <trkpt lat="50.6033" lon="3.32357">
        <ele>49.260853</ele>
        <time>2018-10-09T12:24:45Z</time>
      </trkpt>
      <trkpt lat="50.60339" lon="3.32349">
        <ele>49.009949</ele>
        <time>2018-10-09T12:24:47Z</time>
      </trkpt>
      <trkpt lat="50.60349" lon="3.3234">
        <ele>48.797485</ele>
        <time>2018-10-09T12:24:49Z</time>
      </trkpt>
      <trkpt lat="50.60358" lon="3.32332">
        <ele>48.564369</ele>
        <time>2018-10-09T12:24:51Z</time>
      </trkpt>
      <trkpt lat="50.60368" lon="3.32323">
        <ele>48.385242</ele>
        <time>2018-10-09T12:24:53Z</time>
      </trkpt>
      <trkpt lat="50.60377" lon="3.32313">
        <ele>48.200188</ele>
        <time>2018-10-09T12:24:55Z</time>
      </trkpt>
      <trkpt lat="50.60386" lon="3.32304">
        <ele>48.013458</ele>
        <time>2018-10-09T12:24:57Z</time>
      </trkpt>
      <trkpt lat="50.60394" lon="3.32296">
        <ele>47.814827</ele>
        <time>2018-10-09T12:24:59Z</time>
      </trkpt>
      <trkpt lat="50.60402" lon="3.3229">
        <ele>47.713642</ele>
        <time>2018-10-09T12:25:01Z</time>
      </trkpt>
      <trkpt lat="50.60408" lon="3.32284">
        <ele>47.493755</ele>
        <time>2018-10-09T12:25:03Z</time>
      </trkpt>
      <trkpt lat="50.60412" lon="3.3228">
        <ele>47.310528</ele>
        <time>2018-10-09T12:25:05Z</time>
      </trkpt>
      <trkpt lat="50.60416" lon="3.3228">
        <ele>47.15501</ele>
        <time>2018-10-09T12:25:07Z</time>
      </trkpt>
      <trkpt lat="50.60418" lon="3.32279">
        <ele>46.999962</ele>
        <time>2018-10-09T12:25:09Z</time>
      </trkpt>
      <trkpt lat="50.60421" lon="3.32278">
        <ele>46.828911</ele>
        <time>2018-10-09T12:25:11Z</time>
      </trkpt>
      <trkpt lat="50.60424" lon="3.32274">
        <ele>46.69265</ele>
        <time>2018-10-09T12:25:13Z</time>
      </trkpt>
      <trkpt lat="50.60427" lon="3.32269">
        <ele>46.509659</ele>
        <time>2018-10-09T12:25:15Z</time>
      </trkpt>
      <trkpt lat="50.60429" lon="3.32261">
        <ele>46.348</ele>
        <time>2018-10-09T12:25:17Z</time>
      </trkpt>
      <trkpt lat="50.60432" lon="3.32253">
        <ele>46.274227</ele>
        <time>2018-10-09T12:25:19Z</time>
      </trkpt>
      <trkpt lat="50.60437" lon="3.32249">
        <ele>46.198208</ele>
        <time>2018-10-09T12:25:21Z</time>
      </trkpt>
      <trkpt lat="50.60444" lon="3.32248">
        <ele>46.152054</ele>
        <time>2018-10-09T12:25:23Z</time>
      </trkpt>
      <trkpt lat="50.6045" lon="3.3225">
        <ele>46.095604</ele>
        <time>2018-10-09T12:25:25Z</time>
      </trkpt>
      <trkpt lat="50.60456" lon="3.32252">
        <ele>46.036556</ele>
        <time>2018-10-09T12:25:27Z</time>
      </trkpt>
      <trkpt lat="50.60463" lon="3.32254">
        <ele>45.961452</ele>
        <time>2018-10-09T12:25:29Z</time>
      </trkpt>
      <trkpt lat="50.6047" lon="3.32255">
        <ele>45.908684</ele>
        <time>2018-10-09T12:25:31Z</time>
      </trkpt>
      <trkpt lat="50.60477" lon="3.32257">
        <ele>45.823605</ele>
        <time>2018-10-09T12:25:33Z</time>
      </trkpt>
      <trkpt lat="50.60483" lon="3.32258">
        <ele>45.772762</ele>
        <time>2018-10-09T12:25:35Z</time>
      </trkpt>
      <trkpt lat="50.60488" lon="3.3226">
        <ele>45.71096</ele>
        <time>2018-10-09T12:25:37Z</time>
      </trkpt>
      <trkpt lat="50.60493" lon="3.32262">
        <ele>45.664333</ele>
        <time>2018-10-09T12:25:39Z</time>
      </trkpt>
      <trkpt lat="50.60498" lon="3.32265">
        <ele>45.6325</ele>
        <time>2018-10-09T12:25:41Z</time>
      </trkpt>
      <trkpt lat="50.60502" lon="3.32273">
        <ele>45.566818</ele>
        <time>2018-10-09T12:25:43Z</time>
      </trkpt>
      <trkpt lat="50.60507" lon="3.32282">
        <ele>45.545609</ele>
        <time>2018-10-09T12:25:45Z</time>
      </trkpt>
      <trkpt lat="50.60511" lon="3.32291">
        <ele>45.526802</ele>
        <time>2018-10-09T12:25:47Z</time>
      </trkpt>
      <trkpt lat="50.60518" lon="3.32299">
        <ele>45.451603</ele>
        <time>2018-10-09T12:25:49Z</time>
      </trkpt>
      <trkpt lat="50.60524" lon="3.32306">
        <ele>45.429508</ele>
        <time>2018-10-09T12:25:51Z</time>
      </trkpt>
      <trkpt lat="50.60531" lon="3.32313">
        <ele>45.367935</ele>
        <time>2018-10-09T12:25:53Z</time>
      </trkpt>
      <trkpt lat="50.60538" lon="3.32319">
        <ele>45.349213</ele>
        <time>2018-10-09T12:25:55Z</time>
      </trkpt>
      <trkpt lat="50.60545" lon="3.32325">
        <ele>45.312424</ele>
        <time>2018-10-09T12:25:57Z</time>
      </trkpt>
      <trkpt lat="50.60553" lon="3.32331">
        <ele>45.264404</ele>
        <time>2018-10-09T12:25:59Z</time>
      </trkpt>
      <trkpt lat="50.60561" lon="3.32339">
        <ele>45.180035</ele>
        <time>2018-10-09T12:26:01Z</time>
      </trkpt>
      <trkpt lat="50.60568" lon="3.32346">
        <ele>45.124855</ele>
        <time>2018-10-09T12:26:03Z</time>
      </trkpt>
      <trkpt lat="50.60575" lon="3.32354">
        <ele>45.037323</ele>
        <time>2018-10-09T12:26:05Z</time>
      </trkpt>
      <trkpt lat="50.60582" lon="3.32362">
        <ele>44.941132</ele>
        <time>2018-10-09T12:26:07Z</time>
      </trkpt>
      <trkpt lat="50.60589" lon="3.32369">
        <ele>44.863914</ele>
        <time>2018-10-09T12:26:09Z</time>
      </trkpt>
      <trkpt lat="50.60595" lon="3.32377">
        <ele>44.789112</ele>
        <time>2018-10-09T12:26:11Z</time>
      </trkpt>
      <trkpt lat="50.60601" lon="3.32384">
        <ele>44.717712</ele>
        <time>2018-10-09T12:26:13Z</time>
      </trkpt>
      <trkpt lat="50.60607" lon="3.3239">
        <ele>44.639992</ele>
        <time>2018-10-09T12:26:15Z</time>
      </trkpt>
      <trkpt lat="50.60614" lon="3.32393">
        <ele>44.55434</ele>
        <time>2018-10-09T12:26:17Z</time>
      </trkpt>
      <trkpt lat="50.60619" lon="3.32389">
        <ele>44.454266</ele>
        <time>2018-10-09T12:26:19Z</time>
      </trkpt>
      <trkpt lat="50.60624" lon="3.32379">
        <ele>44.34148</ele>
        <time>2018-10-09T12:26:21Z</time>
      </trkpt>
      <trkpt lat="50.60629" lon="3.32367">
        <ele>44.294949</ele>
        <time>2018-10-09T12:26:23Z</time>
      </trkpt>
      <trkpt lat="50.60633" lon="3.32353">
        <ele>44.236504</ele>
        <time>2018-10-09T12:26:25Z</time>
      </trkpt>
      <trkpt lat="50.60637" lon="3.32338">
        <ele>44.097507</ele>
        <time>2018-10-09T12:26:27Z</time>
      </trkpt>
      <trkpt lat="50.60642" lon="3.32323">
        <ele>43.957893</ele>
        <time>2018-10-09T12:26:29Z</time>
      </trkpt>
      <trkpt lat="50.60646" lon="3.32309">
        <ele>43.823307</ele>
        <time>2018-10-09T12:26:31Z</time>
      </trkpt>
      <trkpt lat="50.6065" lon="3.32295">
        <ele>43.722343</ele>
        <time>2018-10-09T12:26:33Z</time>
      </trkpt>
      <trkpt lat="50.60655" lon="3.32281">
        <ele>43.6096</ele>
        <time>2018-10-09T12:26:35Z</time>
      </trkpt>
      <trkpt lat="50.60659" lon="3.32268">
        <ele>43.508995</ele>
        <time>2018-10-09T12:26:37Z</time>
      </trkpt>
      <trkpt lat="50.60664" lon="3.32256">
        <ele>43.399242</ele>
        <time>2018-10-09T12:26:39Z</time>
      </trkpt>
      <trkpt lat="50.60669" lon="3.32245">
        <ele>43.304405</ele>
        <time>2018-10-09T12:26:41Z</time>
      </trkpt>
      <trkpt lat="50.60673" lon="3.32234">
        <ele>43.144634</ele>
        <time>2018-10-09T12:26:43Z</time>
      </trkpt>
      <trkpt lat="50.60677" lon="3.32223">
        <ele>42.930042</ele>
        <time>2018-10-09T12:26:45Z</time>
      </trkpt>
      <trkpt lat="50.60681" lon="3.32213">
        <ele>42.828148</ele>
        <time>2018-10-09T12:26:47Z</time>
      </trkpt>
      <trkpt lat="50.60684" lon="3.32203">
        <ele>42.662567</ele>
        <time>2018-10-09T12:26:49Z</time>
      </trkpt>
      <trkpt lat="50.60687" lon="3.32193">
        <ele>42.468872</ele>
        <time>2018-10-09T12:26:51Z</time>
      </trkpt>
      <trkpt lat="50.60691" lon="3.32182">
        <ele>42.306263</ele>
        <time>2018-10-09T12:26:53Z</time>
      </trkpt>
      <trkpt lat="50.60695" lon="3.32169">
        <ele>42.147591</ele>
        <time>2018-10-09T12:26:55Z</time>
      </trkpt>
      <trkpt lat="50.607" lon="3.32156">
        <ele>42.11269</ele>
        <time>2018-10-09T12:26:57Z</time>
      </trkpt>
      <trkpt lat="50.60704" lon="3.32143">
        <ele>41.939178</ele>
        <time>2018-10-09T12:26:59Z</time>
      </trkpt>
      <trkpt lat="50.60708" lon="3.3213">
        <ele>41.795593</ele>
        <time>2018-10-09T12:27:01Z</time>
      </trkpt>
      <trkpt lat="50.60712" lon="3.32118">
        <ele>41.608154</ele>
        <time>2018-10-09T12:27:03Z</time>
      </trkpt>
      <trkpt lat="50.60716" lon="3.32106">
        <ele>41.437958</ele>
        <time>2018-10-09T12:27:05Z</time>
      </trkpt>
      <trkpt lat="50.6072" lon="3.32093">
        <ele>41.279915</ele>
        <time>2018-10-09T12:27:07Z</time>
      </trkpt>
      <trkpt lat="50.60725" lon="3.32081">
        <ele>41.146778</ele>
        <time>2018-10-09T12:27:09Z</time>
      </trkpt>
      <trkpt lat="50.6073" lon="3.32068">
        <ele>41.02235</ele>
        <time>2018-10-09T12:27:11Z</time>
      </trkpt>
      <trkpt lat="50.60735" lon="3.32056">
        <ele>40.911129</ele>
        <time>2018-10-09T12:27:13Z</time>
      </trkpt>
      <trkpt lat="50.60741" lon="3.32044">
        <ele>40.773945</ele>
        <time>2018-10-09T12:27:15Z</time>
      </trkpt>
      <trkpt lat="50.60747" lon="3.32032">
        <ele>40.629356</ele>
        <time>2018-10-09T12:27:17Z</time>
      </trkpt>
      <trkpt lat="50.60754" lon="3.3202">
        <ele>40.510715</ele>
        <time>2018-10-09T12:27:19Z</time>
      </trkpt>
      <trkpt lat="50.60761" lon="3.32009">
        <ele>40.392082</ele>
        <time>2018-10-09T12:27:21Z</time>
      </trkpt>
      <trkpt lat="50.60768" lon="3.31997">
        <ele>40.306511</ele>
        <time>2018-10-09T12:27:23Z</time>
      </trkpt>
      <trkpt lat="50.60775" lon="3.31985">
        <ele>40.277683</ele>
        <time>2018-10-09T12:27:25Z</time>
      </trkpt>
      <trkpt lat="50.60781" lon="3.31972">
        <ele>40.208092</ele>
        <time>2018-10-09T12:27:27Z</time>
      </trkpt>
      <trkpt lat="50.60788" lon="3.31959">
        <ele>40.119854</ele>
        <time>2018-10-09T12:27:29Z</time>
      </trkpt>
      <trkpt lat="50.60794" lon="3.31947">
        <ele>40.048599</ele>
        <time>2018-10-09T12:27:31Z</time>
      </trkpt>
      <trkpt lat="50.608" lon="3.31936">
        <ele>39.988289</ele>
        <time>2018-10-09T12:27:33Z</time>
      </trkpt>
      <trkpt lat="50.60806" lon="3.31927">
        <ele>39.939178</ele>
        <time>2018-10-09T12:27:35Z</time>
      </trkpt>
      <trkpt lat="50.60814" lon="3.31922">
        <ele>39.865318</ele>
        <time>2018-10-09T12:27:37Z</time>
      </trkpt>
      <trkpt lat="50.60823" lon="3.31925">
        <ele>39.789261</ele>
        <time>2018-10-09T12:27:39Z</time>
      </trkpt>
      <trkpt lat="50.60833" lon="3.31934">
        <ele>39.682358</ele>
        <time>2018-10-09T12:27:41Z</time>
      </trkpt>
      <trkpt lat="50.60842" lon="3.31943">
        <ele>39.615841</ele>
        <time>2018-10-09T12:27:43Z</time>
      </trkpt>
      <trkpt lat="50.60851" lon="3.31951">
        <ele>39.532784</ele>
        <time>2018-10-09T12:27:45Z</time>
      </trkpt>
      <trkpt lat="50.60861" lon="3.31959">
        <ele>39.430923</ele>
        <time>2018-10-09T12:27:47Z</time>
      </trkpt>
      <trkpt lat="50.60871" lon="3.31967">
        <ele>39.367256</ele>
        <time>2018-10-09T12:27:49Z</time>
      </trkpt>
      <trkpt lat="50.60881" lon="3.31976">
        <ele>39.27272</ele>
        <time>2018-10-09T12:27:51Z</time>
      </trkpt>
      <trkpt lat="50.60891" lon="3.31985">
        <ele>39.133652</ele>
        <time>2018-10-09T12:27:53Z</time>
      </trkpt>
      <trkpt lat="50.60901" lon="3.31993">
        <ele>39.024792</ele>
        <time>2018-10-09T12:27:55Z</time>
      </trkpt>
      <trkpt lat="50.60909" lon="3.32">
        <ele>38.906914</ele>
        <time>2018-10-09T12:27:57Z</time>
      </trkpt>
      <trkpt lat="50.60917" lon="3.32007">
        <ele>38.811836</ele>
        <time>2018-10-09T12:27:59Z</time>
      </trkpt>
      <trkpt lat="50.60923" lon="3.32012">
        <ele>38.63641</ele>
        <time>2018-10-09T12:28:01Z</time>
      </trkpt>
      <trkpt lat="50.6093" lon="3.32017">
        <ele>38.482704</ele>
        <time>2018-10-09T12:28:03Z</time>
      </trkpt>
      <trkpt lat="50.60934" lon="3.32021">
        <ele>38.355038</ele>
        <time>2018-10-09T12:28:05Z</time>
      </trkpt>
      <trkpt lat="50.60938" lon="3.32025">
        <ele>38.241604</ele>
        <time>2018-10-09T12:28:07Z</time>
      </trkpt>
      <trkpt lat="50.60943" lon="3.32027">
        <ele>38.1208</ele>
        <time>2018-10-09T12:28:09Z</time>
      </trkpt>
      <trkpt lat="50.60949" lon="3.32025">
        <ele>37.989967</ele>
        <time>2018-10-09T12:28:11Z</time>
      </trkpt>
      <trkpt lat="50.60955" lon="3.32018">
        <ele>37.891838</ele>
        <time>2018-10-09T12:28:13Z</time>
      </trkpt>
      <trkpt lat="50.6096" lon="3.32007">
        <ele>37.809181</ele>
        <time>2018-10-09T12:28:15Z</time>
      </trkpt>
      <trkpt lat="50.60966" lon="3.31996">
        <ele>37.699932</ele>
        <time>2018-10-09T12:28:17Z</time>
      </trkpt>
      <trkpt lat="50.60972" lon="3.31984">
        <ele>37.619946</ele>
        <time>2018-10-09T12:28:19Z</time>
      </trkpt>
      <trkpt lat="50.60977" lon="3.31974">
        <ele>37.544041</ele>
        <time>2018-10-09T12:28:21Z</time>
      </trkpt>
      <trkpt lat="50.60982" lon="3.31963">
        <ele>37.506165</ele>
        <time>2018-10-09T12:28:23Z</time>
      </trkpt>
      <trkpt lat="50.60987" lon="3.31952">
        <ele>37.519085</ele>
        <time>2018-10-09T12:28:25Z</time>
      </trkpt>
      <trkpt lat="50.60992" lon="3.31941">
        <ele>37.505898</ele>
        <time>2018-10-09T12:28:27Z</time>
      </trkpt>
      <trkpt lat="50.60997" lon="3.31929">
        <ele>37.52409</ele>
        <time>2018-10-09T12:28:29Z</time>
      </trkpt>
      <trkpt lat="50.61002" lon="3.31918">
        <ele>37.592506</ele>
        <time>2018-10-09T12:28:31Z</time>
      </trkpt>
      <trkpt lat="50.61008" lon="3.31906">
        <ele>37.674263</ele>
        <time>2018-10-09T12:28:33Z</time>
      </trkpt>
      <trkpt lat="50.61013" lon="3.31894">
        <ele>37.790958</ele>
        <time>2018-10-09T12:28:35Z</time>
      </trkpt>
      <trkpt lat="50.6102" lon="3.31882">
        <ele>37.926811</ele>
        <time>2018-10-09T12:28:37Z</time>
      </trkpt>
      <trkpt lat="50.61025" lon="3.3187">
        <ele>38.045845</ele>
        <time>2018-10-09T12:28:39Z</time>
      </trkpt>
      <trkpt lat="50.61031" lon="3.31858">
        <ele>38.26936</ele>
        <time>2018-10-09T12:28:41Z</time>
      </trkpt>
      <trkpt lat="50.61036" lon="3.31846">
        <ele>38.493496</ele>
        <time>2018-10-09T12:28:43Z</time>
      </trkpt>
      <trkpt lat="50.61042" lon="3.31834">
        <ele>38.727928</ele>
        <time>2018-10-09T12:28:45Z</time>
      </trkpt>
      <trkpt lat="50.61047" lon="3.31822">
        <ele>38.98698</ele>
        <time>2018-10-09T12:28:47Z</time>
      </trkpt>
      <trkpt lat="50.61052" lon="3.31811">
        <ele>39.256401</ele>
        <time>2018-10-09T12:28:49Z</time>
      </trkpt>
      <trkpt lat="50.61057" lon="3.31799">
        <ele>39.568256</ele>
        <time>2018-10-09T12:28:51Z</time>
      </trkpt>
      <trkpt lat="50.61063" lon="3.31787">
        <ele>39.705547</ele>
        <time>2018-10-09T12:28:53Z</time>
      </trkpt>
      <trkpt lat="50.61069" lon="3.31776">
        <ele>40.004906</ele>
        <time>2018-10-09T12:28:55Z</time>
      </trkpt>
      <trkpt lat="50.61074" lon="3.31764">
        <ele>40.340012</ele>
        <time>2018-10-09T12:28:57Z</time>
      </trkpt>
      <trkpt lat="50.61079" lon="3.31752">
        <ele>40.692997</ele>
        <time>2018-10-09T12:28:59Z</time>
      </trkpt>
      <trkpt lat="50.61085" lon="3.3174">
        <ele>41.029808</ele>
        <time>2018-10-09T12:29:01Z</time>
      </trkpt>
      <trkpt lat="50.6109" lon="3.31729">
        <ele>41.383736</ele>
        <time>2018-10-09T12:29:03Z</time>
      </trkpt>
      <trkpt lat="50.61095" lon="3.31718">
        <ele>41.755501</ele>
        <time>2018-10-09T12:29:05Z</time>
      </trkpt>
      <trkpt lat="50.61101" lon="3.31707">
        <ele>42.159714</ele>
        <time>2018-10-09T12:29:07Z</time>
      </trkpt>
      <trkpt lat="50.61107" lon="3.31696">
        <ele>42.498035</ele>
        <time>2018-10-09T12:29:09Z</time>
      </trkpt>
      <trkpt lat="50.61113" lon="3.31685">
        <ele>42.900558</ele>
        <time>2018-10-09T12:29:11Z</time>
      </trkpt>
      <trkpt lat="50.61118" lon="3.31673">
        <ele>43.292671</ele>
        <time>2018-10-09T12:29:13Z</time>
      </trkpt>
      <trkpt lat="50.61124" lon="3.31662">
        <ele>43.686729</ele>
        <time>2018-10-09T12:29:15Z</time>
      </trkpt>
      <trkpt lat="50.6113" lon="3.3165">
        <ele>44.064888</ele>
        <time>2018-10-09T12:29:17Z</time>
      </trkpt>
      <trkpt lat="50.61136" lon="3.31638">
        <ele>44.425377</ele>
        <time>2018-10-09T12:29:19Z</time>
      </trkpt>
      <trkpt lat="50.61142" lon="3.31627">
        <ele>44.812302</ele>
        <time>2018-10-09T12:29:21Z</time>
      </trkpt>
      <trkpt lat="50.61148" lon="3.31616">
        <ele>45.154995</ele>
        <time>2018-10-09T12:29:23Z</time>
      </trkpt>
      <trkpt lat="50.61154" lon="3.31604">
        <ele>45.431633</ele>
        <time>2018-10-09T12:29:25Z</time>
      </trkpt>
      <trkpt lat="50.61161" lon="3.31593">
        <ele>45.744255</ele>
        <time>2018-10-09T12:29:27Z</time>
      </trkpt>
      <trkpt lat="50.61168" lon="3.31582">
        <ele>46.040894</ele>
        <time>2018-10-09T12:29:29Z</time>
      </trkpt>
      <trkpt lat="50.61174" lon="3.3157">
        <ele>46.321133</ele>
        <time>2018-10-09T12:29:31Z</time>
      </trkpt>
      <trkpt lat="50.61181" lon="3.31559">
        <ele>46.450806</ele>
        <time>2018-10-09T12:29:33Z</time>
      </trkpt>
      <trkpt lat="50.61188" lon="3.31548">
        <ele>46.751682</ele>
        <time>2018-10-09T12:29:35Z</time>
      </trkpt>
      <trkpt lat="50.61194" lon="3.31538">
        <ele>47.057922</ele>
        <time>2018-10-09T12:29:37Z</time>
      </trkpt>
      <trkpt lat="50.61202" lon="3.31527">
        <ele>47.329262</ele>
        <time>2018-10-09T12:29:39Z</time>
      </trkpt>
      <trkpt lat="50.61208" lon="3.31515">
        <ele>47.573997</ele>
        <time>2018-10-09T12:29:41Z</time>
      </trkpt>
      <trkpt lat="50.61214" lon="3.31503">
        <ele>47.795612</ele>
        <time>2018-10-09T12:29:43Z</time>
      </trkpt>
      <trkpt lat="50.61221" lon="3.31492">
        <ele>47.998646</ele>
        <time>2018-10-09T12:29:45Z</time>
      </trkpt>
      <trkpt lat="50.61227" lon="3.3148">
        <ele>48.216244</ele>
        <time>2018-10-09T12:29:47Z</time>
      </trkpt>
      <trkpt lat="50.61234" lon="3.31469">
        <ele>48.383659</ele>
        <time>2018-10-09T12:29:49Z</time>
      </trkpt>
      <trkpt lat="50.61241" lon="3.31457">
        <ele>48.542259</ele>
        <time>2018-10-09T12:29:51Z</time>
      </trkpt>
      <trkpt lat="50.61247" lon="3.31445">
        <ele>48.637249</ele>
        <time>2018-10-09T12:29:53Z</time>
      </trkpt>
      <trkpt lat="50.61254" lon="3.31432">
        <ele>48.719463</ele>
        <time>2018-10-09T12:29:55Z</time>
      </trkpt>
      <trkpt lat="50.61261" lon="3.3142">
        <ele>48.810955</ele>
        <time>2018-10-09T12:29:57Z</time>
      </trkpt>
      <trkpt lat="50.61267" lon="3.31408">
        <ele>48.864128</ele>
        <time>2018-10-09T12:29:59Z</time>
      </trkpt>
      <trkpt lat="50.61274" lon="3.31397">
        <ele>48.903362</ele>
        <time>2018-10-09T12:30:01Z</time>
      </trkpt>
      <trkpt lat="50.61281" lon="3.31384">
        <ele>48.859741</ele>
        <time>2018-10-09T12:30:03Z</time>
      </trkpt>
      <trkpt lat="50.61288" lon="3.31373">
        <ele>48.876331</ele>
        <time>2018-10-09T12:30:05Z</time>
      </trkpt>
      <trkpt lat="50.61295" lon="3.3136">
        <ele>48.92931</ele>
        <time>2018-10-09T12:30:07Z</time>
      </trkpt>
      <trkpt lat="50.61303" lon="3.31348">
        <ele>48.930927</ele>
        <time>2018-10-09T12:30:09Z</time>
      </trkpt>
      <trkpt lat="50.6131" lon="3.31334">
        <ele>48.954376</ele>
        <time>2018-10-09T12:30:11Z</time>
      </trkpt>
      <trkpt lat="50.61318" lon="3.31321">
        <ele>48.912457</ele>
        <time>2018-10-09T12:30:13Z</time>
      </trkpt>
      <trkpt lat="50.61326" lon="3.31307">
        <ele>48.886749</ele>
        <time>2018-10-09T12:30:15Z</time>
      </trkpt>
      <trkpt lat="50.61333" lon="3.31292">
        <ele>48.798531</ele>
        <time>2018-10-09T12:30:17Z</time>
      </trkpt>
      <trkpt lat="50.61341" lon="3.31277">
        <ele>48.675404</ele>
        <time>2018-10-09T12:30:19Z</time>
      </trkpt>
      <trkpt lat="50.61349" lon="3.31263">
        <ele>48.523521</ele>
        <time>2018-10-09T12:30:21Z</time>
      </trkpt>
      <trkpt lat="50.61356" lon="3.31248">
        <ele>48.333961</ele>
        <time>2018-10-09T12:30:23Z</time>
      </trkpt>
      <trkpt lat="50.61363" lon="3.31231">
        <ele>48.135986</ele>
        <time>2018-10-09T12:30:25Z</time>
      </trkpt>
      <trkpt lat="50.61368" lon="3.31213">
        <ele>47.906013</ele>
        <time>2018-10-09T12:30:27Z</time>
      </trkpt>
      <trkpt lat="50.61375" lon="3.31196">
        <ele>47.670856</ele>
        <time>2018-10-09T12:30:29Z</time>
      </trkpt>
      <trkpt lat="50.6138" lon="3.3118">
        <ele>47.392921</ele>
        <time>2018-10-09T12:30:31Z</time>
      </trkpt>
      <trkpt lat="50.61387" lon="3.31164">
        <ele>47.150391</ele>
        <time>2018-10-09T12:30:33Z</time>
      </trkpt>
      <trkpt lat="50.61392" lon="3.31149">
        <ele>46.84845</ele>
        <time>2018-10-09T12:30:35Z</time>
      </trkpt>
      <trkpt lat="50.61397" lon="3.31134">
        <ele>46.552986</ele>
        <time>2018-10-09T12:30:37Z</time>
      </trkpt>
      <trkpt lat="50.61403" lon="3.31119">
        <ele>46.295662</ele>
        <time>2018-10-09T12:30:39Z</time>
      </trkpt>
      <trkpt lat="50.61409" lon="3.31104">
        <ele>46.154926</ele>
        <time>2018-10-09T12:30:41Z</time>
      </trkpt>
      <trkpt lat="50.61414" lon="3.31089">
        <ele>45.894722</ele>
        <time>2018-10-09T12:30:43Z</time>
      </trkpt>
      <trkpt lat="50.6142" lon="3.31074">
        <ele>45.624458</ele>
        <time>2018-10-09T12:30:45Z</time>
      </trkpt>
      <trkpt lat="50.61426" lon="3.31059">
        <ele>45.294533</ele>
        <time>2018-10-09T12:30:47Z</time>
      </trkpt>
      <trkpt lat="50.61432" lon="3.31043">
        <ele>45.003025</ele>
        <time>2018-10-09T12:30:49Z</time>
      </trkpt>
      <trkpt lat="50.61437" lon="3.31027">
        <ele>44.685402</ele>
        <time>2018-10-09T12:30:51Z</time>
      </trkpt>
      <trkpt lat="50.61441" lon="3.31011">
        <ele>44.369148</ele>
        <time>2018-10-09T12:30:53Z</time>
      </trkpt>
      <trkpt lat="50.61446" lon="3.30996">
        <ele>44.039597</ele>
        <time>2018-10-09T12:30:55Z</time>
      </trkpt>
      <trkpt lat="50.61451" lon="3.30981">
        <ele>43.715431</ele>
        <time>2018-10-09T12:30:57Z</time>
      </trkpt>
      <trkpt lat="50.61457" lon="3.30966">
        <ele>43.48428</ele>
        <time>2018-10-09T12:30:59Z</time>
      </trkpt>
      <trkpt lat="50.61462" lon="3.30952">
        <ele>43.253311</ele>
        <time>2018-10-09T12:31:01Z</time>
      </trkpt>
      <trkpt lat="50.61466" lon="3.30939">
        <ele>43.076866</ele>
        <time>2018-10-09T12:31:03Z</time>
      </trkpt>
      <trkpt lat="50.61471" lon="3.30925">
        <ele>42.837887</ele>
        <time>2018-10-09T12:31:05Z</time>
      </trkpt>
      <trkpt lat="50.61476" lon="3.30911">
        <ele>42.711075</ele>
        <time>2018-10-09T12:31:07Z</time>
      </trkpt>
      <trkpt lat="50.6148" lon="3.30897">
        <ele>42.54644</ele>
        <time>2018-10-09T12:31:09Z</time>
      </trkpt>
      <trkpt lat="50.61485" lon="3.30883">
        <ele>42.372879</ele>
        <time>2018-10-09T12:31:11Z</time>
      </trkpt>
      <trkpt lat="50.6149" lon="3.30869">
        <ele>42.246582</ele>
        <time>2018-10-09T12:31:13Z</time>
      </trkpt>
      <trkpt lat="50.61495" lon="3.30855">
        <ele>42.106457</ele>
        <time>2018-10-09T12:31:15Z</time>
      </trkpt>
      <trkpt lat="50.61499" lon="3.30841">
        <ele>42.038136</ele>
        <time>2018-10-09T12:31:17Z</time>
      </trkpt>
      <trkpt lat="50.61504" lon="3.30827">
        <ele>41.994843</ele>
        <time>2018-10-09T12:31:19Z</time>
      </trkpt>
      <trkpt lat="50.61509" lon="3.30812">
        <ele>41.911491</ele>
        <time>2018-10-09T12:31:21Z</time>
      </trkpt>
      <trkpt lat="50.61514" lon="3.30798">
        <ele>41.840889</ele>
        <time>2018-10-09T12:31:23Z</time>
      </trkpt>
      <trkpt lat="50.61519" lon="3.30784">
        <ele>41.723808</ele>
        <time>2018-10-09T12:31:25Z</time>
      </trkpt>
      <trkpt lat="50.61524" lon="3.3077">
        <ele>41.658577</ele>
        <time>2018-10-09T12:31:27Z</time>
      </trkpt>
      <trkpt lat="50.61529" lon="3.30757">
        <ele>41.600555</ele>
        <time>2018-10-09T12:31:29Z</time>
      </trkpt>
      <trkpt lat="50.61534" lon="3.30744">
        <ele>41.509819</ele>
        <time>2018-10-09T12:31:31Z</time>
      </trkpt>
      <trkpt lat="50.61541" lon="3.30733">
        <ele>41.520828</ele>
        <time>2018-10-09T12:31:33Z</time>
      </trkpt>
      <trkpt lat="50.61547" lon="3.30721">
        <ele>41.459209</ele>
        <time>2018-10-09T12:31:35Z</time>
      </trkpt>
      <trkpt lat="50.61554" lon="3.3071">
        <ele>41.455196</ele>
        <time>2018-10-09T12:31:37Z</time>
      </trkpt>
      <trkpt lat="50.6156" lon="3.30699">
        <ele>41.458729</ele>
        <time>2018-10-09T12:31:39Z</time>
      </trkpt>
      <trkpt lat="50.61567" lon="3.30689">
        <ele>41.386555</ele>
        <time>2018-10-09T12:31:41Z</time>
      </trkpt>
      <trkpt lat="50.61574" lon="3.3068">
        <ele>41.393799</ele>
        <time>2018-10-09T12:31:43Z</time>
      </trkpt>
      <trkpt lat="50.6158" lon="3.3067">
        <ele>41.400871</ele>
        <time>2018-10-09T12:31:45Z</time>
      </trkpt>
      <trkpt lat="50.61587" lon="3.3066">
        <ele>41.422688</ele>
        <time>2018-10-09T12:31:47Z</time>
      </trkpt>
      <trkpt lat="50.61593" lon="3.3065">
        <ele>41.41021</ele>
        <time>2018-10-09T12:31:49Z</time>
      </trkpt>
      <trkpt lat="50.61599" lon="3.30642">
        <ele>41.427227</ele>
        <time>2018-10-09T12:31:51Z</time>
      </trkpt>
      <trkpt lat="50.61604" lon="3.30636">
        <ele>41.432713</ele>
        <time>2018-10-09T12:31:53Z</time>
      </trkpt>
      <trkpt lat="50.61609" lon="3.3063">
        <ele>41.411602</ele>
        <time>2018-10-09T12:31:55Z</time>
      </trkpt>
      <trkpt lat="50.61613" lon="3.30623">
        <ele>41.398521</ele>
        <time>2018-10-09T12:31:57Z</time>
      </trkpt>
      <trkpt lat="50.61617" lon="3.30615">
        <ele>41.394409</ele>
        <time>2018-10-09T12:31:59Z</time>
      </trkpt>
      <trkpt lat="50.6162" lon="3.30608">
        <ele>41.378262</ele>
        <time>2018-10-09T12:32:01Z</time>
      </trkpt>
      <trkpt lat="50.61623" lon="3.30605">
        <ele>41.33633</ele>
        <time>2018-10-09T12:32:03Z</time>
      </trkpt>
      <trkpt lat="50.61625" lon="3.30603">
        <ele>41.291496</ele>
        <time>2018-10-09T12:32:08Z</time>
      </trkpt>
      <trkpt lat="50.61626" lon="3.30601">
        <ele>41.262745</ele>
        <time>2018-10-09T12:32:10Z</time>
      </trkpt>
      <trkpt lat="50.61628" lon="3.306">
        <ele>41.260254</ele>
        <time>2018-10-09T12:32:12Z</time>
      </trkpt>
      <trkpt lat="50.61632" lon="3.30591">
        <ele>41.173687</ele>
        <time>2018-10-09T12:32:50Z</time>
      </trkpt>
      <trkpt lat="50.61636" lon="3.30582">
        <ele>41.202427</ele>
        <time>2018-10-09T12:32:52Z</time>
      </trkpt>
      <trkpt lat="50.6164" lon="3.30574">
        <ele>41.227928</ele>
        <time>2018-10-09T12:32:54Z</time>
      </trkpt>
      <trkpt lat="50.61644" lon="3.30563">
        <ele>41.216618</ele>
        <time>2018-10-09T12:32:56Z</time>
      </trkpt>
      <trkpt lat="50.61649" lon="3.30551">
        <ele>41.259109</ele>
        <time>2018-10-09T12:32:58Z</time>
      </trkpt>
      <trkpt lat="50.61654" lon="3.30538">
        <ele>41.254566</ele>
        <time>2018-10-09T12:33:00Z</time>
      </trkpt>
      <trkpt lat="50.61659" lon="3.30524">
        <ele>41.265476</ele>
        <time>2018-10-09T12:33:02Z</time>
      </trkpt>
      <trkpt lat="50.61663" lon="3.30509">
        <ele>41.319633</ele>
        <time>2018-10-09T12:33:04Z</time>
      </trkpt>
      <trkpt lat="50.61668" lon="3.30493">
        <ele>41.352165</ele>
        <time>2018-10-09T12:33:06Z</time>
      </trkpt>
      <trkpt lat="50.61673" lon="3.30477">
        <ele>41.423218</ele>
        <time>2018-10-09T12:33:08Z</time>
      </trkpt>
      <trkpt lat="50.61677" lon="3.3046">
        <ele>41.437218</ele>
        <time>2018-10-09T12:33:10Z</time>
      </trkpt>
      <trkpt lat="50.61682" lon="3.30444">
        <ele>41.462242</ele>
        <time>2018-10-09T12:33:12Z</time>
      </trkpt>
      <trkpt lat="50.61686" lon="3.30427">
        <ele>41.496857</ele>
        <time>2018-10-09T12:33:14Z</time>
      </trkpt>
      <trkpt lat="50.61691" lon="3.30409">
        <ele>41.479126</ele>
        <time>2018-10-09T12:33:16Z</time>
      </trkpt>
      <trkpt lat="50.61696" lon="3.30392">
        <ele>41.507317</ele>
        <time>2018-10-09T12:33:18Z</time>
      </trkpt>
      <trkpt lat="50.617" lon="3.30374">
        <ele>41.517967</ele>
        <time>2018-10-09T12:33:20Z</time>
      </trkpt>
      <trkpt lat="50.61705" lon="3.30357">
        <ele>41.573879</ele>
        <time>2018-10-09T12:33:22Z</time>
      </trkpt>
      <trkpt lat="50.6171" lon="3.30339">
        <ele>41.632572</ele>
        <time>2018-10-09T12:33:24Z</time>
      </trkpt>
      <trkpt lat="50.61716" lon="3.30322">
        <ele>41.673927</ele>
        <time>2018-10-09T12:33:26Z</time>
      </trkpt>
      <trkpt lat="50.61722" lon="3.30306">
        <ele>41.716984</ele>
        <time>2018-10-09T12:33:28Z</time>
      </trkpt>
      <trkpt lat="50.61729" lon="3.30289">
        <ele>41.764912</ele>
        <time>2018-10-09T12:33:30Z</time>
      </trkpt>
      <trkpt lat="50.61736" lon="3.30274">
        <ele>41.796654</ele>
        <time>2018-10-09T12:33:32Z</time>
      </trkpt>
      <trkpt lat="50.61744" lon="3.30258">
        <ele>41.84396</ele>
        <time>2018-10-09T12:33:34Z</time>
      </trkpt>
      <trkpt lat="50.61751" lon="3.30242">
        <ele>41.87241</ele>
        <time>2018-10-09T12:33:36Z</time>
      </trkpt>
      <trkpt lat="50.61758" lon="3.30226">
        <ele>41.896069</ele>
        <time>2018-10-09T12:33:38Z</time>
      </trkpt>
      <trkpt lat="50.61765" lon="3.30211">
        <ele>41.935268</ele>
        <time>2018-10-09T12:33:40Z</time>
      </trkpt>
      <trkpt lat="50.61773" lon="3.30196">
        <ele>41.988155</ele>
        <time>2018-10-09T12:33:42Z</time>
      </trkpt>
      <trkpt lat="50.6178" lon="3.30181">
        <ele>42.013748</ele>
        <time>2018-10-09T12:33:44Z</time>
      </trkpt>
      <trkpt lat="50.61787" lon="3.30167">
        <ele>42.04882</ele>
        <time>2018-10-09T12:33:46Z</time>
      </trkpt>
      <trkpt lat="50.61794" lon="3.30153">
        <ele>42.042751</ele>
        <time>2018-10-09T12:33:48Z</time>
      </trkpt>
      <trkpt lat="50.618" lon="3.3014">
        <ele>42.05785</ele>
        <time>2018-10-09T12:33:50Z</time>
      </trkpt>
      <trkpt lat="50.61805" lon="3.30127">
        <ele>42.068325</ele>
        <time>2018-10-09T12:33:52Z</time>
      </trkpt>
      <trkpt lat="50.61811" lon="3.30117">
        <ele>42.035378</ele>
        <time>2018-10-09T12:33:54Z</time>
      </trkpt>
      <trkpt lat="50.61815" lon="3.3011">
        <ele>42.005539</ele>
        <time>2018-10-09T12:33:56Z</time>
      </trkpt>
      <trkpt lat="50.61818" lon="3.30102">
        <ele>42.0299</ele>
        <time>2018-10-09T12:33:58Z</time>
      </trkpt>
      <trkpt lat="50.61823" lon="3.30092">
        <ele>42.053505</ele>
        <time>2018-10-09T12:34:00Z</time>
      </trkpt>
      <trkpt lat="50.61828" lon="3.30082">
        <ele>42.092796</ele>
        <time>2018-10-09T12:34:02Z</time>
      </trkpt>
      <trkpt lat="50.61832" lon="3.30071">
        <ele>42.055416</ele>
        <time>2018-10-09T12:34:04Z</time>
      </trkpt>
      <trkpt lat="50.61837" lon="3.30061">
        <ele>42.028603</ele>
        <time>2018-10-09T12:34:06Z</time>
      </trkpt>
      <trkpt lat="50.61842" lon="3.3005">
        <ele>42.026577</ele>
        <time>2018-10-09T12:34:08Z</time>
      </trkpt>
      <trkpt lat="50.61846" lon="3.30037">
        <ele>41.944256</ele>
        <time>2018-10-09T12:34:10Z</time>
      </trkpt>
      <trkpt lat="50.61851" lon="3.30023">
        <ele>41.896721</ele>
        <time>2018-10-09T12:34:12Z</time>
      </trkpt>
      <trkpt lat="50.61857" lon="3.30009">
        <ele>41.893608</ele>
        <time>2018-10-09T12:34:14Z</time>
      </trkpt>
      <trkpt lat="50.61862" lon="3.29995">
        <ele>41.835464</ele>
        <time>2018-10-09T12:34:16Z</time>
      </trkpt>
      <trkpt lat="50.61868" lon="3.2998">
        <ele>41.719803</ele>
        <time>2018-10-09T12:34:18Z</time>
      </trkpt>
      <trkpt lat="50.61873" lon="3.29966">
        <ele>41.66613</ele>
        <time>2018-10-09T12:34:20Z</time>
      </trkpt>
      <trkpt lat="50.61879" lon="3.29952">
        <ele>41.574074</ele>
        <time>2018-10-09T12:34:22Z</time>
      </trkpt>
      <trkpt lat="50.61885" lon="3.29938">
        <ele>41.475185</ele>
        <time>2018-10-09T12:34:24Z</time>
      </trkpt>
      <trkpt lat="50.6189" lon="3.29923">
        <ele>41.387527</ele>
        <time>2018-10-09T12:34:26Z</time>
      </trkpt>
      <trkpt lat="50.61896" lon="3.29908">
        <ele>41.2966</ele>
        <time>2018-10-09T12:34:28Z</time>
      </trkpt>
      <trkpt lat="50.61903" lon="3.29894">
        <ele>41.225224</ele>
        <time>2018-10-09T12:34:30Z</time>
      </trkpt>
      <trkpt lat="50.61909" lon="3.29878">
        <ele>41.082111</ele>
        <time>2018-10-09T12:34:32Z</time>
      </trkpt>
      <trkpt lat="50.61915" lon="3.29862">
        <ele>40.960548</ele>
        <time>2018-10-09T12:34:34Z</time>
      </trkpt>
      <trkpt lat="50.61921" lon="3.29846">
        <ele>40.820198</ele>
        <time>2018-10-09T12:34:36Z</time>
      </trkpt>
      <trkpt lat="50.61927" lon="3.29831">
        <ele>40.717331</ele>
        <time>2018-10-09T12:34:38Z</time>
      </trkpt>
      <trkpt lat="50.61932" lon="3.29817">
        <ele>40.625568</ele>
        <time>2018-10-09T12:34:40Z</time>
      </trkpt>
      <trkpt lat="50.61937" lon="3.29804">
        <ele>40.440208</ele>
        <time>2018-10-09T12:34:42Z</time>
      </trkpt>
      <trkpt lat="50.61941" lon="3.29791">
        <ele>40.238869</ele>
        <time>2018-10-09T12:34:44Z</time>
      </trkpt>
      <trkpt lat="50.61944" lon="3.2978">
        <ele>40.035896</ele>
        <time>2018-10-09T12:34:46Z</time>
      </trkpt>
      <trkpt lat="50.61945" lon="3.29771">
        <ele>39.844498</ele>
        <time>2018-10-09T12:34:48Z</time>
      </trkpt>
      <trkpt lat="50.61945" lon="3.29761">
        <ele>39.657997</ele>
        <time>2018-10-09T12:34:50Z</time>
      </trkpt>
      <trkpt lat="50.61943" lon="3.29752">
        <ele>39.472874</ele>
        <time>2018-10-09T12:34:52Z</time>
      </trkpt>
      <trkpt lat="50.61939" lon="3.29744">
        <ele>39.290001</ele>
        <time>2018-10-09T12:34:54Z</time>
      </trkpt>
      <trkpt lat="50.61932" lon="3.29737">
        <ele>39.127769</ele>
        <time>2018-10-09T12:34:56Z</time>
      </trkpt>
      <trkpt lat="50.61925" lon="3.2973">
        <ele>38.939926</ele>
        <time>2018-10-09T12:34:58Z</time>
      </trkpt>
      <trkpt lat="50.61918" lon="3.29723">
        <ele>38.807529</ele>
        <time>2018-10-09T12:35:00Z</time>
      </trkpt>
      <trkpt lat="50.6191" lon="3.29715">
        <ele>38.654575</ele>
        <time>2018-10-09T12:35:02Z</time>
      </trkpt>
      <trkpt lat="50.61903" lon="3.29708">
        <ele>38.497734</ele>
        <time>2018-10-09T12:35:04Z</time>
      </trkpt>
      <trkpt lat="50.61895" lon="3.297">
        <ele>38.352364</ele>
        <time>2018-10-09T12:35:06Z</time>
      </trkpt>
      <trkpt lat="50.61887" lon="3.29692">
        <ele>38.250332</ele>
        <time>2018-10-09T12:35:08Z</time>
      </trkpt>
      <trkpt lat="50.61879" lon="3.29684">
        <ele>38.092838</ele>
        <time>2018-10-09T12:35:10Z</time>
      </trkpt>
      <trkpt lat="50.6187" lon="3.29676">
        <ele>37.833519</ele>
        <time>2018-10-09T12:35:12Z</time>
      </trkpt>
      <trkpt lat="50.61862" lon="3.29668">
        <ele>37.685585</ele>
        <time>2018-10-09T12:35:14Z</time>
      </trkpt>
      <trkpt lat="50.61853" lon="3.2966">
        <ele>37.580399</ele>
        <time>2018-10-09T12:35:16Z</time>
      </trkpt>
      <trkpt lat="50.61845" lon="3.29652">
        <ele>37.494724</ele>
        <time>2018-10-09T12:35:18Z</time>
      </trkpt>
      <trkpt lat="50.61836" lon="3.29644">
        <ele>37.354916</ele>
        <time>2018-10-09T12:35:20Z</time>
      </trkpt>
      <trkpt lat="50.61827" lon="3.29637">
        <ele>37.235561</ele>
        <time>2018-10-09T12:35:22Z</time>
      </trkpt>
      <trkpt lat="50.61818" lon="3.29629">
        <ele>37.134842</ele>
        <time>2018-10-09T12:35:24Z</time>
      </trkpt>
      <trkpt lat="50.61808" lon="3.29621">
        <ele>37.075821</ele>
        <time>2018-10-09T12:35:26Z</time>
      </trkpt>
      <trkpt lat="50.61799" lon="3.29612">
        <ele>37.010376</ele>
        <time>2018-10-09T12:35:28Z</time>
      </trkpt>
      <trkpt lat="50.6179" lon="3.29604">
        <ele>36.924339</ele>
        <time>2018-10-09T12:35:30Z</time>
      </trkpt>
      <trkpt lat="50.61781" lon="3.29596">
        <ele>36.837563</ele>
        <time>2018-10-09T12:35:32Z</time>
      </trkpt>
      <trkpt lat="50.61772" lon="3.29589">
        <ele>36.813721</ele>
        <time>2018-10-09T12:35:34Z</time>
      </trkpt>
      <trkpt lat="50.61763" lon="3.29581">
        <ele>36.721626</ele>
        <time>2018-10-09T12:35:36Z</time>
      </trkpt>
      <trkpt lat="50.61754" lon="3.29573">
        <ele>36.684254</ele>
        <time>2018-10-09T12:35:38Z</time>
      </trkpt>
      <trkpt lat="50.61745" lon="3.29565">
        <ele>36.619667</ele>
        <time>2018-10-09T12:35:40Z</time>
      </trkpt>
      <trkpt lat="50.61736" lon="3.29557">
        <ele>36.511723</ele>
        <time>2018-10-09T12:35:42Z</time>
      </trkpt>
      <trkpt lat="50.61727" lon="3.2955">
        <ele>36.394432</ele>
        <time>2018-10-09T12:35:44Z</time>
      </trkpt>
      <trkpt lat="50.61718" lon="3.29542">
        <ele>36.31765</ele>
        <time>2018-10-09T12:35:46Z</time>
      </trkpt>
      <trkpt lat="50.61709" lon="3.29534">
        <ele>36.149696</ele>
        <time>2018-10-09T12:35:48Z</time>
      </trkpt>
      <trkpt lat="50.617" lon="3.29526">
        <ele>36.008827</ele>
        <time>2018-10-09T12:35:50Z</time>
      </trkpt>
      <trkpt lat="50.61691" lon="3.29519">
        <ele>35.91465</ele>
        <time>2018-10-09T12:35:52Z</time>
      </trkpt>
      <trkpt lat="50.61682" lon="3.29511">
        <ele>35.892452</ele>
        <time>2018-10-09T12:35:54Z</time>
      </trkpt>
      <trkpt lat="50.61673" lon="3.29503">
        <ele>35.807407</ele>
        <time>2018-10-09T12:35:56Z</time>
      </trkpt>
      <trkpt lat="50.61665" lon="3.29495">
        <ele>35.69265</ele>
        <time>2018-10-09T12:35:58Z</time>
      </trkpt>
      <trkpt lat="50.61656" lon="3.29488">
        <ele>35.627125</ele>
        <time>2018-10-09T12:36:00Z</time>
      </trkpt>
      <trkpt lat="50.61647" lon="3.29481">
        <ele>35.558659</ele>
        <time>2018-10-09T12:36:02Z</time>
      </trkpt>
      <trkpt lat="50.61639" lon="3.29473">
        <ele>35.519936</ele>
        <time>2018-10-09T12:36:04Z</time>
      </trkpt>
      <trkpt lat="50.61631" lon="3.29465">
        <ele>35.44738</ele>
        <time>2018-10-09T12:36:06Z</time>
      </trkpt>
      <trkpt lat="50.61622" lon="3.29458">
        <ele>35.410465</ele>
        <time>2018-10-09T12:36:08Z</time>
      </trkpt>
      <trkpt lat="50.61614" lon="3.29451">
        <ele>35.33366</ele>
        <time>2018-10-09T12:36:10Z</time>
      </trkpt>
      <trkpt lat="50.61606" lon="3.29443">
        <ele>35.320675</ele>
        <time>2018-10-09T12:36:12Z</time>
      </trkpt>
      <trkpt lat="50.61597" lon="3.29436">
        <ele>35.207558</ele>
        <time>2018-10-09T12:36:14Z</time>
      </trkpt>
      <trkpt lat="50.61589" lon="3.29428">
        <ele>35.12569</ele>
        <time>2018-10-09T12:36:16Z</time>
      </trkpt>
      <trkpt lat="50.6158" lon="3.29421">
        <ele>35.094494</ele>
        <time>2018-10-09T12:36:18Z</time>
      </trkpt>
      <trkpt lat="50.61572" lon="3.29414">
        <ele>35.0182</ele>
        <time>2018-10-09T12:36:20Z</time>
      </trkpt>
      <trkpt lat="50.61564" lon="3.29406">
        <ele>35.003181</ele>
        <time>2018-10-09T12:36:22Z</time>
      </trkpt>
      <trkpt lat="50.61555" lon="3.29399">
        <ele>34.967262</ele>
        <time>2018-10-09T12:36:24Z</time>
      </trkpt>
      <trkpt lat="50.61547" lon="3.29392">
        <ele>34.989326</ele>
        <time>2018-10-09T12:36:26Z</time>
      </trkpt>
      <trkpt lat="50.61538" lon="3.29384">
        <ele>35.034264</ele>
        <time>2018-10-09T12:36:28Z</time>
      </trkpt>
      <trkpt lat="50.6153" lon="3.29377">
        <ele>35.112328</ele>
        <time>2018-10-09T12:36:30Z</time>
      </trkpt>
      <trkpt lat="50.61522" lon="3.2937">
        <ele>35.171406</ele>
        <time>2018-10-09T12:36:32Z</time>
      </trkpt>
      <trkpt lat="50.61513" lon="3.29363">
        <ele>35.225197</ele>
        <time>2018-10-09T12:36:34Z</time>
      </trkpt>
      <trkpt lat="50.61504" lon="3.29357">
        <ele>35.248405</ele>
        <time>2018-10-09T12:36:36Z</time>
      </trkpt>
      <trkpt lat="50.61496" lon="3.29352">
        <ele>35.325237</ele>
        <time>2018-10-09T12:36:38Z</time>
      </trkpt>
      <trkpt lat="50.61487" lon="3.29347">
        <ele>35.400871</ele>
        <time>2018-10-09T12:36:40Z</time>
      </trkpt>
      <trkpt lat="50.61478" lon="3.29343">
        <ele>35.437653</ele>
        <time>2018-10-09T12:36:42Z</time>
      </trkpt>
      <trkpt lat="50.61469" lon="3.29338">
        <ele>35.470573</ele>
        <time>2018-10-09T12:36:44Z</time>
      </trkpt>
      <trkpt lat="50.61459" lon="3.29334">
        <ele>35.528473</ele>
        <time>2018-10-09T12:36:46Z</time>
      </trkpt>
      <trkpt lat="50.6145" lon="3.29329">
        <ele>35.574837</ele>
        <time>2018-10-09T12:36:48Z</time>
      </trkpt>
      <trkpt lat="50.61441" lon="3.29324">
        <ele>35.564781</ele>
        <time>2018-10-09T12:36:50Z</time>
      </trkpt>
      <trkpt lat="50.61432" lon="3.2932">
        <ele>35.612793</ele>
        <time>2018-10-09T12:36:52Z</time>
      </trkpt>
      <trkpt lat="50.61423" lon="3.29316">
        <ele>35.665291</ele>
        <time>2018-10-09T12:36:54Z</time>
      </trkpt>
      <trkpt lat="50.61414" lon="3.29311">
        <ele>35.745701</ele>
        <time>2018-10-09T12:36:56Z</time>
      </trkpt>
      <trkpt lat="50.61405" lon="3.29307">
        <ele>35.804142</ele>
        <time>2018-10-09T12:36:58Z</time>
      </trkpt>
      <trkpt lat="50.61396" lon="3.29303">
        <ele>35.854538</ele>
        <time>2018-10-09T12:37:00Z</time>
      </trkpt>
      <trkpt lat="50.61388" lon="3.29299">
        <ele>35.89505</ele>
        <time>2018-10-09T12:37:02Z</time>
      </trkpt>
      <trkpt lat="50.61379" lon="3.29295">
        <ele>35.908779</ele>
        <time>2018-10-09T12:37:04Z</time>
      </trkpt>
      <trkpt lat="50.61371" lon="3.29291">
        <ele>36.001732</ele>
        <time>2018-10-09T12:37:06Z</time>
      </trkpt>
      <trkpt lat="50.61363" lon="3.29287">
        <ele>36.054924</ele>
        <time>2018-10-09T12:37:08Z</time>
      </trkpt>
      <trkpt lat="50.61354" lon="3.29283">
        <ele>36.107872</ele>
        <time>2018-10-09T12:37:10Z</time>
      </trkpt>
      <trkpt lat="50.61346" lon="3.29279">
        <ele>36.20652</ele>
        <time>2018-10-09T12:37:12Z</time>
      </trkpt>
      <trkpt lat="50.61338" lon="3.29276">
        <ele>36.230309</ele>
        <time>2018-10-09T12:37:14Z</time>
      </trkpt>
      <trkpt lat="50.61332" lon="3.29271">
        <ele>36.28455</ele>
        <time>2018-10-09T12:37:16Z</time>
      </trkpt>
      <trkpt lat="50.61326" lon="3.29263">
        <ele>36.311333</ele>
        <time>2018-10-09T12:37:18Z</time>
      </trkpt>
      <trkpt lat="50.61326" lon="3.29251">
        <ele>36.32444</ele>
        <time>2018-10-09T12:37:20Z</time>
      </trkpt>
      <trkpt lat="50.61329" lon="3.29238">
        <ele>36.301094</ele>
        <time>2018-10-09T12:37:22Z</time>
      </trkpt>
      <trkpt lat="50.61334" lon="3.29224">
        <ele>36.307251</ele>
        <time>2018-10-09T12:37:24Z</time>
      </trkpt>
      <trkpt lat="50.61338" lon="3.2921">
        <ele>36.326714</ele>
        <time>2018-10-09T12:37:26Z</time>
      </trkpt>
      <trkpt lat="50.61342" lon="3.29196">
        <ele>36.348618</ele>
        <time>2018-10-09T12:37:28Z</time>
      </trkpt>
      <trkpt lat="50.61346" lon="3.29182">
        <ele>36.375504</ele>
        <time>2018-10-09T12:37:30Z</time>
      </trkpt>
      <trkpt lat="50.6135" lon="3.29168">
        <ele>36.367168</ele>
        <time>2018-10-09T12:37:32Z</time>
      </trkpt>
      <trkpt lat="50.61354" lon="3.29154">
        <ele>36.340157</ele>
        <time>2018-10-09T12:37:34Z</time>
      </trkpt>
      <trkpt lat="50.61359" lon="3.29139">
        <ele>36.298866</ele>
        <time>2018-10-09T12:37:36Z</time>
      </trkpt>
      <trkpt lat="50.61362" lon="3.29125">
        <ele>36.241722</ele>
        <time>2018-10-09T12:37:38Z</time>
      </trkpt>
      <trkpt lat="50.61366" lon="3.29111">
        <ele>36.153328</ele>
        <time>2018-10-09T12:37:40Z</time>
      </trkpt>
      <trkpt lat="50.61369" lon="3.29097">
        <ele>36.108776</ele>
        <time>2018-10-09T12:37:42Z</time>
      </trkpt>
      <trkpt lat="50.61371" lon="3.29083">
        <ele>36.031361</ele>
        <time>2018-10-09T12:37:44Z</time>
      </trkpt>
      <trkpt lat="50.61373" lon="3.29068">
        <ele>35.983898</ele>
        <time>2018-10-09T12:37:46Z</time>
      </trkpt>
      <trkpt lat="50.61373" lon="3.29054">
        <ele>35.88728</ele>
        <time>2018-10-09T12:37:48Z</time>
      </trkpt>
      <trkpt lat="50.61372" lon="3.2904">
        <ele>35.788353</ele>
        <time>2018-10-09T12:37:50Z</time>
      </trkpt>
      <trkpt lat="50.61369" lon="3.29026">
        <ele>35.626942</ele>
        <time>2018-10-09T12:37:52Z</time>
      </trkpt>
      <trkpt lat="50.61363" lon="3.29012">
        <ele>35.502117</ele>
        <time>2018-10-09T12:37:54Z</time>
      </trkpt>
      <trkpt lat="50.61358" lon="3.28999">
        <ele>35.3955</ele>
        <time>2018-10-09T12:37:56Z</time>
      </trkpt>
      <trkpt lat="50.61352" lon="3.28986">
        <ele>35.310081</ele>
        <time>2018-10-09T12:37:58Z</time>
      </trkpt>
      <trkpt lat="50.61348" lon="3.28972">
        <ele>35.242054</ele>
        <time>2018-10-09T12:38:00Z</time>
      </trkpt>
      <trkpt lat="50.61347" lon="3.28956">
        <ele>35.125469</ele>
        <time>2018-10-09T12:38:02Z</time>
      </trkpt>
      <trkpt lat="50.61348" lon="3.28941">
        <ele>35.078999</ele>
        <time>2018-10-09T12:38:04Z</time>
      </trkpt>
      <trkpt lat="50.61351" lon="3.28926">
        <ele>34.994732</ele>
        <time>2018-10-09T12:38:06Z</time>
      </trkpt>
      <trkpt lat="50.61354" lon="3.2891">
        <ele>34.88752</ele>
        <time>2018-10-09T12:38:08Z</time>
      </trkpt>
      <trkpt lat="50.61358" lon="3.28895">
        <ele>34.789948</ele>
        <time>2018-10-09T12:38:10Z</time>
      </trkpt>
      <trkpt lat="50.61361" lon="3.2888">
        <ele>34.652657</ele>
        <time>2018-10-09T12:38:12Z</time>
      </trkpt>
      <trkpt lat="50.61364" lon="3.28865">
        <ele>34.562653</ele>
        <time>2018-10-09T12:38:14Z</time>
      </trkpt>
      <trkpt lat="50.61368" lon="3.2885">
        <ele>34.539211</ele>
        <time>2018-10-09T12:38:16Z</time>
      </trkpt>
      <trkpt lat="50.61372" lon="3.28836">
        <ele>34.452297</ele>
        <time>2018-10-09T12:38:18Z</time>
      </trkpt>
      <trkpt lat="50.61377" lon="3.28822">
        <ele>34.403809</ele>
        <time>2018-10-09T12:38:20Z</time>
      </trkpt>
      <trkpt lat="50.61383" lon="3.28809">
        <ele>34.339008</ele>
        <time>2018-10-09T12:38:22Z</time>
      </trkpt>
      <trkpt lat="50.61388" lon="3.28796">
        <ele>34.256916</ele>
        <time>2018-10-09T12:38:24Z</time>
      </trkpt>
      <trkpt lat="50.61393" lon="3.28783">
        <ele>34.198093</ele>
        <time>2018-10-09T12:38:26Z</time>
      </trkpt>
      <trkpt lat="50.61398" lon="3.28771">
        <ele>34.117439</ele>
        <time>2018-10-09T12:38:28Z</time>
      </trkpt>
      <trkpt lat="50.61404" lon="3.28759">
        <ele>34.003109</ele>
        <time>2018-10-09T12:38:30Z</time>
      </trkpt>
      <trkpt lat="50.61409" lon="3.28747">
        <ele>33.938393</ele>
        <time>2018-10-09T12:38:32Z</time>
      </trkpt>
      <trkpt lat="50.61415" lon="3.28734">
        <ele>33.91906</ele>
        <time>2018-10-09T12:38:34Z</time>
      </trkpt>
      <trkpt lat="50.6142" lon="3.28722">
        <ele>33.801994</ele>
        <time>2018-10-09T12:38:36Z</time>
      </trkpt>
      <trkpt lat="50.61425" lon="3.28709">
        <ele>33.716042</ele>
        <time>2018-10-09T12:38:38Z</time>
      </trkpt>
      <trkpt lat="50.6143" lon="3.28696">
        <ele>33.610359</ele>
        <time>2018-10-09T12:38:40Z</time>
      </trkpt>
      <trkpt lat="50.61433" lon="3.28683">
        <ele>33.518692</ele>
        <time>2018-10-09T12:38:42Z</time>
      </trkpt>
      <trkpt lat="50.61437" lon="3.28669">
        <ele>33.42646</ele>
        <time>2018-10-09T12:38:44Z</time>
      </trkpt>
      <trkpt lat="50.6144" lon="3.28655">
        <ele>33.369926</ele>
        <time>2018-10-09T12:38:46Z</time>
      </trkpt>
      <trkpt lat="50.61443" lon="3.2864">
        <ele>33.241951</ele>
        <time>2018-10-09T12:38:48Z</time>
      </trkpt>
      <trkpt lat="50.61446" lon="3.28625">
        <ele>33.138134</ele>
        <time>2018-10-09T12:38:50Z</time>
      </trkpt>
      <trkpt lat="50.61448" lon="3.28611">
        <ele>33.071255</ele>
        <time>2018-10-09T12:38:52Z</time>
      </trkpt>
      <trkpt lat="50.61451" lon="3.28597">
        <ele>33.024395</ele>
        <time>2018-10-09T12:38:54Z</time>
      </trkpt>
      <trkpt lat="50.61454" lon="3.28583">
        <ele>33.002022</ele>
        <time>2018-10-09T12:38:56Z</time>
      </trkpt>
      <trkpt lat="50.61456" lon="3.28568">
        <ele>32.948471</ele>
        <time>2018-10-09T12:38:58Z</time>
      </trkpt>
      <trkpt lat="50.61459" lon="3.28553">
        <ele>32.892754</ele>
        <time>2018-10-09T12:39:00Z</time>
      </trkpt>
      <trkpt lat="50.61462" lon="3.28539">
        <ele>32.881241</ele>
        <time>2018-10-09T12:39:02Z</time>
      </trkpt>
      <trkpt lat="50.61464" lon="3.28525">
        <ele>32.831154</ele>
        <time>2018-10-09T12:39:04Z</time>
      </trkpt>
      <trkpt lat="50.61467" lon="3.28511">
        <ele>32.803261</ele>
        <time>2018-10-09T12:39:06Z</time>
      </trkpt>
      <trkpt lat="50.61469" lon="3.28496">
        <ele>32.806664</ele>
        <time>2018-10-09T12:39:08Z</time>
      </trkpt>
      <trkpt lat="50.61472" lon="3.28482">
        <ele>32.821247</ele>
        <time>2018-10-09T12:39:10Z</time>
      </trkpt>
      <trkpt lat="50.61474" lon="3.28468">
        <ele>32.831036</ele>
        <time>2018-10-09T12:39:12Z</time>
      </trkpt>
      <trkpt lat="50.61477" lon="3.28454">
        <ele>32.812187</ele>
        <time>2018-10-09T12:39:14Z</time>
      </trkpt>
      <trkpt lat="50.61479" lon="3.2844">
        <ele>32.815071</ele>
        <time>2018-10-09T12:39:16Z</time>
      </trkpt>
      <trkpt lat="50.61482" lon="3.28426">
        <ele>32.807869</ele>
        <time>2018-10-09T12:39:18Z</time>
      </trkpt>
      <trkpt lat="50.61484" lon="3.28412">
        <ele>32.797829</ele>
        <time>2018-10-09T12:39:20Z</time>
      </trkpt>
      <trkpt lat="50.61486" lon="3.28398">
        <ele>32.797573</ele>
        <time>2018-10-09T12:39:22Z</time>
      </trkpt>
      <trkpt lat="50.61489" lon="3.28385">
        <ele>32.796654</ele>
        <time>2018-10-09T12:39:24Z</time>
      </trkpt>
      <trkpt lat="50.61491" lon="3.28372">
        <ele>32.71204</ele>
        <time>2018-10-09T12:39:26Z</time>
      </trkpt>
      <trkpt lat="50.61493" lon="3.28358">
        <ele>32.677452</ele>
        <time>2018-10-09T12:39:28Z</time>
      </trkpt>
      <trkpt lat="50.61495" lon="3.28344">
        <ele>32.673161</ele>
        <time>2018-10-09T12:39:30Z</time>
      </trkpt>
      <trkpt lat="50.61498" lon="3.2833">
        <ele>32.752815</ele>
        <time>2018-10-09T12:39:32Z</time>
      </trkpt>
      <trkpt lat="50.615" lon="3.28317">
        <ele>32.787796</ele>
        <time>2018-10-09T12:39:34Z</time>
      </trkpt>
      <trkpt lat="50.61503" lon="3.28304">
        <ele>32.821419</ele>
        <time>2018-10-09T12:39:36Z</time>
      </trkpt>
      <trkpt lat="50.61506" lon="3.28291">
        <ele>32.829201</ele>
        <time>2018-10-09T12:39:38Z</time>
      </trkpt>
      <trkpt lat="50.61507" lon="3.28279">
        <ele>32.868122</ele>
        <time>2018-10-09T12:39:40Z</time>
      </trkpt>
      <trkpt lat="50.61509" lon="3.28267">
        <ele>32.898735</ele>
        <time>2018-10-09T12:39:42Z</time>
      </trkpt>
      <trkpt lat="50.61511" lon="3.28257">
        <ele>32.916782</ele>
        <time>2018-10-09T12:39:44Z</time>
      </trkpt>
      <trkpt lat="50.61515" lon="3.2825">
        <ele>32.894833</ele>
        <time>2018-10-09T12:39:46Z</time>
      </trkpt>
      <trkpt lat="50.61521" lon="3.28249">
        <ele>32.898918</ele>
        <time>2018-10-09T12:39:48Z</time>
      </trkpt>
      <trkpt lat="50.61526" lon="3.28253">
        <ele>32.908234</ele>
        <time>2018-10-09T12:39:50Z</time>
      </trkpt>
      <trkpt lat="50.6153" lon="3.28259">
        <ele>32.891319</ele>
        <time>2018-10-09T12:39:52Z</time>
      </trkpt>
      <trkpt lat="50.61535" lon="3.28264">
        <ele>32.871803</ele>
        <time>2018-10-09T12:39:54Z</time>
      </trkpt>
      <trkpt lat="50.6154" lon="3.28271">
        <ele>32.905602</ele>
        <time>2018-10-09T12:39:56Z</time>
      </trkpt>
      <trkpt lat="50.61545" lon="3.28277">
        <ele>32.938099</ele>
        <time>2018-10-09T12:39:58Z</time>
      </trkpt>
      <trkpt lat="50.6155" lon="3.28284">
        <ele>32.968693</ele>
        <time>2018-10-09T12:40:00Z</time>
      </trkpt>
      <trkpt lat="50.61555" lon="3.2829">
        <ele>32.942741</ele>
        <time>2018-10-09T12:40:02Z</time>
      </trkpt>
      <trkpt lat="50.61559" lon="3.28294">
        <ele>32.912781</ele>
        <time>2018-10-09T12:40:04Z</time>
      </trkpt>
      <trkpt lat="50.61562" lon="3.28298">
        <ele>32.972446</ele>
        <time>2018-10-09T12:40:06Z</time>
      </trkpt>
      <trkpt lat="50.61565" lon="3.28301">
        <ele>33.545277</ele>
        <time>2018-10-09T12:40:46Z</time>
      </trkpt>
      <trkpt lat="50.6157" lon="3.28306">
        <ele>33.591824</ele>
        <time>2018-10-09T12:40:48Z</time>
      </trkpt>
      <trkpt lat="50.61575" lon="3.2831">
        <ele>33.673084</ele>
        <time>2018-10-09T12:40:50Z</time>
      </trkpt>
      <trkpt lat="50.61579" lon="3.28314">
        <ele>33.748276</ele>
        <time>2018-10-09T12:40:52Z</time>
      </trkpt>
      <trkpt lat="50.61584" lon="3.28319">
        <ele>33.767464</ele>
        <time>2018-10-09T12:40:54Z</time>
      </trkpt>
      <trkpt lat="50.61589" lon="3.28323">
        <ele>33.822105</ele>
        <time>2018-10-09T12:40:56Z</time>
      </trkpt>
      <trkpt lat="50.61593" lon="3.28327">
        <ele>33.859062</ele>
        <time>2018-10-09T12:40:58Z</time>
      </trkpt>
      <trkpt lat="50.61598" lon="3.28331">
        <ele>33.89344</ele>
        <time>2018-10-09T12:41:00Z</time>
      </trkpt>
      <trkpt lat="50.61603" lon="3.28335">
        <ele>33.942642</ele>
        <time>2018-10-09T12:41:02Z</time>
      </trkpt>
      <trkpt lat="50.61609" lon="3.28338">
        <ele>33.963932</ele>
        <time>2018-10-09T12:41:04Z</time>
      </trkpt>
      <trkpt lat="50.61615" lon="3.28342">
        <ele>34.021046</ele>
        <time>2018-10-09T12:41:06Z</time>
      </trkpt>
      <trkpt lat="50.6162" lon="3.28345">
        <ele>34.059364</ele>
        <time>2018-10-09T12:41:08Z</time>
      </trkpt>
      <trkpt lat="50.61627" lon="3.28347">
        <ele>34.12376</ele>
        <time>2018-10-09T12:41:10Z</time>
      </trkpt>
      <trkpt lat="50.61633" lon="3.28348">
        <ele>34.097977</ele>
        <time>2018-10-09T12:41:12Z</time>
      </trkpt>
      <trkpt lat="50.61639" lon="3.2835">
        <ele>34.078163</ele>
        <time>2018-10-09T12:41:14Z</time>
      </trkpt>
      <trkpt lat="50.61646" lon="3.28352">
        <ele>34.015968</ele>
        <time>2018-10-09T12:41:16Z</time>
      </trkpt>
      <trkpt lat="50.61653" lon="3.28356">
        <ele>34.000385</ele>
        <time>2018-10-09T12:41:18Z</time>
      </trkpt>
      <trkpt lat="50.6166" lon="3.28361">
        <ele>34.013237</ele>
        <time>2018-10-09T12:41:20Z</time>
      </trkpt>
      <trkpt lat="50.61665" lon="3.28368">
        <ele>33.946404</ele>
        <time>2018-10-09T12:41:22Z</time>
      </trkpt>
      <trkpt lat="50.61671" lon="3.28375">
        <ele>33.916252</ele>
        <time>2018-10-09T12:41:24Z</time>
      </trkpt>
      <trkpt lat="50.61676" lon="3.28382">
        <ele>33.841343</ele>
        <time>2018-10-09T12:41:26Z</time>
      </trkpt>
      <trkpt lat="50.61683" lon="3.2839">
        <ele>33.688766</ele>
        <time>2018-10-09T12:41:28Z</time>
      </trkpt>
      <trkpt lat="50.61689" lon="3.28397">
        <ele>33.613152</ele>
        <time>2018-10-09T12:41:30Z</time>
      </trkpt>
      <trkpt lat="50.61695" lon="3.28402">
        <ele>33.508766</ele>
        <time>2018-10-09T12:41:32Z</time>
      </trkpt>
      <trkpt lat="50.61702" lon="3.28405">
        <ele>33.484444</ele>
        <time>2018-10-09T12:41:34Z</time>
      </trkpt>
      <trkpt lat="50.61709" lon="3.28407">
        <ele>33.388958</ele>
        <time>2018-10-09T12:41:36Z</time>
      </trkpt>
      <trkpt lat="50.61715" lon="3.28408">
        <ele>33.341805</ele>
        <time>2018-10-09T12:41:38Z</time>
      </trkpt>
      <trkpt lat="50.61722" lon="3.2841">
        <ele>33.290009</ele>
        <time>2018-10-09T12:41:40Z</time>
      </trkpt>
      <trkpt lat="50.61729" lon="3.2841">
        <ele>33.201183</ele>
        <time>2018-10-09T12:41:42Z</time>
      </trkpt>
      <trkpt lat="50.61736" lon="3.28412">
        <ele>33.202206</ele>
        <time>2018-10-09T12:41:44Z</time>
      </trkpt>
      <trkpt lat="50.61742" lon="3.28413">
        <ele>33.1063</ele>
        <time>2018-10-09T12:41:46Z</time>
      </trkpt>
      <trkpt lat="50.61749" lon="3.28415">
        <ele>33.05825</ele>
        <time>2018-10-09T12:41:48Z</time>
      </trkpt>
      <trkpt lat="50.61754" lon="3.28416">
        <ele>32.96806</ele>
        <time>2018-10-09T12:41:50Z</time>
      </trkpt>
      <trkpt lat="50.61757" lon="3.28417">
        <ele>32.968822</ele>
        <time>2018-10-09T12:41:52Z</time>
      </trkpt>
      <trkpt lat="50.61759" lon="3.28418">
        <ele>32.928162</ele>
        <time>2018-10-09T12:41:54Z</time>
      </trkpt>
      <trkpt lat="50.61761" lon="3.28419">
        <ele>32.891399</ele>
        <time>2018-10-09T12:41:56Z</time>
      </trkpt>
      <trkpt lat="50.61763" lon="3.2842">
        <ele>32.856205</ele>
        <time>2018-10-09T12:41:58Z</time>
      </trkpt>
      <trkpt lat="50.61765" lon="3.2842">
        <ele>32.852947</ele>
        <time>2018-10-09T12:42:00Z</time>
      </trkpt>
      <trkpt lat="50.61767" lon="3.28421">
        <ele>32.814045</ele>
        <time>2018-10-09T12:42:02Z</time>
      </trkpt>
      <trkpt lat="50.61769" lon="3.28424">
        <ele>32.811279</ele>
        <time>2018-10-09T12:42:04Z</time>
      </trkpt>
      <trkpt lat="50.61772" lon="3.28425">
        <ele>32.76601</ele>
        <time>2018-10-09T12:42:06Z</time>
      </trkpt>
      <trkpt lat="50.61776" lon="3.28427">
        <ele>32.779121</ele>
        <time>2018-10-09T12:42:08Z</time>
      </trkpt>
      <trkpt lat="50.61781" lon="3.28428">
        <ele>32.823769</ele>
        <time>2018-10-09T12:42:10Z</time>
      </trkpt>
      <trkpt lat="50.61787" lon="3.2843">
        <ele>32.896111</ele>
        <time>2018-10-09T12:42:12Z</time>
      </trkpt>
      <trkpt lat="50.61792" lon="3.28431">
        <ele>32.924034</ele>
        <time>2018-10-09T12:42:14Z</time>
      </trkpt>
      <trkpt lat="50.61795" lon="3.28431">
        <ele>32.942089</ele>
        <time>2018-10-09T12:42:16Z</time>
      </trkpt>
      <trkpt lat="50.61798" lon="3.28433">
        <ele>32.995193</ele>
        <time>2018-10-09T12:42:18Z</time>
      </trkpt>
      <trkpt lat="50.61802" lon="3.28434">
        <ele>33.063465</ele>
        <time>2018-10-09T12:42:20Z</time>
      </trkpt>
      <trkpt lat="50.61805" lon="3.28436">
        <ele>33.089302</ele>
        <time>2018-10-09T12:42:22Z</time>
      </trkpt>
      <trkpt lat="50.61807" lon="3.28439">
        <ele>33.08604</ele>
        <time>2018-10-09T12:42:24Z</time>
      </trkpt>
      <trkpt lat="50.61809" lon="3.28443">
        <ele>33.150501</ele>
        <time>2018-10-09T12:42:26Z</time>
      </trkpt>
      <trkpt lat="50.61809" lon="3.28447">
        <ele>33.143543</ele>
        <time>2018-10-09T12:42:28Z</time>
      </trkpt>
      <trkpt lat="50.61809" lon="3.28451">
        <ele>33.173065</ele>
        <time>2018-10-09T12:42:30Z</time>
      </trkpt>
      <trkpt lat="50.6181" lon="3.28457">
        <ele>33.215065</ele>
        <time>2018-10-09T12:42:32Z</time>
      </trkpt>
      <trkpt lat="50.61811" lon="3.28465">
        <ele>33.214966</ele>
        <time>2018-10-09T12:42:34Z</time>
      </trkpt>
      <trkpt lat="50.61813" lon="3.28474">
        <ele>33.241173</ele>
        <time>2018-10-09T12:42:36Z</time>
      </trkpt>
      <trkpt lat="50.61815" lon="3.28482">
        <ele>33.276947</ele>
        <time>2018-10-09T12:42:38Z</time>
      </trkpt>
      <trkpt lat="50.61816" lon="3.2849">
        <ele>33.295601</ele>
        <time>2018-10-09T12:42:40Z</time>
      </trkpt>
      <trkpt lat="50.61818" lon="3.285">
        <ele>33.30555</ele>
        <time>2018-10-09T12:42:42Z</time>
      </trkpt>
      <trkpt lat="50.61821" lon="3.2851">
        <ele>33.370247</ele>
        <time>2018-10-09T12:42:44Z</time>
      </trkpt>
      <trkpt lat="50.61823" lon="3.2852">
        <ele>33.405525</ele>
        <time>2018-10-09T12:42:46Z</time>
      </trkpt>
      <trkpt lat="50.61824" lon="3.2853">
        <ele>33.469208</ele>
        <time>2018-10-09T12:42:48Z</time>
      </trkpt>
      <trkpt lat="50.61827" lon="3.28539">
        <ele>33.510201</ele>
        <time>2018-10-09T12:42:50Z</time>
      </trkpt>
      <trkpt lat="50.61829" lon="3.28549">
        <ele>33.495968</ele>
        <time>2018-10-09T12:42:52Z</time>
      </trkpt>
      <trkpt lat="50.61831" lon="3.28559">
        <ele>33.552834</ele>
        <time>2018-10-09T12:42:54Z</time>
      </trkpt>
      <trkpt lat="50.61834" lon="3.2857">
        <ele>33.563076</ele>
        <time>2018-10-09T12:42:56Z</time>
      </trkpt>
      <trkpt lat="50.61836" lon="3.28581">
        <ele>33.581959</ele>
        <time>2018-10-09T12:42:58Z</time>
      </trkpt>
      <trkpt lat="50.61839" lon="3.28592">
        <ele>33.531773</ele>
        <time>2018-10-09T12:43:00Z</time>
      </trkpt>
      <trkpt lat="50.61841" lon="3.28603">
        <ele>33.570572</ele>
        <time>2018-10-09T12:43:02Z</time>
      </trkpt>
      <trkpt lat="50.61844" lon="3.28616">
        <ele>33.590157</ele>
        <time>2018-10-09T12:43:04Z</time>
      </trkpt>
      <trkpt lat="50.61846" lon="3.28628">
        <ele>33.592823</ele>
        <time>2018-10-09T12:43:06Z</time>
      </trkpt>
      <trkpt lat="50.61848" lon="3.28639">
        <ele>33.58329</ele>
        <time>2018-10-09T12:43:08Z</time>
      </trkpt>
      <trkpt lat="50.6185" lon="3.2865">
        <ele>33.624973</ele>
        <time>2018-10-09T12:43:10Z</time>
      </trkpt>
      <trkpt lat="50.61853" lon="3.28661">
        <ele>33.595905</ele>
        <time>2018-10-09T12:43:12Z</time>
      </trkpt>
      <trkpt lat="50.61856" lon="3.28672">
        <ele>33.617992</ele>
        <time>2018-10-09T12:43:14Z</time>
      </trkpt>
      <trkpt lat="50.61858" lon="3.28683">
        <ele>33.631325</ele>
        <time>2018-10-09T12:43:16Z</time>
      </trkpt>
      <trkpt lat="50.61861" lon="3.28694">
        <ele>33.6408</ele>
        <time>2018-10-09T12:43:18Z</time>
      </trkpt>
      <trkpt lat="50.61865" lon="3.28704">
        <ele>33.644661</ele>
        <time>2018-10-09T12:43:20Z</time>
      </trkpt>
      <trkpt lat="50.61869" lon="3.28712">
        <ele>33.674141</ele>
        <time>2018-10-09T12:43:22Z</time>
      </trkpt>
      <trkpt lat="50.61876" lon="3.28716">
        <ele>33.681015</ele>
        <time>2018-10-09T12:43:24Z</time>
      </trkpt>
      <trkpt lat="50.61884" lon="3.2872">
        <ele>33.686596</ele>
        <time>2018-10-09T12:43:26Z</time>
      </trkpt>
      <trkpt lat="50.61891" lon="3.28724">
        <ele>33.692184</ele>
        <time>2018-10-09T12:43:28Z</time>
      </trkpt>
      <trkpt lat="50.61899" lon="3.28727">
        <ele>33.719543</ele>
        <time>2018-10-09T12:43:30Z</time>
      </trkpt>
      <trkpt lat="50.61906" lon="3.28731">
        <ele>33.751137</ele>
        <time>2018-10-09T12:43:32Z</time>
      </trkpt>
      <trkpt lat="50.61914" lon="3.28736">
        <ele>33.765236</ele>
        <time>2018-10-09T12:43:34Z</time>
      </trkpt>
      <trkpt lat="50.61922" lon="3.2874">
        <ele>33.75621</ele>
        <time>2018-10-09T12:43:36Z</time>
      </trkpt>
      <trkpt lat="50.61929" lon="3.28744">
        <ele>33.655025</ele>
        <time>2018-10-09T12:43:38Z</time>
      </trkpt>
      <trkpt lat="50.61937" lon="3.28748">
        <ele>33.645042</ele>
        <time>2018-10-09T12:43:40Z</time>
      </trkpt>
      <trkpt lat="50.61943" lon="3.28752">
        <ele>33.615921</ele>
        <time>2018-10-09T12:43:42Z</time>
      </trkpt>
      <trkpt lat="50.6195" lon="3.28756">
        <ele>33.557693</ele>
        <time>2018-10-09T12:43:44Z</time>
      </trkpt>
      <trkpt lat="50.61957" lon="3.2876">
        <ele>33.496468</ele>
        <time>2018-10-09T12:43:46Z</time>
      </trkpt>
      <trkpt lat="50.61964" lon="3.28765">
        <ele>33.493851</ele>
        <time>2018-10-09T12:43:48Z</time>
      </trkpt>
      <trkpt lat="50.61972" lon="3.2877">
        <ele>33.4981</ele>
        <time>2018-10-09T12:43:50Z</time>
      </trkpt>
      <trkpt lat="50.6198" lon="3.28776">
        <ele>33.501537</ele>
        <time>2018-10-09T12:43:52Z</time>
      </trkpt>
      <trkpt lat="50.61988" lon="3.28782">
        <ele>33.475182</ele>
        <time>2018-10-09T12:43:54Z</time>
      </trkpt>
      <trkpt lat="50.61996" lon="3.28787">
        <ele>33.39967</ele>
        <time>2018-10-09T12:43:56Z</time>
      </trkpt>
      <trkpt lat="50.62004" lon="3.28793">
        <ele>33.343307</ele>
        <time>2018-10-09T12:43:58Z</time>
      </trkpt>
      <trkpt lat="50.62011" lon="3.28798">
        <ele>33.300682</ele>
        <time>2018-10-09T12:44:00Z</time>
      </trkpt>
      <trkpt lat="50.62019" lon="3.28804">
        <ele>33.249462</ele>
        <time>2018-10-09T12:44:02Z</time>
      </trkpt>
      <trkpt lat="50.62026" lon="3.2881">
        <ele>33.114513</ele>
        <time>2018-10-09T12:44:04Z</time>
      </trkpt>
      <trkpt lat="50.62034" lon="3.28815">
        <ele>33.075436</ele>
        <time>2018-10-09T12:44:06Z</time>
      </trkpt>
      <trkpt lat="50.62042" lon="3.28821">
        <ele>33.041924</ele>
        <time>2018-10-09T12:44:08Z</time>
      </trkpt>
      <trkpt lat="50.6205" lon="3.28826">
        <ele>32.921009</ele>
        <time>2018-10-09T12:44:10Z</time>
      </trkpt>
      <trkpt lat="50.62057" lon="3.28832">
        <ele>32.770157</ele>
        <time>2018-10-09T12:44:12Z</time>
      </trkpt>
      <trkpt lat="50.62065" lon="3.28837">
        <ele>32.677322</ele>
        <time>2018-10-09T12:44:14Z</time>
      </trkpt>
      <trkpt lat="50.62072" lon="3.28843">
        <ele>32.580433</ele>
        <time>2018-10-09T12:44:16Z</time>
      </trkpt>
      <trkpt lat="50.6208" lon="3.28848">
        <ele>32.552166</ele>
        <time>2018-10-09T12:44:18Z</time>
      </trkpt>
      <trkpt lat="50.62087" lon="3.28853">
        <ele>32.544205</ele>
        <time>2018-10-09T12:44:20Z</time>
      </trkpt>
      <trkpt lat="50.62094" lon="3.28858">
        <ele>32.483013</ele>
        <time>2018-10-09T12:44:22Z</time>
      </trkpt>
      <trkpt lat="50.62101" lon="3.28863">
        <ele>32.397408</ele>
        <time>2018-10-09T12:44:24Z</time>
      </trkpt>
      <trkpt lat="50.62108" lon="3.28868">
        <ele>32.363121</ele>
        <time>2018-10-09T12:44:26Z</time>
      </trkpt>
      <trkpt lat="50.62115" lon="3.28873">
        <ele>32.28347</ele>
        <time>2018-10-09T12:44:28Z</time>
      </trkpt>
      <trkpt lat="50.62122" lon="3.28879">
        <ele>32.112892</ele>
        <time>2018-10-09T12:44:30Z</time>
      </trkpt>
      <trkpt lat="50.62129" lon="3.28885">
        <ele>32.00367</ele>
        <time>2018-10-09T12:44:32Z</time>
      </trkpt>
      <trkpt lat="50.62135" lon="3.28891">
        <ele>31.878469</ele>
        <time>2018-10-09T12:44:34Z</time>
      </trkpt>
      <trkpt lat="50.62142" lon="3.28897">
        <ele>31.813513</ele>
        <time>2018-10-09T12:44:36Z</time>
      </trkpt>
      <trkpt lat="50.62147" lon="3.28905">
        <ele>31.760075</ele>
        <time>2018-10-09T12:44:38Z</time>
      </trkpt>
      <trkpt lat="50.62151" lon="3.28914">
        <ele>31.766699</ele>
        <time>2018-10-09T12:44:40Z</time>
      </trkpt>
      <trkpt lat="50.62156" lon="3.28924">
        <ele>31.651882</ele>
        <time>2018-10-09T12:44:42Z</time>
      </trkpt>
      <trkpt lat="50.62161" lon="3.28933">
        <ele>31.609524</ele>
        <time>2018-10-09T12:44:44Z</time>
      </trkpt>
      <trkpt lat="50.62165" lon="3.28943">
        <ele>31.601572</ele>
        <time>2018-10-09T12:44:46Z</time>
      </trkpt>
      <trkpt lat="50.6217" lon="3.28952">
        <ele>31.45174</ele>
        <time>2018-10-09T12:44:48Z</time>
      </trkpt>
      <trkpt lat="50.62174" lon="3.28962">
        <ele>31.378021</ele>
        <time>2018-10-09T12:44:50Z</time>
      </trkpt>
      <trkpt lat="50.62179" lon="3.28972">
        <ele>31.369617</ele>
        <time>2018-10-09T12:44:52Z</time>
      </trkpt>
      <trkpt lat="50.62184" lon="3.28982">
        <ele>31.350948</ele>
        <time>2018-10-09T12:44:54Z</time>
      </trkpt>
      <trkpt lat="50.62188" lon="3.28991">
        <ele>31.270321</ele>
        <time>2018-10-09T12:44:56Z</time>
      </trkpt>
      <trkpt lat="50.62193" lon="3.29001">
        <ele>31.195837</ele>
        <time>2018-10-09T12:44:58Z</time>
      </trkpt>
      <trkpt lat="50.62199" lon="3.29011">
        <ele>31.141748</ele>
        <time>2018-10-09T12:45:00Z</time>
      </trkpt>
      <trkpt lat="50.62204" lon="3.2902">
        <ele>31.094696</ele>
        <time>2018-10-09T12:45:02Z</time>
      </trkpt>
      <trkpt lat="50.62211" lon="3.29028">
        <ele>31.020868</ele>
        <time>2018-10-09T12:45:04Z</time>
      </trkpt>
      <trkpt lat="50.62219" lon="3.29033">
        <ele>30.997601</ele>
        <time>2018-10-09T12:45:06Z</time>
      </trkpt>
      <trkpt lat="50.62227" lon="3.29036">
        <ele>30.934383</ele>
        <time>2018-10-09T12:45:08Z</time>
      </trkpt>
      <trkpt lat="50.62235" lon="3.2904">
        <ele>30.878031</ele>
        <time>2018-10-09T12:45:10Z</time>
      </trkpt>
      <trkpt lat="50.62244" lon="3.29043">
        <ele>30.825668</ele>
        <time>2018-10-09T12:45:12Z</time>
      </trkpt>
      <trkpt lat="50.62251" lon="3.29046">
        <ele>30.792582</ele>
        <time>2018-10-09T12:45:14Z</time>
      </trkpt>
      <trkpt lat="50.62256" lon="3.29048">
        <ele>30.749826</ele>
        <time>2018-10-09T12:45:16Z</time>
      </trkpt>
      <trkpt lat="50.62261" lon="3.29051">
        <ele>30.677435</ele>
        <time>2018-10-09T12:45:18Z</time>
      </trkpt>
      <trkpt lat="50.62266" lon="3.29053">
        <ele>30.613958</ele>
        <time>2018-10-09T12:45:20Z</time>
      </trkpt>
      <trkpt lat="50.6227" lon="3.29055">
        <ele>30.479355</ele>
        <time>2018-10-09T12:45:22Z</time>
      </trkpt>
      <trkpt lat="50.62273" lon="3.29057">
        <ele>30.363743</ele>
        <time>2018-10-09T12:45:24Z</time>
      </trkpt>
      <trkpt lat="50.62277" lon="3.29058">
        <ele>30.243982</ele>
        <time>2018-10-09T12:45:26Z</time>
      </trkpt>
      <trkpt lat="50.6228" lon="3.2906">
        <ele>30.154156</ele>
        <time>2018-10-09T12:45:28Z</time>
      </trkpt>
      <trkpt lat="50.62284" lon="3.29061">
        <ele>30.135349</ele>
        <time>2018-10-09T12:45:30Z</time>
      </trkpt>
      <trkpt lat="50.62288" lon="3.29056">
        <ele>30.003164</ele>
        <time>2018-10-09T12:45:32Z</time>
      </trkpt>
      <trkpt lat="50.62289" lon="3.29048">
        <ele>29.883686</ele>
        <time>2018-10-09T12:45:34Z</time>
      </trkpt>
      <trkpt lat="50.62291" lon="3.29039">
        <ele>29.745148</ele>
        <time>2018-10-09T12:45:36Z</time>
      </trkpt>
      <trkpt lat="50.62293" lon="3.29029">
        <ele>29.603741</ele>
        <time>2018-10-09T12:45:38Z</time>
      </trkpt>
      <trkpt lat="50.62295" lon="3.29019">
        <ele>29.449036</ele>
        <time>2018-10-09T12:45:40Z</time>
      </trkpt>
      <trkpt lat="50.62297" lon="3.29007">
        <ele>29.372213</ele>
        <time>2018-10-09T12:45:42Z</time>
      </trkpt>
      <trkpt lat="50.623" lon="3.28996">
        <ele>29.293375</ele>
        <time>2018-10-09T12:45:44Z</time>
      </trkpt>
      <trkpt lat="50.62302" lon="3.28985">
        <ele>29.171314</ele>
        <time>2018-10-09T12:45:46Z</time>
      </trkpt>
      <trkpt lat="50.62305" lon="3.28973">
        <ele>29.093866</ele>
        <time>2018-10-09T12:45:48Z</time>
      </trkpt>
      <trkpt lat="50.62309" lon="3.28962">
        <ele>29.027828</ele>
        <time>2018-10-09T12:45:50Z</time>
      </trkpt>
      <trkpt lat="50.62311" lon="3.2895">
        <ele>28.945017</ele>
        <time>2018-10-09T12:45:52Z</time>
      </trkpt>
      <trkpt lat="50.62314" lon="3.28938">
        <ele>28.877142</ele>
        <time>2018-10-09T12:45:54Z</time>
      </trkpt>
      <trkpt lat="50.62315" lon="3.28926">
        <ele>28.804516</ele>
        <time>2018-10-09T12:45:56Z</time>
      </trkpt>
      <trkpt lat="50.62316" lon="3.28913">
        <ele>28.752605</ele>
        <time>2018-10-09T12:45:58Z</time>
      </trkpt>
      <trkpt lat="50.62317" lon="3.289">
        <ele>28.661337</ele>
        <time>2018-10-09T12:46:00Z</time>
      </trkpt>
      <trkpt lat="50.62317" lon="3.28886">
        <ele>28.600388</ele>
        <time>2018-10-09T12:46:02Z</time>
      </trkpt>
      <trkpt lat="50.62317" lon="3.28873">
        <ele>28.614435</ele>
        <time>2018-10-09T12:46:04Z</time>
      </trkpt>
      <trkpt lat="50.62316" lon="3.28861">
        <ele>28.605366</ele>
        <time>2018-10-09T12:46:06Z</time>
      </trkpt>
      <trkpt lat="50.62315" lon="3.28848">
        <ele>28.557566</ele>
        <time>2018-10-09T12:46:08Z</time>
      </trkpt>
      <trkpt lat="50.62314" lon="3.28835">
        <ele>28.584961</ele>
        <time>2018-10-09T12:46:10Z</time>
      </trkpt>
      <trkpt lat="50.62312" lon="3.28821">
        <ele>28.554836</ele>
        <time>2018-10-09T12:46:12Z</time>
      </trkpt>
      <trkpt lat="50.6231" lon="3.28808">
        <ele>28.59132</ele>
        <time>2018-10-09T12:46:14Z</time>
      </trkpt>
      <trkpt lat="50.62308" lon="3.28796">
        <ele>28.610144</ele>
        <time>2018-10-09T12:46:16Z</time>
      </trkpt>
      <trkpt lat="50.62307" lon="3.28783">
        <ele>28.673441</ele>
        <time>2018-10-09T12:46:18Z</time>
      </trkpt>
      <trkpt lat="50.62305" lon="3.2877">
        <ele>28.692432</ele>
        <time>2018-10-09T12:46:20Z</time>
      </trkpt>
      <trkpt lat="50.62304" lon="3.28758">
        <ele>28.709576</ele>
        <time>2018-10-09T12:46:22Z</time>
      </trkpt>
      <trkpt lat="50.62303" lon="3.28745">
        <ele>28.720963</ele>
        <time>2018-10-09T12:46:24Z</time>
      </trkpt>
      <trkpt lat="50.62302" lon="3.28731">
        <ele>28.715908</ele>
        <time>2018-10-09T12:46:26Z</time>
      </trkpt>
      <trkpt lat="50.62301" lon="3.28718">
        <ele>28.731297</ele>
        <time>2018-10-09T12:46:28Z</time>
      </trkpt>
      <trkpt lat="50.62301" lon="3.28704">
        <ele>28.74581</ele>
        <time>2018-10-09T12:46:30Z</time>
      </trkpt>
      <trkpt lat="50.62301" lon="3.2869">
        <ele>28.802753</ele>
        <time>2018-10-09T12:46:32Z</time>
      </trkpt>
      <trkpt lat="50.62301" lon="3.28677">
        <ele>28.810293</ele>
        <time>2018-10-09T12:46:34Z</time>
      </trkpt>
      <trkpt lat="50.623" lon="3.28663">
        <ele>28.79549</ele>
        <time>2018-10-09T12:46:36Z</time>
      </trkpt>
      <trkpt lat="50.623" lon="3.2865">
        <ele>28.771515</ele>
        <time>2018-10-09T12:46:38Z</time>
      </trkpt>
      <trkpt lat="50.62301" lon="3.28636">
        <ele>28.760397</ele>
        <time>2018-10-09T12:46:40Z</time>
      </trkpt>
      <trkpt lat="50.62301" lon="3.28623">
        <ele>28.774235</ele>
        <time>2018-10-09T12:46:42Z</time>
      </trkpt>
      <trkpt lat="50.623" lon="3.28609">
        <ele>28.770086</ele>
        <time>2018-10-09T12:46:44Z</time>
      </trkpt>
      <trkpt lat="50.62299" lon="3.28596">
        <ele>28.757467</ele>
        <time>2018-10-09T12:46:46Z</time>
      </trkpt>
      <trkpt lat="50.62296" lon="3.28583">
        <ele>28.752716</ele>
        <time>2018-10-09T12:46:48Z</time>
      </trkpt>
      <trkpt lat="50.62293" lon="3.28571">
        <ele>28.795996</ele>
        <time>2018-10-09T12:46:50Z</time>
      </trkpt>
      <trkpt lat="50.6229" lon="3.2856">
        <ele>28.757751</ele>
        <time>2018-10-09T12:46:52Z</time>
      </trkpt>
      <trkpt lat="50.62286" lon="3.28549">
        <ele>28.76889</ele>
        <time>2018-10-09T12:46:54Z</time>
      </trkpt>
      <trkpt lat="50.62282" lon="3.28539">
        <ele>28.783743</ele>
        <time>2018-10-09T12:46:56Z</time>
      </trkpt>
      <trkpt lat="50.62278" lon="3.28529">
        <ele>28.784754</ele>
        <time>2018-10-09T12:46:58Z</time>
      </trkpt>
      <trkpt lat="50.62274" lon="3.2852">
        <ele>28.818821</ele>
        <time>2018-10-09T12:47:00Z</time>
      </trkpt>
      <trkpt lat="50.6227" lon="3.28512">
        <ele>28.813999</ele>
        <time>2018-10-09T12:47:02Z</time>
      </trkpt>
      <trkpt lat="50.62267" lon="3.28504">
        <ele>28.771618</ele>
        <time>2018-10-09T12:47:04Z</time>
      </trkpt>
      <trkpt lat="50.62264" lon="3.28496">
        <ele>28.793619</ele>
        <time>2018-10-09T12:47:06Z</time>
      </trkpt>
      <trkpt lat="50.62261" lon="3.28487">
        <ele>28.773306</ele>
        <time>2018-10-09T12:47:08Z</time>
      </trkpt>
      <trkpt lat="50.62259" lon="3.28477">
        <ele>28.761103</ele>
        <time>2018-10-09T12:47:10Z</time>
      </trkpt>
      <trkpt lat="50.62256" lon="3.28465">
        <ele>28.726645</ele>
        <time>2018-10-09T12:47:12Z</time>
      </trkpt>
      <trkpt lat="50.62254" lon="3.28454">
        <ele>28.734842</ele>
        <time>2018-10-09T12:47:14Z</time>
      </trkpt>
      <trkpt lat="50.62252" lon="3.28442">
        <ele>28.760818</ele>
        <time>2018-10-09T12:47:16Z</time>
      </trkpt>
      <trkpt lat="50.62251" lon="3.2843">
        <ele>28.801853</ele>
        <time>2018-10-09T12:47:18Z</time>
      </trkpt>
      <trkpt lat="50.62251" lon="3.28419">
        <ele>28.840097</ele>
        <time>2018-10-09T12:47:20Z</time>
      </trkpt>
      <trkpt lat="50.6225" lon="3.28408">
        <ele>28.858145</ele>
        <time>2018-10-09T12:47:22Z</time>
      </trkpt>
      <trkpt lat="50.62251" lon="3.28399">
        <ele>28.947138</ele>
        <time>2018-10-09T12:47:24Z</time>
      </trkpt>
      <trkpt lat="50.62251" lon="3.28392">
        <ele>29.001377</ele>
        <time>2018-10-09T12:47:26Z</time>
      </trkpt>
      <trkpt lat="50.62252" lon="3.28384">
        <ele>29.08588</ele>
        <time>2018-10-09T12:47:28Z</time>
      </trkpt>
      <trkpt lat="50.62252" lon="3.28374">
        <ele>29.098515</ele>
        <time>2018-10-09T12:47:30Z</time>
      </trkpt>
      <trkpt lat="50.62254" lon="3.28363">
        <ele>29.176605</ele>
        <time>2018-10-09T12:47:32Z</time>
      </trkpt>
      <trkpt lat="50.62256" lon="3.28351">
        <ele>29.208603</ele>
        <time>2018-10-09T12:47:34Z</time>
      </trkpt>
      <trkpt lat="50.62258" lon="3.28339">
        <ele>29.270123</ele>
        <time>2018-10-09T12:47:36Z</time>
      </trkpt>
      <trkpt lat="50.62261" lon="3.28327">
        <ele>29.309666</ele>
        <time>2018-10-09T12:47:38Z</time>
      </trkpt>
      <trkpt lat="50.62265" lon="3.28314">
        <ele>29.304419</ele>
        <time>2018-10-09T12:47:40Z</time>
      </trkpt>
      <trkpt lat="50.62268" lon="3.28303">
        <ele>29.35516</ele>
        <time>2018-10-09T12:47:42Z</time>
      </trkpt>
      <trkpt lat="50.62271" lon="3.28291">
        <ele>29.402752</ele>
        <time>2018-10-09T12:47:44Z</time>
      </trkpt>
      <trkpt lat="50.62274" lon="3.28279">
        <ele>29.418137</ele>
        <time>2018-10-09T12:47:46Z</time>
      </trkpt>
      <trkpt lat="50.62277" lon="3.28267">
        <ele>29.394123</ele>
        <time>2018-10-09T12:47:48Z</time>
      </trkpt>
      <trkpt lat="50.6228" lon="3.28254">
        <ele>29.409409</ele>
        <time>2018-10-09T12:47:50Z</time>
      </trkpt>
      <trkpt lat="50.62283" lon="3.28242">
        <ele>29.414219</ele>
        <time>2018-10-09T12:47:52Z</time>
      </trkpt>
      <trkpt lat="50.62286" lon="3.28231">
        <ele>29.413769</ele>
        <time>2018-10-09T12:47:54Z</time>
      </trkpt>
      <trkpt lat="50.62289" lon="3.28219">
        <ele>29.398458</ele>
        <time>2018-10-09T12:47:56Z</time>
      </trkpt>
      <trkpt lat="50.62292" lon="3.28207">
        <ele>29.418549</ele>
        <time>2018-10-09T12:47:58Z</time>
      </trkpt>
      <trkpt lat="50.62295" lon="3.28196">
        <ele>29.407887</ele>
        <time>2018-10-09T12:48:00Z</time>
      </trkpt>
      <trkpt lat="50.62298" lon="3.28184">
        <ele>29.411968</ele>
        <time>2018-10-09T12:48:02Z</time>
      </trkpt>
      <trkpt lat="50.62301" lon="3.28172">
        <ele>29.445164</ele>
        <time>2018-10-09T12:48:04Z</time>
      </trkpt>
      <trkpt lat="50.62304" lon="3.2816">
        <ele>29.420828</ele>
        <time>2018-10-09T12:48:06Z</time>
      </trkpt>
      <trkpt lat="50.62307" lon="3.28148">
        <ele>29.398371</ele>
        <time>2018-10-09T12:48:08Z</time>
      </trkpt>
      <trkpt lat="50.62311" lon="3.28135">
        <ele>29.43576</ele>
        <time>2018-10-09T12:48:10Z</time>
      </trkpt>
      <trkpt lat="50.62314" lon="3.28123">
        <ele>29.439783</ele>
        <time>2018-10-09T12:48:12Z</time>
      </trkpt>
      <trkpt lat="50.62317" lon="3.28111">
        <ele>29.467443</ele>
        <time>2018-10-09T12:48:14Z</time>
      </trkpt>
      <trkpt lat="50.6232" lon="3.28099">
        <ele>29.500637</ele>
        <time>2018-10-09T12:48:16Z</time>
      </trkpt>
      <trkpt lat="50.62323" lon="3.28087">
        <ele>29.500919</ele>
        <time>2018-10-09T12:48:18Z</time>
      </trkpt>
      <trkpt lat="50.62326" lon="3.28075">
        <ele>29.489384</ele>
        <time>2018-10-09T12:48:20Z</time>
      </trkpt>
      <trkpt lat="50.6233" lon="3.28063">
        <ele>29.498245</ele>
        <time>2018-10-09T12:48:22Z</time>
      </trkpt>
      <trkpt lat="50.62333" lon="3.2805">
        <ele>29.45953</ele>
        <time>2018-10-09T12:48:24Z</time>
      </trkpt>
      <trkpt lat="50.62336" lon="3.28038">
        <ele>29.495728</ele>
        <time>2018-10-09T12:48:26Z</time>
      </trkpt>
      <trkpt lat="50.62339" lon="3.28026">
        <ele>29.533625</ele>
        <time>2018-10-09T12:48:28Z</time>
      </trkpt>
      <trkpt lat="50.62343" lon="3.28014">
        <ele>29.529842</ele>
        <time>2018-10-09T12:48:30Z</time>
      </trkpt>
      <trkpt lat="50.62346" lon="3.28002">
        <ele>29.532013</ele>
        <time>2018-10-09T12:48:32Z</time>
      </trkpt>
      <trkpt lat="50.62349" lon="3.2799">
        <ele>29.552738</ele>
        <time>2018-10-09T12:48:34Z</time>
      </trkpt>
      <trkpt lat="50.62352" lon="3.27978">
        <ele>29.564072</ele>
        <time>2018-10-09T12:48:36Z</time>
      </trkpt>
      <trkpt lat="50.62355" lon="3.27966">
        <ele>29.539572</ele>
        <time>2018-10-09T12:48:38Z</time>
      </trkpt>
      <trkpt lat="50.62358" lon="3.27953">
        <ele>29.541805</ele>
        <time>2018-10-09T12:48:40Z</time>
      </trkpt>
      <trkpt lat="50.62361" lon="3.27941">
        <ele>29.548763</ele>
        <time>2018-10-09T12:48:42Z</time>
      </trkpt>
      <trkpt lat="50.62364" lon="3.2793">
        <ele>29.554626</ele>
        <time>2018-10-09T12:48:44Z</time>
      </trkpt>
      <trkpt lat="50.62367" lon="3.27918">
        <ele>29.537369</ele>
        <time>2018-10-09T12:48:46Z</time>
      </trkpt>
      <trkpt lat="50.6237" lon="3.27907">
        <ele>29.498417</ele>
        <time>2018-10-09T12:48:48Z</time>
      </trkpt>
      <trkpt lat="50.62373" lon="3.27896">
        <ele>29.494244</ele>
        <time>2018-10-09T12:48:50Z</time>
      </trkpt>
      <trkpt lat="50.62376" lon="3.27883">
        <ele>29.414068</ele>
        <time>2018-10-09T12:48:52Z</time>
      </trkpt>
      <trkpt lat="50.6238" lon="3.27871">
        <ele>29.347446</ele>
        <time>2018-10-09T12:48:54Z</time>
      </trkpt>
      <trkpt lat="50.62383" lon="3.27859">
        <ele>29.319202</ele>
        <time>2018-10-09T12:48:56Z</time>
      </trkpt>
      <trkpt lat="50.62386" lon="3.27846">
        <ele>29.266281</ele>
        <time>2018-10-09T12:48:58Z</time>
      </trkpt>
      <trkpt lat="50.62389" lon="3.27833">
        <ele>29.191299</ele>
        <time>2018-10-09T12:49:00Z</time>
      </trkpt>
      <trkpt lat="50.62392" lon="3.2782">
        <ele>29.163044</ele>
        <time>2018-10-09T12:49:02Z</time>
      </trkpt>
      <trkpt lat="50.62396" lon="3.27807">
        <ele>29.133612</ele>
        <time>2018-10-09T12:49:04Z</time>
      </trkpt>
      <trkpt lat="50.62399" lon="3.27793">
        <ele>29.076389</ele>
        <time>2018-10-09T12:49:06Z</time>
      </trkpt>
      <trkpt lat="50.62403" lon="3.27781">
        <ele>29.072515</ele>
        <time>2018-10-09T12:49:08Z</time>
      </trkpt>
      <trkpt lat="50.62406" lon="3.27768">
        <ele>29.002232</ele>
        <time>2018-10-09T12:49:10Z</time>
      </trkpt>
      <trkpt lat="50.62409" lon="3.27755">
        <ele>29.014126</ele>
        <time>2018-10-09T12:49:12Z</time>
      </trkpt>
      <trkpt lat="50.62412" lon="3.27743">
        <ele>29.077061</ele>
        <time>2018-10-09T12:49:14Z</time>
      </trkpt>
      <trkpt lat="50.62416" lon="3.2773">
        <ele>29.035797</ele>
        <time>2018-10-09T12:49:16Z</time>
      </trkpt>
      <trkpt lat="50.6242" lon="3.27717">
        <ele>29.015457</ele>
        <time>2018-10-09T12:49:18Z</time>
      </trkpt>
      <trkpt lat="50.62423" lon="3.27703">
        <ele>28.971004</ele>
        <time>2018-10-09T12:49:20Z</time>
      </trkpt>
      <trkpt lat="50.62426" lon="3.2769">
        <ele>28.939495</ele>
        <time>2018-10-09T12:49:22Z</time>
      </trkpt>
      <trkpt lat="50.62429" lon="3.27677">
        <ele>28.937641</ele>
        <time>2018-10-09T12:49:24Z</time>
      </trkpt>
      <trkpt lat="50.62433" lon="3.27665">
        <ele>28.890972</ele>
        <time>2018-10-09T12:49:26Z</time>
      </trkpt>
      <trkpt lat="50.62436" lon="3.27653">
        <ele>28.863947</ele>
        <time>2018-10-09T12:49:28Z</time>
      </trkpt>
      <trkpt lat="50.62439" lon="3.27641">
        <ele>28.810648</ele>
        <time>2018-10-09T12:49:30Z</time>
      </trkpt>
      <trkpt lat="50.62442" lon="3.27629">
        <ele>28.812454</ele>
        <time>2018-10-09T12:49:32Z</time>
      </trkpt>
      <trkpt lat="50.62445" lon="3.27616">
        <ele>28.8325</ele>
        <time>2018-10-09T12:49:34Z</time>
      </trkpt>
      <trkpt lat="50.62449" lon="3.27603">
        <ele>28.803391</ele>
        <time>2018-10-09T12:49:36Z</time>
      </trkpt>
      <trkpt lat="50.62452" lon="3.2759">
        <ele>28.772751</ele>
        <time>2018-10-09T12:49:38Z</time>
      </trkpt>
      <trkpt lat="50.62455" lon="3.27578">
        <ele>28.797153</ele>
        <time>2018-10-09T12:49:40Z</time>
      </trkpt>
      <trkpt lat="50.62458" lon="3.27565">
        <ele>28.777679</ele>
        <time>2018-10-09T12:49:42Z</time>
      </trkpt>
      <trkpt lat="50.62461" lon="3.27553">
        <ele>28.700012</ele>
        <time>2018-10-09T12:49:44Z</time>
      </trkpt>
      <trkpt lat="50.62465" lon="3.27541">
        <ele>28.687962</ele>
        <time>2018-10-09T12:49:46Z</time>
      </trkpt>
      <trkpt lat="50.62468" lon="3.27529">
        <ele>28.627949</ele>
        <time>2018-10-09T12:49:48Z</time>
      </trkpt>
      <trkpt lat="50.62471" lon="3.27516">
        <ele>28.602604</ele>
        <time>2018-10-09T12:49:50Z</time>
      </trkpt>
      <trkpt lat="50.62474" lon="3.27504">
        <ele>28.557871</ele>
        <time>2018-10-09T12:49:52Z</time>
      </trkpt>
      <trkpt lat="50.62478" lon="3.27492">
        <ele>28.495213</ele>
        <time>2018-10-09T12:49:54Z</time>
      </trkpt>
      <trkpt lat="50.62481" lon="3.27479">
        <ele>28.468912</ele>
        <time>2018-10-09T12:49:56Z</time>
      </trkpt>
      <trkpt lat="50.62484" lon="3.27467">
        <ele>28.439753</ele>
        <time>2018-10-09T12:49:58Z</time>
      </trkpt>
      <trkpt lat="50.62487" lon="3.27456">
        <ele>28.463001</ele>
        <time>2018-10-09T12:50:00Z</time>
      </trkpt>
      <trkpt lat="50.6249" lon="3.27445">
        <ele>28.473398</ele>
        <time>2018-10-09T12:50:02Z</time>
      </trkpt>
      <trkpt lat="50.62493" lon="3.27432">
        <ele>28.455425</ele>
        <time>2018-10-09T12:50:04Z</time>
      </trkpt>
      <trkpt lat="50.62496" lon="3.2742">
        <ele>28.415655</ele>
        <time>2018-10-09T12:50:06Z</time>
      </trkpt>
      <trkpt lat="50.625" lon="3.27407">
        <ele>28.418127</ele>
        <time>2018-10-09T12:50:08Z</time>
      </trkpt>
      <trkpt lat="50.62504" lon="3.27395">
        <ele>28.427052</ele>
        <time>2018-10-09T12:50:10Z</time>
      </trkpt>
      <trkpt lat="50.62509" lon="3.27383">
        <ele>28.38414</ele>
        <time>2018-10-09T12:50:12Z</time>
      </trkpt>
      <trkpt lat="50.62514" lon="3.27371">
        <ele>28.342319</ele>
        <time>2018-10-09T12:50:14Z</time>
      </trkpt>
      <trkpt lat="50.6252" lon="3.2736">
        <ele>28.33498</ele>
        <time>2018-10-09T12:50:16Z</time>
      </trkpt>
      <trkpt lat="50.62526" lon="3.27349">
        <ele>28.30695</ele>
        <time>2018-10-09T12:50:18Z</time>
      </trkpt>
      <trkpt lat="50.62532" lon="3.27338">
        <ele>28.257381</ele>
        <time>2018-10-09T12:50:20Z</time>
      </trkpt>
      <trkpt lat="50.62538" lon="3.27328">
        <ele>28.226505</ele>
        <time>2018-10-09T12:50:22Z</time>
      </trkpt>
      <trkpt lat="50.62545" lon="3.27318">
        <ele>28.232861</ele>
        <time>2018-10-09T12:50:24Z</time>
      </trkpt>
      <trkpt lat="50.62551" lon="3.27309">
        <ele>28.253876</ele>
        <time>2018-10-09T12:50:26Z</time>
      </trkpt>
      <trkpt lat="50.62558" lon="3.273">
        <ele>28.255518</ele>
        <time>2018-10-09T12:50:28Z</time>
      </trkpt>
      <trkpt lat="50.62563" lon="3.27292">
        <ele>28.253305</ele>
        <time>2018-10-09T12:50:30Z</time>
      </trkpt>
      <trkpt lat="50.62569" lon="3.27284">
        <ele>28.240219</ele>
        <time>2018-10-09T12:50:32Z</time>
      </trkpt>
      <trkpt lat="50.62575" lon="3.27276">
        <ele>28.246176</ele>
        <time>2018-10-09T12:50:34Z</time>
      </trkpt>
      <trkpt lat="50.62581" lon="3.27267">
        <ele>28.227398</ele>
        <time>2018-10-09T12:50:36Z</time>
      </trkpt>
      <trkpt lat="50.62584" lon="3.27257">
        <ele>28.233261</ele>
        <time>2018-10-09T12:50:38Z</time>
      </trkpt>
      <trkpt lat="50.62587" lon="3.27246">
        <ele>28.219446</ele>
        <time>2018-10-09T12:50:40Z</time>
      </trkpt>
      <trkpt lat="50.62588" lon="3.27238">
        <ele>28.169403</ele>
        <time>2018-10-09T12:50:42Z</time>
      </trkpt>
      <trkpt lat="50.62588" lon="3.2723">
        <ele>28.128473</ele>
        <time>2018-10-09T12:50:44Z</time>
      </trkpt>
      <trkpt lat="50.62587" lon="3.27222">
        <ele>28.167217</ele>
        <time>2018-10-09T12:50:46Z</time>
      </trkpt>
      <trkpt lat="50.62586" lon="3.27213">
        <ele>28.116461</ele>
        <time>2018-10-09T12:50:48Z</time>
      </trkpt>
      <trkpt lat="50.62584" lon="3.27203">
        <ele>28.113651</ele>
        <time>2018-10-09T12:50:50Z</time>
      </trkpt>
      <trkpt lat="50.62583" lon="3.27196">
        <ele>28.140949</ele>
        <time>2018-10-09T12:50:52Z</time>
      </trkpt>
      <trkpt lat="50.62582" lon="3.27192">
        <ele>28.144226</ele>
        <time>2018-10-09T12:50:54Z</time>
      </trkpt>
      <trkpt lat="50.62582" lon="3.27188">
        <ele>28.158733</ele>
        <time>2018-10-09T12:50:56Z</time>
      </trkpt>
      <trkpt lat="50.62581" lon="3.27185">
        <ele>28.176342</ele>
        <time>2018-10-09T12:50:58Z</time>
      </trkpt>
      <trkpt lat="50.6258" lon="3.27181">
        <ele>28.230021</ele>
        <time>2018-10-09T12:51:00Z</time>
      </trkpt>
      <trkpt lat="50.62578" lon="3.27178">
        <ele>28.289639</ele>
        <time>2018-10-09T12:51:02Z</time>
      </trkpt>
      <trkpt lat="50.62577" lon="3.27174">
        <ele>28.331203</ele>
        <time>2018-10-09T12:51:04Z</time>
      </trkpt>
      <trkpt lat="50.62577" lon="3.27167">
        <ele>28.358841</ele>
        <time>2018-10-09T12:51:06Z</time>
      </trkpt>
      <trkpt lat="50.62576" lon="3.2716">
        <ele>28.360392</ele>
        <time>2018-10-09T12:51:08Z</time>
      </trkpt>
      <trkpt lat="50.62575" lon="3.27151">
        <ele>28.38175</ele>
        <time>2018-10-09T12:51:10Z</time>
      </trkpt>
      <trkpt lat="50.62574" lon="3.27143">
        <ele>28.428822</ele>
        <time>2018-10-09T12:51:12Z</time>
      </trkpt>
      <trkpt lat="50.62573" lon="3.27136">
        <ele>28.527191</ele>
        <time>2018-10-09T12:51:14Z</time>
      </trkpt>
      <trkpt lat="50.62572" lon="3.27131">
        <ele>28.548939</ele>
        <time>2018-10-09T12:51:16Z</time>
      </trkpt>
      <trkpt lat="50.62571" lon="3.27128">
        <ele>28.593746</ele>
        <time>2018-10-09T12:51:18Z</time>
      </trkpt>
      <trkpt lat="50.62571" lon="3.27122">
        <ele>28.664265</ele>
        <time>2018-10-09T12:51:20Z</time>
      </trkpt>
      <trkpt lat="50.6257" lon="3.27117">
        <ele>28.711094</ele>
        <time>2018-10-09T12:51:22Z</time>
      </trkpt>
      <trkpt lat="50.62565" lon="3.27115">
        <ele>28.780966</ele>
        <time>2018-10-09T12:51:24Z</time>
      </trkpt>
      <trkpt lat="50.6256" lon="3.27119">
        <ele>28.854321</ele>
        <time>2018-10-09T12:51:26Z</time>
      </trkpt>
      <trkpt lat="50.62554" lon="3.27125">
        <ele>28.929602</ele>
        <time>2018-10-09T12:51:28Z</time>
      </trkpt>
      <trkpt lat="50.62549" lon="3.27131">
        <ele>28.987576</ele>
        <time>2018-10-09T12:51:30Z</time>
      </trkpt>
      <trkpt lat="50.62544" lon="3.27138">
        <ele>29.025797</ele>
        <time>2018-10-09T12:51:32Z</time>
      </trkpt>
      <trkpt lat="50.62539" lon="3.27144">
        <ele>29.051916</ele>
        <time>2018-10-09T12:51:34Z</time>
      </trkpt>
      <trkpt lat="50.62533" lon="3.27151">
        <ele>29.066799</ele>
        <time>2018-10-09T12:51:36Z</time>
      </trkpt>
      <trkpt lat="50.62528" lon="3.27156">
        <ele>29.0826</ele>
        <time>2018-10-09T12:51:38Z</time>
      </trkpt>
      <trkpt lat="50.62521" lon="3.27158">
        <ele>29.096567</ele>
        <time>2018-10-09T12:51:40Z</time>
      </trkpt>
      <trkpt lat="50.62514" lon="3.27152">
        <ele>29.144024</ele>
        <time>2018-10-09T12:51:42Z</time>
      </trkpt>
      <trkpt lat="50.62508" lon="3.27144">
        <ele>29.148647</ele>
        <time>2018-10-09T12:51:44Z</time>
      </trkpt>
      <trkpt lat="50.62503" lon="3.27136">
        <ele>29.23118</ele>
        <time>2018-10-09T12:51:46Z</time>
      </trkpt>
      <trkpt lat="50.62497" lon="3.27129">
        <ele>29.283783</ele>
        <time>2018-10-09T12:51:48Z</time>
      </trkpt>
      <trkpt lat="50.62491" lon="3.27122">
        <ele>29.333426</ele>
        <time>2018-10-09T12:51:50Z</time>
      </trkpt>
      <trkpt lat="50.62484" lon="3.27116">
        <ele>29.43049</ele>
        <time>2018-10-09T12:51:52Z</time>
      </trkpt>
      <trkpt lat="50.62478" lon="3.27111">
        <ele>29.492767</ele>
        <time>2018-10-09T12:51:54Z</time>
      </trkpt>
      <trkpt lat="50.6247" lon="3.27106">
        <ele>29.497532</ele>
        <time>2018-10-09T12:51:56Z</time>
      </trkpt>
      <trkpt lat="50.62463" lon="3.27102">
        <ele>29.533808</ele>
        <time>2018-10-09T12:51:58Z</time>
      </trkpt>
      <trkpt lat="50.62455" lon="3.27098">
        <ele>29.516842</ele>
        <time>2018-10-09T12:52:00Z</time>
      </trkpt>
      <trkpt lat="50.62448" lon="3.27093">
        <ele>29.491013</ele>
        <time>2018-10-09T12:52:02Z</time>
      </trkpt>
      <trkpt lat="50.6244" lon="3.27088">
        <ele>29.499172</ele>
        <time>2018-10-09T12:52:04Z</time>
      </trkpt>
      <trkpt lat="50.62433" lon="3.27084">
        <ele>29.49979</ele>
        <time>2018-10-09T12:52:06Z</time>
      </trkpt>
      <trkpt lat="50.62425" lon="3.27079">
        <ele>29.472849</ele>
        <time>2018-10-09T12:52:08Z</time>
      </trkpt>
      <trkpt lat="50.62416" lon="3.27075">
        <ele>29.46487</ele>
        <time>2018-10-09T12:52:10Z</time>
      </trkpt>
      <trkpt lat="50.62408" lon="3.27071">
        <ele>29.48082</ele>
        <time>2018-10-09T12:52:12Z</time>
      </trkpt>
      <trkpt lat="50.624" lon="3.27066">
        <ele>29.486898</ele>
        <time>2018-10-09T12:52:14Z</time>
      </trkpt>
      <trkpt lat="50.62392" lon="3.27062">
        <ele>29.508097</ele>
        <time>2018-10-09T12:52:16Z</time>
      </trkpt>
      <trkpt lat="50.62385" lon="3.27058">
        <ele>29.504068</ele>
        <time>2018-10-09T12:52:18Z</time>
      </trkpt>
      <trkpt lat="50.62377" lon="3.27053">
        <ele>29.512569</ele>
        <time>2018-10-09T12:52:20Z</time>
      </trkpt>
      <trkpt lat="50.6237" lon="3.27049">
        <ele>29.516506</ele>
        <time>2018-10-09T12:52:22Z</time>
      </trkpt>
      <trkpt lat="50.62362" lon="3.27044">
        <ele>29.472153</ele>
        <time>2018-10-09T12:52:24Z</time>
      </trkpt>
      <trkpt lat="50.62354" lon="3.2704">
        <ele>29.416555</ele>
        <time>2018-10-09T12:52:26Z</time>
      </trkpt>
      <trkpt lat="50.62346" lon="3.27035">
        <ele>29.34551</ele>
        <time>2018-10-09T12:52:28Z</time>
      </trkpt>
      <trkpt lat="50.62339" lon="3.27031">
        <ele>29.317936</ele>
        <time>2018-10-09T12:52:30Z</time>
      </trkpt>
      <trkpt lat="50.62331" lon="3.27027">
        <ele>29.236929</ele>
        <time>2018-10-09T12:52:32Z</time>
      </trkpt>
      <trkpt lat="50.62324" lon="3.27023">
        <ele>29.196712</ele>
        <time>2018-10-09T12:52:34Z</time>
      </trkpt>
      <trkpt lat="50.62317" lon="3.27019">
        <ele>29.162846</ele>
        <time>2018-10-09T12:52:36Z</time>
      </trkpt>
      <trkpt lat="50.62309" lon="3.27014">
        <ele>29.117624</ele>
        <time>2018-10-09T12:52:38Z</time>
      </trkpt>
      <trkpt lat="50.62302" lon="3.2701">
        <ele>29.063137</ele>
        <time>2018-10-09T12:52:40Z</time>
      </trkpt>
      <trkpt lat="50.62294" lon="3.27005">
        <ele>29.02858</ele>
        <time>2018-10-09T12:52:42Z</time>
      </trkpt>
      <trkpt lat="50.62286" lon="3.27001">
        <ele>29.010082</ele>
        <time>2018-10-09T12:52:44Z</time>
      </trkpt>
      <trkpt lat="50.62278" lon="3.26997">
        <ele>29.000544</ele>
        <time>2018-10-09T12:52:46Z</time>
      </trkpt>
      <trkpt lat="50.62272" lon="3.26993">
        <ele>29.021992</ele>
        <time>2018-10-09T12:52:48Z</time>
      </trkpt>
      <trkpt lat="50.62264" lon="3.26988">
        <ele>29.022152</ele>
        <time>2018-10-09T12:52:50Z</time>
      </trkpt>
      <trkpt lat="50.62257" lon="3.26984">
        <ele>28.998987</ele>
        <time>2018-10-09T12:52:52Z</time>
      </trkpt>
      <trkpt lat="50.62249" lon="3.2698">
        <ele>28.997559</ele>
        <time>2018-10-09T12:52:54Z</time>
      </trkpt>
      <trkpt lat="50.62241" lon="3.26978">
        <ele>28.993946</ele>
        <time>2018-10-09T12:52:56Z</time>
      </trkpt>
      <trkpt lat="50.62232" lon="3.26976">
        <ele>29.000748</ele>
        <time>2018-10-09T12:52:58Z</time>
      </trkpt>
      <trkpt lat="50.62224" lon="3.26976">
        <ele>29.053715</ele>
        <time>2018-10-09T12:53:00Z</time>
      </trkpt>
      <trkpt lat="50.62215" lon="3.26976">
        <ele>29.077734</ele>
        <time>2018-10-09T12:53:02Z</time>
      </trkpt>
      <trkpt lat="50.62207" lon="3.26976">
        <ele>29.12446</ele>
        <time>2018-10-09T12:53:04Z</time>
      </trkpt>
      <trkpt lat="50.62199" lon="3.26976">
        <ele>29.162821</ele>
        <time>2018-10-09T12:53:06Z</time>
      </trkpt>
      <trkpt lat="50.62191" lon="3.26976">
        <ele>29.20216</ele>
        <time>2018-10-09T12:53:08Z</time>
      </trkpt>
      <trkpt lat="50.62183" lon="3.26976">
        <ele>29.242512</ele>
        <time>2018-10-09T12:53:10Z</time>
      </trkpt>
      <trkpt lat="50.62176" lon="3.26976">
        <ele>29.244232</ele>
        <time>2018-10-09T12:53:12Z</time>
      </trkpt>
      <trkpt lat="50.62169" lon="3.26976">
        <ele>29.276539</ele>
        <time>2018-10-09T12:53:14Z</time>
      </trkpt>
      <trkpt lat="50.62162" lon="3.26977">
        <ele>29.234369</ele>
        <time>2018-10-09T12:53:16Z</time>
      </trkpt>
      <trkpt lat="50.62156" lon="3.26976">
        <ele>29.289005</ele>
        <time>2018-10-09T12:53:18Z</time>
      </trkpt>
      <trkpt lat="50.62149" lon="3.26976">
        <ele>29.353628</ele>
        <time>2018-10-09T12:53:20Z</time>
      </trkpt>
      <trkpt lat="50.62142" lon="3.26976">
        <ele>29.387705</ele>
        <time>2018-10-09T12:53:22Z</time>
      </trkpt>
      <trkpt lat="50.62135" lon="3.26976">
        <ele>29.485971</ele>
        <time>2018-10-09T12:53:24Z</time>
      </trkpt>
      <trkpt lat="50.62127" lon="3.26975">
        <ele>29.48946</ele>
        <time>2018-10-09T12:53:26Z</time>
      </trkpt>
      <trkpt lat="50.62119" lon="3.26974">
        <ele>29.494061</ele>
        <time>2018-10-09T12:53:28Z</time>
      </trkpt>
      <trkpt lat="50.62111" lon="3.26972">
        <ele>29.549229</ele>
        <time>2018-10-09T12:53:30Z</time>
      </trkpt>
      <trkpt lat="50.62104" lon="3.26969">
        <ele>29.551197</ele>
        <time>2018-10-09T12:53:32Z</time>
      </trkpt>
      <trkpt lat="50.62097" lon="3.26963">
        <ele>29.597366</ele>
        <time>2018-10-09T12:53:34Z</time>
      </trkpt>
      <trkpt lat="50.6209" lon="3.26956">
        <ele>29.608974</ele>
        <time>2018-10-09T12:53:36Z</time>
      </trkpt>
      <trkpt lat="50.62084" lon="3.26949">
        <ele>29.561584</ele>
        <time>2018-10-09T12:53:38Z</time>
      </trkpt>
      <trkpt lat="50.62077" lon="3.26942">
        <ele>29.569458</ele>
        <time>2018-10-09T12:53:40Z</time>
      </trkpt>
      <trkpt lat="50.62071" lon="3.26935">
        <ele>29.59552</ele>
        <time>2018-10-09T12:53:42Z</time>
      </trkpt>
      <trkpt lat="50.62065" lon="3.26928">
        <ele>29.600616</ele>
        <time>2018-10-09T12:53:44Z</time>
      </trkpt>
      <trkpt lat="50.62058" lon="3.26921">
        <ele>29.599939</ele>
        <time>2018-10-09T12:53:46Z</time>
      </trkpt>
      <trkpt lat="50.62052" lon="3.26915">
        <ele>29.627161</ele>
        <time>2018-10-09T12:53:48Z</time>
      </trkpt>
      <trkpt lat="50.62045" lon="3.26908">
        <ele>29.643673</ele>
        <time>2018-10-09T12:53:50Z</time>
      </trkpt>
      <trkpt lat="50.62038" lon="3.26902">
        <ele>29.708292</ele>
        <time>2018-10-09T12:53:52Z</time>
      </trkpt>
      <trkpt lat="50.6203" lon="3.26896">
        <ele>29.744196</ele>
        <time>2018-10-09T12:53:54Z</time>
      </trkpt>
      <trkpt lat="50.62022" lon="3.26892">
        <ele>29.830765</ele>
        <time>2018-10-09T12:53:56Z</time>
      </trkpt>
      <trkpt lat="50.62014" lon="3.2689">
        <ele>29.826679</ele>
        <time>2018-10-09T12:53:58Z</time>
      </trkpt>
      <trkpt lat="50.62006" lon="3.2689">
        <ele>29.883261</ele>
        <time>2018-10-09T12:54:00Z</time>
      </trkpt>
      <trkpt lat="50.61998" lon="3.26891">
        <ele>29.90275</ele>
        <time>2018-10-09T12:54:02Z</time>
      </trkpt>
      <trkpt lat="50.6199" lon="3.26894">
        <ele>29.920507</ele>
        <time>2018-10-09T12:54:04Z</time>
      </trkpt>
      <trkpt lat="50.61982" lon="3.26898">
        <ele>29.965769</ele>
        <time>2018-10-09T12:54:06Z</time>
      </trkpt>
      <trkpt lat="50.61975" lon="3.26902">
        <ele>30.091354</ele>
        <time>2018-10-09T12:54:08Z</time>
      </trkpt>
      <trkpt lat="50.61967" lon="3.26907">
        <ele>30.128815</ele>
        <time>2018-10-09T12:54:10Z</time>
      </trkpt>
      <trkpt lat="50.61959" lon="3.26912">
        <ele>30.160955</ele>
        <time>2018-10-09T12:54:12Z</time>
      </trkpt>
      <trkpt lat="50.61951" lon="3.26917">
        <ele>30.217911</ele>
        <time>2018-10-09T12:54:14Z</time>
      </trkpt>
      <trkpt lat="50.61944" lon="3.26921">
        <ele>30.23078</ele>
        <time>2018-10-09T12:54:16Z</time>
      </trkpt>
      <trkpt lat="50.61936" lon="3.26925">
        <ele>30.357418</ele>
        <time>2018-10-09T12:54:18Z</time>
      </trkpt>
      <trkpt lat="50.61928" lon="3.26926">
        <ele>30.439413</ele>
        <time>2018-10-09T12:54:20Z</time>
      </trkpt>
      <trkpt lat="50.61919" lon="3.26927">
        <ele>30.5182</ele>
        <time>2018-10-09T12:54:22Z</time>
      </trkpt>
      <trkpt lat="50.6191" lon="3.26926">
        <ele>30.568762</ele>
        <time>2018-10-09T12:54:24Z</time>
      </trkpt>
      <trkpt lat="50.61902" lon="3.26926">
        <ele>30.640066</ele>
        <time>2018-10-09T12:54:26Z</time>
      </trkpt>
      <trkpt lat="50.61893" lon="3.26925">
        <ele>30.731241</ele>
        <time>2018-10-09T12:54:28Z</time>
      </trkpt>
      <trkpt lat="50.61884" lon="3.26923">
        <ele>30.830685</ele>
        <time>2018-10-09T12:54:30Z</time>
      </trkpt>
      <trkpt lat="50.61876" lon="3.26921">
        <ele>30.909931</ele>
        <time>2018-10-09T12:54:32Z</time>
      </trkpt>
      <trkpt lat="50.61867" lon="3.26918">
        <ele>31.033157</ele>
        <time>2018-10-09T12:54:34Z</time>
      </trkpt>
      <trkpt lat="50.61858" lon="3.26915">
        <ele>31.084213</ele>
        <time>2018-10-09T12:54:36Z</time>
      </trkpt>
      <trkpt lat="50.6185" lon="3.26912">
        <ele>31.231113</ele>
        <time>2018-10-09T12:54:38Z</time>
      </trkpt>
      <trkpt lat="50.61841" lon="3.26908">
        <ele>31.298569</ele>
        <time>2018-10-09T12:54:40Z</time>
      </trkpt>
      <trkpt lat="50.61832" lon="3.26905">
        <ele>31.369457</ele>
        <time>2018-10-09T12:54:42Z</time>
      </trkpt>
      <trkpt lat="50.61824" lon="3.26902">
        <ele>31.493662</ele>
        <time>2018-10-09T12:54:44Z</time>
      </trkpt>
      <trkpt lat="50.61815" lon="3.26899">
        <ele>31.56419</ele>
        <time>2018-10-09T12:54:46Z</time>
      </trkpt>
      <trkpt lat="50.61806" lon="3.26895">
        <ele>31.577753</ele>
        <time>2018-10-09T12:54:48Z</time>
      </trkpt>
      <trkpt lat="50.61797" lon="3.26892">
        <ele>31.598877</ele>
        <time>2018-10-09T12:54:50Z</time>
      </trkpt>
      <trkpt lat="50.61788" lon="3.26889">
        <ele>31.668285</ele>
        <time>2018-10-09T12:54:52Z</time>
      </trkpt>
      <trkpt lat="50.6178" lon="3.26886">
        <ele>31.739386</ele>
        <time>2018-10-09T12:54:54Z</time>
      </trkpt>
      <trkpt lat="50.61771" lon="3.26883">
        <ele>31.779758</ele>
        <time>2018-10-09T12:54:56Z</time>
      </trkpt>
      <trkpt lat="50.61763" lon="3.26881">
        <ele>31.872574</ele>
        <time>2018-10-09T12:54:58Z</time>
      </trkpt>
      <trkpt lat="50.61755" lon="3.26877">
        <ele>31.939655</ele>
        <time>2018-10-09T12:55:00Z</time>
      </trkpt>
      <trkpt lat="50.61747" lon="3.26874">
        <ele>32.000263</ele>
        <time>2018-10-09T12:55:02Z</time>
      </trkpt>
      <trkpt lat="50.61739" lon="3.26872">
        <ele>32.094704</ele>
        <time>2018-10-09T12:55:04Z</time>
      </trkpt>
      <trkpt lat="50.61733" lon="3.2687">
        <ele>32.268604</ele>
        <time>2018-10-09T12:55:06Z</time>
      </trkpt>
      <trkpt lat="50.61727" lon="3.26867">
        <ele>32.336472</ele>
        <time>2018-10-09T12:55:08Z</time>
      </trkpt>
      <trkpt lat="50.61723" lon="3.26864">
        <ele>32.433216</ele>
        <time>2018-10-09T12:55:10Z</time>
      </trkpt>
      <trkpt lat="50.61721" lon="3.26861">
        <ele>32.522194</ele>
        <time>2018-10-09T12:55:12Z</time>
      </trkpt>
      <trkpt lat="50.61718" lon="3.2686">
        <ele>32.619595</ele>
        <time>2018-10-09T12:55:14Z</time>
      </trkpt>
      <trkpt lat="50.61717" lon="3.26859">
        <ele>32.712742</ele>
        <time>2018-10-09T12:55:16Z</time>
      </trkpt>
      <trkpt lat="50.61717" lon="3.26855">
        <ele>33.160706</ele>
        <time>2018-10-09T12:55:32Z</time>
      </trkpt>
      <trkpt lat="50.61718" lon="3.26853">
        <ele>33.223076</ele>
        <time>2018-10-09T12:55:34Z</time>
      </trkpt>
      <trkpt lat="50.6172" lon="3.2685">
        <ele>33.376976</ele>
        <time>2018-10-09T12:55:42Z</time>
      </trkpt>
      <trkpt lat="50.61718" lon="3.26841">
        <ele>31.448492</ele>
        <time>2018-10-09T13:03:33Z</time>
      </trkpt>
      <trkpt lat="50.61718" lon="3.2683">
        <ele>31.458729</ele>
        <time>2018-10-09T13:03:35Z</time>
      </trkpt>
      <trkpt lat="50.61718" lon="3.26821">
        <ele>31.388611</ele>
        <time>2018-10-09T13:03:37Z</time>
      </trkpt>
      <trkpt lat="50.61718" lon="3.26812">
        <ele>31.368999</ele>
        <time>2018-10-09T13:03:39Z</time>
      </trkpt>
      <trkpt lat="50.61718" lon="3.26803">
        <ele>31.348568</ele>
        <time>2018-10-09T13:03:41Z</time>
      </trkpt>
      <trkpt lat="50.61718" lon="3.26793">
        <ele>31.468433</ele>
        <time>2018-10-09T13:03:43Z</time>
      </trkpt>
      <trkpt lat="50.61717" lon="3.26783">
        <ele>31.351337</ele>
        <time>2018-10-09T13:03:45Z</time>
      </trkpt>
      <trkpt lat="50.61713" lon="3.26774">
        <ele>31.336079</ele>
        <time>2018-10-09T13:03:47Z</time>
      </trkpt>
      <trkpt lat="50.61708" lon="3.26767">
        <ele>31.409794</ele>
        <time>2018-10-09T13:03:49Z</time>
      </trkpt>
      <trkpt lat="50.61702" lon="3.26761">
        <ele>31.344034</ele>
        <time>2018-10-09T13:03:51Z</time>
      </trkpt>
      <trkpt lat="50.61695" lon="3.26757">
        <ele>32.218201</ele>
        <time>2018-10-09T13:03:53Z</time>
      </trkpt>
      <trkpt lat="50.61688" lon="3.26751">
        <ele>32.129227</ele>
        <time>2018-10-09T13:03:55Z</time>
      </trkpt>
      <trkpt lat="50.6168" lon="3.26746">
        <ele>32.060947</ele>
        <time>2018-10-09T13:03:57Z</time>
      </trkpt>
      <trkpt lat="50.61673" lon="3.26741">
        <ele>32.068211</ele>
        <time>2018-10-09T13:03:59Z</time>
      </trkpt>
      <trkpt lat="50.61666" lon="3.26735">
        <ele>32.08799</ele>
        <time>2018-10-09T13:04:01Z</time>
      </trkpt>
      <trkpt lat="50.61659" lon="3.26728">
        <ele>32.112427</ele>
        <time>2018-10-09T13:04:03Z</time>
      </trkpt>
      <trkpt lat="50.61652" lon="3.26721">
        <ele>32.098816</ele>
        <time>2018-10-09T13:04:05Z</time>
      </trkpt>
      <trkpt lat="50.61645" lon="3.26715">
        <ele>32.099625</ele>
        <time>2018-10-09T13:04:07Z</time>
      </trkpt>
      <trkpt lat="50.61638" lon="3.26709">
        <ele>32.08128</ele>
        <time>2018-10-09T13:04:09Z</time>
      </trkpt>
      <trkpt lat="50.61631" lon="3.26702">
        <ele>32.082989</ele>
        <time>2018-10-09T13:04:11Z</time>
      </trkpt>
      <trkpt lat="50.61625" lon="3.26694">
        <ele>32.055843</ele>
        <time>2018-10-09T13:04:13Z</time>
      </trkpt>
      <trkpt lat="50.61618" lon="3.26685">
        <ele>32.010818</ele>
        <time>2018-10-09T13:04:15Z</time>
      </trkpt>
      <trkpt lat="50.61612" lon="3.26678">
        <ele>31.999317</ele>
        <time>2018-10-09T13:04:17Z</time>
      </trkpt>
      <trkpt lat="50.61604" lon="3.26673">
        <ele>31.999401</ele>
        <time>2018-10-09T13:04:19Z</time>
      </trkpt>
      <trkpt lat="50.61596" lon="3.2667">
        <ele>31.98653</ele>
        <time>2018-10-09T13:04:21Z</time>
      </trkpt>
      <trkpt lat="50.61587" lon="3.26669">
        <ele>31.97941</ele>
        <time>2018-10-09T13:04:23Z</time>
      </trkpt>
      <trkpt lat="50.61579" lon="3.26668">
        <ele>31.976933</ele>
        <time>2018-10-09T13:04:25Z</time>
      </trkpt>
      <trkpt lat="50.6157" lon="3.26668">
        <ele>31.973963</ele>
        <time>2018-10-09T13:04:27Z</time>
      </trkpt>
      <trkpt lat="50.61562" lon="3.26668">
        <ele>31.979336</ele>
        <time>2018-10-09T13:04:29Z</time>
      </trkpt>
      <trkpt lat="50.61554" lon="3.26667">
        <ele>32.009762</ele>
        <time>2018-10-09T13:04:31Z</time>
      </trkpt>
      <trkpt lat="50.61546" lon="3.26667">
        <ele>31.999256</ele>
        <time>2018-10-09T13:04:33Z</time>
      </trkpt>
      <trkpt lat="50.61538" lon="3.26666">
        <ele>32.011177</ele>
        <time>2018-10-09T13:04:35Z</time>
      </trkpt>
      <trkpt lat="50.61531" lon="3.26665">
        <ele>32.032219</ele>
        <time>2018-10-09T13:04:37Z</time>
      </trkpt>
      <trkpt lat="50.61525" lon="3.26665">
        <ele>32.049595</ele>
        <time>2018-10-09T13:04:39Z</time>
      </trkpt>
      <trkpt lat="50.61518" lon="3.26665">
        <ele>32.079826</ele>
        <time>2018-10-09T13:04:41Z</time>
      </trkpt>
      <trkpt lat="50.61511" lon="3.26664">
        <ele>32.11692</ele>
        <time>2018-10-09T13:04:43Z</time>
      </trkpt>
      <trkpt lat="50.61505" lon="3.26665">
        <ele>32.147682</ele>
        <time>2018-10-09T13:04:45Z</time>
      </trkpt>
      <trkpt lat="50.61498" lon="3.26666">
        <ele>32.232517</ele>
        <time>2018-10-09T13:04:47Z</time>
      </trkpt>
      <trkpt lat="50.61492" lon="3.26671">
        <ele>32.251816</ele>
        <time>2018-10-09T13:04:49Z</time>
      </trkpt>
      <trkpt lat="50.61486" lon="3.26678">
        <ele>32.267902</ele>
        <time>2018-10-09T13:04:51Z</time>
      </trkpt>
      <trkpt lat="50.61481" lon="3.26686">
        <ele>32.299381</ele>
        <time>2018-10-09T13:04:53Z</time>
      </trkpt>
      <trkpt lat="50.61476" lon="3.26695">
        <ele>32.362156</ele>
        <time>2018-10-09T13:04:55Z</time>
      </trkpt>
      <trkpt lat="50.6147" lon="3.26705">
        <ele>32.456444</ele>
        <time>2018-10-09T13:04:57Z</time>
      </trkpt>
      <trkpt lat="50.61466" lon="3.26715">
        <ele>32.570271</ele>
        <time>2018-10-09T13:04:59Z</time>
      </trkpt>
      <trkpt lat="50.61461" lon="3.26725">
        <ele>32.658047</ele>
        <time>2018-10-09T13:05:01Z</time>
      </trkpt>
      <trkpt lat="50.61459" lon="3.26738">
        <ele>32.711815</ele>
        <time>2018-10-09T13:05:03Z</time>
      </trkpt>
      <trkpt lat="50.61459" lon="3.26751">
        <ele>32.784023</ele>
        <time>2018-10-09T13:05:05Z</time>
      </trkpt>
      <trkpt lat="50.61462" lon="3.26763">
        <ele>32.880886</ele>
        <time>2018-10-09T13:05:07Z</time>
      </trkpt>
      <trkpt lat="50.61466" lon="3.26775">
        <ele>33.000546</ele>
        <time>2018-10-09T13:05:09Z</time>
      </trkpt>
      <trkpt lat="50.61469" lon="3.26788">
        <ele>33.055977</ele>
        <time>2018-10-09T13:05:11Z</time>
      </trkpt>
      <trkpt lat="50.61473" lon="3.268">
        <ele>33.175297</ele>
        <time>2018-10-09T13:05:13Z</time>
      </trkpt>
      <trkpt lat="50.61476" lon="3.26813">
        <ele>33.271591</ele>
        <time>2018-10-09T13:05:15Z</time>
      </trkpt>
      <trkpt lat="50.61477" lon="3.26826">
        <ele>33.367729</ele>
        <time>2018-10-09T13:05:17Z</time>
      </trkpt>
      <trkpt lat="50.61474" lon="3.26839">
        <ele>33.519901</ele>
        <time>2018-10-09T13:05:19Z</time>
      </trkpt>
      <trkpt lat="50.6147" lon="3.26851">
        <ele>33.639473</ele>
        <time>2018-10-09T13:05:21Z</time>
      </trkpt>
      <trkpt lat="50.61466" lon="3.26863">
        <ele>33.709202</ele>
        <time>2018-10-09T13:05:23Z</time>
      </trkpt>
      <trkpt lat="50.61461" lon="3.26875">
        <ele>33.759773</ele>
        <time>2018-10-09T13:05:25Z</time>
      </trkpt>
      <trkpt lat="50.61457" lon="3.26887">
        <ele>33.866177</ele>
        <time>2018-10-09T13:05:27Z</time>
      </trkpt>
      <trkpt lat="50.61453" lon="3.26899">
        <ele>34.013309</ele>
        <time>2018-10-09T13:05:29Z</time>
      </trkpt>
      <trkpt lat="50.61448" lon="3.26912">
        <ele>34.113693</ele>
        <time>2018-10-09T13:05:31Z</time>
      </trkpt>
      <trkpt lat="50.61444" lon="3.26924">
        <ele>34.258213</ele>
        <time>2018-10-09T13:05:33Z</time>
      </trkpt>
      <trkpt lat="50.6144" lon="3.26935">
        <ele>34.403275</ele>
        <time>2018-10-09T13:05:35Z</time>
      </trkpt>
      <trkpt lat="50.61436" lon="3.26947">
        <ele>34.510342</ele>
        <time>2018-10-09T13:05:37Z</time>
      </trkpt>
      <trkpt lat="50.61432" lon="3.26958">
        <ele>34.618351</ele>
        <time>2018-10-09T13:05:39Z</time>
      </trkpt>
      <trkpt lat="50.61427" lon="3.2697">
        <ele>34.722023</ele>
        <time>2018-10-09T13:05:41Z</time>
      </trkpt>
      <trkpt lat="50.61424" lon="3.26983">
        <ele>34.873016</ele>
        <time>2018-10-09T13:05:43Z</time>
      </trkpt>
      <trkpt lat="50.61419" lon="3.26994">
        <ele>34.977516</ele>
        <time>2018-10-09T13:05:45Z</time>
      </trkpt>
      <trkpt lat="50.61414" lon="3.27006">
        <ele>35.098522</ele>
        <time>2018-10-09T13:05:47Z</time>
      </trkpt>
      <trkpt lat="50.6141" lon="3.27018">
        <ele>35.223347</ele>
        <time>2018-10-09T13:05:49Z</time>
      </trkpt>
      <trkpt lat="50.61405" lon="3.27029">
        <ele>35.311291</ele>
        <time>2018-10-09T13:05:51Z</time>
      </trkpt>
      <trkpt lat="50.614" lon="3.2704">
        <ele>35.414703</ele>
        <time>2018-10-09T13:05:53Z</time>
      </trkpt>
      <trkpt lat="50.61395" lon="3.27051">
        <ele>35.49601</ele>
        <time>2018-10-09T13:05:55Z</time>
      </trkpt>
      <trkpt lat="50.61388" lon="3.2706">
        <ele>35.605469</ele>
        <time>2018-10-09T13:05:57Z</time>
      </trkpt>
      <trkpt lat="50.61382" lon="3.27068">
        <ele>35.673626</ele>
        <time>2018-10-09T13:05:59Z</time>
      </trkpt>
      <trkpt lat="50.61375" lon="3.27076">
        <ele>35.764202</ele>
        <time>2018-10-09T13:06:01Z</time>
      </trkpt>
      <trkpt lat="50.61367" lon="3.27085">
        <ele>35.834473</ele>
        <time>2018-10-09T13:06:03Z</time>
      </trkpt>
      <trkpt lat="50.61361" lon="3.27095">
        <ele>35.895599</ele>
        <time>2018-10-09T13:06:05Z</time>
      </trkpt>
      <trkpt lat="50.61355" lon="3.27105">
        <ele>35.950928</ele>
        <time>2018-10-09T13:06:07Z</time>
      </trkpt>
      <trkpt lat="50.6135" lon="3.27117">
        <ele>36.0135</ele>
        <time>2018-10-09T13:06:09Z</time>
      </trkpt>
      <trkpt lat="50.61345" lon="3.27128">
        <ele>36.026146</ele>
        <time>2018-10-09T13:06:11Z</time>
      </trkpt>
      <trkpt lat="50.6134" lon="3.27139">
        <ele>36.039101</ele>
        <time>2018-10-09T13:06:13Z</time>
      </trkpt>
      <trkpt lat="50.61336" lon="3.2715">
        <ele>36.098194</ele>
        <time>2018-10-09T13:06:15Z</time>
      </trkpt>
      <trkpt lat="50.61331" lon="3.27161">
        <ele>36.149986</ele>
        <time>2018-10-09T13:06:17Z</time>
      </trkpt>
      <trkpt lat="50.61327" lon="3.27172">
        <ele>36.16404</ele>
        <time>2018-10-09T13:06:19Z</time>
      </trkpt>
      <trkpt lat="50.61322" lon="3.27183">
        <ele>36.193687</ele>
        <time>2018-10-09T13:06:21Z</time>
      </trkpt>
      <trkpt lat="50.61318" lon="3.27194">
        <ele>36.196968</ele>
        <time>2018-10-09T13:06:23Z</time>
      </trkpt>
      <trkpt lat="50.61314" lon="3.27206">
        <ele>36.187763</ele>
        <time>2018-10-09T13:06:25Z</time>
      </trkpt>
      <trkpt lat="50.61311" lon="3.27219">
        <ele>36.196854</ele>
        <time>2018-10-09T13:06:27Z</time>
      </trkpt>
      <trkpt lat="50.6131" lon="3.27232">
        <ele>36.20554</ele>
        <time>2018-10-09T13:06:29Z</time>
      </trkpt>
      <trkpt lat="50.61309" lon="3.27245">
        <ele>36.236336</ele>
        <time>2018-10-09T13:06:31Z</time>
      </trkpt>
      <trkpt lat="50.61308" lon="3.27259">
        <ele>36.274765</ele>
        <time>2018-10-09T13:06:33Z</time>
      </trkpt>
      <trkpt lat="50.61307" lon="3.27272">
        <ele>36.298664</ele>
        <time>2018-10-09T13:06:35Z</time>
      </trkpt>
      <trkpt lat="50.61306" lon="3.27287">
        <ele>36.345531</ele>
        <time>2018-10-09T13:06:37Z</time>
      </trkpt>
      <trkpt lat="50.61305" lon="3.27301">
        <ele>36.389542</ele>
        <time>2018-10-09T13:06:39Z</time>
      </trkpt>
      <trkpt lat="50.61304" lon="3.27315">
        <ele>36.399284</ele>
        <time>2018-10-09T13:06:41Z</time>
      </trkpt>
      <trkpt lat="50.61303" lon="3.27329">
        <ele>36.379189</ele>
        <time>2018-10-09T13:06:43Z</time>
      </trkpt>
      <trkpt lat="50.61302" lon="3.27343">
        <ele>36.43084</ele>
        <time>2018-10-09T13:06:45Z</time>
      </trkpt>
      <trkpt lat="50.61301" lon="3.27357">
        <ele>36.488091</ele>
        <time>2018-10-09T13:06:47Z</time>
      </trkpt>
      <trkpt lat="50.613" lon="3.27371">
        <ele>36.587048</ele>
        <time>2018-10-09T13:06:49Z</time>
      </trkpt>
      <trkpt lat="50.61298" lon="3.27385">
        <ele>36.597179</ele>
        <time>2018-10-09T13:06:51Z</time>
      </trkpt>
      <trkpt lat="50.61296" lon="3.27398">
        <ele>36.668205</ele>
        <time>2018-10-09T13:06:53Z</time>
      </trkpt>
      <trkpt lat="50.61294" lon="3.27412">
        <ele>36.709259</ele>
        <time>2018-10-09T13:06:55Z</time>
      </trkpt>
      <trkpt lat="50.61292" lon="3.27426">
        <ele>36.733524</ele>
        <time>2018-10-09T13:06:57Z</time>
      </trkpt>
      <trkpt lat="50.6129" lon="3.27439">
        <ele>36.736198</ele>
        <time>2018-10-09T13:06:59Z</time>
      </trkpt>
      <trkpt lat="50.61287" lon="3.27453">
        <ele>36.832298</ele>
        <time>2018-10-09T13:07:01Z</time>
      </trkpt>
      <trkpt lat="50.61285" lon="3.27467">
        <ele>36.859428</ele>
        <time>2018-10-09T13:07:03Z</time>
      </trkpt>
      <trkpt lat="50.61283" lon="3.2748">
        <ele>36.868919</ele>
        <time>2018-10-09T13:07:05Z</time>
      </trkpt>
      <trkpt lat="50.6128" lon="3.27494">
        <ele>36.909969</ele>
        <time>2018-10-09T13:07:07Z</time>
      </trkpt>
      <trkpt lat="50.61278" lon="3.27508">
        <ele>36.971279</ele>
        <time>2018-10-09T13:07:09Z</time>
      </trkpt>
      <trkpt lat="50.61276" lon="3.27521">
        <ele>37.007736</ele>
        <time>2018-10-09T13:07:11Z</time>
      </trkpt>
      <trkpt lat="50.61274" lon="3.27534">
        <ele>36.980068</ele>
        <time>2018-10-09T13:07:13Z</time>
      </trkpt>
      <trkpt lat="50.61271" lon="3.27548">
        <ele>37.010281</ele>
        <time>2018-10-09T13:07:15Z</time>
      </trkpt>
      <trkpt lat="50.61269" lon="3.27562">
        <ele>37.105675</ele>
        <time>2018-10-09T13:07:17Z</time>
      </trkpt>
      <trkpt lat="50.61266" lon="3.27575">
        <ele>37.151619</ele>
        <time>2018-10-09T13:07:19Z</time>
      </trkpt>
      <trkpt lat="50.61264" lon="3.27587">
        <ele>37.167759</ele>
        <time>2018-10-09T13:07:21Z</time>
      </trkpt>
      <trkpt lat="50.61262" lon="3.276">
        <ele>37.192234</ele>
        <time>2018-10-09T13:07:23Z</time>
      </trkpt>
      <trkpt lat="50.6126" lon="3.27613">
        <ele>37.254951</ele>
        <time>2018-10-09T13:07:25Z</time>
      </trkpt>
      <trkpt lat="50.61257" lon="3.27626">
        <ele>37.304733</ele>
        <time>2018-10-09T13:07:27Z</time>
      </trkpt>
      <trkpt lat="50.61255" lon="3.27638">
        <ele>37.292027</ele>
        <time>2018-10-09T13:07:29Z</time>
      </trkpt>
      <trkpt lat="50.61253" lon="3.27649">
        <ele>37.287888</ele>
        <time>2018-10-09T13:07:31Z</time>
      </trkpt>
      <trkpt lat="50.61249" lon="3.2766">
        <ele>37.312668</ele>
        <time>2018-10-09T13:07:33Z</time>
      </trkpt>
      <trkpt lat="50.61243" lon="3.27667">
        <ele>37.311928</ele>
        <time>2018-10-09T13:07:35Z</time>
      </trkpt>
      <trkpt lat="50.61235" lon="3.27669">
        <ele>37.281387</ele>
        <time>2018-10-09T13:07:37Z</time>
      </trkpt>
      <trkpt lat="50.61227" lon="3.27667">
        <ele>37.281174</ele>
        <time>2018-10-09T13:07:39Z</time>
      </trkpt>
      <trkpt lat="50.61219" lon="3.27665">
        <ele>37.353237</ele>
        <time>2018-10-09T13:07:41Z</time>
      </trkpt>
      <trkpt lat="50.61211" lon="3.27663">
        <ele>37.310097</ele>
        <time>2018-10-09T13:07:43Z</time>
      </trkpt>
      <trkpt lat="50.61203" lon="3.27661">
        <ele>37.380806</ele>
        <time>2018-10-09T13:07:45Z</time>
      </trkpt>
      <trkpt lat="50.61195" lon="3.27659">
        <ele>37.430557</ele>
        <time>2018-10-09T13:07:47Z</time>
      </trkpt>
      <trkpt lat="50.61189" lon="3.27658">
        <ele>37.407234</ele>
        <time>2018-10-09T13:07:49Z</time>
      </trkpt>
      <trkpt lat="50.61182" lon="3.27656">
        <ele>37.443687</ele>
        <time>2018-10-09T13:07:51Z</time>
      </trkpt>
      <trkpt lat="50.61173" lon="3.27654">
        <ele>37.48579</ele>
        <time>2018-10-09T13:07:53Z</time>
      </trkpt>
      <trkpt lat="50.61165" lon="3.27653">
        <ele>37.514328</ele>
        <time>2018-10-09T13:07:55Z</time>
      </trkpt>
      <trkpt lat="50.61157" lon="3.27651">
        <ele>37.510193</ele>
        <time>2018-10-09T13:07:57Z</time>
      </trkpt>
      <trkpt lat="50.61149" lon="3.27648">
        <ele>37.49929</ele>
        <time>2018-10-09T13:07:59Z</time>
      </trkpt>
      <trkpt lat="50.6114" lon="3.27646">
        <ele>37.509811</ele>
        <time>2018-10-09T13:08:01Z</time>
      </trkpt>
      <trkpt lat="50.61132" lon="3.27645">
        <ele>37.530888</ele>
        <time>2018-10-09T13:08:03Z</time>
      </trkpt>
      <trkpt lat="50.61123" lon="3.27643">
        <ele>37.591637</ele>
        <time>2018-10-09T13:08:05Z</time>
      </trkpt>
      <trkpt lat="50.61115" lon="3.27641">
        <ele>37.609043</ele>
        <time>2018-10-09T13:08:07Z</time>
      </trkpt>
      <trkpt lat="50.61106" lon="3.2764">
        <ele>37.654499</ele>
        <time>2018-10-09T13:08:09Z</time>
      </trkpt>
      <trkpt lat="50.61097" lon="3.27638">
        <ele>37.719597</ele>
        <time>2018-10-09T13:08:11Z</time>
      </trkpt>
      <trkpt lat="50.61088" lon="3.27636">
        <ele>37.813461</ele>
        <time>2018-10-09T13:08:13Z</time>
      </trkpt>
      <trkpt lat="50.61079" lon="3.27634">
        <ele>37.897484</ele>
        <time>2018-10-09T13:08:15Z</time>
      </trkpt>
      <trkpt lat="50.61071" lon="3.27632">
        <ele>37.97353</ele>
        <time>2018-10-09T13:08:17Z</time>
      </trkpt>
      <trkpt lat="50.61062" lon="3.2763">
        <ele>38.10709</ele>
        <time>2018-10-09T13:08:19Z</time>
      </trkpt>
      <trkpt lat="50.61053" lon="3.27628">
        <ele>38.166721</ele>
        <time>2018-10-09T13:08:21Z</time>
      </trkpt>
      <trkpt lat="50.61044" lon="3.27626">
        <ele>38.218655</ele>
        <time>2018-10-09T13:08:23Z</time>
      </trkpt>
      <trkpt lat="50.61035" lon="3.27624">
        <ele>38.317268</ele>
        <time>2018-10-09T13:08:25Z</time>
      </trkpt>
      <trkpt lat="50.61026" lon="3.27622">
        <ele>38.362995</ele>
        <time>2018-10-09T13:08:27Z</time>
      </trkpt>
      <trkpt lat="50.61017" lon="3.2762">
        <ele>38.440773</ele>
        <time>2018-10-09T13:08:29Z</time>
      </trkpt>
      <trkpt lat="50.61008" lon="3.27619">
        <ele>38.563648</ele>
        <time>2018-10-09T13:08:31Z</time>
      </trkpt>
      <trkpt lat="50.60999" lon="3.27617">
        <ele>38.625603</ele>
        <time>2018-10-09T13:08:33Z</time>
      </trkpt>
      <trkpt lat="50.6099" lon="3.27615">
        <ele>38.69825</ele>
        <time>2018-10-09T13:08:35Z</time>
      </trkpt>
      <trkpt lat="50.60981" lon="3.27616">
        <ele>38.803062</ele>
        <time>2018-10-09T13:08:37Z</time>
      </trkpt>
      <trkpt lat="50.60972" lon="3.27618">
        <ele>38.920689</ele>
        <time>2018-10-09T13:08:39Z</time>
      </trkpt>
      <trkpt lat="50.60963" lon="3.27622">
        <ele>38.986248</ele>
        <time>2018-10-09T13:08:41Z</time>
      </trkpt>
      <trkpt lat="50.60955" lon="3.27627">
        <ele>39.101337</ele>
        <time>2018-10-09T13:08:43Z</time>
      </trkpt>
      <trkpt lat="50.60947" lon="3.27633">
        <ele>39.208992</ele>
        <time>2018-10-09T13:08:45Z</time>
      </trkpt>
      <trkpt lat="50.60938" lon="3.27638">
        <ele>39.300758</ele>
        <time>2018-10-09T13:08:47Z</time>
      </trkpt>
      <trkpt lat="50.60929" lon="3.27642">
        <ele>39.338024</ele>
        <time>2018-10-09T13:08:49Z</time>
      </trkpt>
      <trkpt lat="50.6092" lon="3.27643">
        <ele>39.426422</ele>
        <time>2018-10-09T13:08:51Z</time>
      </trkpt>
      <trkpt lat="50.60911" lon="3.27642">
        <ele>39.499916</ele>
        <time>2018-10-09T13:08:53Z</time>
      </trkpt>
      <trkpt lat="50.60902" lon="3.2764">
        <ele>39.582336</ele>
        <time>2018-10-09T13:08:55Z</time>
      </trkpt>
      <trkpt lat="50.60893" lon="3.27636">
        <ele>39.645721</ele>
        <time>2018-10-09T13:08:57Z</time>
      </trkpt>
      <trkpt lat="50.60885" lon="3.27634">
        <ele>39.694756</ele>
        <time>2018-10-09T13:08:59Z</time>
      </trkpt>
      <trkpt lat="50.60877" lon="3.27632">
        <ele>39.812824</ele>
        <time>2018-10-09T13:09:01Z</time>
      </trkpt>
      <trkpt lat="50.6087" lon="3.2763">
        <ele>39.933334</ele>
        <time>2018-10-09T13:09:03Z</time>
      </trkpt>
      <trkpt lat="50.60864" lon="3.27627">
        <ele>40.010952</ele>
        <time>2018-10-09T13:09:05Z</time>
      </trkpt>
      <trkpt lat="50.60859" lon="3.27626">
        <ele>40.129807</ele>
        <time>2018-10-09T13:09:07Z</time>
      </trkpt>
      <trkpt lat="50.60854" lon="3.27624">
        <ele>40.207027</ele>
        <time>2018-10-09T13:09:09Z</time>
      </trkpt>
      <trkpt lat="50.60849" lon="3.27622">
        <ele>40.277855</ele>
        <time>2018-10-09T13:09:11Z</time>
      </trkpt>
      <trkpt lat="50.60843" lon="3.27622">
        <ele>40.368359</ele>
        <time>2018-10-09T13:09:13Z</time>
      </trkpt>
      <trkpt lat="50.60837" lon="3.2762">
        <ele>40.453411</ele>
        <time>2018-10-09T13:09:15Z</time>
      </trkpt>
      <trkpt lat="50.60832" lon="3.2762">
        <ele>40.572227</ele>
        <time>2018-10-09T13:09:17Z</time>
      </trkpt>
      <trkpt lat="50.60827" lon="3.27623">
        <ele>40.665474</ele>
        <time>2018-10-09T13:09:19Z</time>
      </trkpt>
      <trkpt lat="50.60823" lon="3.2763">
        <ele>40.779427</ele>
        <time>2018-10-09T13:09:21Z</time>
      </trkpt>
      <trkpt lat="50.6082" lon="3.2764">
        <ele>40.899628</ele>
        <time>2018-10-09T13:09:23Z</time>
      </trkpt>
      <trkpt lat="50.60818" lon="3.27651">
        <ele>40.999207</ele>
        <time>2018-10-09T13:09:25Z</time>
      </trkpt>
      <trkpt lat="50.60817" lon="3.27664">
        <ele>41.092934</ele>
        <time>2018-10-09T13:09:27Z</time>
      </trkpt>
      <trkpt lat="50.60816" lon="3.27676">
        <ele>41.211235</ele>
        <time>2018-10-09T13:09:29Z</time>
      </trkpt>
      <trkpt lat="50.60815" lon="3.2769">
        <ele>41.263924</ele>
        <time>2018-10-09T13:09:31Z</time>
      </trkpt>
      <trkpt lat="50.60814" lon="3.27703">
        <ele>41.313072</ele>
        <time>2018-10-09T13:09:33Z</time>
      </trkpt>
      <trkpt lat="50.60814" lon="3.27718">
        <ele>41.371208</ele>
        <time>2018-10-09T13:09:35Z</time>
      </trkpt>
      <trkpt lat="50.60813" lon="3.27732">
        <ele>41.452095</ele>
        <time>2018-10-09T13:09:37Z</time>
      </trkpt>
      <trkpt lat="50.60812" lon="3.27746">
        <ele>41.553814</ele>
        <time>2018-10-09T13:09:39Z</time>
      </trkpt>
      <trkpt lat="50.60811" lon="3.27761">
        <ele>41.681057</ele>
        <time>2018-10-09T13:09:41Z</time>
      </trkpt>
      <trkpt lat="50.60809" lon="3.27775">
        <ele>41.743244</ele>
        <time>2018-10-09T13:09:43Z</time>
      </trkpt>
      <trkpt lat="50.60809" lon="3.27789">
        <ele>41.812428</ele>
        <time>2018-10-09T13:09:45Z</time>
      </trkpt>
      <trkpt lat="50.60808" lon="3.27802">
        <ele>41.900185</ele>
        <time>2018-10-09T13:09:47Z</time>
      </trkpt>
      <trkpt lat="50.60807" lon="3.27815">
        <ele>41.97979</ele>
        <time>2018-10-09T13:09:49Z</time>
      </trkpt>
      <trkpt lat="50.60806" lon="3.27828">
        <ele>42.043079</ele>
        <time>2018-10-09T13:09:51Z</time>
      </trkpt>
      <trkpt lat="50.60805" lon="3.2784">
        <ele>42.096588</ele>
        <time>2018-10-09T13:09:53Z</time>
      </trkpt>
      <trkpt lat="50.60804" lon="3.27853">
        <ele>42.189999</ele>
        <time>2018-10-09T13:09:55Z</time>
      </trkpt>
      <trkpt lat="50.60804" lon="3.27866">
        <ele>42.278961</ele>
        <time>2018-10-09T13:09:57Z</time>
      </trkpt>
      <trkpt lat="50.60804" lon="3.2788">
        <ele>42.311581</ele>
        <time>2018-10-09T13:09:59Z</time>
      </trkpt>
      <trkpt lat="50.60804" lon="3.27893">
        <ele>42.310966</ele>
        <time>2018-10-09T13:10:01Z</time>
      </trkpt>
      <trkpt lat="50.60804" lon="3.27908">
        <ele>42.365105</ele>
        <time>2018-10-09T13:10:03Z</time>
      </trkpt>
      <trkpt lat="50.60804" lon="3.27922">
        <ele>42.436516</ele>
        <time>2018-10-09T13:10:05Z</time>
      </trkpt>
      <trkpt lat="50.60804" lon="3.27936">
        <ele>42.492027</ele>
        <time>2018-10-09T13:10:07Z</time>
      </trkpt>
      <trkpt lat="50.60805" lon="3.2795">
        <ele>42.512688</ele>
        <time>2018-10-09T13:10:09Z</time>
      </trkpt>
      <trkpt lat="50.60806" lon="3.27964">
        <ele>42.564934</ele>
        <time>2018-10-09T13:10:11Z</time>
      </trkpt>
      <trkpt lat="50.60806" lon="3.27977">
        <ele>42.671928</ele>
        <time>2018-10-09T13:10:13Z</time>
      </trkpt>
      <trkpt lat="50.60806" lon="3.27988">
        <ele>42.753342</ele>
        <time>2018-10-09T13:10:15Z</time>
      </trkpt>
      <trkpt lat="50.60806" lon="3.28">
        <ele>42.785576</ele>
        <time>2018-10-09T13:10:17Z</time>
      </trkpt>
      <trkpt lat="50.60806" lon="3.28013">
        <ele>42.818523</ele>
        <time>2018-10-09T13:10:19Z</time>
      </trkpt>
      <trkpt lat="50.60806" lon="3.28025">
        <ele>42.853745</ele>
        <time>2018-10-09T13:10:21Z</time>
      </trkpt>
      <trkpt lat="50.60807" lon="3.28038">
        <ele>42.854309</ele>
        <time>2018-10-09T13:10:23Z</time>
      </trkpt>
      <trkpt lat="50.60807" lon="3.28052">
        <ele>42.846695</ele>
        <time>2018-10-09T13:10:25Z</time>
      </trkpt>
      <trkpt lat="50.60807" lon="3.28065">
        <ele>42.857559</ele>
        <time>2018-10-09T13:10:27Z</time>
      </trkpt>
      <trkpt lat="50.60807" lon="3.28078">
        <ele>42.885654</ele>
        <time>2018-10-09T13:10:29Z</time>
      </trkpt>
      <trkpt lat="50.60807" lon="3.28092">
        <ele>42.886681</ele>
        <time>2018-10-09T13:10:31Z</time>
      </trkpt>
      <trkpt lat="50.60807" lon="3.28105">
        <ele>42.92664</ele>
        <time>2018-10-09T13:10:33Z</time>
      </trkpt>
      <trkpt lat="50.60807" lon="3.28119">
        <ele>42.942802</ele>
        <time>2018-10-09T13:10:35Z</time>
      </trkpt>
      <trkpt lat="50.60808" lon="3.28132">
        <ele>42.980537</ele>
        <time>2018-10-09T13:10:37Z</time>
      </trkpt>
      <trkpt lat="50.60808" lon="3.28146">
        <ele>43.022881</ele>
        <time>2018-10-09T13:10:39Z</time>
      </trkpt>
      <trkpt lat="50.60808" lon="3.28159">
        <ele>43.128006</ele>
        <time>2018-10-09T13:10:41Z</time>
      </trkpt>
      <trkpt lat="50.60809" lon="3.28173">
        <ele>43.164757</ele>
        <time>2018-10-09T13:10:43Z</time>
      </trkpt>
      <trkpt lat="50.60809" lon="3.28187">
        <ele>43.208004</ele>
        <time>2018-10-09T13:10:45Z</time>
      </trkpt>
      <trkpt lat="50.60809" lon="3.28201">
        <ele>43.214989</ele>
        <time>2018-10-09T13:10:47Z</time>
      </trkpt>
      <trkpt lat="50.60809" lon="3.28214">
        <ele>43.264004</ele>
        <time>2018-10-09T13:10:49Z</time>
      </trkpt>
      <trkpt lat="50.60809" lon="3.28228">
        <ele>43.254005</ele>
        <time>2018-10-09T13:10:51Z</time>
      </trkpt>
      <trkpt lat="50.6081" lon="3.28241">
        <ele>43.252243</ele>
        <time>2018-10-09T13:10:53Z</time>
      </trkpt>
      <trkpt lat="50.6081" lon="3.28255">
        <ele>43.255161</ele>
        <time>2018-10-09T13:10:55Z</time>
      </trkpt>
      <trkpt lat="50.6081" lon="3.28269">
        <ele>43.299412</ele>
        <time>2018-10-09T13:10:57Z</time>
      </trkpt>
      <trkpt lat="50.6081" lon="3.28282">
        <ele>43.324669</ele>
        <time>2018-10-09T13:10:59Z</time>
      </trkpt>
      <trkpt lat="50.6081" lon="3.28296">
        <ele>43.350372</ele>
        <time>2018-10-09T13:11:01Z</time>
      </trkpt>
      <trkpt lat="50.6081" lon="3.28309">
        <ele>43.412697</ele>
        <time>2018-10-09T13:11:03Z</time>
      </trkpt>
      <trkpt lat="50.60811" lon="3.28323">
        <ele>43.461796</ele>
        <time>2018-10-09T13:11:05Z</time>
      </trkpt>
      <trkpt lat="50.60811" lon="3.28336">
        <ele>43.522884</ele>
        <time>2018-10-09T13:11:07Z</time>
      </trkpt>
      <trkpt lat="50.60811" lon="3.2835">
        <ele>43.56538</ele>
        <time>2018-10-09T13:11:09Z</time>
      </trkpt>
      <trkpt lat="50.60811" lon="3.28364">
        <ele>43.668564</ele>
        <time>2018-10-09T13:11:11Z</time>
      </trkpt>
      <trkpt lat="50.60811" lon="3.28378">
        <ele>43.758076</ele>
        <time>2018-10-09T13:11:13Z</time>
      </trkpt>
      <trkpt lat="50.60811" lon="3.28392">
        <ele>43.802036</ele>
        <time>2018-10-09T13:11:15Z</time>
      </trkpt>
      <trkpt lat="50.60811" lon="3.28406">
        <ele>43.822716</ele>
        <time>2018-10-09T13:11:17Z</time>
      </trkpt>
      <trkpt lat="50.60811" lon="3.2842">
        <ele>43.872898</ele>
        <time>2018-10-09T13:11:19Z</time>
      </trkpt>
      <trkpt lat="50.60811" lon="3.28434">
        <ele>43.896713</ele>
        <time>2018-10-09T13:11:21Z</time>
      </trkpt>
      <trkpt lat="50.60811" lon="3.28448">
        <ele>43.953041</ele>
        <time>2018-10-09T13:11:23Z</time>
      </trkpt>
      <trkpt lat="50.60811" lon="3.28462">
        <ele>43.996254</ele>
        <time>2018-10-09T13:11:25Z</time>
      </trkpt>
      <trkpt lat="50.60811" lon="3.28475">
        <ele>44.021767</ele>
        <time>2018-10-09T13:11:27Z</time>
      </trkpt>
      <trkpt lat="50.60812" lon="3.28489">
        <ele>44.071133</ele>
        <time>2018-10-09T13:11:29Z</time>
      </trkpt>
      <trkpt lat="50.60812" lon="3.28502">
        <ele>44.129532</ele>
        <time>2018-10-09T13:11:31Z</time>
      </trkpt>
      <trkpt lat="50.60812" lon="3.28515">
        <ele>44.242317</ele>
        <time>2018-10-09T13:11:33Z</time>
      </trkpt>
      <trkpt lat="50.60812" lon="3.28528">
        <ele>44.337437</ele>
        <time>2018-10-09T13:11:35Z</time>
      </trkpt>
      <trkpt lat="50.60812" lon="3.28541">
        <ele>44.403652</ele>
        <time>2018-10-09T13:11:37Z</time>
      </trkpt>
      <trkpt lat="50.60812" lon="3.28555">
        <ele>44.469704</ele>
        <time>2018-10-09T13:11:39Z</time>
      </trkpt>
      <trkpt lat="50.60812" lon="3.28568">
        <ele>44.572067</ele>
        <time>2018-10-09T13:11:41Z</time>
      </trkpt>
      <trkpt lat="50.60812" lon="3.28581">
        <ele>44.654354</ele>
        <time>2018-10-09T13:11:43Z</time>
      </trkpt>
      <trkpt lat="50.60812" lon="3.28594">
        <ele>44.712303</ele>
        <time>2018-10-09T13:11:45Z</time>
      </trkpt>
      <trkpt lat="50.60812" lon="3.28607">
        <ele>44.79287</ele>
        <time>2018-10-09T13:11:47Z</time>
      </trkpt>
      <trkpt lat="50.60812" lon="3.2862">
        <ele>44.86351</ele>
        <time>2018-10-09T13:11:49Z</time>
      </trkpt>
      <trkpt lat="50.60812" lon="3.28633">
        <ele>44.923367</ele>
        <time>2018-10-09T13:11:51Z</time>
      </trkpt>
      <trkpt lat="50.60812" lon="3.28646">
        <ele>44.921749</ele>
        <time>2018-10-09T13:11:53Z</time>
      </trkpt>
      <trkpt lat="50.60812" lon="3.2866">
        <ele>45.007904</ele>
        <time>2018-10-09T13:11:55Z</time>
      </trkpt>
      <trkpt lat="50.60812" lon="3.28673">
        <ele>45.114506</ele>
        <time>2018-10-09T13:11:57Z</time>
      </trkpt>
      <trkpt lat="50.60813" lon="3.28686">
        <ele>45.216358</ele>
        <time>2018-10-09T13:11:59Z</time>
      </trkpt>
      <trkpt lat="50.60813" lon="3.287">
        <ele>45.288269</ele>
        <time>2018-10-09T13:12:01Z</time>
      </trkpt>
      <trkpt lat="50.60813" lon="3.28713">
        <ele>45.320656</ele>
        <time>2018-10-09T13:12:03Z</time>
      </trkpt>
      <trkpt lat="50.60814" lon="3.28726">
        <ele>45.397465</ele>
        <time>2018-10-09T13:12:05Z</time>
      </trkpt>
      <trkpt lat="50.60814" lon="3.28738">
        <ele>45.473961</ele>
        <time>2018-10-09T13:12:07Z</time>
      </trkpt>
      <trkpt lat="50.60814" lon="3.28751">
        <ele>45.528011</ele>
        <time>2018-10-09T13:12:09Z</time>
      </trkpt>
      <trkpt lat="50.60815" lon="3.28765">
        <ele>45.615849</ele>
        <time>2018-10-09T13:12:11Z</time>
      </trkpt>
      <trkpt lat="50.60815" lon="3.28778">
        <ele>45.661522</ele>
        <time>2018-10-09T13:12:13Z</time>
      </trkpt>
      <trkpt lat="50.60815" lon="3.28792">
        <ele>45.717655</ele>
        <time>2018-10-09T13:12:15Z</time>
      </trkpt>
      <trkpt lat="50.60815" lon="3.28806">
        <ele>45.776501</ele>
        <time>2018-10-09T13:12:17Z</time>
      </trkpt>
      <trkpt lat="50.60815" lon="3.28819">
        <ele>45.835262</ele>
        <time>2018-10-09T13:12:19Z</time>
      </trkpt>
      <trkpt lat="50.60816" lon="3.28833">
        <ele>45.911312</ele>
        <time>2018-10-09T13:12:21Z</time>
      </trkpt>
      <trkpt lat="50.60816" lon="3.28847">
        <ele>45.939861</ele>
        <time>2018-10-09T13:12:23Z</time>
      </trkpt>
      <trkpt lat="50.60816" lon="3.28861">
        <ele>45.985233</ele>
        <time>2018-10-09T13:12:25Z</time>
      </trkpt>
      <trkpt lat="50.60816" lon="3.28876">
        <ele>46.019997</ele>
        <time>2018-10-09T13:12:27Z</time>
      </trkpt>
      <trkpt lat="50.60817" lon="3.2889">
        <ele>46.058189</ele>
        <time>2018-10-09T13:12:29Z</time>
      </trkpt>
      <trkpt lat="50.60817" lon="3.28904">
        <ele>46.133934</ele>
        <time>2018-10-09T13:12:31Z</time>
      </trkpt>
      <trkpt lat="50.60817" lon="3.28918">
        <ele>46.18948</ele>
        <time>2018-10-09T13:12:33Z</time>
      </trkpt>
      <trkpt lat="50.60818" lon="3.28932">
        <ele>46.264706</ele>
        <time>2018-10-09T13:12:35Z</time>
      </trkpt>
      <trkpt lat="50.60818" lon="3.28946">
        <ele>46.275928</ele>
        <time>2018-10-09T13:12:37Z</time>
      </trkpt>
      <trkpt lat="50.60818" lon="3.2896">
        <ele>46.313763</ele>
        <time>2018-10-09T13:12:39Z</time>
      </trkpt>
      <trkpt lat="50.60819" lon="3.28973">
        <ele>46.281792</ele>
        <time>2018-10-09T13:12:41Z</time>
      </trkpt>
      <trkpt lat="50.60819" lon="3.28985">
        <ele>46.303261</ele>
        <time>2018-10-09T13:12:43Z</time>
      </trkpt>
      <trkpt lat="50.60819" lon="3.28995">
        <ele>46.305771</ele>
        <time>2018-10-09T13:12:45Z</time>
      </trkpt>
      <trkpt lat="50.60819" lon="3.29006">
        <ele>46.304886</ele>
        <time>2018-10-09T13:12:47Z</time>
      </trkpt>
      <trkpt lat="50.6082" lon="3.29017">
        <ele>46.309059</ele>
        <time>2018-10-09T13:12:49Z</time>
      </trkpt>
      <trkpt lat="50.6082" lon="3.29027">
        <ele>46.270996</ele>
        <time>2018-10-09T13:12:51Z</time>
      </trkpt>
      <trkpt lat="50.60821" lon="3.29038">
        <ele>46.243858</ele>
        <time>2018-10-09T13:12:53Z</time>
      </trkpt>
      <trkpt lat="50.60822" lon="3.29048">
        <ele>46.207863</ele>
        <time>2018-10-09T13:12:55Z</time>
      </trkpt>
      <trkpt lat="50.60823" lon="3.29059">
        <ele>46.117455</ele>
        <time>2018-10-09T13:12:57Z</time>
      </trkpt>
      <trkpt lat="50.6082" lon="3.29069">
        <ele>46.048729</ele>
        <time>2018-10-09T13:12:59Z</time>
      </trkpt>
      <trkpt lat="50.60814" lon="3.29075">
        <ele>45.995064</ele>
        <time>2018-10-09T13:13:01Z</time>
      </trkpt>
      <trkpt lat="50.60806" lon="3.29078">
        <ele>46.022057</ele>
        <time>2018-10-09T13:13:03Z</time>
      </trkpt>
      <trkpt lat="50.60798" lon="3.29079">
        <ele>45.954872</ele>
        <time>2018-10-09T13:13:05Z</time>
      </trkpt>
      <trkpt lat="50.6079" lon="3.29079">
        <ele>45.905357</ele>
        <time>2018-10-09T13:13:07Z</time>
      </trkpt>
      <trkpt lat="50.60782" lon="3.2908">
        <ele>45.895439</ele>
        <time>2018-10-09T13:13:09Z</time>
      </trkpt>
      <trkpt lat="50.60772" lon="3.29082">
        <ele>45.82819</ele>
        <time>2018-10-09T13:13:11Z</time>
      </trkpt>
      <trkpt lat="50.60763" lon="3.29082">
        <ele>45.744404</ele>
        <time>2018-10-09T13:13:13Z</time>
      </trkpt>
      <trkpt lat="50.60754" lon="3.29083">
        <ele>45.735939</ele>
        <time>2018-10-09T13:13:15Z</time>
      </trkpt>
      <trkpt lat="50.60746" lon="3.29083">
        <ele>45.648811</ele>
        <time>2018-10-09T13:13:17Z</time>
      </trkpt>
      <trkpt lat="50.60738" lon="3.29084">
        <ele>45.594952</ele>
        <time>2018-10-09T13:13:19Z</time>
      </trkpt>
      <trkpt lat="50.60733" lon="3.29085">
        <ele>45.565868</ele>
        <time>2018-10-09T13:13:21Z</time>
      </trkpt>
      <trkpt lat="50.60723" lon="3.2909">
        <ele>45.503662</ele>
        <time>2018-10-09T13:13:23Z</time>
      </trkpt>
      <trkpt lat="50.6071" lon="3.29092">
        <ele>45.490559</ele>
        <time>2018-10-09T13:13:25Z</time>
      </trkpt>
      <trkpt lat="50.60698" lon="3.29094">
        <ele>45.553185</ele>
        <time>2018-10-09T13:13:27Z</time>
      </trkpt>
      <trkpt lat="50.60695" lon="3.29092">
        <ele>45.552574</ele>
        <time>2018-10-09T13:13:29Z</time>
      </trkpt>
      <trkpt lat="50.60688" lon="3.29093">
        <ele>45.562248</ele>
        <time>2018-10-09T13:13:31Z</time>
      </trkpt>
      <trkpt lat="50.6068" lon="3.29093">
        <ele>45.577644</ele>
        <time>2018-10-09T13:13:33Z</time>
      </trkpt>
      <trkpt lat="50.60672" lon="3.29094">
        <ele>45.68119</ele>
        <time>2018-10-09T13:13:35Z</time>
      </trkpt>
      <trkpt lat="50.60664" lon="3.29095">
        <ele>45.772423</ele>
        <time>2018-10-09T13:13:37Z</time>
      </trkpt>
      <trkpt lat="50.60656" lon="3.29096">
        <ele>45.831341</ele>
        <time>2018-10-09T13:13:39Z</time>
      </trkpt>
      <trkpt lat="50.60648" lon="3.29098">
        <ele>45.898182</ele>
        <time>2018-10-09T13:13:41Z</time>
      </trkpt>
      <trkpt lat="50.60642" lon="3.29099">
        <ele>45.995251</ele>
        <time>2018-10-09T13:13:43Z</time>
      </trkpt>
      <trkpt lat="50.60635" lon="3.29101">
        <ele>46.066101</ele>
        <time>2018-10-09T13:13:45Z</time>
      </trkpt>
      <trkpt lat="50.60629" lon="3.29102">
        <ele>46.161217</ele>
        <time>2018-10-09T13:13:47Z</time>
      </trkpt>
      <trkpt lat="50.60622" lon="3.29103">
        <ele>46.275208</ele>
        <time>2018-10-09T13:13:49Z</time>
      </trkpt>
      <trkpt lat="50.60614" lon="3.29105">
        <ele>46.43676</ele>
        <time>2018-10-09T13:13:51Z</time>
      </trkpt>
      <trkpt lat="50.60606" lon="3.29106">
        <ele>46.565155</ele>
        <time>2018-10-09T13:13:53Z</time>
      </trkpt>
      <trkpt lat="50.60599" lon="3.29107">
        <ele>46.711739</ele>
        <time>2018-10-09T13:13:55Z</time>
      </trkpt>
      <trkpt lat="50.60591" lon="3.29109">
        <ele>46.857086</ele>
        <time>2018-10-09T13:13:57Z</time>
      </trkpt>
      <trkpt lat="50.60584" lon="3.29111">
        <ele>47.008736</ele>
        <time>2018-10-09T13:13:59Z</time>
      </trkpt>
      <trkpt lat="50.60576" lon="3.29113">
        <ele>47.178226</ele>
        <time>2018-10-09T13:14:01Z</time>
      </trkpt>
      <trkpt lat="50.60568" lon="3.29114">
        <ele>47.363792</ele>
        <time>2018-10-09T13:14:03Z</time>
      </trkpt>
      <trkpt lat="50.6056" lon="3.29116">
        <ele>47.57589</ele>
        <time>2018-10-09T13:14:05Z</time>
      </trkpt>
      <trkpt lat="50.60552" lon="3.29118">
        <ele>47.728161</ele>
        <time>2018-10-09T13:14:07Z</time>
      </trkpt>
      <trkpt lat="50.60544" lon="3.2912">
        <ele>47.915897</ele>
        <time>2018-10-09T13:14:09Z</time>
      </trkpt>
      <trkpt lat="50.60536" lon="3.29121">
        <ele>48.119156</ele>
        <time>2018-10-09T13:14:11Z</time>
      </trkpt>
      <trkpt lat="50.60528" lon="3.29123">
        <ele>48.286678</ele>
        <time>2018-10-09T13:14:13Z</time>
      </trkpt>
      <trkpt lat="50.6052" lon="3.29124">
        <ele>48.354362</ele>
        <time>2018-10-09T13:14:15Z</time>
      </trkpt>
      <trkpt lat="50.60512" lon="3.29126">
        <ele>48.485073</ele>
        <time>2018-10-09T13:14:17Z</time>
      </trkpt>
      <trkpt lat="50.60503" lon="3.29127">
        <ele>48.646519</ele>
        <time>2018-10-09T13:14:19Z</time>
      </trkpt>
      <trkpt lat="50.60495" lon="3.29129">
        <ele>48.839897</ele>
        <time>2018-10-09T13:14:21Z</time>
      </trkpt>
      <trkpt lat="50.60487" lon="3.29131">
        <ele>48.970535</ele>
        <time>2018-10-09T13:14:23Z</time>
      </trkpt>
      <trkpt lat="50.60479" lon="3.29133">
        <ele>49.140823</ele>
        <time>2018-10-09T13:14:25Z</time>
      </trkpt>
      <trkpt lat="50.60471" lon="3.29135">
        <ele>49.275429</ele>
        <time>2018-10-09T13:14:27Z</time>
      </trkpt>
      <trkpt lat="50.60463" lon="3.29137">
        <ele>49.40485</ele>
        <time>2018-10-09T13:14:29Z</time>
      </trkpt>
      <trkpt lat="50.60455" lon="3.29139">
        <ele>49.561825</ele>
        <time>2018-10-09T13:14:31Z</time>
      </trkpt>
      <trkpt lat="50.60447" lon="3.29141">
        <ele>49.729092</ele>
        <time>2018-10-09T13:14:33Z</time>
      </trkpt>
      <trkpt lat="50.60439" lon="3.29143">
        <ele>49.930912</ele>
        <time>2018-10-09T13:14:35Z</time>
      </trkpt>
      <trkpt lat="50.60431" lon="3.29145">
        <ele>50.111458</ele>
        <time>2018-10-09T13:14:37Z</time>
      </trkpt>
      <trkpt lat="50.60423" lon="3.29147">
        <ele>50.217922</ele>
        <time>2018-10-09T13:14:39Z</time>
      </trkpt>
      <trkpt lat="50.60414" lon="3.29149">
        <ele>50.361458</ele>
        <time>2018-10-09T13:14:41Z</time>
      </trkpt>
      <trkpt lat="50.60406" lon="3.29151">
        <ele>50.531818</ele>
        <time>2018-10-09T13:14:43Z</time>
      </trkpt>
      <trkpt lat="50.60397" lon="3.29153">
        <ele>50.640514</ele>
        <time>2018-10-09T13:14:45Z</time>
      </trkpt>
      <trkpt lat="50.60389" lon="3.29155">
        <ele>50.756237</ele>
        <time>2018-10-09T13:14:47Z</time>
      </trkpt>
      <trkpt lat="50.60381" lon="3.29157">
        <ele>50.885323</ele>
        <time>2018-10-09T13:14:49Z</time>
      </trkpt>
      <trkpt lat="50.60373" lon="3.29159">
        <ele>51.024559</ele>
        <time>2018-10-09T13:14:51Z</time>
      </trkpt>
      <trkpt lat="50.60365" lon="3.29161">
        <ele>51.15736</ele>
        <time>2018-10-09T13:14:53Z</time>
      </trkpt>
      <trkpt lat="50.60357" lon="3.29163">
        <ele>51.320137</ele>
        <time>2018-10-09T13:14:55Z</time>
      </trkpt>
      <trkpt lat="50.6035" lon="3.29164">
        <ele>51.468983</ele>
        <time>2018-10-09T13:14:57Z</time>
      </trkpt>
      <trkpt lat="50.60343" lon="3.29166">
        <ele>51.601093</ele>
        <time>2018-10-09T13:14:59Z</time>
      </trkpt>
      <trkpt lat="50.60335" lon="3.29167">
        <ele>51.741661</ele>
        <time>2018-10-09T13:15:01Z</time>
      </trkpt>
      <trkpt lat="50.60328" lon="3.29169">
        <ele>51.929798</ele>
        <time>2018-10-09T13:15:03Z</time>
      </trkpt>
      <trkpt lat="50.6032" lon="3.29171">
        <ele>52.10154</ele>
        <time>2018-10-09T13:15:05Z</time>
      </trkpt>
      <trkpt lat="50.60313" lon="3.29173">
        <ele>52.182655</ele>
        <time>2018-10-09T13:15:07Z</time>
      </trkpt>
      <trkpt lat="50.60305" lon="3.29175">
        <ele>52.359669</ele>
        <time>2018-10-09T13:15:09Z</time>
      </trkpt>
      <trkpt lat="50.60298" lon="3.29176">
        <ele>52.500965</ele>
        <time>2018-10-09T13:15:11Z</time>
      </trkpt>
      <trkpt lat="50.6029" lon="3.29178">
        <ele>52.651215</ele>
        <time>2018-10-09T13:15:13Z</time>
      </trkpt>
      <trkpt lat="50.60282" lon="3.29179">
        <ele>52.788158</ele>
        <time>2018-10-09T13:15:15Z</time>
      </trkpt>
      <trkpt lat="50.60274" lon="3.29181">
        <ele>52.895283</ele>
        <time>2018-10-09T13:15:17Z</time>
      </trkpt>
      <trkpt lat="50.60266" lon="3.29183">
        <ele>53.051506</ele>
        <time>2018-10-09T13:15:19Z</time>
      </trkpt>
      <trkpt lat="50.60258" lon="3.29185">
        <ele>53.20586</ele>
        <time>2018-10-09T13:15:21Z</time>
      </trkpt>
      <trkpt lat="50.60251" lon="3.29186">
        <ele>53.363117</ele>
        <time>2018-10-09T13:15:23Z</time>
      </trkpt>
      <trkpt lat="50.60243" lon="3.29188">
        <ele>53.476601</ele>
        <time>2018-10-09T13:15:25Z</time>
      </trkpt>
      <trkpt lat="50.60235" lon="3.2919">
        <ele>53.620403</ele>
        <time>2018-10-09T13:15:27Z</time>
      </trkpt>
      <trkpt lat="50.60227" lon="3.29192">
        <ele>53.769726</ele>
        <time>2018-10-09T13:15:29Z</time>
      </trkpt>
      <trkpt lat="50.60219" lon="3.29193">
        <ele>53.912224</ele>
        <time>2018-10-09T13:15:31Z</time>
      </trkpt>
      <trkpt lat="50.60211" lon="3.29196">
        <ele>54.030052</ele>
        <time>2018-10-09T13:15:33Z</time>
      </trkpt>
      <trkpt lat="50.60204" lon="3.29197">
        <ele>54.156372</ele>
        <time>2018-10-09T13:15:35Z</time>
      </trkpt>
      <trkpt lat="50.60196" lon="3.29199">
        <ele>54.292706</ele>
        <time>2018-10-09T13:15:37Z</time>
      </trkpt>
      <trkpt lat="50.60189" lon="3.29201">
        <ele>54.421486</ele>
        <time>2018-10-09T13:15:39Z</time>
      </trkpt>
      <trkpt lat="50.60181" lon="3.29203">
        <ele>54.553955</ele>
        <time>2018-10-09T13:15:41Z</time>
      </trkpt>
      <trkpt lat="50.60173" lon="3.29205">
        <ele>54.670219</ele>
        <time>2018-10-09T13:15:43Z</time>
      </trkpt>
      <trkpt lat="50.60165" lon="3.29207">
        <ele>54.779926</ele>
        <time>2018-10-09T13:15:45Z</time>
      </trkpt>
      <trkpt lat="50.60157" lon="3.29209">
        <ele>54.85923</ele>
        <time>2018-10-09T13:15:47Z</time>
      </trkpt>
      <trkpt lat="50.60149" lon="3.2921">
        <ele>54.973419</ele>
        <time>2018-10-09T13:15:49Z</time>
      </trkpt>
      <trkpt lat="50.60142" lon="3.29212">
        <ele>55.134102</ele>
        <time>2018-10-09T13:15:51Z</time>
      </trkpt>
      <trkpt lat="50.60134" lon="3.29214">
        <ele>55.274956</ele>
        <time>2018-10-09T13:15:53Z</time>
      </trkpt>
      <trkpt lat="50.60126" lon="3.29215">
        <ele>55.406044</ele>
        <time>2018-10-09T13:15:55Z</time>
      </trkpt>
      <trkpt lat="50.60119" lon="3.29217">
        <ele>55.518707</ele>
        <time>2018-10-09T13:15:57Z</time>
      </trkpt>
      <trkpt lat="50.60111" lon="3.29219">
        <ele>55.658916</ele>
        <time>2018-10-09T13:15:59Z</time>
      </trkpt>
      <trkpt lat="50.60103" lon="3.29221">
        <ele>55.80135</ele>
        <time>2018-10-09T13:16:01Z</time>
      </trkpt>
      <trkpt lat="50.60096" lon="3.29222">
        <ele>55.924366</ele>
        <time>2018-10-09T13:16:03Z</time>
      </trkpt>
      <trkpt lat="50.6009" lon="3.29224">
        <ele>56.052948</ele>
        <time>2018-10-09T13:16:05Z</time>
      </trkpt>
      <trkpt lat="50.60083" lon="3.29224">
        <ele>56.169258</ele>
        <time>2018-10-09T13:16:07Z</time>
      </trkpt>
      <trkpt lat="50.60079" lon="3.29219">
        <ele>56.298225</ele>
        <time>2018-10-09T13:16:09Z</time>
      </trkpt>
      <trkpt lat="50.60075" lon="3.29208">
        <ele>56.361797</ele>
        <time>2018-10-09T13:16:11Z</time>
      </trkpt>
      <trkpt lat="50.60075" lon="3.29194">
        <ele>56.459789</ele>
        <time>2018-10-09T13:16:13Z</time>
      </trkpt>
      <trkpt lat="50.60075" lon="3.29179">
        <ele>56.538872</ele>
        <time>2018-10-09T13:16:15Z</time>
      </trkpt>
      <trkpt lat="50.60076" lon="3.29163">
        <ele>56.59037</ele>
        <time>2018-10-09T13:16:17Z</time>
      </trkpt>
      <trkpt lat="50.60076" lon="3.29147">
        <ele>56.671947</ele>
        <time>2018-10-09T13:16:19Z</time>
      </trkpt>
      <trkpt lat="50.60077" lon="3.29132">
        <ele>56.776783</ele>
        <time>2018-10-09T13:16:21Z</time>
      </trkpt>
      <trkpt lat="50.60077" lon="3.29116">
        <ele>56.815746</ele>
        <time>2018-10-09T13:16:23Z</time>
      </trkpt>
      <trkpt lat="50.60076" lon="3.29101">
        <ele>56.87986</ele>
        <time>2018-10-09T13:16:25Z</time>
      </trkpt>
      <trkpt lat="50.60076" lon="3.29086">
        <ele>56.87849</ele>
        <time>2018-10-09T13:16:27Z</time>
      </trkpt>
      <trkpt lat="50.60076" lon="3.29071">
        <ele>56.851685</ele>
        <time>2018-10-09T13:16:29Z</time>
      </trkpt>
      <trkpt lat="50.60076" lon="3.29056">
        <ele>56.892811</ele>
        <time>2018-10-09T13:16:31Z</time>
      </trkpt>
      <trkpt lat="50.60076" lon="3.29042">
        <ele>56.837482</ele>
        <time>2018-10-09T13:16:33Z</time>
      </trkpt>
      <trkpt lat="50.60076" lon="3.29027">
        <ele>56.834057</ele>
        <time>2018-10-09T13:16:35Z</time>
      </trkpt>
      <trkpt lat="50.60077" lon="3.29012">
        <ele>56.829365</ele>
        <time>2018-10-09T13:16:37Z</time>
      </trkpt>
      <trkpt lat="50.60077" lon="3.28998">
        <ele>56.834949</ele>
        <time>2018-10-09T13:16:39Z</time>
      </trkpt>
      <trkpt lat="50.60076" lon="3.28984">
        <ele>56.77776</ele>
        <time>2018-10-09T13:16:41Z</time>
      </trkpt>
      <trkpt lat="50.60076" lon="3.2897">
        <ele>56.766876</ele>
        <time>2018-10-09T13:16:43Z</time>
      </trkpt>
      <trkpt lat="50.60077" lon="3.28957">
        <ele>56.73164</ele>
        <time>2018-10-09T13:16:45Z</time>
      </trkpt>
      <trkpt lat="50.60077" lon="3.28943">
        <ele>56.694317</ele>
        <time>2018-10-09T13:16:47Z</time>
      </trkpt>
      <trkpt lat="50.60076" lon="3.28929">
        <ele>56.651531</ele>
        <time>2018-10-09T13:16:49Z</time>
      </trkpt>
      <trkpt lat="50.60077" lon="3.28915">
        <ele>56.660175</ele>
        <time>2018-10-09T13:16:51Z</time>
      </trkpt>
      <trkpt lat="50.60078" lon="3.289">
        <ele>56.692486</ele>
        <time>2018-10-09T13:16:53Z</time>
      </trkpt>
      <trkpt lat="50.60079" lon="3.28885">
        <ele>56.669258</ele>
        <time>2018-10-09T13:16:55Z</time>
      </trkpt>
      <trkpt lat="50.6008" lon="3.28871">
        <ele>56.65744</ele>
        <time>2018-10-09T13:16:57Z</time>
      </trkpt>
      <trkpt lat="50.60083" lon="3.28858">
        <ele>56.607708</ele>
        <time>2018-10-09T13:16:59Z</time>
      </trkpt>
      <trkpt lat="50.60086" lon="3.28844">
        <ele>56.564857</ele>
        <time>2018-10-09T13:17:01Z</time>
      </trkpt>
      <trkpt lat="50.60088" lon="3.28832">
        <ele>56.512917</ele>
        <time>2018-10-09T13:17:03Z</time>
      </trkpt>
      <trkpt lat="50.60091" lon="3.28821">
        <ele>56.508034</ele>
        <time>2018-10-09T13:17:05Z</time>
      </trkpt>
      <trkpt lat="50.60094" lon="3.28811">
        <ele>56.515862</ele>
        <time>2018-10-09T13:17:07Z</time>
      </trkpt>
      <trkpt lat="50.60096" lon="3.288">
        <ele>56.589203</ele>
        <time>2018-10-09T13:17:09Z</time>
      </trkpt>
      <trkpt lat="50.60098" lon="3.28789">
        <ele>56.578541</ele>
        <time>2018-10-09T13:17:11Z</time>
      </trkpt>
      <trkpt lat="50.601" lon="3.28778">
        <ele>56.569569</ele>
        <time>2018-10-09T13:17:13Z</time>
      </trkpt>
      <trkpt lat="50.60103" lon="3.28766">
        <ele>56.551678</ele>
        <time>2018-10-09T13:17:15Z</time>
      </trkpt>
      <trkpt lat="50.60105" lon="3.28754">
        <ele>56.557243</ele>
        <time>2018-10-09T13:17:17Z</time>
      </trkpt>
      <trkpt lat="50.60107" lon="3.2874">
        <ele>56.597435</ele>
        <time>2018-10-09T13:17:19Z</time>
      </trkpt>
      <trkpt lat="50.60108" lon="3.28726">
        <ele>56.591473</ele>
        <time>2018-10-09T13:17:21Z</time>
      </trkpt>
      <trkpt lat="50.60108" lon="3.28712">
        <ele>56.635994</ele>
        <time>2018-10-09T13:17:23Z</time>
      </trkpt>
      <trkpt lat="50.60108" lon="3.28698">
        <ele>56.622139</ele>
        <time>2018-10-09T13:17:25Z</time>
      </trkpt>
      <trkpt lat="50.60107" lon="3.28685">
        <ele>56.5648</ele>
        <time>2018-10-09T13:17:27Z</time>
      </trkpt>
      <trkpt lat="50.60105" lon="3.28673">
        <ele>56.586414</ele>
        <time>2018-10-09T13:17:29Z</time>
      </trkpt>
      <trkpt lat="50.60103" lon="3.2866">
        <ele>56.595299</ele>
        <time>2018-10-09T13:17:31Z</time>
      </trkpt>
      <trkpt lat="50.60101" lon="3.28648">
        <ele>56.613964</ele>
        <time>2018-10-09T13:17:33Z</time>
      </trkpt>
      <trkpt lat="50.60098" lon="3.28635">
        <ele>56.562237</ele>
        <time>2018-10-09T13:17:35Z</time>
      </trkpt>
      <trkpt lat="50.60095" lon="3.28622">
        <ele>56.575123</ele>
        <time>2018-10-09T13:17:37Z</time>
      </trkpt>
      <trkpt lat="50.60093" lon="3.2861">
        <ele>56.56123</ele>
        <time>2018-10-09T13:17:39Z</time>
      </trkpt>
      <trkpt lat="50.60091" lon="3.28598">
        <ele>56.589317</ele>
        <time>2018-10-09T13:17:41Z</time>
      </trkpt>
      <trkpt lat="50.60089" lon="3.28586">
        <ele>56.600746</ele>
        <time>2018-10-09T13:17:43Z</time>
      </trkpt>
      <trkpt lat="50.60086" lon="3.28573">
        <ele>56.652252</ele>
        <time>2018-10-09T13:17:45Z</time>
      </trkpt>
      <trkpt lat="50.60084" lon="3.2856">
        <ele>56.655281</ele>
        <time>2018-10-09T13:17:47Z</time>
      </trkpt>
      <trkpt lat="50.60082" lon="3.28547">
        <ele>56.688885</ele>
        <time>2018-10-09T13:17:49Z</time>
      </trkpt>
      <trkpt lat="50.6008" lon="3.28534">
        <ele>56.711143</ele>
        <time>2018-10-09T13:17:51Z</time>
      </trkpt>
      <trkpt lat="50.60077" lon="3.2852">
        <ele>56.785755</ele>
        <time>2018-10-09T13:17:53Z</time>
      </trkpt>
      <trkpt lat="50.60075" lon="3.28507">
        <ele>56.877106</ele>
        <time>2018-10-09T13:17:55Z</time>
      </trkpt>
      <trkpt lat="50.60072" lon="3.28494">
        <ele>56.914013</ele>
        <time>2018-10-09T13:17:57Z</time>
      </trkpt>
      <trkpt lat="50.60071" lon="3.28481">
        <ele>56.986382</ele>
        <time>2018-10-09T13:17:59Z</time>
      </trkpt>
      <trkpt lat="50.60069" lon="3.28467">
        <ele>57.013939</ele>
        <time>2018-10-09T13:18:01Z</time>
      </trkpt>
      <trkpt lat="50.60067" lon="3.28453">
        <ele>57.056652</ele>
        <time>2018-10-09T13:18:03Z</time>
      </trkpt>
      <trkpt lat="50.60066" lon="3.28439">
        <ele>57.088463</ele>
        <time>2018-10-09T13:18:05Z</time>
      </trkpt>
      <trkpt lat="50.60066" lon="3.28424">
        <ele>57.140881</ele>
        <time>2018-10-09T13:18:07Z</time>
      </trkpt>
      <trkpt lat="50.60065" lon="3.2841">
        <ele>57.243752</ele>
        <time>2018-10-09T13:18:09Z</time>
      </trkpt>
      <trkpt lat="50.60064" lon="3.28396">
        <ele>57.305458</ele>
        <time>2018-10-09T13:18:11Z</time>
      </trkpt>
      <trkpt lat="50.60064" lon="3.28383">
        <ele>57.341022</ele>
        <time>2018-10-09T13:18:13Z</time>
      </trkpt>
      <trkpt lat="50.60063" lon="3.2837">
        <ele>57.354473</ele>
        <time>2018-10-09T13:18:15Z</time>
      </trkpt>
      <trkpt lat="50.60062" lon="3.28357">
        <ele>57.435356</ele>
        <time>2018-10-09T13:18:17Z</time>
      </trkpt>
      <trkpt lat="50.60062" lon="3.28344">
        <ele>57.499676</ele>
        <time>2018-10-09T13:18:19Z</time>
      </trkpt>
      <trkpt lat="50.60062" lon="3.28331">
        <ele>57.468098</ele>
        <time>2018-10-09T13:18:21Z</time>
      </trkpt>
      <trkpt lat="50.60062" lon="3.28318">
        <ele>57.544678</ele>
        <time>2018-10-09T13:18:23Z</time>
      </trkpt>
      <trkpt lat="50.60061" lon="3.28305">
        <ele>57.595215</ele>
        <time>2018-10-09T13:18:25Z</time>
      </trkpt>
      <trkpt lat="50.60061" lon="3.28291">
        <ele>57.571758</ele>
        <time>2018-10-09T13:18:27Z</time>
      </trkpt>
      <trkpt lat="50.60061" lon="3.28277">
        <ele>57.545952</ele>
        <time>2018-10-09T13:18:29Z</time>
      </trkpt>
      <trkpt lat="50.60061" lon="3.28263">
        <ele>57.511086</ele>
        <time>2018-10-09T13:18:31Z</time>
      </trkpt>
      <trkpt lat="50.6006" lon="3.28249">
        <ele>57.512745</ele>
        <time>2018-10-09T13:18:33Z</time>
      </trkpt>
      <trkpt lat="50.60059" lon="3.28235">
        <ele>57.46463</ele>
        <time>2018-10-09T13:18:35Z</time>
      </trkpt>
      <trkpt lat="50.60059" lon="3.28221">
        <ele>57.379311</ele>
        <time>2018-10-09T13:18:37Z</time>
      </trkpt>
      <trkpt lat="50.60058" lon="3.28207">
        <ele>57.339802</ele>
        <time>2018-10-09T13:18:39Z</time>
      </trkpt>
      <trkpt lat="50.60057" lon="3.28192">
        <ele>57.309246</ele>
        <time>2018-10-09T13:18:41Z</time>
      </trkpt>
      <trkpt lat="50.60057" lon="3.28179">
        <ele>57.282135</ele>
        <time>2018-10-09T13:18:43Z</time>
      </trkpt>
      <trkpt lat="50.60056" lon="3.28166">
        <ele>57.239971</ele>
        <time>2018-10-09T13:18:45Z</time>
      </trkpt>
      <trkpt lat="50.60056" lon="3.28152">
        <ele>57.25592</ele>
        <time>2018-10-09T13:18:47Z</time>
      </trkpt>
      <trkpt lat="50.60056" lon="3.28138">
        <ele>57.223461</ele>
        <time>2018-10-09T13:18:49Z</time>
      </trkpt>
      <trkpt lat="50.60055" lon="3.28125">
        <ele>57.240704</ele>
        <time>2018-10-09T13:18:51Z</time>
      </trkpt>
      <trkpt lat="50.60055" lon="3.28112">
        <ele>57.216217</ele>
        <time>2018-10-09T13:18:53Z</time>
      </trkpt>
      <trkpt lat="50.60054" lon="3.28098">
        <ele>57.211281</ele>
        <time>2018-10-09T13:18:55Z</time>
      </trkpt>
      <trkpt lat="50.60054" lon="3.28084">
        <ele>57.207359</ele>
        <time>2018-10-09T13:18:57Z</time>
      </trkpt>
      <trkpt lat="50.60054" lon="3.2807">
        <ele>57.175438</ele>
        <time>2018-10-09T13:18:59Z</time>
      </trkpt>
      <trkpt lat="50.60054" lon="3.28055">
        <ele>57.232307</ele>
        <time>2018-10-09T13:19:01Z</time>
      </trkpt>
      <trkpt lat="50.60054" lon="3.28042">
        <ele>57.256458</ele>
        <time>2018-10-09T13:19:03Z</time>
      </trkpt>
      <trkpt lat="50.60053" lon="3.28028">
        <ele>57.244915</ele>
        <time>2018-10-09T13:19:05Z</time>
      </trkpt>
      <trkpt lat="50.60053" lon="3.28013">
        <ele>57.279327</ele>
        <time>2018-10-09T13:19:07Z</time>
      </trkpt>
      <trkpt lat="50.60053" lon="3.27999">
        <ele>57.32148</ele>
        <time>2018-10-09T13:19:09Z</time>
      </trkpt>
      <trkpt lat="50.60052" lon="3.27985">
        <ele>57.361755</ele>
        <time>2018-10-09T13:19:11Z</time>
      </trkpt>
      <trkpt lat="50.60051" lon="3.2797">
        <ele>57.406597</ele>
        <time>2018-10-09T13:19:13Z</time>
      </trkpt>
      <trkpt lat="50.6005" lon="3.27955">
        <ele>57.434364</ele>
        <time>2018-10-09T13:19:15Z</time>
      </trkpt>
      <trkpt lat="50.6005" lon="3.27941">
        <ele>57.469643</ele>
        <time>2018-10-09T13:19:17Z</time>
      </trkpt>
      <trkpt lat="50.60049" lon="3.27926">
        <ele>57.522175</ele>
        <time>2018-10-09T13:19:19Z</time>
      </trkpt>
      <trkpt lat="50.60048" lon="3.27911">
        <ele>57.573051</ele>
        <time>2018-10-09T13:19:21Z</time>
      </trkpt>
      <trkpt lat="50.60047" lon="3.27897">
        <ele>57.608765</ele>
        <time>2018-10-09T13:19:23Z</time>
      </trkpt>
      <trkpt lat="50.60047" lon="3.27882">
        <ele>57.610901</ele>
        <time>2018-10-09T13:19:25Z</time>
      </trkpt>
      <trkpt lat="50.60046" lon="3.27868">
        <ele>57.628784</ele>
        <time>2018-10-09T13:19:27Z</time>
      </trkpt>
      <trkpt lat="50.60045" lon="3.27855">
        <ele>57.572655</ele>
        <time>2018-10-09T13:19:29Z</time>
      </trkpt>
      <trkpt lat="50.60045" lon="3.27841">
        <ele>57.58213</ele>
        <time>2018-10-09T13:19:31Z</time>
      </trkpt>
      <trkpt lat="50.60043" lon="3.27827">
        <ele>57.595318</ele>
        <time>2018-10-09T13:19:33Z</time>
      </trkpt>
      <trkpt lat="50.60042" lon="3.27812">
        <ele>57.586967</ele>
        <time>2018-10-09T13:19:35Z</time>
      </trkpt>
      <trkpt lat="50.60041" lon="3.27798">
        <ele>57.586781</ele>
        <time>2018-10-09T13:19:37Z</time>
      </trkpt>
      <trkpt lat="50.6004" lon="3.27784">
        <ele>57.629128</ele>
        <time>2018-10-09T13:19:39Z</time>
      </trkpt>
      <trkpt lat="50.60039" lon="3.27769">
        <ele>57.662849</ele>
        <time>2018-10-09T13:19:41Z</time>
      </trkpt>
      <trkpt lat="50.60038" lon="3.27755">
        <ele>57.674145</ele>
        <time>2018-10-09T13:19:43Z</time>
      </trkpt>
      <trkpt lat="50.60037" lon="3.2774">
        <ele>57.648956</ele>
        <time>2018-10-09T13:19:45Z</time>
      </trkpt>
      <trkpt lat="50.60036" lon="3.27726">
        <ele>57.696869</ele>
        <time>2018-10-09T13:19:47Z</time>
      </trkpt>
      <trkpt lat="50.60035" lon="3.27712">
        <ele>57.703804</ele>
        <time>2018-10-09T13:19:49Z</time>
      </trkpt>
      <trkpt lat="50.60034" lon="3.27699">
        <ele>57.74395</ele>
        <time>2018-10-09T13:19:51Z</time>
      </trkpt>
      <trkpt lat="50.60033" lon="3.27686">
        <ele>57.738007</ele>
        <time>2018-10-09T13:19:53Z</time>
      </trkpt>
      <trkpt lat="50.60032" lon="3.27672">
        <ele>57.738453</ele>
        <time>2018-10-09T13:19:55Z</time>
      </trkpt>
      <trkpt lat="50.60031" lon="3.27659">
        <ele>57.746544</ele>
        <time>2018-10-09T13:19:57Z</time>
      </trkpt>
      <trkpt lat="50.6003" lon="3.27646">
        <ele>57.768108</ele>
        <time>2018-10-09T13:19:59Z</time>
      </trkpt>
      <trkpt lat="50.60029" lon="3.27635">
        <ele>57.770905</ele>
        <time>2018-10-09T13:20:01Z</time>
      </trkpt>
      <trkpt lat="50.60025" lon="3.27624">
        <ele>57.790077</ele>
        <time>2018-10-09T13:20:03Z</time>
      </trkpt>
      <trkpt lat="50.60019" lon="3.27617">
        <ele>57.843346</ele>
        <time>2018-10-09T13:20:05Z</time>
      </trkpt>
      <trkpt lat="50.60011" lon="3.27612">
        <ele>57.879982</ele>
        <time>2018-10-09T13:20:07Z</time>
      </trkpt>
      <trkpt lat="50.60003" lon="3.27609">
        <ele>57.920544</ele>
        <time>2018-10-09T13:20:09Z</time>
      </trkpt>
      <trkpt lat="50.59995" lon="3.27606">
        <ele>57.953014</ele>
        <time>2018-10-09T13:20:11Z</time>
      </trkpt>
      <trkpt lat="50.59987" lon="3.27603">
        <ele>57.996178</ele>
        <time>2018-10-09T13:20:13Z</time>
      </trkpt>
      <trkpt lat="50.59979" lon="3.27597">
        <ele>58.044292</ele>
        <time>2018-10-09T13:20:15Z</time>
      </trkpt>
      <trkpt lat="50.59974" lon="3.27587">
        <ele>58.068737</ele>
        <time>2018-10-09T13:20:17Z</time>
      </trkpt>
      <trkpt lat="50.59972" lon="3.27573">
        <ele>58.071831</ele>
        <time>2018-10-09T13:20:19Z</time>
      </trkpt>
      <trkpt lat="50.59971" lon="3.27559">
        <ele>58.049919</ele>
        <time>2018-10-09T13:20:21Z</time>
      </trkpt>
      <trkpt lat="50.5997" lon="3.27544">
        <ele>58.015759</ele>
        <time>2018-10-09T13:20:23Z</time>
      </trkpt>
      <trkpt lat="50.59969" lon="3.27529">
        <ele>57.966381</ele>
        <time>2018-10-09T13:20:25Z</time>
      </trkpt>
      <trkpt lat="50.59968" lon="3.27513">
        <ele>57.93998</ele>
        <time>2018-10-09T13:20:27Z</time>
      </trkpt>
      <trkpt lat="50.59967" lon="3.27497">
        <ele>57.889965</ele>
        <time>2018-10-09T13:20:29Z</time>
      </trkpt>
      <trkpt lat="50.59966" lon="3.27482">
        <ele>57.859535</ele>
        <time>2018-10-09T13:20:31Z</time>
      </trkpt>
      <trkpt lat="50.59964" lon="3.27467">
        <ele>57.8307</ele>
        <time>2018-10-09T13:20:33Z</time>
      </trkpt>
      <trkpt lat="50.59963" lon="3.27452">
        <ele>57.811829</ele>
        <time>2018-10-09T13:20:35Z</time>
      </trkpt>
      <trkpt lat="50.59961" lon="3.27437">
        <ele>57.796448</ele>
        <time>2018-10-09T13:20:37Z</time>
      </trkpt>
      <trkpt lat="50.59959" lon="3.27422">
        <ele>57.752563</ele>
        <time>2018-10-09T13:20:39Z</time>
      </trkpt>
      <trkpt lat="50.59957" lon="3.27407">
        <ele>57.768536</ele>
        <time>2018-10-09T13:20:41Z</time>
      </trkpt>
      <trkpt lat="50.59955" lon="3.27392">
        <ele>57.739441</ele>
        <time>2018-10-09T13:20:43Z</time>
      </trkpt>
      <trkpt lat="50.59954" lon="3.27376">
        <ele>57.713036</ele>
        <time>2018-10-09T13:20:45Z</time>
      </trkpt>
      <trkpt lat="50.59954" lon="3.27361">
        <ele>57.642273</ele>
        <time>2018-10-09T13:20:47Z</time>
      </trkpt>
      <trkpt lat="50.59955" lon="3.27346">
        <ele>57.645947</ele>
        <time>2018-10-09T13:20:49Z</time>
      </trkpt>
      <trkpt lat="50.59956" lon="3.2733">
        <ele>57.687702</ele>
        <time>2018-10-09T13:20:51Z</time>
      </trkpt>
      <trkpt lat="50.59959" lon="3.27316">
        <ele>57.634083</ele>
        <time>2018-10-09T13:20:53Z</time>
      </trkpt>
      <trkpt lat="50.59961" lon="3.27301">
        <ele>57.609753</ele>
        <time>2018-10-09T13:20:55Z</time>
      </trkpt>
      <trkpt lat="50.59963" lon="3.27285">
        <ele>57.603413</ele>
        <time>2018-10-09T13:20:57Z</time>
      </trkpt>
      <trkpt lat="50.59965" lon="3.2727">
        <ele>57.585766</ele>
        <time>2018-10-09T13:20:59Z</time>
      </trkpt>
      <trkpt lat="50.59967" lon="3.27255">
        <ele>57.579559</ele>
        <time>2018-10-09T13:21:01Z</time>
      </trkpt>
      <trkpt lat="50.5997" lon="3.27241">
        <ele>57.567017</ele>
        <time>2018-10-09T13:21:03Z</time>
      </trkpt>
      <trkpt lat="50.59972" lon="3.27226">
        <ele>57.57793</ele>
        <time>2018-10-09T13:21:05Z</time>
      </trkpt>
      <trkpt lat="50.59975" lon="3.27212">
        <ele>57.562477</ele>
        <time>2018-10-09T13:21:07Z</time>
      </trkpt>
      <trkpt lat="50.59977" lon="3.27198">
        <ele>57.562469</ele>
        <time>2018-10-09T13:21:09Z</time>
      </trkpt>
      <trkpt lat="50.59979" lon="3.27185">
        <ele>57.585133</ele>
        <time>2018-10-09T13:21:11Z</time>
      </trkpt>
      <trkpt lat="50.5998" lon="3.27172">
        <ele>57.593971</ele>
        <time>2018-10-09T13:21:13Z</time>
      </trkpt>
      <trkpt lat="50.5998" lon="3.27158">
        <ele>57.59787</ele>
        <time>2018-10-09T13:21:15Z</time>
      </trkpt>
      <trkpt lat="50.5998" lon="3.27145">
        <ele>57.609924</ele>
        <time>2018-10-09T13:21:17Z</time>
      </trkpt>
      <trkpt lat="50.59979" lon="3.27137">
        <ele>57.545776</ele>
        <time>2018-10-09T13:21:19Z</time>
      </trkpt>
      <trkpt lat="50.59978" lon="3.2713">
        <ele>57.484882</ele>
        <time>2018-10-09T13:21:21Z</time>
      </trkpt>
      <trkpt lat="50.59977" lon="3.27123">
        <ele>57.443306</ele>
        <time>2018-10-09T13:21:23Z</time>
      </trkpt>
      <trkpt lat="50.59976" lon="3.27114">
        <ele>57.399303</ele>
        <time>2018-10-09T13:21:25Z</time>
      </trkpt>
      <trkpt lat="50.59974" lon="3.27104">
        <ele>57.382759</ele>
        <time>2018-10-09T13:21:27Z</time>
      </trkpt>
      <trkpt lat="50.59972" lon="3.27093">
        <ele>57.412209</ele>
        <time>2018-10-09T13:21:29Z</time>
      </trkpt>
      <trkpt lat="50.5997" lon="3.27082">
        <ele>57.381248</ele>
        <time>2018-10-09T13:21:31Z</time>
      </trkpt>
      <trkpt lat="50.59968" lon="3.27069">
        <ele>57.376801</ele>
        <time>2018-10-09T13:21:33Z</time>
      </trkpt>
      <trkpt lat="50.59965" lon="3.27056">
        <ele>57.382965</ele>
        <time>2018-10-09T13:21:35Z</time>
      </trkpt>
      <trkpt lat="50.59963" lon="3.27043">
        <ele>57.364349</ele>
        <time>2018-10-09T13:21:37Z</time>
      </trkpt>
      <trkpt lat="50.59961" lon="3.2703">
        <ele>57.381756</ele>
        <time>2018-10-09T13:21:39Z</time>
      </trkpt>
      <trkpt lat="50.59958" lon="3.27016">
        <ele>57.365002</ele>
        <time>2018-10-09T13:21:41Z</time>
      </trkpt>
      <trkpt lat="50.59956" lon="3.27003">
        <ele>57.346283</ele>
        <time>2018-10-09T13:21:43Z</time>
      </trkpt>
      <trkpt lat="50.59953" lon="3.2699">
        <ele>57.342754</ele>
        <time>2018-10-09T13:21:45Z</time>
      </trkpt>
      <trkpt lat="50.5995" lon="3.26977">
        <ele>57.355705</ele>
        <time>2018-10-09T13:21:47Z</time>
      </trkpt>
      <trkpt lat="50.59946" lon="3.26963">
        <ele>57.418419</ele>
        <time>2018-10-09T13:21:49Z</time>
      </trkpt>
      <trkpt lat="50.59944" lon="3.26949">
        <ele>57.437645</ele>
        <time>2018-10-09T13:21:51Z</time>
      </trkpt>
      <trkpt lat="50.59941" lon="3.26934">
        <ele>57.479187</ele>
        <time>2018-10-09T13:21:53Z</time>
      </trkpt>
      <trkpt lat="50.59939" lon="3.2692">
        <ele>57.436577</ele>
        <time>2018-10-09T13:21:55Z</time>
      </trkpt>
      <trkpt lat="50.59937" lon="3.26905">
        <ele>57.489357</ele>
        <time>2018-10-09T13:21:57Z</time>
      </trkpt>
      <trkpt lat="50.59935" lon="3.2689">
        <ele>57.511314</ele>
        <time>2018-10-09T13:21:59Z</time>
      </trkpt>
      <trkpt lat="50.59932" lon="3.26874">
        <ele>57.599281</ele>
        <time>2018-10-09T13:22:01Z</time>
      </trkpt>
      <trkpt lat="50.5993" lon="3.26859">
        <ele>57.662537</ele>
        <time>2018-10-09T13:22:03Z</time>
      </trkpt>
      <trkpt lat="50.59928" lon="3.26843">
        <ele>57.732605</ele>
        <time>2018-10-09T13:22:05Z</time>
      </trkpt>
      <trkpt lat="50.59926" lon="3.26827">
        <ele>57.75172</ele>
        <time>2018-10-09T13:22:07Z</time>
      </trkpt>
      <trkpt lat="50.59924" lon="3.26812">
        <ele>57.799286</ele>
        <time>2018-10-09T13:22:09Z</time>
      </trkpt>
      <trkpt lat="50.59921" lon="3.26798">
        <ele>57.835285</ele>
        <time>2018-10-09T13:22:11Z</time>
      </trkpt>
      <trkpt lat="50.59918" lon="3.26784">
        <ele>57.832848</ele>
        <time>2018-10-09T13:22:13Z</time>
      </trkpt>
      <trkpt lat="50.59914" lon="3.2677">
        <ele>57.835365</ele>
        <time>2018-10-09T13:22:15Z</time>
      </trkpt>
      <trkpt lat="50.59909" lon="3.26758">
        <ele>57.870472</ele>
        <time>2018-10-09T13:22:17Z</time>
      </trkpt>
      <trkpt lat="50.59908" lon="3.26743">
        <ele>57.920174</ele>
        <time>2018-10-09T13:22:19Z</time>
      </trkpt>
      <trkpt lat="50.59911" lon="3.26729">
        <ele>57.921532</ele>
        <time>2018-10-09T13:22:21Z</time>
      </trkpt>
      <trkpt lat="50.59914" lon="3.26714">
        <ele>57.893963</ele>
        <time>2018-10-09T13:22:23Z</time>
      </trkpt>
      <trkpt lat="50.59914" lon="3.26699">
        <ele>57.901947</ele>
        <time>2018-10-09T13:22:25Z</time>
      </trkpt>
      <trkpt lat="50.59913" lon="3.26685">
        <ele>57.909271</ele>
        <time>2018-10-09T13:22:27Z</time>
      </trkpt>
      <trkpt lat="50.59911" lon="3.2667">
        <ele>57.956928</ele>
        <time>2018-10-09T13:22:29Z</time>
      </trkpt>
      <trkpt lat="50.59909" lon="3.26656">
        <ele>57.960682</ele>
        <time>2018-10-09T13:22:31Z</time>
      </trkpt>
      <trkpt lat="50.59908" lon="3.26642">
        <ele>57.940144</ele>
        <time>2018-10-09T13:22:33Z</time>
      </trkpt>
      <trkpt lat="50.59907" lon="3.26628">
        <ele>57.946022</ele>
        <time>2018-10-09T13:22:35Z</time>
      </trkpt>
      <trkpt lat="50.59905" lon="3.26614">
        <ele>57.968575</ele>
        <time>2018-10-09T13:22:37Z</time>
      </trkpt>
      <trkpt lat="50.59904" lon="3.266">
        <ele>57.997047</ele>
        <time>2018-10-09T13:22:39Z</time>
      </trkpt>
      <trkpt lat="50.59902" lon="3.26587">
        <ele>58.056171</ele>
        <time>2018-10-09T13:22:41Z</time>
      </trkpt>
      <trkpt lat="50.59901" lon="3.26573">
        <ele>58.075897</ele>
        <time>2018-10-09T13:22:43Z</time>
      </trkpt>
      <trkpt lat="50.599" lon="3.26559">
        <ele>58.090626</ele>
        <time>2018-10-09T13:22:45Z</time>
      </trkpt>
      <trkpt lat="50.59898" lon="3.26544">
        <ele>58.114052</ele>
        <time>2018-10-09T13:22:47Z</time>
      </trkpt>
      <trkpt lat="50.59896" lon="3.2653">
        <ele>58.109661</ele>
        <time>2018-10-09T13:22:49Z</time>
      </trkpt>
      <trkpt lat="50.59894" lon="3.26515">
        <ele>58.116871</ele>
        <time>2018-10-09T13:22:51Z</time>
      </trkpt>
      <trkpt lat="50.59893" lon="3.26499">
        <ele>58.139812</ele>
        <time>2018-10-09T13:22:53Z</time>
      </trkpt>
      <trkpt lat="50.59892" lon="3.26485">
        <ele>58.13797</ele>
        <time>2018-10-09T13:22:55Z</time>
      </trkpt>
      <trkpt lat="50.5989" lon="3.2647">
        <ele>58.169136</ele>
        <time>2018-10-09T13:22:57Z</time>
      </trkpt>
      <trkpt lat="50.59888" lon="3.26455">
        <ele>58.137768</ele>
        <time>2018-10-09T13:22:59Z</time>
      </trkpt>
      <trkpt lat="50.59887" lon="3.26441">
        <ele>58.156395</ele>
        <time>2018-10-09T13:23:01Z</time>
      </trkpt>
      <trkpt lat="50.59885" lon="3.26426">
        <ele>58.268837</ele>
        <time>2018-10-09T13:23:03Z</time>
      </trkpt>
      <trkpt lat="50.59884" lon="3.2641">
        <ele>58.281853</ele>
        <time>2018-10-09T13:23:05Z</time>
      </trkpt>
      <trkpt lat="50.59882" lon="3.26395">
        <ele>58.306557</ele>
        <time>2018-10-09T13:23:07Z</time>
      </trkpt>
      <trkpt lat="50.5988" lon="3.2638">
        <ele>58.271843</ele>
        <time>2018-10-09T13:23:09Z</time>
      </trkpt>
      <trkpt lat="50.59879" lon="3.26365">
        <ele>58.24691</ele>
        <time>2018-10-09T13:23:11Z</time>
      </trkpt>
      <trkpt lat="50.59877" lon="3.2635">
        <ele>58.223553</ele>
        <time>2018-10-09T13:23:13Z</time>
      </trkpt>
      <trkpt lat="50.59876" lon="3.26336">
        <ele>58.247429</ele>
        <time>2018-10-09T13:23:15Z</time>
      </trkpt>
      <trkpt lat="50.59874" lon="3.26322">
        <ele>58.208221</ele>
        <time>2018-10-09T13:23:17Z</time>
      </trkpt>
      <trkpt lat="50.59872" lon="3.26309">
        <ele>58.168877</ele>
        <time>2018-10-09T13:23:19Z</time>
      </trkpt>
      <trkpt lat="50.59871" lon="3.26296">
        <ele>58.152912</ele>
        <time>2018-10-09T13:23:21Z</time>
      </trkpt>
      <trkpt lat="50.5987" lon="3.26282">
        <ele>58.063438</ele>
        <time>2018-10-09T13:23:23Z</time>
      </trkpt>
      <trkpt lat="50.59868" lon="3.26268">
        <ele>58.049324</ele>
        <time>2018-10-09T13:23:25Z</time>
      </trkpt>
      <trkpt lat="50.59866" lon="3.26253">
        <ele>58.00518</ele>
        <time>2018-10-09T13:23:27Z</time>
      </trkpt>
      <trkpt lat="50.59865" lon="3.26239">
        <ele>58.038128</ele>
        <time>2018-10-09T13:23:29Z</time>
      </trkpt>
      <trkpt lat="50.59863" lon="3.26224">
        <ele>58.049877</ele>
        <time>2018-10-09T13:23:31Z</time>
      </trkpt>
      <trkpt lat="50.59861" lon="3.2621">
        <ele>58.089008</ele>
        <time>2018-10-09T13:23:33Z</time>
      </trkpt>
      <trkpt lat="50.59859" lon="3.26196">
        <ele>58.108143</ele>
        <time>2018-10-09T13:23:35Z</time>
      </trkpt>
      <trkpt lat="50.59857" lon="3.26183">
        <ele>58.110023</ele>
        <time>2018-10-09T13:23:37Z</time>
      </trkpt>
      <trkpt lat="50.59855" lon="3.26169">
        <ele>58.127563</ele>
        <time>2018-10-09T13:23:39Z</time>
      </trkpt>
      <trkpt lat="50.59853" lon="3.26155">
        <ele>58.135761</ele>
        <time>2018-10-09T13:23:41Z</time>
      </trkpt>
      <trkpt lat="50.5985" lon="3.26141">
        <ele>58.137531</ele>
        <time>2018-10-09T13:23:43Z</time>
      </trkpt>
      <trkpt lat="50.59847" lon="3.26126">
        <ele>58.119293</ele>
        <time>2018-10-09T13:23:45Z</time>
      </trkpt>
      <trkpt lat="50.59844" lon="3.26112">
        <ele>58.106701</ele>
        <time>2018-10-09T13:23:47Z</time>
      </trkpt>
      <trkpt lat="50.59841" lon="3.26097">
        <ele>58.107128</ele>
        <time>2018-10-09T13:23:49Z</time>
      </trkpt>
      <trkpt lat="50.59838" lon="3.26083">
        <ele>58.091927</ele>
        <time>2018-10-09T13:23:51Z</time>
      </trkpt>
      <trkpt lat="50.59835" lon="3.26069">
        <ele>58.110901</ele>
        <time>2018-10-09T13:23:53Z</time>
      </trkpt>
      <trkpt lat="50.59832" lon="3.26056">
        <ele>58.141705</ele>
        <time>2018-10-09T13:23:55Z</time>
      </trkpt>
      <trkpt lat="50.59829" lon="3.26043">
        <ele>58.113625</ele>
        <time>2018-10-09T13:23:57Z</time>
      </trkpt>
      <trkpt lat="50.59827" lon="3.26031">
        <ele>58.153496</ele>
        <time>2018-10-09T13:23:59Z</time>
      </trkpt>
      <trkpt lat="50.59824" lon="3.26019">
        <ele>58.174751</ele>
        <time>2018-10-09T13:24:01Z</time>
      </trkpt>
      <trkpt lat="50.59821" lon="3.26006">
        <ele>58.195801</ele>
        <time>2018-10-09T13:24:03Z</time>
      </trkpt>
      <trkpt lat="50.59818" lon="3.25994">
        <ele>58.171062</ele>
        <time>2018-10-09T13:24:05Z</time>
      </trkpt>
      <trkpt lat="50.59815" lon="3.25983">
        <ele>58.190136</ele>
        <time>2018-10-09T13:24:07Z</time>
      </trkpt>
      <trkpt lat="50.59812" lon="3.2597">
        <ele>58.173748</ele>
        <time>2018-10-09T13:24:09Z</time>
      </trkpt>
      <trkpt lat="50.59808" lon="3.25958">
        <ele>58.098663</ele>
        <time>2018-10-09T13:24:11Z</time>
      </trkpt>
      <trkpt lat="50.59804" lon="3.25945">
        <ele>58.091267</ele>
        <time>2018-10-09T13:24:13Z</time>
      </trkpt>
      <trkpt lat="50.598" lon="3.25932">
        <ele>58.020588</ele>
        <time>2018-10-09T13:24:15Z</time>
      </trkpt>
      <trkpt lat="50.59797" lon="3.25918">
        <ele>57.96817</ele>
        <time>2018-10-09T13:24:17Z</time>
      </trkpt>
      <trkpt lat="50.59794" lon="3.25903">
        <ele>57.929302</ele>
        <time>2018-10-09T13:24:19Z</time>
      </trkpt>
      <trkpt lat="50.5979" lon="3.25888">
        <ele>57.831409</ele>
        <time>2018-10-09T13:24:21Z</time>
      </trkpt>
      <trkpt lat="50.59787" lon="3.25871">
        <ele>57.716713</ele>
        <time>2018-10-09T13:24:23Z</time>
      </trkpt>
      <trkpt lat="50.59783" lon="3.25855">
        <ele>57.602913</ele>
        <time>2018-10-09T13:24:25Z</time>
      </trkpt>
      <trkpt lat="50.59779" lon="3.25839">
        <ele>57.446686</ele>
        <time>2018-10-09T13:24:27Z</time>
      </trkpt>
      <trkpt lat="50.59774" lon="3.25823">
        <ele>57.313759</ele>
        <time>2018-10-09T13:24:29Z</time>
      </trkpt>
      <trkpt lat="50.59769" lon="3.25806">
        <ele>57.194813</ele>
        <time>2018-10-09T13:24:31Z</time>
      </trkpt>
      <trkpt lat="50.59764" lon="3.25789">
        <ele>57.063496</ele>
        <time>2018-10-09T13:24:33Z</time>
      </trkpt>
      <trkpt lat="50.59757" lon="3.25772">
        <ele>56.917072</ele>
        <time>2018-10-09T13:24:35Z</time>
      </trkpt>
      <trkpt lat="50.59751" lon="3.25756">
        <ele>56.760582</ele>
        <time>2018-10-09T13:24:37Z</time>
      </trkpt>
      <trkpt lat="50.59745" lon="3.25741">
        <ele>56.582275</ele>
        <time>2018-10-09T13:24:39Z</time>
      </trkpt>
      <trkpt lat="50.59739" lon="3.25726">
        <ele>56.367756</ele>
        <time>2018-10-09T13:24:41Z</time>
      </trkpt>
      <trkpt lat="50.59734" lon="3.25713">
        <ele>56.18642</ele>
        <time>2018-10-09T13:24:43Z</time>
      </trkpt>
      <trkpt lat="50.59728" lon="3.257">
        <ele>56.015961</ele>
        <time>2018-10-09T13:24:45Z</time>
      </trkpt>
      <trkpt lat="50.59723" lon="3.25688">
        <ele>55.794117</ele>
        <time>2018-10-09T13:24:47Z</time>
      </trkpt>
      <trkpt lat="50.59718" lon="3.25677">
        <ele>55.687073</ele>
        <time>2018-10-09T13:24:49Z</time>
      </trkpt>
      <trkpt lat="50.59715" lon="3.25665">
        <ele>55.493092</ele>
        <time>2018-10-09T13:24:51Z</time>
      </trkpt>
      <trkpt lat="50.59711" lon="3.25654">
        <ele>55.348278</ele>
        <time>2018-10-09T13:24:53Z</time>
      </trkpt>
      <trkpt lat="50.59707" lon="3.25646">
        <ele>55.167671</ele>
        <time>2018-10-09T13:24:55Z</time>
      </trkpt>
      <trkpt lat="50.59704" lon="3.25637">
        <ele>54.971657</ele>
        <time>2018-10-09T13:24:57Z</time>
      </trkpt>
      <trkpt lat="50.59701" lon="3.2563">
        <ele>54.820019</ele>
        <time>2018-10-09T13:24:59Z</time>
      </trkpt>
      <trkpt lat="50.59698" lon="3.25624">
        <ele>54.681427</ele>
        <time>2018-10-09T13:25:01Z</time>
      </trkpt>
      <trkpt lat="50.59696" lon="3.2562">
        <ele>54.620483</ele>
        <time>2018-10-09T13:25:03Z</time>
      </trkpt>
      <trkpt lat="50.59694" lon="3.25615">
        <ele>54.560993</ele>
        <time>2018-10-09T13:25:05Z</time>
      </trkpt>
      <trkpt lat="50.59692" lon="3.25611">
        <ele>54.525158</ele>
        <time>2018-10-09T13:25:07Z</time>
      </trkpt>
      <trkpt lat="50.59689" lon="3.25609">
        <ele>54.541199</ele>
        <time>2018-10-09T13:25:09Z</time>
      </trkpt>
      <trkpt lat="50.59686" lon="3.25609">
        <ele>54.616108</ele>
        <time>2018-10-09T13:25:11Z</time>
      </trkpt>
      <trkpt lat="50.59683" lon="3.2561">
        <ele>54.600513</ele>
        <time>2018-10-09T13:25:13Z</time>
      </trkpt>
      <trkpt lat="50.59678" lon="3.25614">
        <ele>54.650494</ele>
        <time>2018-10-09T13:25:15Z</time>
      </trkpt>
      <trkpt lat="50.59673" lon="3.2562">
        <ele>54.645348</ele>
        <time>2018-10-09T13:25:17Z</time>
      </trkpt>
      <trkpt lat="50.59668" lon="3.25626">
        <ele>54.674591</ele>
        <time>2018-10-09T13:25:19Z</time>
      </trkpt>
      <trkpt lat="50.59663" lon="3.25633">
        <ele>54.782509</ele>
        <time>2018-10-09T13:25:21Z</time>
      </trkpt>
      <trkpt lat="50.59657" lon="3.25641">
        <ele>54.809715</ele>
        <time>2018-10-09T13:25:23Z</time>
      </trkpt>
      <trkpt lat="50.59652" lon="3.25648">
        <ele>54.892719</ele>
        <time>2018-10-09T13:25:25Z</time>
      </trkpt>
      <trkpt lat="50.59646" lon="3.25656">
        <ele>54.927204</ele>
        <time>2018-10-09T13:25:27Z</time>
      </trkpt>
      <trkpt lat="50.5964" lon="3.25664">
        <ele>55.045147</ele>
        <time>2018-10-09T13:25:29Z</time>
      </trkpt>
      <trkpt lat="50.59634" lon="3.25672">
        <ele>55.151115</ele>
        <time>2018-10-09T13:25:31Z</time>
      </trkpt>
      <trkpt lat="50.59628" lon="3.25681">
        <ele>55.242363</ele>
        <time>2018-10-09T13:25:33Z</time>
      </trkpt>
      <trkpt lat="50.59622" lon="3.2569">
        <ele>55.33894</ele>
        <time>2018-10-09T13:25:35Z</time>
      </trkpt>
      <trkpt lat="50.59616" lon="3.25699">
        <ele>55.42326</ele>
        <time>2018-10-09T13:25:37Z</time>
      </trkpt>
      <trkpt lat="50.5961" lon="3.25709">
        <ele>55.611763</ele>
        <time>2018-10-09T13:25:39Z</time>
      </trkpt>
      <trkpt lat="50.59604" lon="3.25719">
        <ele>55.799934</ele>
        <time>2018-10-09T13:25:41Z</time>
      </trkpt>
      <trkpt lat="50.59599" lon="3.2573">
        <ele>55.936504</ele>
        <time>2018-10-09T13:25:43Z</time>
      </trkpt>
      <trkpt lat="50.59594" lon="3.25741">
        <ele>56.036213</ele>
        <time>2018-10-09T13:25:45Z</time>
      </trkpt>
      <trkpt lat="50.59589" lon="3.25753">
        <ele>56.146782</ele>
        <time>2018-10-09T13:25:47Z</time>
      </trkpt>
      <trkpt lat="50.59584" lon="3.25766">
        <ele>56.255272</ele>
        <time>2018-10-09T13:25:49Z</time>
      </trkpt>
      <trkpt lat="50.59578" lon="3.25778">
        <ele>56.337715</ele>
        <time>2018-10-09T13:25:51Z</time>
      </trkpt>
      <trkpt lat="50.59572" lon="3.25789">
        <ele>56.419563</ele>
        <time>2018-10-09T13:25:53Z</time>
      </trkpt>
      <trkpt lat="50.59565" lon="3.25799">
        <ele>56.476978</ele>
        <time>2018-10-09T13:25:55Z</time>
      </trkpt>
      <trkpt lat="50.5956" lon="3.25809">
        <ele>56.581551</ele>
        <time>2018-10-09T13:25:57Z</time>
      </trkpt>
      <trkpt lat="50.59554" lon="3.25818">
        <ele>56.674713</ele>
        <time>2018-10-09T13:25:59Z</time>
      </trkpt>
      <trkpt lat="50.59548" lon="3.25828">
        <ele>56.670033</ele>
        <time>2018-10-09T13:26:01Z</time>
      </trkpt>
      <trkpt lat="50.59542" lon="3.2584">
        <ele>56.731697</ele>
        <time>2018-10-09T13:26:03Z</time>
      </trkpt>
      <trkpt lat="50.59537" lon="3.25853">
        <ele>56.738575</ele>
        <time>2018-10-09T13:26:05Z</time>
      </trkpt>
      <trkpt lat="50.59535" lon="3.25867">
        <ele>56.765022</ele>
        <time>2018-10-09T13:26:07Z</time>
      </trkpt>
      <trkpt lat="50.59534" lon="3.25881">
        <ele>56.752014</ele>
        <time>2018-10-09T13:26:09Z</time>
      </trkpt>
      <trkpt lat="50.59535" lon="3.25896">
        <ele>56.70179</ele>
        <time>2018-10-09T13:26:11Z</time>
      </trkpt>
      <trkpt lat="50.59536" lon="3.25909">
        <ele>56.724751</ele>
        <time>2018-10-09T13:26:13Z</time>
      </trkpt>
      <trkpt lat="50.59536" lon="3.25922">
        <ele>56.697521</ele>
        <time>2018-10-09T13:26:15Z</time>
      </trkpt>
      <trkpt lat="50.59536" lon="3.25935">
        <ele>56.658672</ele>
        <time>2018-10-09T13:26:17Z</time>
      </trkpt>
      <trkpt lat="50.59537" lon="3.25949">
        <ele>56.57729</ele>
        <time>2018-10-09T13:26:19Z</time>
      </trkpt>
      <trkpt lat="50.59538" lon="3.25962">
        <ele>56.453968</ele>
        <time>2018-10-09T13:26:21Z</time>
      </trkpt>
      <trkpt lat="50.59538" lon="3.25976">
        <ele>56.362507</ele>
        <time>2018-10-09T13:26:23Z</time>
      </trkpt>
      <trkpt lat="50.59539" lon="3.25989">
        <ele>56.300026</ele>
        <time>2018-10-09T13:26:25Z</time>
      </trkpt>
      <trkpt lat="50.59539" lon="3.26003">
        <ele>56.254219</ele>
        <time>2018-10-09T13:26:27Z</time>
      </trkpt>
      <trkpt lat="50.59539" lon="3.26016">
        <ele>56.184132</ele>
        <time>2018-10-09T13:26:29Z</time>
      </trkpt>
      <trkpt lat="50.5954" lon="3.26029">
        <ele>56.127602</ele>
        <time>2018-10-09T13:26:31Z</time>
      </trkpt>
      <trkpt lat="50.59541" lon="3.26042">
        <ele>56.098877</ele>
        <time>2018-10-09T13:26:33Z</time>
      </trkpt>
      <trkpt lat="50.59541" lon="3.26055">
        <ele>56.069237</ele>
        <time>2018-10-09T13:26:35Z</time>
      </trkpt>
      <trkpt lat="50.59541" lon="3.26068">
        <ele>56.065208</ele>
        <time>2018-10-09T13:26:37Z</time>
      </trkpt>
      <trkpt lat="50.59541" lon="3.26079">
        <ele>56.08918</ele>
        <time>2018-10-09T13:26:39Z</time>
      </trkpt>
      <trkpt lat="50.59535" lon="3.26086">
        <ele>56.115681</ele>
        <time>2018-10-09T13:26:41Z</time>
      </trkpt>
      <trkpt lat="50.59526" lon="3.26089">
        <ele>56.168438</ele>
        <time>2018-10-09T13:26:43Z</time>
      </trkpt>
      <trkpt lat="50.59517" lon="3.26087">
        <ele>56.250435</ele>
        <time>2018-10-09T13:26:45Z</time>
      </trkpt>
      <trkpt lat="50.59508" lon="3.26084">
        <ele>56.373657</ele>
        <time>2018-10-09T13:26:47Z</time>
      </trkpt>
      <trkpt lat="50.59499" lon="3.2608">
        <ele>56.394585</ele>
        <time>2018-10-09T13:26:49Z</time>
      </trkpt>
      <trkpt lat="50.5949" lon="3.26077">
        <ele>56.487671</ele>
        <time>2018-10-09T13:26:51Z</time>
      </trkpt>
      <trkpt lat="50.5948" lon="3.26074">
        <ele>56.586395</ele>
        <time>2018-10-09T13:26:53Z</time>
      </trkpt>
      <trkpt lat="50.59471" lon="3.26071">
        <ele>56.647625</ele>
        <time>2018-10-09T13:26:55Z</time>
      </trkpt>
      <trkpt lat="50.59461" lon="3.26068">
        <ele>56.763409</ele>
        <time>2018-10-09T13:26:57Z</time>
      </trkpt>
      <trkpt lat="50.59451" lon="3.26067">
        <ele>56.901104</ele>
        <time>2018-10-09T13:26:59Z</time>
      </trkpt>
      <trkpt lat="50.59442" lon="3.26068">
        <ele>56.992786</ele>
        <time>2018-10-09T13:27:01Z</time>
      </trkpt>
      <trkpt lat="50.59433" lon="3.26072">
        <ele>57.104675</ele>
        <time>2018-10-09T13:27:03Z</time>
      </trkpt>
      <trkpt lat="50.59424" lon="3.26078">
        <ele>57.195324</ele>
        <time>2018-10-09T13:27:05Z</time>
      </trkpt>
      <trkpt lat="50.59416" lon="3.26087">
        <ele>57.22876</ele>
        <time>2018-10-09T13:27:07Z</time>
      </trkpt>
      <trkpt lat="50.59408" lon="3.26097">
        <ele>57.292297</ele>
        <time>2018-10-09T13:27:09Z</time>
      </trkpt>
      <trkpt lat="50.59401" lon="3.26106">
        <ele>57.375267</ele>
        <time>2018-10-09T13:27:11Z</time>
      </trkpt>
      <trkpt lat="50.59395" lon="3.26115">
        <ele>57.466637</ele>
        <time>2018-10-09T13:27:13Z</time>
      </trkpt>
      <trkpt lat="50.59389" lon="3.26124">
        <ele>57.514732</ele>
        <time>2018-10-09T13:27:15Z</time>
      </trkpt>
      <trkpt lat="50.59384" lon="3.26135">
        <ele>57.526978</ele>
        <time>2018-10-09T13:27:17Z</time>
      </trkpt>
      <trkpt lat="50.59381" lon="3.26148">
        <ele>57.551159</ele>
        <time>2018-10-09T13:27:19Z</time>
      </trkpt>
      <trkpt lat="50.59378" lon="3.26162">
        <ele>57.563805</ele>
        <time>2018-10-09T13:27:21Z</time>
      </trkpt>
      <trkpt lat="50.59376" lon="3.26176">
        <ele>57.556335</ele>
        <time>2018-10-09T13:27:23Z</time>
      </trkpt>
      <trkpt lat="50.59374" lon="3.2619">
        <ele>57.601784</ele>
        <time>2018-10-09T13:27:25Z</time>
      </trkpt>
      <trkpt lat="50.59371" lon="3.26204">
        <ele>57.638988</ele>
        <time>2018-10-09T13:27:27Z</time>
      </trkpt>
      <trkpt lat="50.59368" lon="3.26218">
        <ele>57.658302</ele>
        <time>2018-10-09T13:27:29Z</time>
      </trkpt>
      <trkpt lat="50.59366" lon="3.26231">
        <ele>57.747082</ele>
        <time>2018-10-09T13:27:31Z</time>
      </trkpt>
      <trkpt lat="50.59363" lon="3.26245">
        <ele>57.851879</ele>
        <time>2018-10-09T13:27:33Z</time>
      </trkpt>
      <trkpt lat="50.59359" lon="3.26259">
        <ele>57.937134</ele>
        <time>2018-10-09T13:27:35Z</time>
      </trkpt>
      <trkpt lat="50.59356" lon="3.26272">
        <ele>58.006203</ele>
        <time>2018-10-09T13:27:37Z</time>
      </trkpt>
      <trkpt lat="50.59353" lon="3.26286">
        <ele>58.062744</ele>
        <time>2018-10-09T13:27:39Z</time>
      </trkpt>
      <trkpt lat="50.59349" lon="3.26299">
        <ele>58.146263</ele>
        <time>2018-10-09T13:27:41Z</time>
      </trkpt>
      <trkpt lat="50.59346" lon="3.26312">
        <ele>58.218361</ele>
        <time>2018-10-09T13:27:43Z</time>
      </trkpt>
      <trkpt lat="50.59342" lon="3.26324">
        <ele>58.30077</ele>
        <time>2018-10-09T13:27:45Z</time>
      </trkpt>
      <trkpt lat="50.59337" lon="3.26336">
        <ele>58.377026</ele>
        <time>2018-10-09T13:27:47Z</time>
      </trkpt>
      <trkpt lat="50.59331" lon="3.26346">
        <ele>58.433846</ele>
        <time>2018-10-09T13:27:49Z</time>
      </trkpt>
      <trkpt lat="50.59325" lon="3.26357">
        <ele>58.578285</ele>
        <time>2018-10-09T13:27:51Z</time>
      </trkpt>
      <trkpt lat="50.59318" lon="3.26367">
        <ele>58.709492</ele>
        <time>2018-10-09T13:27:53Z</time>
      </trkpt>
      <trkpt lat="50.59312" lon="3.26378">
        <ele>58.799774</ele>
        <time>2018-10-09T13:27:55Z</time>
      </trkpt>
      <trkpt lat="50.59306" lon="3.26388">
        <ele>58.883911</ele>
        <time>2018-10-09T13:27:57Z</time>
      </trkpt>
      <trkpt lat="50.59299" lon="3.26399">
        <ele>59.020435</ele>
        <time>2018-10-09T13:27:59Z</time>
      </trkpt>
      <trkpt lat="50.59292" lon="3.26409">
        <ele>59.150696</ele>
        <time>2018-10-09T13:28:01Z</time>
      </trkpt>
      <trkpt lat="50.59286" lon="3.26418">
        <ele>59.294201</ele>
        <time>2018-10-09T13:28:03Z</time>
      </trkpt>
      <trkpt lat="50.5928" lon="3.26427">
        <ele>59.442158</ele>
        <time>2018-10-09T13:28:05Z</time>
      </trkpt>
      <trkpt lat="50.59274" lon="3.26436">
        <ele>59.578217</ele>
        <time>2018-10-09T13:28:07Z</time>
      </trkpt>
      <trkpt lat="50.59268" lon="3.26445">
        <ele>59.668236</ele>
        <time>2018-10-09T13:28:09Z</time>
      </trkpt>
      <trkpt lat="50.59261" lon="3.26454">
        <ele>59.744457</ele>
        <time>2018-10-09T13:28:11Z</time>
      </trkpt>
      <trkpt lat="50.59255" lon="3.26463">
        <ele>59.801838</ele>
        <time>2018-10-09T13:28:13Z</time>
      </trkpt>
      <trkpt lat="50.59249" lon="3.26472">
        <ele>59.91864</ele>
        <time>2018-10-09T13:28:15Z</time>
      </trkpt>
      <trkpt lat="50.59243" lon="3.2648">
        <ele>59.979229</ele>
        <time>2018-10-09T13:28:17Z</time>
      </trkpt>
      <trkpt lat="50.59237" lon="3.26488">
        <ele>60.007374</ele>
        <time>2018-10-09T13:28:19Z</time>
      </trkpt>
      <trkpt lat="50.59231" lon="3.26496">
        <ele>60.064331</ele>
        <time>2018-10-09T13:28:21Z</time>
      </trkpt>
      <trkpt lat="50.59225" lon="3.26506">
        <ele>60.123272</ele>
        <time>2018-10-09T13:28:23Z</time>
      </trkpt>
      <trkpt lat="50.59218" lon="3.26515">
        <ele>60.173115</ele>
        <time>2018-10-09T13:28:25Z</time>
      </trkpt>
      <trkpt lat="50.59211" lon="3.26525">
        <ele>60.237591</ele>
        <time>2018-10-09T13:28:27Z</time>
      </trkpt>
      <trkpt lat="50.59205" lon="3.26535">
        <ele>60.276428</ele>
        <time>2018-10-09T13:28:29Z</time>
      </trkpt>
      <trkpt lat="50.59197" lon="3.26545">
        <ele>60.336334</ele>
        <time>2018-10-09T13:28:31Z</time>
      </trkpt>
      <trkpt lat="50.5919" lon="3.26555">
        <ele>60.34375</ele>
        <time>2018-10-09T13:28:33Z</time>
      </trkpt>
      <trkpt lat="50.59184" lon="3.26566">
        <ele>60.380028</ele>
        <time>2018-10-09T13:28:35Z</time>
      </trkpt>
      <trkpt lat="50.59177" lon="3.26576">
        <ele>60.421356</ele>
        <time>2018-10-09T13:28:37Z</time>
      </trkpt>
      <trkpt lat="50.59171" lon="3.26586">
        <ele>60.479279</ele>
        <time>2018-10-09T13:28:39Z</time>
      </trkpt>
      <trkpt lat="50.59164" lon="3.26596">
        <ele>60.539562</ele>
        <time>2018-10-09T13:28:41Z</time>
      </trkpt>
      <trkpt lat="50.59157" lon="3.26605">
        <ele>60.528728</ele>
        <time>2018-10-09T13:28:43Z</time>
      </trkpt>
      <trkpt lat="50.59151" lon="3.26615">
        <ele>60.575512</ele>
        <time>2018-10-09T13:28:45Z</time>
      </trkpt>
      <trkpt lat="50.59145" lon="3.26624">
        <ele>60.570484</ele>
        <time>2018-10-09T13:28:47Z</time>
      </trkpt>
      <trkpt lat="50.59139" lon="3.26633">
        <ele>60.591888</ele>
        <time>2018-10-09T13:28:49Z</time>
      </trkpt>
      <trkpt lat="50.59132" lon="3.26642">
        <ele>60.628502</ele>
        <time>2018-10-09T13:28:51Z</time>
      </trkpt>
      <trkpt lat="50.59126" lon="3.26651">
        <ele>60.712963</ele>
        <time>2018-10-09T13:28:53Z</time>
      </trkpt>
      <trkpt lat="50.59119" lon="3.26661">
        <ele>60.732227</ele>
        <time>2018-10-09T13:28:55Z</time>
      </trkpt>
      <trkpt lat="50.59113" lon="3.26671">
        <ele>60.725891</ele>
        <time>2018-10-09T13:28:57Z</time>
      </trkpt>
      <trkpt lat="50.59106" lon="3.26682">
        <ele>60.753624</ele>
        <time>2018-10-09T13:28:59Z</time>
      </trkpt>
      <trkpt lat="50.59099" lon="3.26692">
        <ele>60.755077</ele>
        <time>2018-10-09T13:29:01Z</time>
      </trkpt>
      <trkpt lat="50.59092" lon="3.26701">
        <ele>60.753307</ele>
        <time>2018-10-09T13:29:03Z</time>
      </trkpt>
      <trkpt lat="50.59086" lon="3.26711">
        <ele>60.752892</ele>
        <time>2018-10-09T13:29:05Z</time>
      </trkpt>
      <trkpt lat="50.59079" lon="3.2672">
        <ele>60.739208</ele>
        <time>2018-10-09T13:29:07Z</time>
      </trkpt>
      <trkpt lat="50.59073" lon="3.2673">
        <ele>60.783295</ele>
        <time>2018-10-09T13:29:09Z</time>
      </trkpt>
      <trkpt lat="50.59066" lon="3.26739">
        <ele>60.831066</ele>
        <time>2018-10-09T13:29:11Z</time>
      </trkpt>
      <trkpt lat="50.59059" lon="3.26749">
        <ele>60.850971</ele>
        <time>2018-10-09T13:29:13Z</time>
      </trkpt>
      <trkpt lat="50.59052" lon="3.26759">
        <ele>60.901398</ele>
        <time>2018-10-09T13:29:15Z</time>
      </trkpt>
      <trkpt lat="50.59045" lon="3.26769">
        <ele>60.938335</ele>
        <time>2018-10-09T13:29:17Z</time>
      </trkpt>
      <trkpt lat="50.59037" lon="3.26777">
        <ele>60.932381</ele>
        <time>2018-10-09T13:29:19Z</time>
      </trkpt>
      <trkpt lat="50.59029" lon="3.26783">
        <ele>60.935524</ele>
        <time>2018-10-09T13:29:21Z</time>
      </trkpt>
      <trkpt lat="50.5902" lon="3.26788">
        <ele>60.943138</ele>
        <time>2018-10-09T13:29:23Z</time>
      </trkpt>
      <trkpt lat="50.59012" lon="3.26792">
        <ele>60.933727</ele>
        <time>2018-10-09T13:29:25Z</time>
      </trkpt>
      <trkpt lat="50.59003" lon="3.26796">
        <ele>60.911522</ele>
        <time>2018-10-09T13:29:27Z</time>
      </trkpt>
      <trkpt lat="50.58996" lon="3.268">
        <ele>60.916908</ele>
        <time>2018-10-09T13:29:29Z</time>
      </trkpt>
      <trkpt lat="50.58988" lon="3.26804">
        <ele>60.885967</ele>
        <time>2018-10-09T13:29:31Z</time>
      </trkpt>
      <trkpt lat="50.58981" lon="3.26809">
        <ele>60.856895</ele>
        <time>2018-10-09T13:29:33Z</time>
      </trkpt>
      <trkpt lat="50.58973" lon="3.26813">
        <ele>60.804695</ele>
        <time>2018-10-09T13:29:35Z</time>
      </trkpt>
      <trkpt lat="50.58965" lon="3.26817">
        <ele>60.775421</ele>
        <time>2018-10-09T13:29:37Z</time>
      </trkpt>
      <trkpt lat="50.58956" lon="3.26822">
        <ele>60.753105</ele>
        <time>2018-10-09T13:29:39Z</time>
      </trkpt>
      <trkpt lat="50.58948" lon="3.26826">
        <ele>60.738045</ele>
        <time>2018-10-09T13:29:41Z</time>
      </trkpt>
      <trkpt lat="50.58939" lon="3.26831">
        <ele>60.722969</ele>
        <time>2018-10-09T13:29:43Z</time>
      </trkpt>
      <trkpt lat="50.58931" lon="3.26835">
        <ele>60.669117</ele>
        <time>2018-10-09T13:29:45Z</time>
      </trkpt>
      <trkpt lat="50.58922" lon="3.2684">
        <ele>60.668377</ele>
        <time>2018-10-09T13:29:47Z</time>
      </trkpt>
      <trkpt lat="50.58913" lon="3.26845">
        <ele>60.679089</ele>
        <time>2018-10-09T13:29:49Z</time>
      </trkpt>
      <trkpt lat="50.58905" lon="3.2685">
        <ele>60.709209</ele>
        <time>2018-10-09T13:29:51Z</time>
      </trkpt>
      <trkpt lat="50.58896" lon="3.26855">
        <ele>60.707775</ele>
        <time>2018-10-09T13:29:53Z</time>
      </trkpt>
      <trkpt lat="50.58888" lon="3.2686">
        <ele>60.672585</ele>
        <time>2018-10-09T13:29:55Z</time>
      </trkpt>
      <trkpt lat="50.58881" lon="3.26866">
        <ele>60.623768</ele>
        <time>2018-10-09T13:29:57Z</time>
      </trkpt>
      <trkpt lat="50.58873" lon="3.26872">
        <ele>60.581245</ele>
        <time>2018-10-09T13:29:59Z</time>
      </trkpt>
      <trkpt lat="50.58865" lon="3.2688">
        <ele>60.596394</ele>
        <time>2018-10-09T13:30:01Z</time>
      </trkpt>
      <trkpt lat="50.58857" lon="3.26888">
        <ele>60.56472</ele>
        <time>2018-10-09T13:30:03Z</time>
      </trkpt>
      <trkpt lat="50.58851" lon="3.26898">
        <ele>60.577076</ele>
        <time>2018-10-09T13:30:05Z</time>
      </trkpt>
      <trkpt lat="50.58843" lon="3.26906">
        <ele>60.573578</ele>
        <time>2018-10-09T13:30:07Z</time>
      </trkpt>
      <trkpt lat="50.58835" lon="3.26916">
        <ele>60.562599</ele>
        <time>2018-10-09T13:30:09Z</time>
      </trkpt>
      <trkpt lat="50.58827" lon="3.26925">
        <ele>60.55555</ele>
        <time>2018-10-09T13:30:11Z</time>
      </trkpt>
      <trkpt lat="50.58819" lon="3.26934">
        <ele>60.531136</ele>
        <time>2018-10-09T13:30:13Z</time>
      </trkpt>
      <trkpt lat="50.58812" lon="3.26942">
        <ele>60.515991</ele>
        <time>2018-10-09T13:30:15Z</time>
      </trkpt>
      <trkpt lat="50.58804" lon="3.26951">
        <ele>60.515961</ele>
        <time>2018-10-09T13:30:17Z</time>
      </trkpt>
      <trkpt lat="50.58798" lon="3.2696">
        <ele>60.522339</ele>
        <time>2018-10-09T13:30:19Z</time>
      </trkpt>
      <trkpt lat="50.58791" lon="3.26969">
        <ele>60.537914</ele>
        <time>2018-10-09T13:30:21Z</time>
      </trkpt>
      <trkpt lat="50.58785" lon="3.26978">
        <ele>60.591057</ele>
        <time>2018-10-09T13:30:23Z</time>
      </trkpt>
      <trkpt lat="50.58779" lon="3.26987">
        <ele>60.624825</ele>
        <time>2018-10-09T13:30:25Z</time>
      </trkpt>
      <trkpt lat="50.58773" lon="3.26997">
        <ele>60.658375</ele>
        <time>2018-10-09T13:30:27Z</time>
      </trkpt>
      <trkpt lat="50.58768" lon="3.27007">
        <ele>60.641731</ele>
        <time>2018-10-09T13:30:29Z</time>
      </trkpt>
      <trkpt lat="50.58762" lon="3.27018">
        <ele>60.638439</ele>
        <time>2018-10-09T13:30:31Z</time>
      </trkpt>
      <trkpt lat="50.58756" lon="3.2703">
        <ele>60.589611</ele>
        <time>2018-10-09T13:30:33Z</time>
      </trkpt>
      <trkpt lat="50.58751" lon="3.27043">
        <ele>60.522522</ele>
        <time>2018-10-09T13:30:35Z</time>
      </trkpt>
      <trkpt lat="50.58746" lon="3.27055">
        <ele>60.559071</ele>
        <time>2018-10-09T13:30:37Z</time>
      </trkpt>
      <trkpt lat="50.58741" lon="3.27067">
        <ele>60.543255</ele>
        <time>2018-10-09T13:30:39Z</time>
      </trkpt>
      <trkpt lat="50.58736" lon="3.2708">
        <ele>60.48288</ele>
        <time>2018-10-09T13:30:41Z</time>
      </trkpt>
      <trkpt lat="50.58731" lon="3.27092">
        <ele>60.468697</ele>
        <time>2018-10-09T13:30:43Z</time>
      </trkpt>
      <trkpt lat="50.58726" lon="3.27103">
        <ele>60.430107</ele>
        <time>2018-10-09T13:30:45Z</time>
      </trkpt>
      <trkpt lat="50.58721" lon="3.27114">
        <ele>60.341194</ele>
        <time>2018-10-09T13:30:47Z</time>
      </trkpt>
      <trkpt lat="50.58715" lon="3.27125">
        <ele>60.267975</ele>
        <time>2018-10-09T13:30:49Z</time>
      </trkpt>
      <trkpt lat="50.58709" lon="3.27135">
        <ele>60.205158</ele>
        <time>2018-10-09T13:30:51Z</time>
      </trkpt>
      <trkpt lat="50.58702" lon="3.27145">
        <ele>60.153969</ele>
        <time>2018-10-09T13:30:53Z</time>
      </trkpt>
      <trkpt lat="50.58695" lon="3.27155">
        <ele>60.117371</ele>
        <time>2018-10-09T13:30:55Z</time>
      </trkpt>
      <trkpt lat="50.58688" lon="3.27164">
        <ele>60.058655</ele>
        <time>2018-10-09T13:30:57Z</time>
      </trkpt>
      <trkpt lat="50.5868" lon="3.27172">
        <ele>59.994202</ele>
        <time>2018-10-09T13:30:59Z</time>
      </trkpt>
      <trkpt lat="50.58672" lon="3.27179">
        <ele>59.909355</ele>
        <time>2018-10-09T13:31:01Z</time>
      </trkpt>
      <trkpt lat="50.58664" lon="3.27185">
        <ele>59.793541</ele>
        <time>2018-10-09T13:31:03Z</time>
      </trkpt>
      <trkpt lat="50.58656" lon="3.27191">
        <ele>59.699291</ele>
        <time>2018-10-09T13:31:05Z</time>
      </trkpt>
      <trkpt lat="50.58648" lon="3.27195">
        <ele>59.618858</ele>
        <time>2018-10-09T13:31:07Z</time>
      </trkpt>
      <trkpt lat="50.58639" lon="3.27198">
        <ele>59.545502</ele>
        <time>2018-10-09T13:31:09Z</time>
      </trkpt>
      <trkpt lat="50.5863" lon="3.27201">
        <ele>59.466927</ele>
        <time>2018-10-09T13:31:11Z</time>
      </trkpt>
      <trkpt lat="50.58621" lon="3.27202">
        <ele>59.432014</ele>
        <time>2018-10-09T13:31:13Z</time>
      </trkpt>
      <trkpt lat="50.58611" lon="3.27203">
        <ele>59.363972</ele>
        <time>2018-10-09T13:31:15Z</time>
      </trkpt>
      <trkpt lat="50.58602" lon="3.27204">
        <ele>59.353901</ele>
        <time>2018-10-09T13:31:17Z</time>
      </trkpt>
      <trkpt lat="50.58593" lon="3.27205">
        <ele>59.286232</ele>
        <time>2018-10-09T13:31:19Z</time>
      </trkpt>
      <trkpt lat="50.58584" lon="3.27206">
        <ele>59.287025</ele>
        <time>2018-10-09T13:31:21Z</time>
      </trkpt>
      <trkpt lat="50.58575" lon="3.27206">
        <ele>59.2505</ele>
        <time>2018-10-09T13:31:23Z</time>
      </trkpt>
      <trkpt lat="50.58565" lon="3.27206">
        <ele>59.198296</ele>
        <time>2018-10-09T13:31:25Z</time>
      </trkpt>
      <trkpt lat="50.58555" lon="3.27207">
        <ele>59.223248</ele>
        <time>2018-10-09T13:31:27Z</time>
      </trkpt>
      <trkpt lat="50.58545" lon="3.27207">
        <ele>59.198799</ele>
        <time>2018-10-09T13:31:29Z</time>
      </trkpt>
      <trkpt lat="50.58535" lon="3.27207">
        <ele>59.190571</ele>
        <time>2018-10-09T13:31:31Z</time>
      </trkpt>
      <trkpt lat="50.58527" lon="3.27207">
        <ele>59.152863</ele>
        <time>2018-10-09T13:31:33Z</time>
      </trkpt>
      <trkpt lat="50.58518" lon="3.27208">
        <ele>59.174999</ele>
        <time>2018-10-09T13:31:35Z</time>
      </trkpt>
      <trkpt lat="50.5851" lon="3.27208">
        <ele>59.11021</ele>
        <time>2018-10-09T13:31:37Z</time>
      </trkpt>
      <trkpt lat="50.58501" lon="3.27208">
        <ele>59.070477</ele>
        <time>2018-10-09T13:31:39Z</time>
      </trkpt>
      <trkpt lat="50.58492" lon="3.27208">
        <ele>59.061729</ele>
        <time>2018-10-09T13:31:41Z</time>
      </trkpt>
      <trkpt lat="50.58484" lon="3.27209">
        <ele>59.088654</ele>
        <time>2018-10-09T13:31:43Z</time>
      </trkpt>
      <trkpt lat="50.58474" lon="3.27209">
        <ele>59.125866</ele>
        <time>2018-10-09T13:31:45Z</time>
      </trkpt>
      <trkpt lat="50.58465" lon="3.27209">
        <ele>59.120312</ele>
        <time>2018-10-09T13:31:47Z</time>
      </trkpt>
      <trkpt lat="50.58456" lon="3.27209">
        <ele>59.171234</ele>
        <time>2018-10-09T13:31:49Z</time>
      </trkpt>
      <trkpt lat="50.58447" lon="3.27209">
        <ele>59.135338</ele>
        <time>2018-10-09T13:31:51Z</time>
      </trkpt>
      <trkpt lat="50.58437" lon="3.2721">
        <ele>59.138721</ele>
        <time>2018-10-09T13:31:53Z</time>
      </trkpt>
      <trkpt lat="50.58428" lon="3.2721">
        <ele>59.115986</ele>
        <time>2018-10-09T13:31:55Z</time>
      </trkpt>
      <trkpt lat="50.58419" lon="3.27211">
        <ele>59.129814</ele>
        <time>2018-10-09T13:31:57Z</time>
      </trkpt>
      <trkpt lat="50.5841" lon="3.27211">
        <ele>59.111309</ele>
        <time>2018-10-09T13:31:59Z</time>
      </trkpt>
      <trkpt lat="50.584" lon="3.27211">
        <ele>59.085644</ele>
        <time>2018-10-09T13:32:01Z</time>
      </trkpt>
      <trkpt lat="50.5839" lon="3.27212">
        <ele>59.059082</ele>
        <time>2018-10-09T13:32:03Z</time>
      </trkpt>
      <trkpt lat="50.58381" lon="3.27212">
        <ele>59.027294</ele>
        <time>2018-10-09T13:32:05Z</time>
      </trkpt>
      <trkpt lat="50.58371" lon="3.27212">
        <ele>58.978203</ele>
        <time>2018-10-09T13:32:07Z</time>
      </trkpt>
      <trkpt lat="50.58361" lon="3.27213">
        <ele>58.938957</ele>
        <time>2018-10-09T13:32:09Z</time>
      </trkpt>
      <trkpt lat="50.58352" lon="3.27213">
        <ele>58.94157</ele>
        <time>2018-10-09T13:32:11Z</time>
      </trkpt>
      <trkpt lat="50.58343" lon="3.27213">
        <ele>58.983662</ele>
        <time>2018-10-09T13:32:13Z</time>
      </trkpt>
      <trkpt lat="50.58334" lon="3.27212">
        <ele>58.979271</ele>
        <time>2018-10-09T13:32:15Z</time>
      </trkpt>
      <trkpt lat="50.58324" lon="3.27211">
        <ele>58.97768</ele>
        <time>2018-10-09T13:32:17Z</time>
      </trkpt>
      <trkpt lat="50.58315" lon="3.27209">
        <ele>59.053246</ele>
        <time>2018-10-09T13:32:19Z</time>
      </trkpt>
      <trkpt lat="50.58307" lon="3.27206">
        <ele>59.078255</ele>
        <time>2018-10-09T13:32:21Z</time>
      </trkpt>
      <trkpt lat="50.58298" lon="3.27202">
        <ele>59.036396</ele>
        <time>2018-10-09T13:32:23Z</time>
      </trkpt>
      <trkpt lat="50.58289" lon="3.27199">
        <ele>59.018291</ele>
        <time>2018-10-09T13:32:25Z</time>
      </trkpt>
      <trkpt lat="50.58281" lon="3.27196">
        <ele>58.985554</ele>
        <time>2018-10-09T13:32:27Z</time>
      </trkpt>
      <trkpt lat="50.58275" lon="3.27193">
        <ele>58.942375</ele>
        <time>2018-10-09T13:32:29Z</time>
      </trkpt>
      <trkpt lat="50.58268" lon="3.27191">
        <ele>58.928295</ele>
        <time>2018-10-09T13:32:31Z</time>
      </trkpt>
      <trkpt lat="50.58261" lon="3.27189">
        <ele>58.892792</ele>
        <time>2018-10-09T13:32:33Z</time>
      </trkpt>
      <trkpt lat="50.58252" lon="3.27186">
        <ele>58.87751</ele>
        <time>2018-10-09T13:32:35Z</time>
      </trkpt>
      <trkpt lat="50.58244" lon="3.27183">
        <ele>58.866985</ele>
        <time>2018-10-09T13:32:37Z</time>
      </trkpt>
      <trkpt lat="50.58236" lon="3.2718">
        <ele>58.866039</ele>
        <time>2018-10-09T13:32:39Z</time>
      </trkpt>
      <trkpt lat="50.58228" lon="3.27177">
        <ele>58.855339</ele>
        <time>2018-10-09T13:32:41Z</time>
      </trkpt>
      <trkpt lat="50.5822" lon="3.27174">
        <ele>58.861176</ele>
        <time>2018-10-09T13:32:43Z</time>
      </trkpt>
      <trkpt lat="50.58212" lon="3.27172">
        <ele>58.848839</ele>
        <time>2018-10-09T13:32:45Z</time>
      </trkpt>
      <trkpt lat="50.58204" lon="3.27169">
        <ele>58.869892</ele>
        <time>2018-10-09T13:32:47Z</time>
      </trkpt>
      <trkpt lat="50.58196" lon="3.27166">
        <ele>58.867714</ele>
        <time>2018-10-09T13:32:49Z</time>
      </trkpt>
      <trkpt lat="50.58188" lon="3.27163">
        <ele>58.863159</ele>
        <time>2018-10-09T13:32:51Z</time>
      </trkpt>
      <trkpt lat="50.58179" lon="3.2716">
        <ele>58.830109</ele>
        <time>2018-10-09T13:32:53Z</time>
      </trkpt>
      <trkpt lat="50.5817" lon="3.27157">
        <ele>58.809883</ele>
        <time>2018-10-09T13:32:55Z</time>
      </trkpt>
      <trkpt lat="50.58161" lon="3.27154">
        <ele>58.727764</ele>
        <time>2018-10-09T13:32:57Z</time>
      </trkpt>
      <trkpt lat="50.58152" lon="3.27151">
        <ele>58.70829</ele>
        <time>2018-10-09T13:32:59Z</time>
      </trkpt>
      <trkpt lat="50.58143" lon="3.27147">
        <ele>58.639221</ele>
        <time>2018-10-09T13:33:01Z</time>
      </trkpt>
      <trkpt lat="50.58134" lon="3.27143">
        <ele>58.56496</ele>
        <time>2018-10-09T13:33:03Z</time>
      </trkpt>
      <trkpt lat="50.58125" lon="3.2714">
        <ele>58.544384</ele>
        <time>2018-10-09T13:33:05Z</time>
      </trkpt>
      <trkpt lat="50.58116" lon="3.27137">
        <ele>58.453651</ele>
        <time>2018-10-09T13:33:07Z</time>
      </trkpt>
      <trkpt lat="50.58107" lon="3.27134">
        <ele>58.399151</ele>
        <time>2018-10-09T13:33:09Z</time>
      </trkpt>
      <trkpt lat="50.58098" lon="3.27131">
        <ele>58.359749</ele>
        <time>2018-10-09T13:33:11Z</time>
      </trkpt>
      <trkpt lat="50.58089" lon="3.27128">
        <ele>58.291698</ele>
        <time>2018-10-09T13:33:13Z</time>
      </trkpt>
      <trkpt lat="50.5808" lon="3.27125">
        <ele>58.207733</ele>
        <time>2018-10-09T13:33:15Z</time>
      </trkpt>
      <trkpt lat="50.58071" lon="3.27123">
        <ele>58.119659</ele>
        <time>2018-10-09T13:33:17Z</time>
      </trkpt>
      <trkpt lat="50.58062" lon="3.27122">
        <ele>58.070374</ele>
        <time>2018-10-09T13:33:19Z</time>
      </trkpt>
      <trkpt lat="50.58053" lon="3.27122">
        <ele>58.032967</ele>
        <time>2018-10-09T13:33:21Z</time>
      </trkpt>
      <trkpt lat="50.58045" lon="3.27122">
        <ele>58.014568</ele>
        <time>2018-10-09T13:33:23Z</time>
      </trkpt>
      <trkpt lat="50.58037" lon="3.27123">
        <ele>57.94458</ele>
        <time>2018-10-09T13:33:25Z</time>
      </trkpt>
      <trkpt lat="50.5803" lon="3.27124">
        <ele>57.892437</ele>
        <time>2018-10-09T13:33:27Z</time>
      </trkpt>
      <trkpt lat="50.58023" lon="3.27126">
        <ele>57.81443</ele>
        <time>2018-10-09T13:33:29Z</time>
      </trkpt>
      <trkpt lat="50.58015" lon="3.27129">
        <ele>57.796059</ele>
        <time>2018-10-09T13:33:31Z</time>
      </trkpt>
      <trkpt lat="50.58006" lon="3.27132">
        <ele>57.726612</ele>
        <time>2018-10-09T13:33:33Z</time>
      </trkpt>
      <trkpt lat="50.57998" lon="3.27137">
        <ele>57.745277</ele>
        <time>2018-10-09T13:33:35Z</time>
      </trkpt>
      <trkpt lat="50.57988" lon="3.27141">
        <ele>57.763733</ele>
        <time>2018-10-09T13:33:37Z</time>
      </trkpt>
      <trkpt lat="50.57979" lon="3.27145">
        <ele>57.815704</ele>
        <time>2018-10-09T13:33:39Z</time>
      </trkpt>
      <trkpt lat="50.57969" lon="3.27149">
        <ele>57.785625</ele>
        <time>2018-10-09T13:33:41Z</time>
      </trkpt>
      <trkpt lat="50.5796" lon="3.27151">
        <ele>57.786842</ele>
        <time>2018-10-09T13:33:43Z</time>
      </trkpt>
      <trkpt lat="50.5795" lon="3.27153">
        <ele>57.798119</ele>
        <time>2018-10-09T13:33:45Z</time>
      </trkpt>
      <trkpt lat="50.57941" lon="3.27154">
        <ele>57.808887</ele>
        <time>2018-10-09T13:33:47Z</time>
      </trkpt>
      <trkpt lat="50.57932" lon="3.27155">
        <ele>57.839287</ele>
        <time>2018-10-09T13:33:49Z</time>
      </trkpt>
      <trkpt lat="50.57922" lon="3.27154">
        <ele>57.858307</ele>
        <time>2018-10-09T13:33:51Z</time>
      </trkpt>
      <trkpt lat="50.57912" lon="3.27152">
        <ele>57.890301</ele>
        <time>2018-10-09T13:33:53Z</time>
      </trkpt>
      <trkpt lat="50.57903" lon="3.2715">
        <ele>57.951805</ele>
        <time>2018-10-09T13:33:55Z</time>
      </trkpt>
      <trkpt lat="50.57893" lon="3.27147">
        <ele>58.039268</ele>
        <time>2018-10-09T13:33:57Z</time>
      </trkpt>
      <trkpt lat="50.57884" lon="3.27144">
        <ele>58.06245</ele>
        <time>2018-10-09T13:33:59Z</time>
      </trkpt>
      <trkpt lat="50.57876" lon="3.2714">
        <ele>58.094746</ele>
        <time>2018-10-09T13:34:01Z</time>
      </trkpt>
      <trkpt lat="50.57867" lon="3.27137">
        <ele>58.047985</ele>
        <time>2018-10-09T13:34:03Z</time>
      </trkpt>
      <trkpt lat="50.57858" lon="3.27134">
        <ele>58.037376</ele>
        <time>2018-10-09T13:34:05Z</time>
      </trkpt>
      <trkpt lat="50.5785" lon="3.2713">
        <ele>58.076344</ele>
        <time>2018-10-09T13:34:07Z</time>
      </trkpt>
      <trkpt lat="50.57842" lon="3.27127">
        <ele>58.118507</ele>
        <time>2018-10-09T13:34:09Z</time>
      </trkpt>
      <trkpt lat="50.57834" lon="3.27124">
        <ele>58.185143</ele>
        <time>2018-10-09T13:34:11Z</time>
      </trkpt>
      <trkpt lat="50.57826" lon="3.2712">
        <ele>58.231091</ele>
        <time>2018-10-09T13:34:13Z</time>
      </trkpt>
      <trkpt lat="50.57818" lon="3.27117">
        <ele>58.276417</ele>
        <time>2018-10-09T13:34:15Z</time>
      </trkpt>
      <trkpt lat="50.57809" lon="3.27114">
        <ele>58.269978</ele>
        <time>2018-10-09T13:34:17Z</time>
      </trkpt>
      <trkpt lat="50.578" lon="3.2711">
        <ele>58.265362</ele>
        <time>2018-10-09T13:34:19Z</time>
      </trkpt>
      <trkpt lat="50.57792" lon="3.27107">
        <ele>58.261547</ele>
        <time>2018-10-09T13:34:21Z</time>
      </trkpt>
      <trkpt lat="50.57784" lon="3.27103">
        <ele>58.33828</ele>
        <time>2018-10-09T13:34:23Z</time>
      </trkpt>
      <trkpt lat="50.57777" lon="3.27099">
        <ele>58.372597</ele>
        <time>2018-10-09T13:34:25Z</time>
      </trkpt>
      <trkpt lat="50.5777" lon="3.27095">
        <ele>58.382557</ele>
        <time>2018-10-09T13:34:27Z</time>
      </trkpt>
      <trkpt lat="50.57763" lon="3.27091">
        <ele>58.426056</ele>
        <time>2018-10-09T13:34:29Z</time>
      </trkpt>
      <trkpt lat="50.57756" lon="3.27088">
        <ele>58.458843</ele>
        <time>2018-10-09T13:34:31Z</time>
      </trkpt>
      <trkpt lat="50.57751" lon="3.2709">
        <ele>58.489189</ele>
        <time>2018-10-09T13:34:33Z</time>
      </trkpt>
      <trkpt lat="50.57747" lon="3.271">
        <ele>58.495522</ele>
        <time>2018-10-09T13:34:35Z</time>
      </trkpt>
      <trkpt lat="50.57745" lon="3.27112">
        <ele>58.509167</ele>
        <time>2018-10-09T13:34:37Z</time>
      </trkpt>
      <trkpt lat="50.57744" lon="3.27124">
        <ele>58.534069</ele>
        <time>2018-10-09T13:34:39Z</time>
      </trkpt>
      <trkpt lat="50.57744" lon="3.27135">
        <ele>58.579887</ele>
        <time>2018-10-09T13:34:41Z</time>
      </trkpt>
      <trkpt lat="50.57743" lon="3.27146">
        <ele>58.614807</ele>
        <time>2018-10-09T13:34:43Z</time>
      </trkpt>
      <trkpt lat="50.57741" lon="3.27157">
        <ele>58.685577</ele>
        <time>2018-10-09T13:34:45Z</time>
      </trkpt>
      <trkpt lat="50.5774" lon="3.27168">
        <ele>58.743938</ele>
        <time>2018-10-09T13:34:47Z</time>
      </trkpt>
      <trkpt lat="50.57738" lon="3.2718">
        <ele>58.727135</ele>
        <time>2018-10-09T13:34:49Z</time>
      </trkpt>
      <trkpt lat="50.57737" lon="3.27193">
        <ele>58.683746</ele>
        <time>2018-10-09T13:34:51Z</time>
      </trkpt>
      <trkpt lat="50.57736" lon="3.27206">
        <ele>58.652729</ele>
        <time>2018-10-09T13:34:53Z</time>
      </trkpt>
      <trkpt lat="50.57735" lon="3.27221">
        <ele>58.624352</ele>
        <time>2018-10-09T13:34:55Z</time>
      </trkpt>
      <trkpt lat="50.57734" lon="3.27235">
        <ele>58.609547</ele>
        <time>2018-10-09T13:34:57Z</time>
      </trkpt>
      <trkpt lat="50.57733" lon="3.27249">
        <ele>58.632549</ele>
        <time>2018-10-09T13:34:59Z</time>
      </trkpt>
      <trkpt lat="50.57732" lon="3.27263">
        <ele>58.585258</ele>
        <time>2018-10-09T13:35:01Z</time>
      </trkpt>
      <trkpt lat="50.57732" lon="3.27277">
        <ele>58.605659</ele>
        <time>2018-10-09T13:35:03Z</time>
      </trkpt>
      <trkpt lat="50.57731" lon="3.27291">
        <ele>58.589813</ele>
        <time>2018-10-09T13:35:05Z</time>
      </trkpt>
      <trkpt lat="50.57731" lon="3.27306">
        <ele>58.618439</ele>
        <time>2018-10-09T13:35:07Z</time>
      </trkpt>
      <trkpt lat="50.57731" lon="3.27321">
        <ele>58.636505</ele>
        <time>2018-10-09T13:35:09Z</time>
      </trkpt>
      <trkpt lat="50.5773" lon="3.27335">
        <ele>58.653053</ele>
        <time>2018-10-09T13:35:11Z</time>
      </trkpt>
      <trkpt lat="50.5773" lon="3.27349">
        <ele>58.641029</ele>
        <time>2018-10-09T13:35:13Z</time>
      </trkpt>
      <trkpt lat="50.57729" lon="3.27362">
        <ele>58.717846</ele>
        <time>2018-10-09T13:35:15Z</time>
      </trkpt>
      <trkpt lat="50.57729" lon="3.27376">
        <ele>58.768768</ele>
        <time>2018-10-09T13:35:17Z</time>
      </trkpt>
      <trkpt lat="50.57729" lon="3.2739">
        <ele>58.79422</ele>
        <time>2018-10-09T13:35:19Z</time>
      </trkpt>
      <trkpt lat="50.57729" lon="3.27404">
        <ele>58.775566</ele>
        <time>2018-10-09T13:35:21Z</time>
      </trkpt>
      <trkpt lat="50.57729" lon="3.27418">
        <ele>58.786743</ele>
        <time>2018-10-09T13:35:23Z</time>
      </trkpt>
      <trkpt lat="50.57729" lon="3.27434">
        <ele>58.759392</ele>
        <time>2018-10-09T13:35:25Z</time>
      </trkpt>
      <trkpt lat="50.57729" lon="3.27449">
        <ele>58.72765</ele>
        <time>2018-10-09T13:35:27Z</time>
      </trkpt>
      <trkpt lat="50.57729" lon="3.27465">
        <ele>58.710491</ele>
        <time>2018-10-09T13:35:29Z</time>
      </trkpt>
      <trkpt lat="50.57729" lon="3.2748">
        <ele>58.79604</ele>
        <time>2018-10-09T13:35:31Z</time>
      </trkpt>
      <trkpt lat="50.5773" lon="3.27495">
        <ele>58.733654</ele>
        <time>2018-10-09T13:35:33Z</time>
      </trkpt>
      <trkpt lat="50.57731" lon="3.2751">
        <ele>58.772697</ele>
        <time>2018-10-09T13:35:35Z</time>
      </trkpt>
      <trkpt lat="50.57731" lon="3.27526">
        <ele>58.804466</ele>
        <time>2018-10-09T13:35:37Z</time>
      </trkpt>
      <trkpt lat="50.57732" lon="3.27542">
        <ele>58.781464</ele>
        <time>2018-10-09T13:35:39Z</time>
      </trkpt>
      <trkpt lat="50.57732" lon="3.27558">
        <ele>58.766308</ele>
        <time>2018-10-09T13:35:41Z</time>
      </trkpt>
      <trkpt lat="50.57732" lon="3.27574">
        <ele>58.74691</ele>
        <time>2018-10-09T13:35:43Z</time>
      </trkpt>
      <trkpt lat="50.57732" lon="3.2759">
        <ele>58.709892</ele>
        <time>2018-10-09T13:35:45Z</time>
      </trkpt>
      <trkpt lat="50.57733" lon="3.27606">
        <ele>58.655994</ele>
        <time>2018-10-09T13:35:47Z</time>
      </trkpt>
      <trkpt lat="50.57733" lon="3.27621">
        <ele>58.611652</ele>
        <time>2018-10-09T13:35:49Z</time>
      </trkpt>
      <trkpt lat="50.57734" lon="3.27637">
        <ele>58.569958</ele>
        <time>2018-10-09T13:35:51Z</time>
      </trkpt>
      <trkpt lat="50.57735" lon="3.27651">
        <ele>58.525642</ele>
        <time>2018-10-09T13:35:53Z</time>
      </trkpt>
      <trkpt lat="50.57735" lon="3.27667">
        <ele>58.406746</ele>
        <time>2018-10-09T13:35:55Z</time>
      </trkpt>
      <trkpt lat="50.57736" lon="3.27682">
        <ele>58.371483</ele>
        <time>2018-10-09T13:35:57Z</time>
      </trkpt>
      <trkpt lat="50.57736" lon="3.27698">
        <ele>58.296562</ele>
        <time>2018-10-09T13:35:59Z</time>
      </trkpt>
      <trkpt lat="50.57737" lon="3.27713">
        <ele>58.277687</ele>
        <time>2018-10-09T13:36:01Z</time>
      </trkpt>
      <trkpt lat="50.57737" lon="3.27728">
        <ele>58.236755</ele>
        <time>2018-10-09T13:36:03Z</time>
      </trkpt>
      <trkpt lat="50.57738" lon="3.27744">
        <ele>58.16386</ele>
        <time>2018-10-09T13:36:05Z</time>
      </trkpt>
      <trkpt lat="50.57739" lon="3.27759">
        <ele>58.11924</ele>
        <time>2018-10-09T13:36:07Z</time>
      </trkpt>
      <trkpt lat="50.57739" lon="3.27774">
        <ele>58.108356</ele>
        <time>2018-10-09T13:36:09Z</time>
      </trkpt>
      <trkpt lat="50.5774" lon="3.27789">
        <ele>58.010426</ele>
        <time>2018-10-09T13:36:11Z</time>
      </trkpt>
      <trkpt lat="50.5774" lon="3.27803">
        <ele>57.982399</ele>
        <time>2018-10-09T13:36:13Z</time>
      </trkpt>
      <trkpt lat="50.57741" lon="3.27818">
        <ele>57.973286</ele>
        <time>2018-10-09T13:36:15Z</time>
      </trkpt>
      <trkpt lat="50.57741" lon="3.27832">
        <ele>57.886719</ele>
        <time>2018-10-09T13:36:17Z</time>
      </trkpt>
      <trkpt lat="50.57742" lon="3.27847">
        <ele>57.763641</ele>
        <time>2018-10-09T13:36:19Z</time>
      </trkpt>
      <trkpt lat="50.57742" lon="3.27862">
        <ele>57.698902</ele>
        <time>2018-10-09T13:36:21Z</time>
      </trkpt>
      <trkpt lat="50.57742" lon="3.27877">
        <ele>57.58062</ele>
        <time>2018-10-09T13:36:23Z</time>
      </trkpt>
      <trkpt lat="50.57742" lon="3.27891">
        <ele>57.486561</ele>
        <time>2018-10-09T13:36:25Z</time>
      </trkpt>
      <trkpt lat="50.57742" lon="3.27906">
        <ele>57.445232</ele>
        <time>2018-10-09T13:36:27Z</time>
      </trkpt>
      <trkpt lat="50.5774" lon="3.27919">
        <ele>57.423443</ele>
        <time>2018-10-09T13:36:29Z</time>
      </trkpt>
      <trkpt lat="50.5774" lon="3.27933">
        <ele>57.358013</ele>
        <time>2018-10-09T13:36:31Z</time>
      </trkpt>
      <trkpt lat="50.57739" lon="3.27946">
        <ele>57.29118</ele>
        <time>2018-10-09T13:36:33Z</time>
      </trkpt>
      <trkpt lat="50.57738" lon="3.27959">
        <ele>57.193642</ele>
        <time>2018-10-09T13:36:35Z</time>
      </trkpt>
      <trkpt lat="50.57737" lon="3.2797">
        <ele>57.094994</ele>
        <time>2018-10-09T13:36:37Z</time>
      </trkpt>
      <trkpt lat="50.57737" lon="3.27982">
        <ele>57.011772</ele>
        <time>2018-10-09T13:36:39Z</time>
      </trkpt>
      <trkpt lat="50.57736" lon="3.27996">
        <ele>56.926788</ele>
        <time>2018-10-09T13:36:41Z</time>
      </trkpt>
      <trkpt lat="50.57736" lon="3.2801">
        <ele>56.839294</ele>
        <time>2018-10-09T13:36:43Z</time>
      </trkpt>
      <trkpt lat="50.57735" lon="3.28025">
        <ele>56.766853</ele>
        <time>2018-10-09T13:36:45Z</time>
      </trkpt>
      <trkpt lat="50.57735" lon="3.2804">
        <ele>56.723438</ele>
        <time>2018-10-09T13:36:47Z</time>
      </trkpt>
      <trkpt lat="50.57734" lon="3.28055">
        <ele>56.664204</ele>
        <time>2018-10-09T13:36:49Z</time>
      </trkpt>
      <trkpt lat="50.57734" lon="3.2807">
        <ele>56.591179</ele>
        <time>2018-10-09T13:36:51Z</time>
      </trkpt>
      <trkpt lat="50.57733" lon="3.28084">
        <ele>56.506775</ele>
        <time>2018-10-09T13:36:53Z</time>
      </trkpt>
      <trkpt lat="50.57732" lon="3.28098">
        <ele>56.404926</ele>
        <time>2018-10-09T13:36:55Z</time>
      </trkpt>
      <trkpt lat="50.57732" lon="3.28113">
        <ele>56.290966</ele>
        <time>2018-10-09T13:36:57Z</time>
      </trkpt>
      <trkpt lat="50.57731" lon="3.28128">
        <ele>56.247448</ele>
        <time>2018-10-09T13:36:59Z</time>
      </trkpt>
      <trkpt lat="50.57729" lon="3.28143">
        <ele>56.186409</ele>
        <time>2018-10-09T13:37:01Z</time>
      </trkpt>
      <trkpt lat="50.57728" lon="3.28156">
        <ele>56.109489</ele>
        <time>2018-10-09T13:37:03Z</time>
      </trkpt>
      <trkpt lat="50.57725" lon="3.28167">
        <ele>56.069618</ele>
        <time>2018-10-09T13:37:05Z</time>
      </trkpt>
      <trkpt lat="50.57722" lon="3.28177">
        <ele>56.049438</ele>
        <time>2018-10-09T13:37:07Z</time>
      </trkpt>
      <trkpt lat="50.57719" lon="3.28188">
        <ele>55.982788</ele>
        <time>2018-10-09T13:37:09Z</time>
      </trkpt>
      <trkpt lat="50.57718" lon="3.28202">
        <ele>55.892712</ele>
        <time>2018-10-09T13:37:11Z</time>
      </trkpt>
      <trkpt lat="50.57716" lon="3.28215">
        <ele>55.787804</ele>
        <time>2018-10-09T13:37:13Z</time>
      </trkpt>
      <trkpt lat="50.57715" lon="3.2823">
        <ele>55.750202</ele>
        <time>2018-10-09T13:37:15Z</time>
      </trkpt>
      <trkpt lat="50.57712" lon="3.28245">
        <ele>55.732239</ele>
        <time>2018-10-09T13:37:17Z</time>
      </trkpt>
      <trkpt lat="50.57711" lon="3.28259">
        <ele>55.707253</ele>
        <time>2018-10-09T13:37:19Z</time>
      </trkpt>
      <trkpt lat="50.57709" lon="3.28274">
        <ele>55.655956</ele>
        <time>2018-10-09T13:37:21Z</time>
      </trkpt>
      <trkpt lat="50.57707" lon="3.28289">
        <ele>55.588402</ele>
        <time>2018-10-09T13:37:23Z</time>
      </trkpt>
      <trkpt lat="50.57704" lon="3.28304">
        <ele>55.540546</ele>
        <time>2018-10-09T13:37:25Z</time>
      </trkpt>
      <trkpt lat="50.57702" lon="3.28319">
        <ele>55.511269</ele>
        <time>2018-10-09T13:37:27Z</time>
      </trkpt>
      <trkpt lat="50.57699" lon="3.28333">
        <ele>55.459827</ele>
        <time>2018-10-09T13:37:29Z</time>
      </trkpt>
      <trkpt lat="50.57697" lon="3.28347">
        <ele>55.442406</ele>
        <time>2018-10-09T13:37:31Z</time>
      </trkpt>
      <trkpt lat="50.57695" lon="3.28361">
        <ele>55.41404</ele>
        <time>2018-10-09T13:37:33Z</time>
      </trkpt>
      <trkpt lat="50.57693" lon="3.28375">
        <ele>55.461945</ele>
        <time>2018-10-09T13:37:35Z</time>
      </trkpt>
      <trkpt lat="50.57691" lon="3.2839">
        <ele>55.479942</ele>
        <time>2018-10-09T13:37:37Z</time>
      </trkpt>
      <trkpt lat="50.5769" lon="3.28405">
        <ele>55.524834</ele>
        <time>2018-10-09T13:37:39Z</time>
      </trkpt>
      <trkpt lat="50.57689" lon="3.2842">
        <ele>55.593006</ele>
        <time>2018-10-09T13:37:41Z</time>
      </trkpt>
      <trkpt lat="50.57688" lon="3.28435">
        <ele>55.64167</ele>
        <time>2018-10-09T13:37:43Z</time>
      </trkpt>
      <trkpt lat="50.57686" lon="3.28451">
        <ele>55.715069</ele>
        <time>2018-10-09T13:37:45Z</time>
      </trkpt>
      <trkpt lat="50.57685" lon="3.28466">
        <ele>55.793449</ele>
        <time>2018-10-09T13:37:47Z</time>
      </trkpt>
      <trkpt lat="50.57683" lon="3.28481">
        <ele>55.849354</ele>
        <time>2018-10-09T13:37:49Z</time>
      </trkpt>
      <trkpt lat="50.57682" lon="3.28496">
        <ele>55.889275</ele>
        <time>2018-10-09T13:37:51Z</time>
      </trkpt>
      <trkpt lat="50.5768" lon="3.28511">
        <ele>55.975128</ele>
        <time>2018-10-09T13:37:53Z</time>
      </trkpt>
      <trkpt lat="50.57679" lon="3.28526">
        <ele>56.061707</ele>
        <time>2018-10-09T13:37:55Z</time>
      </trkpt>
      <trkpt lat="50.57677" lon="3.28541">
        <ele>56.160637</ele>
        <time>2018-10-09T13:37:57Z</time>
      </trkpt>
      <trkpt lat="50.57676" lon="3.28556">
        <ele>56.22953</ele>
        <time>2018-10-09T13:37:59Z</time>
      </trkpt>
      <trkpt lat="50.57674" lon="3.2857">
        <ele>56.2873</ele>
        <time>2018-10-09T13:38:01Z</time>
      </trkpt>
      <trkpt lat="50.57673" lon="3.28585">
        <ele>56.391888</ele>
        <time>2018-10-09T13:38:03Z</time>
      </trkpt>
      <trkpt lat="50.57671" lon="3.28599">
        <ele>56.444653</ele>
        <time>2018-10-09T13:38:05Z</time>
      </trkpt>
      <trkpt lat="50.5767" lon="3.28614">
        <ele>56.47303</ele>
        <time>2018-10-09T13:38:07Z</time>
      </trkpt>
      <trkpt lat="50.57668" lon="3.28629">
        <ele>56.5425</ele>
        <time>2018-10-09T13:38:09Z</time>
      </trkpt>
      <trkpt lat="50.57667" lon="3.28645">
        <ele>56.613873</ele>
        <time>2018-10-09T13:38:11Z</time>
      </trkpt>
      <trkpt lat="50.57666" lon="3.2866">
        <ele>56.696037</ele>
        <time>2018-10-09T13:38:13Z</time>
      </trkpt>
      <trkpt lat="50.57664" lon="3.28675">
        <ele>56.671692</ele>
        <time>2018-10-09T13:38:15Z</time>
      </trkpt>
      <trkpt lat="50.57662" lon="3.2869">
        <ele>56.664135</ele>
        <time>2018-10-09T13:38:17Z</time>
      </trkpt>
      <trkpt lat="50.5766" lon="3.28705">
        <ele>56.669899</ele>
        <time>2018-10-09T13:38:19Z</time>
      </trkpt>
      <trkpt lat="50.57658" lon="3.2872">
        <ele>56.665077</ele>
        <time>2018-10-09T13:38:21Z</time>
      </trkpt>
      <trkpt lat="50.57657" lon="3.28735">
        <ele>56.66227</ele>
        <time>2018-10-09T13:38:23Z</time>
      </trkpt>
      <trkpt lat="50.57654" lon="3.2875">
        <ele>56.678406</ele>
        <time>2018-10-09T13:38:25Z</time>
      </trkpt>
      <trkpt lat="50.57652" lon="3.28765">
        <ele>56.651806</ele>
        <time>2018-10-09T13:38:27Z</time>
      </trkpt>
      <trkpt lat="50.5765" lon="3.2878">
        <ele>56.66819</ele>
        <time>2018-10-09T13:38:29Z</time>
      </trkpt>
      <trkpt lat="50.57649" lon="3.28795">
        <ele>56.678364</ele>
        <time>2018-10-09T13:38:31Z</time>
      </trkpt>
      <trkpt lat="50.57647" lon="3.28811">
        <ele>56.7383</ele>
        <time>2018-10-09T13:38:33Z</time>
      </trkpt>
      <trkpt lat="50.57647" lon="3.28826">
        <ele>56.796368</ele>
        <time>2018-10-09T13:38:35Z</time>
      </trkpt>
      <trkpt lat="50.57648" lon="3.28841">
        <ele>56.824848</ele>
        <time>2018-10-09T13:38:37Z</time>
      </trkpt>
      <trkpt lat="50.57649" lon="3.28855">
        <ele>56.83485</ele>
        <time>2018-10-09T13:38:39Z</time>
      </trkpt>
      <trkpt lat="50.5765" lon="3.28869">
        <ele>56.84547</ele>
        <time>2018-10-09T13:38:41Z</time>
      </trkpt>
      <trkpt lat="50.57651" lon="3.28883">
        <ele>56.835693</ele>
        <time>2018-10-09T13:38:43Z</time>
      </trkpt>
      <trkpt lat="50.57652" lon="3.28897">
        <ele>56.885429</ele>
        <time>2018-10-09T13:38:45Z</time>
      </trkpt>
      <trkpt lat="50.57653" lon="3.28911">
        <ele>56.888557</ele>
        <time>2018-10-09T13:38:47Z</time>
      </trkpt>
      <trkpt lat="50.57654" lon="3.28926">
        <ele>56.921124</ele>
        <time>2018-10-09T13:38:49Z</time>
      </trkpt>
      <trkpt lat="50.57655" lon="3.28941">
        <ele>56.956032</ele>
        <time>2018-10-09T13:38:51Z</time>
      </trkpt>
      <trkpt lat="50.57657" lon="3.28955">
        <ele>56.955193</ele>
        <time>2018-10-09T13:38:53Z</time>
      </trkpt>
      <trkpt lat="50.57658" lon="3.28971">
        <ele>56.958416</ele>
        <time>2018-10-09T13:38:55Z</time>
      </trkpt>
      <trkpt lat="50.57659" lon="3.28986">
        <ele>57.031517</ele>
        <time>2018-10-09T13:38:57Z</time>
      </trkpt>
      <trkpt lat="50.5766" lon="3.29001">
        <ele>57.064148</ele>
        <time>2018-10-09T13:38:59Z</time>
      </trkpt>
      <trkpt lat="50.5766" lon="3.29016">
        <ele>57.059685</ele>
        <time>2018-10-09T13:39:01Z</time>
      </trkpt>
      <trkpt lat="50.5766" lon="3.29031">
        <ele>57.030975</ele>
        <time>2018-10-09T13:39:03Z</time>
      </trkpt>
      <trkpt lat="50.5766" lon="3.29046">
        <ele>57.034985</ele>
        <time>2018-10-09T13:39:05Z</time>
      </trkpt>
      <trkpt lat="50.5766" lon="3.29061">
        <ele>57.029774</ele>
        <time>2018-10-09T13:39:07Z</time>
      </trkpt>
      <trkpt lat="50.5766" lon="3.29076">
        <ele>57.033131</ele>
        <time>2018-10-09T13:39:09Z</time>
      </trkpt>
      <trkpt lat="50.5766" lon="3.2909">
        <ele>56.993053</ele>
        <time>2018-10-09T13:39:11Z</time>
      </trkpt>
      <trkpt lat="50.5766" lon="3.29105">
        <ele>56.957294</ele>
        <time>2018-10-09T13:39:13Z</time>
      </trkpt>
      <trkpt lat="50.5766" lon="3.2912">
        <ele>56.870647</ele>
        <time>2018-10-09T13:39:15Z</time>
      </trkpt>
      <trkpt lat="50.57661" lon="3.29135">
        <ele>56.812462</ele>
        <time>2018-10-09T13:39:17Z</time>
      </trkpt>
      <trkpt lat="50.5766" lon="3.29151">
        <ele>56.794899</ele>
        <time>2018-10-09T13:39:19Z</time>
      </trkpt>
      <trkpt lat="50.57661" lon="3.29166">
        <ele>56.732445</ele>
        <time>2018-10-09T13:39:21Z</time>
      </trkpt>
      <trkpt lat="50.57661" lon="3.29181">
        <ele>56.693398</ele>
        <time>2018-10-09T13:39:23Z</time>
      </trkpt>
      <trkpt lat="50.57662" lon="3.29197">
        <ele>56.708923</ele>
        <time>2018-10-09T13:39:25Z</time>
      </trkpt>
      <trkpt lat="50.57662" lon="3.29212">
        <ele>56.634777</ele>
        <time>2018-10-09T13:39:27Z</time>
      </trkpt>
      <trkpt lat="50.57663" lon="3.29225">
        <ele>56.611614</ele>
        <time>2018-10-09T13:39:29Z</time>
      </trkpt>
      <trkpt lat="50.57663" lon="3.29237">
        <ele>56.593414</ele>
        <time>2018-10-09T13:39:31Z</time>
      </trkpt>
      <trkpt lat="50.57663" lon="3.29251">
        <ele>56.52726</ele>
        <time>2018-10-09T13:39:33Z</time>
      </trkpt>
      <trkpt lat="50.57664" lon="3.29265">
        <ele>56.497826</ele>
        <time>2018-10-09T13:39:35Z</time>
      </trkpt>
      <trkpt lat="50.57665" lon="3.29279">
        <ele>56.49519</ele>
        <time>2018-10-09T13:39:37Z</time>
      </trkpt>
      <trkpt lat="50.57667" lon="3.29292">
        <ele>56.4757</ele>
        <time>2018-10-09T13:39:39Z</time>
      </trkpt>
      <trkpt lat="50.57669" lon="3.29306">
        <ele>56.480812</ele>
        <time>2018-10-09T13:39:41Z</time>
      </trkpt>
      <trkpt lat="50.57671" lon="3.2932">
        <ele>56.532257</ele>
        <time>2018-10-09T13:39:43Z</time>
      </trkpt>
      <trkpt lat="50.57673" lon="3.29333">
        <ele>56.570244</ele>
        <time>2018-10-09T13:39:45Z</time>
      </trkpt>
      <trkpt lat="50.57675" lon="3.29347">
        <ele>56.572639</ele>
        <time>2018-10-09T13:39:47Z</time>
      </trkpt>
      <trkpt lat="50.57677" lon="3.29361">
        <ele>56.621021</ele>
        <time>2018-10-09T13:39:49Z</time>
      </trkpt>
      <trkpt lat="50.57679" lon="3.29376">
        <ele>56.626312</ele>
        <time>2018-10-09T13:39:51Z</time>
      </trkpt>
      <trkpt lat="50.57681" lon="3.2939">
        <ele>56.697186</ele>
        <time>2018-10-09T13:39:53Z</time>
      </trkpt>
      <trkpt lat="50.57684" lon="3.29403">
        <ele>56.789192</ele>
        <time>2018-10-09T13:39:55Z</time>
      </trkpt>
      <trkpt lat="50.57687" lon="3.29417">
        <ele>56.822845</ele>
        <time>2018-10-09T13:39:57Z</time>
      </trkpt>
      <trkpt lat="50.5769" lon="3.29431">
        <ele>56.831409</ele>
        <time>2018-10-09T13:39:59Z</time>
      </trkpt>
      <trkpt lat="50.57693" lon="3.29445">
        <ele>56.882072</ele>
        <time>2018-10-09T13:40:01Z</time>
      </trkpt>
      <trkpt lat="50.57696" lon="3.29458">
        <ele>56.962318</ele>
        <time>2018-10-09T13:40:03Z</time>
      </trkpt>
      <trkpt lat="50.57699" lon="3.29471">
        <ele>57.060631</ele>
        <time>2018-10-09T13:40:05Z</time>
      </trkpt>
      <trkpt lat="50.57702" lon="3.29485">
        <ele>57.108837</ele>
        <time>2018-10-09T13:40:07Z</time>
      </trkpt>
      <trkpt lat="50.57704" lon="3.29498">
        <ele>57.199017</ele>
        <time>2018-10-09T13:40:09Z</time>
      </trkpt>
      <trkpt lat="50.57708" lon="3.29512">
        <ele>57.270103</ele>
        <time>2018-10-09T13:40:11Z</time>
      </trkpt>
      <trkpt lat="50.57711" lon="3.29525">
        <ele>57.359356</ele>
        <time>2018-10-09T13:40:13Z</time>
      </trkpt>
      <trkpt lat="50.57713" lon="3.29539">
        <ele>57.464489</ele>
        <time>2018-10-09T13:40:15Z</time>
      </trkpt>
      <trkpt lat="50.57716" lon="3.29553">
        <ele>57.530201</ele>
        <time>2018-10-09T13:40:17Z</time>
      </trkpt>
      <trkpt lat="50.57719" lon="3.29567">
        <ele>57.538128</ele>
        <time>2018-10-09T13:40:19Z</time>
      </trkpt>
      <trkpt lat="50.57723" lon="3.29582">
        <ele>57.547047</ele>
        <time>2018-10-09T13:40:21Z</time>
      </trkpt>
      <trkpt lat="50.57725" lon="3.29596">
        <ele>57.61422</ele>
        <time>2018-10-09T13:40:23Z</time>
      </trkpt>
      <trkpt lat="50.57729" lon="3.2961">
        <ele>57.662006</ele>
        <time>2018-10-09T13:40:25Z</time>
      </trkpt>
      <trkpt lat="50.57732" lon="3.29624">
        <ele>57.721748</ele>
        <time>2018-10-09T13:40:27Z</time>
      </trkpt>
      <trkpt lat="50.57735" lon="3.29637">
        <ele>57.754414</ele>
        <time>2018-10-09T13:40:29Z</time>
      </trkpt>
      <trkpt lat="50.57737" lon="3.29649">
        <ele>57.810955</ele>
        <time>2018-10-09T13:40:31Z</time>
      </trkpt>
      <trkpt lat="50.57738" lon="3.29657">
        <ele>57.85495</ele>
        <time>2018-10-09T13:40:33Z</time>
      </trkpt>
      <trkpt lat="50.5774" lon="3.29666">
        <ele>57.865211</ele>
        <time>2018-10-09T13:40:35Z</time>
      </trkpt>
      <trkpt lat="50.57741" lon="3.29673">
        <ele>57.82555</ele>
        <time>2018-10-09T13:40:37Z</time>
      </trkpt>
      <trkpt lat="50.57741" lon="3.2968">
        <ele>57.868011</ele>
        <time>2018-10-09T13:40:39Z</time>
      </trkpt>
      <trkpt lat="50.57741" lon="3.29685">
        <ele>57.895306</ele>
        <time>2018-10-09T13:40:41Z</time>
      </trkpt>
      <trkpt lat="50.57742" lon="3.2969">
        <ele>57.923103</ele>
        <time>2018-10-09T13:40:43Z</time>
      </trkpt>
      <trkpt lat="50.57742" lon="3.29694">
        <ele>57.9156</ele>
        <time>2018-10-09T13:40:45Z</time>
      </trkpt>
      <trkpt lat="50.57743" lon="3.29698">
        <ele>57.899281</ele>
        <time>2018-10-09T13:40:47Z</time>
      </trkpt>
      <trkpt lat="50.57744" lon="3.29703">
        <ele>57.913635</ele>
        <time>2018-10-09T13:40:49Z</time>
      </trkpt>
      <trkpt lat="50.57744" lon="3.29706">
        <ele>57.945381</ele>
        <time>2018-10-09T13:40:51Z</time>
      </trkpt>
      <trkpt lat="50.57744" lon="3.29709">
        <ele>57.859352</ele>
        <time>2018-10-09T13:40:53Z</time>
      </trkpt>
      <trkpt lat="50.57745" lon="3.29713">
        <ele>57.741749</ele>
        <time>2018-10-09T13:40:59Z</time>
      </trkpt>
      <trkpt lat="50.57745" lon="3.29717">
        <ele>57.733459</ele>
        <time>2018-10-09T13:41:01Z</time>
      </trkpt>
      <trkpt lat="50.57747" lon="3.29723">
        <ele>57.738056</ele>
        <time>2018-10-09T13:41:03Z</time>
      </trkpt>
      <trkpt lat="50.57748" lon="3.29732">
        <ele>57.750435</ele>
        <time>2018-10-09T13:41:05Z</time>
      </trkpt>
      <trkpt lat="50.5775" lon="3.29743">
        <ele>57.754189</ele>
        <time>2018-10-09T13:41:07Z</time>
      </trkpt>
      <trkpt lat="50.57752" lon="3.29756">
        <ele>57.760918</ele>
        <time>2018-10-09T13:41:09Z</time>
      </trkpt>
      <trkpt lat="50.57753" lon="3.29769">
        <ele>57.740704</ele>
        <time>2018-10-09T13:41:11Z</time>
      </trkpt>
      <trkpt lat="50.57755" lon="3.29783">
        <ele>57.72007</ele>
        <time>2018-10-09T13:41:13Z</time>
      </trkpt>
      <trkpt lat="50.57757" lon="3.29798">
        <ele>57.719337</ele>
        <time>2018-10-09T13:41:15Z</time>
      </trkpt>
      <trkpt lat="50.57759" lon="3.29812">
        <ele>57.745647</ele>
        <time>2018-10-09T13:41:17Z</time>
      </trkpt>
      <trkpt lat="50.5776" lon="3.29826">
        <ele>57.765961</ele>
        <time>2018-10-09T13:41:19Z</time>
      </trkpt>
      <trkpt lat="50.57762" lon="3.2984">
        <ele>57.781464</ele>
        <time>2018-10-09T13:41:21Z</time>
      </trkpt>
      <trkpt lat="50.57763" lon="3.29855">
        <ele>57.847229</ele>
        <time>2018-10-09T13:41:23Z</time>
      </trkpt>
      <trkpt lat="50.57764" lon="3.2987">
        <ele>57.856102</ele>
        <time>2018-10-09T13:41:25Z</time>
      </trkpt>
      <trkpt lat="50.57765" lon="3.29886">
        <ele>57.852367</ele>
        <time>2018-10-09T13:41:27Z</time>
      </trkpt>
      <trkpt lat="50.57766" lon="3.29901">
        <ele>57.822601</ele>
        <time>2018-10-09T13:41:29Z</time>
      </trkpt>
      <trkpt lat="50.57766" lon="3.29917">
        <ele>57.828972</ele>
        <time>2018-10-09T13:41:31Z</time>
      </trkpt>
      <trkpt lat="50.57768" lon="3.29932">
        <ele>57.816826</ele>
        <time>2018-10-09T13:41:33Z</time>
      </trkpt>
      <trkpt lat="50.57769" lon="3.29947">
        <ele>57.885273</ele>
        <time>2018-10-09T13:41:35Z</time>
      </trkpt>
      <trkpt lat="50.57771" lon="3.29963">
        <ele>57.938538</ele>
        <time>2018-10-09T13:41:37Z</time>
      </trkpt>
      <trkpt lat="50.57773" lon="3.29979">
        <ele>58.017555</ele>
        <time>2018-10-09T13:41:39Z</time>
      </trkpt>
      <trkpt lat="50.57775" lon="3.29995">
        <ele>58.044811</ele>
        <time>2018-10-09T13:41:41Z</time>
      </trkpt>
      <trkpt lat="50.57776" lon="3.30011">
        <ele>58.062397</ele>
        <time>2018-10-09T13:41:43Z</time>
      </trkpt>
      <trkpt lat="50.57778" lon="3.30028">
        <ele>58.068371</ele>
        <time>2018-10-09T13:41:45Z</time>
      </trkpt>
      <trkpt lat="50.57779" lon="3.30045">
        <ele>58.031483</ele>
        <time>2018-10-09T13:41:47Z</time>
      </trkpt>
      <trkpt lat="50.57782" lon="3.30062">
        <ele>58.029652</ele>
        <time>2018-10-09T13:41:49Z</time>
      </trkpt>
      <trkpt lat="50.57784" lon="3.30078">
        <ele>58.055767</ele>
        <time>2018-10-09T13:41:51Z</time>
      </trkpt>
      <trkpt lat="50.57786" lon="3.30095">
        <ele>58.06596</ele>
        <time>2018-10-09T13:41:53Z</time>
      </trkpt>
      <trkpt lat="50.57789" lon="3.30111">
        <ele>58.083893</ele>
        <time>2018-10-09T13:41:55Z</time>
      </trkpt>
      <trkpt lat="50.57791" lon="3.30128">
        <ele>58.126366</ele>
        <time>2018-10-09T13:41:57Z</time>
      </trkpt>
      <trkpt lat="50.57793" lon="3.30145">
        <ele>58.108631</ele>
        <time>2018-10-09T13:41:59Z</time>
      </trkpt>
      <trkpt lat="50.57795" lon="3.30162">
        <ele>58.147697</ele>
        <time>2018-10-09T13:42:01Z</time>
      </trkpt>
      <trkpt lat="50.57797" lon="3.30179">
        <ele>58.11441</ele>
        <time>2018-10-09T13:42:03Z</time>
      </trkpt>
      <trkpt lat="50.578" lon="3.30195">
        <ele>58.113197</ele>
        <time>2018-10-09T13:42:05Z</time>
      </trkpt>
      <trkpt lat="50.57802" lon="3.30211">
        <ele>58.118286</ele>
        <time>2018-10-09T13:42:07Z</time>
      </trkpt>
      <trkpt lat="50.57804" lon="3.30227">
        <ele>58.137959</ele>
        <time>2018-10-09T13:42:09Z</time>
      </trkpt>
      <trkpt lat="50.57806" lon="3.30243">
        <ele>58.179932</ele>
        <time>2018-10-09T13:42:11Z</time>
      </trkpt>
      <trkpt lat="50.57808" lon="3.30259">
        <ele>58.158936</ele>
        <time>2018-10-09T13:42:13Z</time>
      </trkpt>
      <trkpt lat="50.5781" lon="3.30275">
        <ele>58.182854</ele>
        <time>2018-10-09T13:42:15Z</time>
      </trkpt>
      <trkpt lat="50.57813" lon="3.30291">
        <ele>58.176525</ele>
        <time>2018-10-09T13:42:17Z</time>
      </trkpt>
      <trkpt lat="50.57814" lon="3.30306">
        <ele>58.163231</ele>
        <time>2018-10-09T13:42:19Z</time>
      </trkpt>
      <trkpt lat="50.57816" lon="3.30321">
        <ele>58.149975</ele>
        <time>2018-10-09T13:42:21Z</time>
      </trkpt>
      <trkpt lat="50.57818" lon="3.30337">
        <ele>58.141285</ele>
        <time>2018-10-09T13:42:23Z</time>
      </trkpt>
      <trkpt lat="50.57818" lon="3.30352">
        <ele>58.128643</ele>
        <time>2018-10-09T13:42:25Z</time>
      </trkpt>
      <trkpt lat="50.5782" lon="3.30367">
        <ele>58.166908</ele>
        <time>2018-10-09T13:42:27Z</time>
      </trkpt>
      <trkpt lat="50.57821" lon="3.30383">
        <ele>58.169933</ele>
        <time>2018-10-09T13:42:29Z</time>
      </trkpt>
      <trkpt lat="50.57822" lon="3.30398">
        <ele>58.16552</ele>
        <time>2018-10-09T13:42:31Z</time>
      </trkpt>
      <trkpt lat="50.57823" lon="3.30414">
        <ele>58.161591</ele>
        <time>2018-10-09T13:42:33Z</time>
      </trkpt>
      <trkpt lat="50.57824" lon="3.30429">
        <ele>58.133545</ele>
        <time>2018-10-09T13:42:35Z</time>
      </trkpt>
      <trkpt lat="50.57824" lon="3.30444">
        <ele>58.109608</ele>
        <time>2018-10-09T13:42:37Z</time>
      </trkpt>
      <trkpt lat="50.57825" lon="3.30457">
        <ele>58.11153</ele>
        <time>2018-10-09T13:42:39Z</time>
      </trkpt>
      <trkpt lat="50.57825" lon="3.30468">
        <ele>58.083538</ele>
        <time>2018-10-09T13:42:41Z</time>
      </trkpt>
      <trkpt lat="50.57825" lon="3.30478">
        <ele>58.003857</ele>
        <time>2018-10-09T13:42:43Z</time>
      </trkpt>
      <trkpt lat="50.57826" lon="3.30487">
        <ele>57.978477</ele>
        <time>2018-10-09T13:42:45Z</time>
      </trkpt>
      <trkpt lat="50.57826" lon="3.30494">
        <ele>57.967297</ele>
        <time>2018-10-09T13:42:47Z</time>
      </trkpt>
      <trkpt lat="50.57826" lon="3.305">
        <ele>57.933006</ele>
        <time>2018-10-09T13:42:49Z</time>
      </trkpt>
      <trkpt lat="50.57824" lon="3.30507">
        <ele>57.891644</ele>
        <time>2018-10-09T13:42:51Z</time>
      </trkpt>
      <trkpt lat="50.57818" lon="3.30511">
        <ele>57.903473</ele>
        <time>2018-10-09T13:42:53Z</time>
      </trkpt>
      <trkpt lat="50.5781" lon="3.30513">
        <ele>57.815071</ele>
        <time>2018-10-09T13:42:55Z</time>
      </trkpt>
      <trkpt lat="50.57802" lon="3.30514">
        <ele>57.733509</ele>
        <time>2018-10-09T13:42:57Z</time>
      </trkpt>
      <trkpt lat="50.57792" lon="3.30514">
        <ele>57.688873</ele>
        <time>2018-10-09T13:42:59Z</time>
      </trkpt>
      <trkpt lat="50.57782" lon="3.30515">
        <ele>57.631031</ele>
        <time>2018-10-09T13:43:01Z</time>
      </trkpt>
      <trkpt lat="50.57772" lon="3.30515">
        <ele>57.60371</ele>
        <time>2018-10-09T13:43:03Z</time>
      </trkpt>
      <trkpt lat="50.57761" lon="3.30516">
        <ele>57.575634</ele>
        <time>2018-10-09T13:43:05Z</time>
      </trkpt>
      <trkpt lat="50.5775" lon="3.30516">
        <ele>57.556618</ele>
        <time>2018-10-09T13:43:07Z</time>
      </trkpt>
      <trkpt lat="50.57739" lon="3.30517">
        <ele>57.525585</ele>
        <time>2018-10-09T13:43:09Z</time>
      </trkpt>
      <trkpt lat="50.57728" lon="3.30517">
        <ele>57.488037</ele>
        <time>2018-10-09T13:43:11Z</time>
      </trkpt>
      <trkpt lat="50.57717" lon="3.30518">
        <ele>57.413963</ele>
        <time>2018-10-09T13:43:13Z</time>
      </trkpt>
      <trkpt lat="50.57706" lon="3.30519">
        <ele>57.335857</ele>
        <time>2018-10-09T13:43:15Z</time>
      </trkpt>
      <trkpt lat="50.57695" lon="3.3052">
        <ele>57.262421</ele>
        <time>2018-10-09T13:43:17Z</time>
      </trkpt>
      <trkpt lat="50.57684" lon="3.30521">
        <ele>57.219952</ele>
        <time>2018-10-09T13:43:19Z</time>
      </trkpt>
      <trkpt lat="50.57673" lon="3.30521">
        <ele>57.171181</ele>
        <time>2018-10-09T13:43:21Z</time>
      </trkpt>
      <trkpt lat="50.57663" lon="3.30522">
        <ele>57.132576</ele>
        <time>2018-10-09T13:43:23Z</time>
      </trkpt>
      <trkpt lat="50.57652" lon="3.30523">
        <ele>57.128365</ele>
        <time>2018-10-09T13:43:25Z</time>
      </trkpt>
      <trkpt lat="50.57642" lon="3.30523">
        <ele>57.079155</ele>
        <time>2018-10-09T13:43:27Z</time>
      </trkpt>
      <trkpt lat="50.57632" lon="3.30524">
        <ele>56.954109</ele>
        <time>2018-10-09T13:43:29Z</time>
      </trkpt>
      <trkpt lat="50.57621" lon="3.30525">
        <ele>56.886646</ele>
        <time>2018-10-09T13:43:31Z</time>
      </trkpt>
      <trkpt lat="50.57612" lon="3.30526">
        <ele>56.786835</ele>
        <time>2018-10-09T13:43:33Z</time>
      </trkpt>
      <trkpt lat="50.57602" lon="3.30527">
        <ele>56.726521</ele>
        <time>2018-10-09T13:43:35Z</time>
      </trkpt>
      <trkpt lat="50.57592" lon="3.30527">
        <ele>56.631031</ele>
        <time>2018-10-09T13:43:37Z</time>
      </trkpt>
      <trkpt lat="50.57583" lon="3.30528">
        <ele>56.578941</ele>
        <time>2018-10-09T13:43:39Z</time>
      </trkpt>
      <trkpt lat="50.57573" lon="3.30529">
        <ele>56.528992</ele>
        <time>2018-10-09T13:43:41Z</time>
      </trkpt>
      <trkpt lat="50.57563" lon="3.30529">
        <ele>56.451027</ele>
        <time>2018-10-09T13:43:43Z</time>
      </trkpt>
      <trkpt lat="50.57553" lon="3.30529">
        <ele>56.363922</ele>
        <time>2018-10-09T13:43:45Z</time>
      </trkpt>
      <trkpt lat="50.57543" lon="3.30529">
        <ele>56.297405</ele>
        <time>2018-10-09T13:43:47Z</time>
      </trkpt>
      <trkpt lat="50.57534" lon="3.30529">
        <ele>56.207203</ele>
        <time>2018-10-09T13:43:49Z</time>
      </trkpt>
      <trkpt lat="50.57525" lon="3.30528">
        <ele>56.15728</ele>
        <time>2018-10-09T13:43:51Z</time>
      </trkpt>
      <trkpt lat="50.57515" lon="3.30527">
        <ele>56.060768</ele>
        <time>2018-10-09T13:43:53Z</time>
      </trkpt>
      <trkpt lat="50.57506" lon="3.30525">
        <ele>56.080528</ele>
        <time>2018-10-09T13:43:55Z</time>
      </trkpt>
      <trkpt lat="50.57497" lon="3.30524">
        <ele>56.040478</ele>
        <time>2018-10-09T13:43:57Z</time>
      </trkpt>
      <trkpt lat="50.57489" lon="3.30523">
        <ele>55.974968</ele>
        <time>2018-10-09T13:43:59Z</time>
      </trkpt>
      <trkpt lat="50.5748" lon="3.30522">
        <ele>55.898834</ele>
        <time>2018-10-09T13:44:01Z</time>
      </trkpt>
      <trkpt lat="50.57472" lon="3.30521">
        <ele>55.801861</ele>
        <time>2018-10-09T13:44:03Z</time>
      </trkpt>
      <trkpt lat="50.57465" lon="3.3052">
        <ele>55.762512</ele>
        <time>2018-10-09T13:44:05Z</time>
      </trkpt>
      <trkpt lat="50.57457" lon="3.30519">
        <ele>55.705517</ele>
        <time>2018-10-09T13:44:07Z</time>
      </trkpt>
      <trkpt lat="50.57451" lon="3.30518">
        <ele>55.681751</ele>
        <time>2018-10-09T13:44:09Z</time>
      </trkpt>
      <trkpt lat="50.57446" lon="3.30513">
        <ele>55.591957</ele>
        <time>2018-10-09T13:44:11Z</time>
      </trkpt>
      <trkpt lat="50.57444" lon="3.30503">
        <ele>55.561012</ele>
        <time>2018-10-09T13:44:13Z</time>
      </trkpt>
      <trkpt lat="50.57445" lon="3.3049">
        <ele>55.522827</ele>
        <time>2018-10-09T13:44:15Z</time>
      </trkpt>
      <trkpt lat="50.57447" lon="3.30476">
        <ele>55.461536</ele>
        <time>2018-10-09T13:44:17Z</time>
      </trkpt>
      <trkpt lat="50.57449" lon="3.30461">
        <ele>55.459667</ele>
        <time>2018-10-09T13:44:19Z</time>
      </trkpt>
      <trkpt lat="50.5745" lon="3.30447">
        <ele>55.452034</ele>
        <time>2018-10-09T13:44:21Z</time>
      </trkpt>
      <trkpt lat="50.57451" lon="3.30433">
        <ele>55.412281</ele>
        <time>2018-10-09T13:44:23Z</time>
      </trkpt>
      <trkpt lat="50.57452" lon="3.30419">
        <ele>55.382446</ele>
        <time>2018-10-09T13:44:25Z</time>
      </trkpt>
      <trkpt lat="50.57452" lon="3.30406">
        <ele>55.392113</ele>
        <time>2018-10-09T13:44:27Z</time>
      </trkpt>
      <trkpt lat="50.57452" lon="3.30393">
        <ele>55.351421</ele>
        <time>2018-10-09T13:44:29Z</time>
      </trkpt>
      <trkpt lat="50.57451" lon="3.30382">
        <ele>55.336029</ele>
        <time>2018-10-09T13:44:31Z</time>
      </trkpt>
      <trkpt lat="50.5745" lon="3.30371">
        <ele>55.294353</ele>
        <time>2018-10-09T13:44:33Z</time>
      </trkpt>
      <trkpt lat="50.57448" lon="3.3036">
        <ele>55.26775</ele>
        <time>2018-10-09T13:44:35Z</time>
      </trkpt>
      <trkpt lat="50.57445" lon="3.30348">
        <ele>55.229164</ele>
        <time>2018-10-09T13:44:37Z</time>
      </trkpt>
      <trkpt lat="50.57441" lon="3.30336">
        <ele>55.199982</ele>
        <time>2018-10-09T13:44:39Z</time>
      </trkpt>
      <trkpt lat="50.57438" lon="3.30324">
        <ele>55.168255</ele>
        <time>2018-10-09T13:44:41Z</time>
      </trkpt>
      <trkpt lat="50.57434" lon="3.30311">
        <ele>55.157612</ele>
        <time>2018-10-09T13:44:43Z</time>
      </trkpt>
      <trkpt lat="50.5743" lon="3.303">
        <ele>55.198578</ele>
        <time>2018-10-09T13:44:45Z</time>
      </trkpt>
      <trkpt lat="50.57427" lon="3.30288">
        <ele>55.171013</ele>
        <time>2018-10-09T13:44:47Z</time>
      </trkpt>
      <trkpt lat="50.57423" lon="3.30276">
        <ele>55.176727</ele>
        <time>2018-10-09T13:44:49Z</time>
      </trkpt>
      <trkpt lat="50.57419" lon="3.30264">
        <ele>55.207878</ele>
        <time>2018-10-09T13:44:51Z</time>
      </trkpt>
      <trkpt lat="50.57415" lon="3.30253">
        <ele>55.216393</ele>
        <time>2018-10-09T13:44:53Z</time>
      </trkpt>
      <trkpt lat="50.57411" lon="3.30242">
        <ele>55.244667</ele>
        <time>2018-10-09T13:44:55Z</time>
      </trkpt>
      <trkpt lat="50.57406" lon="3.30232">
        <ele>55.274952</ele>
        <time>2018-10-09T13:44:57Z</time>
      </trkpt>
      <trkpt lat="50.57401" lon="3.30224">
        <ele>55.304451</ele>
        <time>2018-10-09T13:44:59Z</time>
      </trkpt>
      <trkpt lat="50.57394" lon="3.30217">
        <ele>55.285625</ele>
        <time>2018-10-09T13:45:01Z</time>
      </trkpt>
      <trkpt lat="50.57388" lon="3.30208">
        <ele>55.293915</ele>
        <time>2018-10-09T13:45:03Z</time>
      </trkpt>
      <trkpt lat="50.57381" lon="3.302">
        <ele>55.291718</ele>
        <time>2018-10-09T13:45:05Z</time>
      </trkpt>
      <trkpt lat="50.57374" lon="3.30191">
        <ele>55.308147</ele>
        <time>2018-10-09T13:45:07Z</time>
      </trkpt>
      <trkpt lat="50.57369" lon="3.30179">
        <ele>55.330902</ele>
        <time>2018-10-09T13:45:09Z</time>
      </trkpt>
      <trkpt lat="50.57366" lon="3.30165">
        <ele>55.303833</ele>
        <time>2018-10-09T13:45:11Z</time>
      </trkpt>
      <trkpt lat="50.57364" lon="3.30151">
        <ele>55.316181</ele>
        <time>2018-10-09T13:45:13Z</time>
      </trkpt>
      <trkpt lat="50.57362" lon="3.30136">
        <ele>55.318382</ele>
        <time>2018-10-09T13:45:15Z</time>
      </trkpt>
      <trkpt lat="50.5736" lon="3.30122">
        <ele>55.323448</ele>
        <time>2018-10-09T13:45:17Z</time>
      </trkpt>
      <trkpt lat="50.57359" lon="3.30108">
        <ele>55.319813</ele>
        <time>2018-10-09T13:45:19Z</time>
      </trkpt>
      <trkpt lat="50.57357" lon="3.30094">
        <ele>55.343437</ele>
        <time>2018-10-09T13:45:21Z</time>
      </trkpt>
      <trkpt lat="50.57356" lon="3.30081">
        <ele>55.419922</ele>
        <time>2018-10-09T13:45:23Z</time>
      </trkpt>
      <trkpt lat="50.57356" lon="3.30068">
        <ele>55.429882</ele>
        <time>2018-10-09T13:45:25Z</time>
      </trkpt>
      <trkpt lat="50.57356" lon="3.30055">
        <ele>55.41914</ele>
        <time>2018-10-09T13:45:27Z</time>
      </trkpt>
      <trkpt lat="50.57356" lon="3.30042">
        <ele>55.385017</ele>
        <time>2018-10-09T13:45:29Z</time>
      </trkpt>
      <trkpt lat="50.57356" lon="3.30027">
        <ele>55.357544</ele>
        <time>2018-10-09T13:45:31Z</time>
      </trkpt>
      <trkpt lat="50.57356" lon="3.30012">
        <ele>55.303932</ele>
        <time>2018-10-09T13:45:33Z</time>
      </trkpt>
      <trkpt lat="50.57357" lon="3.29997">
        <ele>55.321159</ele>
        <time>2018-10-09T13:45:35Z</time>
      </trkpt>
      <trkpt lat="50.57358" lon="3.29982">
        <ele>55.297935</ele>
        <time>2018-10-09T13:45:37Z</time>
      </trkpt>
      <trkpt lat="50.57358" lon="3.29967">
        <ele>55.28368</ele>
        <time>2018-10-09T13:45:39Z</time>
      </trkpt>
      <trkpt lat="50.57359" lon="3.29952">
        <ele>55.259624</ele>
        <time>2018-10-09T13:45:41Z</time>
      </trkpt>
      <trkpt lat="50.57359" lon="3.29936">
        <ele>55.227222</ele>
        <time>2018-10-09T13:45:43Z</time>
      </trkpt>
      <trkpt lat="50.57361" lon="3.29922">
        <ele>55.19059</ele>
        <time>2018-10-09T13:45:45Z</time>
      </trkpt>
      <trkpt lat="50.57361" lon="3.29907">
        <ele>55.153149</ele>
        <time>2018-10-09T13:45:47Z</time>
      </trkpt>
      <trkpt lat="50.57362" lon="3.29894">
        <ele>55.131966</ele>
        <time>2018-10-09T13:45:49Z</time>
      </trkpt>
      <trkpt lat="50.57362" lon="3.29881">
        <ele>55.071888</ele>
        <time>2018-10-09T13:45:51Z</time>
      </trkpt>
      <trkpt lat="50.57362" lon="3.29868">
        <ele>55.105049</ele>
        <time>2018-10-09T13:45:53Z</time>
      </trkpt>
      <trkpt lat="50.57362" lon="3.29854">
        <ele>55.072376</ele>
        <time>2018-10-09T13:45:55Z</time>
      </trkpt>
      <trkpt lat="50.57363" lon="3.2984">
        <ele>55.050549</ele>
        <time>2018-10-09T13:45:57Z</time>
      </trkpt>
      <trkpt lat="50.57362" lon="3.29825">
        <ele>54.981133</ele>
        <time>2018-10-09T13:45:59Z</time>
      </trkpt>
      <trkpt lat="50.57361" lon="3.29809">
        <ele>54.94561</ele>
        <time>2018-10-09T13:46:01Z</time>
      </trkpt>
      <trkpt lat="50.57361" lon="3.29794">
        <ele>54.881725</ele>
        <time>2018-10-09T13:46:03Z</time>
      </trkpt>
      <trkpt lat="50.5736" lon="3.29779">
        <ele>54.822399</ele>
        <time>2018-10-09T13:46:05Z</time>
      </trkpt>
      <trkpt lat="50.57359" lon="3.29764">
        <ele>54.737408</ele>
        <time>2018-10-09T13:46:07Z</time>
      </trkpt>
      <trkpt lat="50.57358" lon="3.29749">
        <ele>54.751472</ele>
        <time>2018-10-09T13:46:09Z</time>
      </trkpt>
      <trkpt lat="50.57357" lon="3.29735">
        <ele>54.737621</ele>
        <time>2018-10-09T13:46:11Z</time>
      </trkpt>
      <trkpt lat="50.57356" lon="3.29721">
        <ele>54.728321</ele>
        <time>2018-10-09T13:46:13Z</time>
      </trkpt>
      <trkpt lat="50.57356" lon="3.29707">
        <ele>54.743855</ele>
        <time>2018-10-09T13:46:15Z</time>
      </trkpt>
      <trkpt lat="50.57354" lon="3.29694">
        <ele>54.762909</ele>
        <time>2018-10-09T13:46:17Z</time>
      </trkpt>
      <trkpt lat="50.57354" lon="3.2968">
        <ele>54.769543</ele>
        <time>2018-10-09T13:46:19Z</time>
      </trkpt>
      <trkpt lat="50.57354" lon="3.29666">
        <ele>54.758507</ele>
        <time>2018-10-09T13:46:21Z</time>
      </trkpt>
      <trkpt lat="50.57354" lon="3.29651">
        <ele>54.752586</ele>
        <time>2018-10-09T13:46:23Z</time>
      </trkpt>
      <trkpt lat="50.57356" lon="3.29635">
        <ele>54.725319</ele>
        <time>2018-10-09T13:46:25Z</time>
      </trkpt>
      <trkpt lat="50.57358" lon="3.2962">
        <ele>54.70993</ele>
        <time>2018-10-09T13:46:27Z</time>
      </trkpt>
      <trkpt lat="50.57359" lon="3.29605">
        <ele>54.707142</ele>
        <time>2018-10-09T13:46:29Z</time>
      </trkpt>
      <trkpt lat="50.57361" lon="3.29591">
        <ele>54.613274</ele>
        <time>2018-10-09T13:46:31Z</time>
      </trkpt>
      <trkpt lat="50.57362" lon="3.29576">
        <ele>54.618938</ele>
        <time>2018-10-09T13:46:33Z</time>
      </trkpt>
      <trkpt lat="50.57363" lon="3.29561">
        <ele>54.54763</ele>
        <time>2018-10-09T13:46:35Z</time>
      </trkpt>
      <trkpt lat="50.57362" lon="3.29547">
        <ele>54.51997</ele>
        <time>2018-10-09T13:46:37Z</time>
      </trkpt>
      <trkpt lat="50.57361" lon="3.29533">
        <ele>54.555859</ele>
        <time>2018-10-09T13:46:39Z</time>
      </trkpt>
      <trkpt lat="50.57359" lon="3.29519">
        <ele>54.50074</ele>
        <time>2018-10-09T13:46:41Z</time>
      </trkpt>
      <trkpt lat="50.57357" lon="3.29505">
        <ele>54.437996</ele>
        <time>2018-10-09T13:46:43Z</time>
      </trkpt>
      <trkpt lat="50.57356" lon="3.29492">
        <ele>54.371185</ele>
        <time>2018-10-09T13:46:45Z</time>
      </trkpt>
      <trkpt lat="50.57355" lon="3.29478">
        <ele>54.398151</ele>
        <time>2018-10-09T13:46:47Z</time>
      </trkpt>
      <trkpt lat="50.57354" lon="3.29464">
        <ele>54.338848</ele>
        <time>2018-10-09T13:46:49Z</time>
      </trkpt>
      <trkpt lat="50.57355" lon="3.29449">
        <ele>54.295856</ele>
        <time>2018-10-09T13:46:51Z</time>
      </trkpt>
      <trkpt lat="50.57355" lon="3.29437">
        <ele>54.236504</ele>
        <time>2018-10-09T13:46:53Z</time>
      </trkpt>
      <trkpt lat="50.57356" lon="3.29428">
        <ele>54.172371</ele>
        <time>2018-10-09T13:46:55Z</time>
      </trkpt>
      <trkpt lat="50.57356" lon="3.29418">
        <ele>54.130806</ele>
        <time>2018-10-09T13:46:57Z</time>
      </trkpt>
      <trkpt lat="50.57357" lon="3.29407">
        <ele>54.069618</ele>
        <time>2018-10-09T13:46:59Z</time>
      </trkpt>
      <trkpt lat="50.57359" lon="3.29395">
        <ele>54.01545</ele>
        <time>2018-10-09T13:47:01Z</time>
      </trkpt>
      <trkpt lat="50.5736" lon="3.29384">
        <ele>53.950005</ele>
        <time>2018-10-09T13:47:03Z</time>
      </trkpt>
      <trkpt lat="50.57358" lon="3.29376">
        <ele>53.891548</ele>
        <time>2018-10-09T13:47:05Z</time>
      </trkpt>
      <trkpt lat="50.57352" lon="3.29374">
        <ele>53.835976</ele>
        <time>2018-10-09T13:47:07Z</time>
      </trkpt>
      <trkpt lat="50.57343" lon="3.29374">
        <ele>53.781963</ele>
        <time>2018-10-09T13:47:09Z</time>
      </trkpt>
      <trkpt lat="50.57334" lon="3.29374">
        <ele>53.755516</ele>
        <time>2018-10-09T13:47:11Z</time>
      </trkpt>
      <trkpt lat="50.57324" lon="3.29375">
        <ele>53.725334</ele>
        <time>2018-10-09T13:47:13Z</time>
      </trkpt>
      <trkpt lat="50.57315" lon="3.29376">
        <ele>53.658192</ele>
        <time>2018-10-09T13:47:15Z</time>
      </trkpt>
      <trkpt lat="50.57305" lon="3.29376">
        <ele>53.620216</ele>
        <time>2018-10-09T13:47:17Z</time>
      </trkpt>
      <trkpt lat="50.57295" lon="3.29377">
        <ele>53.547935</ele>
        <time>2018-10-09T13:47:19Z</time>
      </trkpt>
      <trkpt lat="50.57286" lon="3.29377">
        <ele>53.516491</ele>
        <time>2018-10-09T13:47:21Z</time>
      </trkpt>
      <trkpt lat="50.57277" lon="3.29377">
        <ele>53.478352</ele>
        <time>2018-10-09T13:47:23Z</time>
      </trkpt>
      <trkpt lat="50.57267" lon="3.29377">
        <ele>53.437752</ele>
        <time>2018-10-09T13:47:25Z</time>
      </trkpt>
      <trkpt lat="50.57256" lon="3.29376">
        <ele>53.41576</ele>
        <time>2018-10-09T13:47:27Z</time>
      </trkpt>
      <trkpt lat="50.57246" lon="3.29375">
        <ele>53.375324</ele>
        <time>2018-10-09T13:47:29Z</time>
      </trkpt>
      <trkpt lat="50.57235" lon="3.29373">
        <ele>53.329857</ele>
        <time>2018-10-09T13:47:31Z</time>
      </trkpt>
      <trkpt lat="50.57226" lon="3.29371">
        <ele>53.277252</ele>
        <time>2018-10-09T13:47:33Z</time>
      </trkpt>
      <trkpt lat="50.57216" lon="3.2937">
        <ele>53.207661</ele>
        <time>2018-10-09T13:47:35Z</time>
      </trkpt>
      <trkpt lat="50.57207" lon="3.29368">
        <ele>53.164795</ele>
        <time>2018-10-09T13:47:37Z</time>
      </trkpt>
      <trkpt lat="50.57197" lon="3.29366">
        <ele>53.061054</ele>
        <time>2018-10-09T13:47:39Z</time>
      </trkpt>
      <trkpt lat="50.57188" lon="3.29364">
        <ele>53.007149</ele>
        <time>2018-10-09T13:47:41Z</time>
      </trkpt>
      <trkpt lat="50.57177" lon="3.29361">
        <ele>52.959084</ele>
        <time>2018-10-09T13:47:43Z</time>
      </trkpt>
      <trkpt lat="50.57168" lon="3.29356">
        <ele>52.927105</ele>
        <time>2018-10-09T13:47:45Z</time>
      </trkpt>
      <trkpt lat="50.57159" lon="3.2935">
        <ele>52.881691</ele>
        <time>2018-10-09T13:47:47Z</time>
      </trkpt>
      <trkpt lat="50.5715" lon="3.29344">
        <ele>52.89679</ele>
        <time>2018-10-09T13:47:49Z</time>
      </trkpt>
      <trkpt lat="50.5714" lon="3.29338">
        <ele>52.819477</ele>
        <time>2018-10-09T13:47:51Z</time>
      </trkpt>
      <trkpt lat="50.57132" lon="3.29333">
        <ele>52.790386</ele>
        <time>2018-10-09T13:47:53Z</time>
      </trkpt>
      <trkpt lat="50.57124" lon="3.29328">
        <ele>52.805653</ele>
        <time>2018-10-09T13:47:55Z</time>
      </trkpt>
      <trkpt lat="50.57115" lon="3.29324">
        <ele>52.769054</ele>
        <time>2018-10-09T13:47:57Z</time>
      </trkpt>
      <trkpt lat="50.57106" lon="3.29319">
        <ele>52.817558</ele>
        <time>2018-10-09T13:47:59Z</time>
      </trkpt>
      <trkpt lat="50.57098" lon="3.29313">
        <ele>52.790516</ele>
        <time>2018-10-09T13:48:01Z</time>
      </trkpt>
      <trkpt lat="50.57089" lon="3.29306">
        <ele>52.786278</ele>
        <time>2018-10-09T13:48:03Z</time>
      </trkpt>
      <trkpt lat="50.57082" lon="3.29298">
        <ele>52.76413</ele>
        <time>2018-10-09T13:48:05Z</time>
      </trkpt>
      <trkpt lat="50.57076" lon="3.29289">
        <ele>52.770424</ele>
        <time>2018-10-09T13:48:07Z</time>
      </trkpt>
      <trkpt lat="50.57071" lon="3.29278">
        <ele>52.744942</ele>
        <time>2018-10-09T13:48:09Z</time>
      </trkpt>
      <trkpt lat="50.57066" lon="3.29267">
        <ele>52.755257</ele>
        <time>2018-10-09T13:48:11Z</time>
      </trkpt>
      <trkpt lat="50.57061" lon="3.29255">
        <ele>52.705498</ele>
        <time>2018-10-09T13:48:13Z</time>
      </trkpt>
      <trkpt lat="50.57055" lon="3.29243">
        <ele>52.689766</ele>
        <time>2018-10-09T13:48:15Z</time>
      </trkpt>
      <trkpt lat="50.57048" lon="3.29231">
        <ele>52.621246</ele>
        <time>2018-10-09T13:48:17Z</time>
      </trkpt>
      <trkpt lat="50.5704" lon="3.29221">
        <ele>52.571106</ele>
        <time>2018-10-09T13:48:19Z</time>
      </trkpt>
      <trkpt lat="50.57029" lon="3.29213">
        <ele>52.511902</ele>
        <time>2018-10-09T13:48:21Z</time>
      </trkpt>
      <trkpt lat="50.57018" lon="3.29208">
        <ele>52.433422</ele>
        <time>2018-10-09T13:48:23Z</time>
      </trkpt>
      <trkpt lat="50.57007" lon="3.29205">
        <ele>52.340797</ele>
        <time>2018-10-09T13:48:25Z</time>
      </trkpt>
      <trkpt lat="50.56995" lon="3.29201">
        <ele>52.25248</ele>
        <time>2018-10-09T13:48:27Z</time>
      </trkpt>
      <trkpt lat="50.56984" lon="3.29198">
        <ele>52.193226</ele>
        <time>2018-10-09T13:48:29Z</time>
      </trkpt>
      <trkpt lat="50.56974" lon="3.29194">
        <ele>52.067619</ele>
        <time>2018-10-09T13:48:31Z</time>
      </trkpt>
      <trkpt lat="50.56965" lon="3.29191">
        <ele>52.028313</ele>
        <time>2018-10-09T13:48:33Z</time>
      </trkpt>
      <trkpt lat="50.56955" lon="3.29187">
        <ele>51.947407</ele>
        <time>2018-10-09T13:48:35Z</time>
      </trkpt>
      <trkpt lat="50.56946" lon="3.29184">
        <ele>51.888378</ele>
        <time>2018-10-09T13:48:37Z</time>
      </trkpt>
      <trkpt lat="50.56937" lon="3.29181">
        <ele>51.812538</ele>
        <time>2018-10-09T13:48:39Z</time>
      </trkpt>
      <trkpt lat="50.5693" lon="3.29177">
        <ele>51.728737</ele>
        <time>2018-10-09T13:48:41Z</time>
      </trkpt>
      <trkpt lat="50.56923" lon="3.2917">
        <ele>51.768688</ele>
        <time>2018-10-09T13:48:43Z</time>
      </trkpt>
      <trkpt lat="50.56916" lon="3.29161">
        <ele>51.791588</ele>
        <time>2018-10-09T13:48:45Z</time>
      </trkpt>
      <trkpt lat="50.56909" lon="3.29151">
        <ele>51.81139</ele>
        <time>2018-10-09T13:48:47Z</time>
      </trkpt>
      <trkpt lat="50.569" lon="3.29145">
        <ele>51.88744</ele>
        <time>2018-10-09T13:48:49Z</time>
      </trkpt>
      <trkpt lat="50.56892" lon="3.29141">
        <ele>51.920002</ele>
        <time>2018-10-09T13:48:51Z</time>
      </trkpt>
      <trkpt lat="50.56883" lon="3.29138">
        <ele>51.956909</ele>
        <time>2018-10-09T13:48:53Z</time>
      </trkpt>
      <trkpt lat="50.56874" lon="3.29135">
        <ele>52.000244</ele>
        <time>2018-10-09T13:48:55Z</time>
      </trkpt>
      <trkpt lat="50.56866" lon="3.29133">
        <ele>52.100658</ele>
        <time>2018-10-09T13:48:57Z</time>
      </trkpt>
      <trkpt lat="50.56857" lon="3.29131">
        <ele>52.245167</ele>
        <time>2018-10-09T13:48:59Z</time>
      </trkpt>
      <trkpt lat="50.56847" lon="3.2913">
        <ele>52.379436</ele>
        <time>2018-10-09T13:49:01Z</time>
      </trkpt>
      <trkpt lat="50.56838" lon="3.2913">
        <ele>52.468525</ele>
        <time>2018-10-09T13:49:03Z</time>
      </trkpt>
      <trkpt lat="50.56828" lon="3.29129">
        <ele>52.640087</ele>
        <time>2018-10-09T13:49:05Z</time>
      </trkpt>
      <trkpt lat="50.56818" lon="3.29129">
        <ele>52.780762</ele>
        <time>2018-10-09T13:49:07Z</time>
      </trkpt>
      <trkpt lat="50.56809" lon="3.29129">
        <ele>52.909149</ele>
        <time>2018-10-09T13:49:09Z</time>
      </trkpt>
      <trkpt lat="50.56799" lon="3.29129">
        <ele>52.977425</ele>
        <time>2018-10-09T13:49:11Z</time>
      </trkpt>
      <trkpt lat="50.5679" lon="3.29128">
        <ele>53.109428</ele>
        <time>2018-10-09T13:49:13Z</time>
      </trkpt>
      <trkpt lat="50.56781" lon="3.29126">
        <ele>53.222004</ele>
        <time>2018-10-09T13:49:15Z</time>
      </trkpt>
      <trkpt lat="50.56772" lon="3.29122">
        <ele>53.310833</ele>
        <time>2018-10-09T13:49:17Z</time>
      </trkpt>
      <trkpt lat="50.56762" lon="3.29118">
        <ele>53.406837</ele>
        <time>2018-10-09T13:49:19Z</time>
      </trkpt>
      <trkpt lat="50.56752" lon="3.29115">
        <ele>53.464684</ele>
        <time>2018-10-09T13:49:21Z</time>
      </trkpt>
      <trkpt lat="50.56743" lon="3.29111">
        <ele>53.497047</ele>
        <time>2018-10-09T13:49:23Z</time>
      </trkpt>
      <trkpt lat="50.56733" lon="3.29107">
        <ele>53.504688</ele>
        <time>2018-10-09T13:49:25Z</time>
      </trkpt>
      <trkpt lat="50.56724" lon="3.29102">
        <ele>53.511925</ele>
        <time>2018-10-09T13:49:27Z</time>
      </trkpt>
      <trkpt lat="50.56715" lon="3.29097">
        <ele>53.494606</ele>
        <time>2018-10-09T13:49:29Z</time>
      </trkpt>
      <trkpt lat="50.56706" lon="3.29091">
        <ele>53.488739</ele>
        <time>2018-10-09T13:49:31Z</time>
      </trkpt>
      <trkpt lat="50.56697" lon="3.29084">
        <ele>53.459923</ele>
        <time>2018-10-09T13:49:33Z</time>
      </trkpt>
      <trkpt lat="50.56688" lon="3.29078">
        <ele>53.520485</ele>
        <time>2018-10-09T13:49:35Z</time>
      </trkpt>
      <trkpt lat="50.56678" lon="3.29073">
        <ele>53.56255</ele>
        <time>2018-10-09T13:49:37Z</time>
      </trkpt>
      <trkpt lat="50.56669" lon="3.29068">
        <ele>53.524883</ele>
        <time>2018-10-09T13:49:39Z</time>
      </trkpt>
      <trkpt lat="50.5666" lon="3.29063">
        <ele>53.533058</ele>
        <time>2018-10-09T13:49:41Z</time>
      </trkpt>
      <trkpt lat="50.56651" lon="3.29057">
        <ele>53.546131</ele>
        <time>2018-10-09T13:49:43Z</time>
      </trkpt>
      <trkpt lat="50.56642" lon="3.29051">
        <ele>53.600197</ele>
        <time>2018-10-09T13:49:45Z</time>
      </trkpt>
      <trkpt lat="50.56634" lon="3.29044">
        <ele>53.670692</ele>
        <time>2018-10-09T13:49:47Z</time>
      </trkpt>
      <trkpt lat="50.56626" lon="3.29037">
        <ele>53.720222</ele>
        <time>2018-10-09T13:49:49Z</time>
      </trkpt>
      <trkpt lat="50.56618" lon="3.29029">
        <ele>53.732716</ele>
        <time>2018-10-09T13:49:51Z</time>
      </trkpt>
      <trkpt lat="50.5661" lon="3.2902">
        <ele>53.776428</ele>
        <time>2018-10-09T13:49:53Z</time>
      </trkpt>
      <trkpt lat="50.56603" lon="3.29011">
        <ele>53.813732</ele>
        <time>2018-10-09T13:49:55Z</time>
      </trkpt>
      <trkpt lat="50.56596" lon="3.29">
        <ele>53.854378</ele>
        <time>2018-10-09T13:49:57Z</time>
      </trkpt>
      <trkpt lat="50.5659" lon="3.2899">
        <ele>53.950294</ele>
        <time>2018-10-09T13:49:59Z</time>
      </trkpt>
      <trkpt lat="50.56585" lon="3.28978">
        <ele>53.994698</ele>
        <time>2018-10-09T13:50:01Z</time>
      </trkpt>
      <trkpt lat="50.56579" lon="3.28967">
        <ele>54.079304</ele>
        <time>2018-10-09T13:50:03Z</time>
      </trkpt>
      <trkpt lat="50.56574" lon="3.28955">
        <ele>54.183739</ele>
        <time>2018-10-09T13:50:05Z</time>
      </trkpt>
      <trkpt lat="50.56569" lon="3.28942">
        <ele>54.272377</ele>
        <time>2018-10-09T13:50:07Z</time>
      </trkpt>
      <trkpt lat="50.56565" lon="3.28929">
        <ele>54.398682</ele>
        <time>2018-10-09T13:50:09Z</time>
      </trkpt>
      <trkpt lat="50.56562" lon="3.28915">
        <ele>54.50515</ele>
        <time>2018-10-09T13:50:11Z</time>
      </trkpt>
      <trkpt lat="50.56558" lon="3.289">
        <ele>54.606304</ele>
        <time>2018-10-09T13:50:13Z</time>
      </trkpt>
      <trkpt lat="50.56555" lon="3.28886">
        <ele>54.695061</ele>
        <time>2018-10-09T13:50:15Z</time>
      </trkpt>
      <trkpt lat="50.56552" lon="3.28872">
        <ele>54.785034</ele>
        <time>2018-10-09T13:50:17Z</time>
      </trkpt>
      <trkpt lat="50.56548" lon="3.28857">
        <ele>54.879444</ele>
        <time>2018-10-09T13:50:19Z</time>
      </trkpt>
      <trkpt lat="50.56545" lon="3.28843">
        <ele>55.052376</ele>
        <time>2018-10-09T13:50:21Z</time>
      </trkpt>
      <trkpt lat="50.56542" lon="3.2883">
        <ele>55.188221</ele>
        <time>2018-10-09T13:50:23Z</time>
      </trkpt>
      <trkpt lat="50.56539" lon="3.28817">
        <ele>55.317982</ele>
        <time>2018-10-09T13:50:25Z</time>
      </trkpt>
      <trkpt lat="50.56536" lon="3.28803">
        <ele>55.384033</ele>
        <time>2018-10-09T13:50:27Z</time>
      </trkpt>
      <trkpt lat="50.56533" lon="3.2879">
        <ele>55.430115</ele>
        <time>2018-10-09T13:50:29Z</time>
      </trkpt>
      <trkpt lat="50.5653" lon="3.28777">
        <ele>55.574944</ele>
        <time>2018-10-09T13:50:31Z</time>
      </trkpt>
      <trkpt lat="50.56527" lon="3.28765">
        <ele>55.724953</ele>
        <time>2018-10-09T13:50:33Z</time>
      </trkpt>
      <trkpt lat="50.56523" lon="3.28753">
        <ele>55.853352</ele>
        <time>2018-10-09T13:50:35Z</time>
      </trkpt>
      <trkpt lat="50.56516" lon="3.28744">
        <ele>55.954491</ele>
        <time>2018-10-09T13:50:37Z</time>
      </trkpt>
      <trkpt lat="50.56508" lon="3.28741">
        <ele>56.106403</ele>
        <time>2018-10-09T13:50:39Z</time>
      </trkpt>
      <trkpt lat="50.56499" lon="3.28739">
        <ele>56.259899</ele>
        <time>2018-10-09T13:50:41Z</time>
      </trkpt>
      <trkpt lat="50.56492" lon="3.28738">
        <ele>56.420757</ele>
        <time>2018-10-09T13:50:43Z</time>
      </trkpt>
      <trkpt lat="50.56483" lon="3.28736">
        <ele>56.563477</ele>
        <time>2018-10-09T13:50:45Z</time>
      </trkpt>
      <trkpt lat="50.56474" lon="3.28734">
        <ele>56.742626</ele>
        <time>2018-10-09T13:50:47Z</time>
      </trkpt>
      <trkpt lat="50.56465" lon="3.28732">
        <ele>56.912189</ele>
        <time>2018-10-09T13:50:49Z</time>
      </trkpt>
      <trkpt lat="50.56456" lon="3.2873">
        <ele>57.04002</ele>
        <time>2018-10-09T13:50:51Z</time>
      </trkpt>
      <trkpt lat="50.56447" lon="3.28728">
        <ele>57.202583</ele>
        <time>2018-10-09T13:50:53Z</time>
      </trkpt>
      <trkpt lat="50.56439" lon="3.28725">
        <ele>57.365028</ele>
        <time>2018-10-09T13:50:55Z</time>
      </trkpt>
      <trkpt lat="50.5643" lon="3.28723">
        <ele>57.560291</ele>
        <time>2018-10-09T13:50:57Z</time>
      </trkpt>
      <trkpt lat="50.56421" lon="3.2872">
        <ele>57.749073</ele>
        <time>2018-10-09T13:50:59Z</time>
      </trkpt>
      <trkpt lat="50.56412" lon="3.28717">
        <ele>57.884209</ele>
        <time>2018-10-09T13:51:01Z</time>
      </trkpt>
      <trkpt lat="50.56402" lon="3.28715">
        <ele>58.007408</ele>
        <time>2018-10-09T13:51:03Z</time>
      </trkpt>
      <trkpt lat="50.56393" lon="3.28712">
        <ele>58.137901</ele>
        <time>2018-10-09T13:51:05Z</time>
      </trkpt>
      <trkpt lat="50.56384" lon="3.28709">
        <ele>58.196484</ele>
        <time>2018-10-09T13:51:07Z</time>
      </trkpt>
      <trkpt lat="50.56374" lon="3.28707">
        <ele>58.365051</ele>
        <time>2018-10-09T13:51:09Z</time>
      </trkpt>
      <trkpt lat="50.56364" lon="3.28706">
        <ele>58.507122</ele>
        <time>2018-10-09T13:51:11Z</time>
      </trkpt>
      <trkpt lat="50.56355" lon="3.28709">
        <ele>58.61676</ele>
        <time>2018-10-09T13:51:13Z</time>
      </trkpt>
      <trkpt lat="50.56347" lon="3.28713">
        <ele>58.763927</ele>
        <time>2018-10-09T13:51:15Z</time>
      </trkpt>
      <trkpt lat="50.56338" lon="3.28718">
        <ele>58.881401</ele>
        <time>2018-10-09T13:51:17Z</time>
      </trkpt>
      <trkpt lat="50.56329" lon="3.28723">
        <ele>58.981617</ele>
        <time>2018-10-09T13:51:19Z</time>
      </trkpt>
      <trkpt lat="50.5632" lon="3.28728">
        <ele>59.060688</ele>
        <time>2018-10-09T13:51:21Z</time>
      </trkpt>
      <trkpt lat="50.56311" lon="3.28732">
        <ele>59.101036</ele>
        <time>2018-10-09T13:51:23Z</time>
      </trkpt>
      <trkpt lat="50.56302" lon="3.28736">
        <ele>59.128105</ele>
        <time>2018-10-09T13:51:25Z</time>
      </trkpt>
      <trkpt lat="50.56294" lon="3.28739">
        <ele>59.166706</ele>
        <time>2018-10-09T13:51:27Z</time>
      </trkpt>
      <trkpt lat="50.56285" lon="3.28743">
        <ele>59.168598</ele>
        <time>2018-10-09T13:51:29Z</time>
      </trkpt>
      <trkpt lat="50.56276" lon="3.28746">
        <ele>59.146141</ele>
        <time>2018-10-09T13:51:31Z</time>
      </trkpt>
      <trkpt lat="50.56267" lon="3.28749">
        <ele>59.20507</ele>
        <time>2018-10-09T13:51:33Z</time>
      </trkpt>
      <trkpt lat="50.56258" lon="3.28751">
        <ele>59.21273</ele>
        <time>2018-10-09T13:51:35Z</time>
      </trkpt>
      <trkpt lat="50.56249" lon="3.28752">
        <ele>59.252613</ele>
        <time>2018-10-09T13:51:37Z</time>
      </trkpt>
      <trkpt lat="50.56239" lon="3.28753">
        <ele>59.244164</ele>
        <time>2018-10-09T13:51:39Z</time>
      </trkpt>
      <trkpt lat="50.56229" lon="3.28753">
        <ele>59.232147</ele>
        <time>2018-10-09T13:51:41Z</time>
      </trkpt>
      <trkpt lat="50.56219" lon="3.28752">
        <ele>59.252483</ele>
        <time>2018-10-09T13:51:43Z</time>
      </trkpt>
      <trkpt lat="50.56209" lon="3.28751">
        <ele>59.216866</ele>
        <time>2018-10-09T13:51:45Z</time>
      </trkpt>
      <trkpt lat="50.56199" lon="3.28749">
        <ele>59.193287</ele>
        <time>2018-10-09T13:51:47Z</time>
      </trkpt>
      <trkpt lat="50.5619" lon="3.28748">
        <ele>59.159283</ele>
        <time>2018-10-09T13:51:49Z</time>
      </trkpt>
      <trkpt lat="50.5618" lon="3.28747">
        <ele>59.152061</ele>
        <time>2018-10-09T13:51:51Z</time>
      </trkpt>
      <trkpt lat="50.56171" lon="3.28745">
        <ele>59.132744</ele>
        <time>2018-10-09T13:51:53Z</time>
      </trkpt>
      <trkpt lat="50.56162" lon="3.28743">
        <ele>59.10659</ele>
        <time>2018-10-09T13:51:55Z</time>
      </trkpt>
      <trkpt lat="50.56152" lon="3.28742">
        <ele>59.080902</ele>
        <time>2018-10-09T13:51:57Z</time>
      </trkpt>
      <trkpt lat="50.56143" lon="3.28741">
        <ele>59.123951</ele>
        <time>2018-10-09T13:51:59Z</time>
      </trkpt>
      <trkpt lat="50.56134" lon="3.28744">
        <ele>59.093189</ele>
        <time>2018-10-09T13:52:01Z</time>
      </trkpt>
      <trkpt lat="50.56126" lon="3.28751">
        <ele>59.082775</ele>
        <time>2018-10-09T13:52:03Z</time>
      </trkpt>
      <trkpt lat="50.56118" lon="3.2876">
        <ele>59.053131</ele>
        <time>2018-10-09T13:52:05Z</time>
      </trkpt>
      <trkpt lat="50.5611" lon="3.2877">
        <ele>59.032909</ele>
        <time>2018-10-09T13:52:07Z</time>
      </trkpt>
      <trkpt lat="50.56102" lon="3.28779">
        <ele>59.016766</ele>
        <time>2018-10-09T13:52:09Z</time>
      </trkpt>
      <trkpt lat="50.56094" lon="3.28789">
        <ele>58.980328</ele>
        <time>2018-10-09T13:52:11Z</time>
      </trkpt>
      <trkpt lat="50.56086" lon="3.28798">
        <ele>58.946663</ele>
        <time>2018-10-09T13:52:13Z</time>
      </trkpt>
      <trkpt lat="50.56078" lon="3.28808">
        <ele>58.925793</ele>
        <time>2018-10-09T13:52:15Z</time>
      </trkpt>
      <trkpt lat="50.5607" lon="3.28818">
        <ele>58.834587</ele>
        <time>2018-10-09T13:52:17Z</time>
      </trkpt>
      <trkpt lat="50.56061" lon="3.28829">
        <ele>58.775444</ele>
        <time>2018-10-09T13:52:19Z</time>
      </trkpt>
      <trkpt lat="50.56052" lon="3.28839">
        <ele>58.613167</ele>
        <time>2018-10-09T13:52:21Z</time>
      </trkpt>
      <trkpt lat="50.56043" lon="3.2885">
        <ele>58.528801</ele>
        <time>2018-10-09T13:52:23Z</time>
      </trkpt>
      <trkpt lat="50.56035" lon="3.2886">
        <ele>58.434296</ele>
        <time>2018-10-09T13:52:25Z</time>
      </trkpt>
      <trkpt lat="50.56026" lon="3.28869">
        <ele>58.325336</ele>
        <time>2018-10-09T13:52:27Z</time>
      </trkpt>
      <trkpt lat="50.56018" lon="3.28878">
        <ele>58.271038</ele>
        <time>2018-10-09T13:52:29Z</time>
      </trkpt>
      <trkpt lat="50.5601" lon="3.28886">
        <ele>58.183735</ele>
        <time>2018-10-09T13:52:31Z</time>
      </trkpt>
      <trkpt lat="50.56003" lon="3.28893">
        <ele>58.071869</ele>
        <time>2018-10-09T13:52:33Z</time>
      </trkpt>
      <trkpt lat="50.55994" lon="3.28901">
        <ele>57.960163</ele>
        <time>2018-10-09T13:52:35Z</time>
      </trkpt>
      <trkpt lat="50.55985" lon="3.28907">
        <ele>57.821735</ele>
        <time>2018-10-09T13:52:37Z</time>
      </trkpt>
      <trkpt lat="50.55976" lon="3.28912">
        <ele>57.68454</ele>
        <time>2018-10-09T13:52:39Z</time>
      </trkpt>
      <trkpt lat="50.55967" lon="3.28916">
        <ele>57.5695</ele>
        <time>2018-10-09T13:52:41Z</time>
      </trkpt>
      <trkpt lat="50.55958" lon="3.28921">
        <ele>57.472736</ele>
        <time>2018-10-09T13:52:43Z</time>
      </trkpt>
      <trkpt lat="50.55949" lon="3.28925">
        <ele>57.392181</ele>
        <time>2018-10-09T13:52:45Z</time>
      </trkpt>
      <trkpt lat="50.5594" lon="3.28929">
        <ele>57.320808</ele>
        <time>2018-10-09T13:52:47Z</time>
      </trkpt>
      <trkpt lat="50.55931" lon="3.28934">
        <ele>57.270576</ele>
        <time>2018-10-09T13:52:49Z</time>
      </trkpt>
      <trkpt lat="50.55922" lon="3.28939">
        <ele>57.259724</ele>
        <time>2018-10-09T13:52:51Z</time>
      </trkpt>
      <trkpt lat="50.55912" lon="3.28943">
        <ele>57.227509</ele>
        <time>2018-10-09T13:52:53Z</time>
      </trkpt>
      <trkpt lat="50.55903" lon="3.28948">
        <ele>57.206268</ele>
        <time>2018-10-09T13:52:55Z</time>
      </trkpt>
      <trkpt lat="50.55893" lon="3.28954">
        <ele>57.202057</ele>
        <time>2018-10-09T13:52:57Z</time>
      </trkpt>
      <trkpt lat="50.55884" lon="3.28959">
        <ele>57.223564</ele>
        <time>2018-10-09T13:52:59Z</time>
      </trkpt>
      <trkpt lat="50.55875" lon="3.28964">
        <ele>57.223774</ele>
        <time>2018-10-09T13:53:01Z</time>
      </trkpt>
      <trkpt lat="50.55866" lon="3.28969">
        <ele>57.290192</ele>
        <time>2018-10-09T13:53:03Z</time>
      </trkpt>
      <trkpt lat="50.55856" lon="3.28974">
        <ele>57.32777</ele>
        <time>2018-10-09T13:53:05Z</time>
      </trkpt>
      <trkpt lat="50.55848" lon="3.28978">
        <ele>57.401192</ele>
        <time>2018-10-09T13:53:07Z</time>
      </trkpt>
      <trkpt lat="50.55841" lon="3.28981">
        <ele>57.480186</ele>
        <time>2018-10-09T13:53:09Z</time>
      </trkpt>
      <trkpt lat="50.55834" lon="3.28985">
        <ele>57.527149</ele>
        <time>2018-10-09T13:53:11Z</time>
      </trkpt>
      <trkpt lat="50.55828" lon="3.28992">
        <ele>57.593884</ele>
        <time>2018-10-09T13:53:13Z</time>
      </trkpt>
      <trkpt lat="50.55825" lon="3.29003">
        <ele>57.684162</ele>
        <time>2018-10-09T13:53:15Z</time>
      </trkpt>
      <trkpt lat="50.55828" lon="3.29016">
        <ele>57.729698</ele>
        <time>2018-10-09T13:53:17Z</time>
      </trkpt>
      <trkpt lat="50.55833" lon="3.29028">
        <ele>57.82917</ele>
        <time>2018-10-09T13:53:19Z</time>
      </trkpt>
      <trkpt lat="50.55838" lon="3.2904">
        <ele>57.909199</ele>
        <time>2018-10-09T13:53:21Z</time>
      </trkpt>
      <trkpt lat="50.55843" lon="3.29052">
        <ele>57.978577</ele>
        <time>2018-10-09T13:53:23Z</time>
      </trkpt>
      <trkpt lat="50.55849" lon="3.29064">
        <ele>58.034168</ele>
        <time>2018-10-09T13:53:25Z</time>
      </trkpt>
      <trkpt lat="50.55854" lon="3.29076">
        <ele>58.098164</ele>
        <time>2018-10-09T13:53:27Z</time>
      </trkpt>
      <trkpt lat="50.55859" lon="3.29088">
        <ele>58.157875</ele>
        <time>2018-10-09T13:53:29Z</time>
      </trkpt>
      <trkpt lat="50.55865" lon="3.291">
        <ele>58.151348</ele>
        <time>2018-10-09T13:53:31Z</time>
      </trkpt>
      <trkpt lat="50.5587" lon="3.29112">
        <ele>58.164703</ele>
        <time>2018-10-09T13:53:33Z</time>
      </trkpt>
      <trkpt lat="50.55876" lon="3.29124">
        <ele>58.15284</ele>
        <time>2018-10-09T13:53:35Z</time>
      </trkpt>
      <trkpt lat="50.55882" lon="3.29137">
        <ele>58.172333</ele>
        <time>2018-10-09T13:53:37Z</time>
      </trkpt>
      <trkpt lat="50.55887" lon="3.29149">
        <ele>58.168121</ele>
        <time>2018-10-09T13:53:39Z</time>
      </trkpt>
      <trkpt lat="50.55893" lon="3.29162">
        <ele>58.155273</ele>
        <time>2018-10-09T13:53:41Z</time>
      </trkpt>
      <trkpt lat="50.55898" lon="3.29174">
        <ele>58.177574</ele>
        <time>2018-10-09T13:53:43Z</time>
      </trkpt>
      <trkpt lat="50.55903" lon="3.29185">
        <ele>58.15686</ele>
        <time>2018-10-09T13:53:45Z</time>
      </trkpt>
      <trkpt lat="50.55908" lon="3.29196">
        <ele>58.160419</ele>
        <time>2018-10-09T13:53:47Z</time>
      </trkpt>
      <trkpt lat="50.55912" lon="3.29205">
        <ele>58.12257</ele>
        <time>2018-10-09T13:53:49Z</time>
      </trkpt>
      <trkpt lat="50.55917" lon="3.29214">
        <ele>58.091583</ele>
        <time>2018-10-09T13:53:51Z</time>
      </trkpt>
      <trkpt lat="50.55921" lon="3.29223">
        <ele>58.076782</ele>
        <time>2018-10-09T13:53:53Z</time>
      </trkpt>
      <trkpt lat="50.55925" lon="3.29233">
        <ele>58.063362</ele>
        <time>2018-10-09T13:53:55Z</time>
      </trkpt>
      <trkpt lat="50.55926" lon="3.29245">
        <ele>58.030434</ele>
        <time>2018-10-09T13:53:57Z</time>
      </trkpt>
      <trkpt lat="50.55923" lon="3.29254">
        <ele>57.997974</ele>
        <time>2018-10-09T13:53:59Z</time>
      </trkpt>
      <trkpt lat="50.55916" lon="3.29262">
        <ele>58.009644</ele>
        <time>2018-10-09T13:54:01Z</time>
      </trkpt>
      <trkpt lat="50.55909" lon="3.29269">
        <ele>58.016987</ele>
        <time>2018-10-09T13:54:03Z</time>
      </trkpt>
      <trkpt lat="50.55902" lon="3.29278">
        <ele>57.995502</ele>
        <time>2018-10-09T13:54:05Z</time>
      </trkpt>
      <trkpt lat="50.55894" lon="3.29285">
        <ele>57.981026</ele>
        <time>2018-10-09T13:54:07Z</time>
      </trkpt>
      <trkpt lat="50.55887" lon="3.29293">
        <ele>58.001747</ele>
        <time>2018-10-09T13:54:09Z</time>
      </trkpt>
      <trkpt lat="50.55879" lon="3.29301">
        <ele>57.999256</ele>
        <time>2018-10-09T13:54:11Z</time>
      </trkpt>
      <trkpt lat="50.55872" lon="3.29311">
        <ele>58.017536</ele>
        <time>2018-10-09T13:54:13Z</time>
      </trkpt>
      <trkpt lat="50.55864" lon="3.2932">
        <ele>58.076527</ele>
        <time>2018-10-09T13:54:15Z</time>
      </trkpt>
      <trkpt lat="50.55856" lon="3.29329">
        <ele>58.184906</ele>
        <time>2018-10-09T13:54:17Z</time>
      </trkpt>
      <trkpt lat="50.55848" lon="3.29338">
        <ele>58.226215</ele>
        <time>2018-10-09T13:54:19Z</time>
      </trkpt>
      <trkpt lat="50.55841" lon="3.29346">
        <ele>58.303932</ele>
        <time>2018-10-09T13:54:21Z</time>
      </trkpt>
      <trkpt lat="50.55833" lon="3.29354">
        <ele>58.319622</ele>
        <time>2018-10-09T13:54:23Z</time>
      </trkpt>
      <trkpt lat="50.55825" lon="3.29363">
        <ele>58.418568</ele>
        <time>2018-10-09T13:54:25Z</time>
      </trkpt>
      <trkpt lat="50.55817" lon="3.29371">
        <ele>58.450481</ele>
        <time>2018-10-09T13:54:27Z</time>
      </trkpt>
      <trkpt lat="50.5581" lon="3.2938">
        <ele>58.546501</ele>
        <time>2018-10-09T13:54:29Z</time>
      </trkpt>
      <trkpt lat="50.55803" lon="3.29388">
        <ele>58.646832</ele>
        <time>2018-10-09T13:54:31Z</time>
      </trkpt>
      <trkpt lat="50.55796" lon="3.29396">
        <ele>58.721916</ele>
        <time>2018-10-09T13:54:33Z</time>
      </trkpt>
      <trkpt lat="50.55789" lon="3.29404">
        <ele>58.795464</ele>
        <time>2018-10-09T13:54:35Z</time>
      </trkpt>
      <trkpt lat="50.55782" lon="3.29412">
        <ele>58.870991</ele>
        <time>2018-10-09T13:54:37Z</time>
      </trkpt>
      <trkpt lat="50.55775" lon="3.2942">
        <ele>58.988117</ele>
        <time>2018-10-09T13:54:39Z</time>
      </trkpt>
      <trkpt lat="50.55767" lon="3.29429">
        <ele>59.058159</ele>
        <time>2018-10-09T13:54:41Z</time>
      </trkpt>
      <trkpt lat="50.55759" lon="3.29437">
        <ele>59.140839</ele>
        <time>2018-10-09T13:54:43Z</time>
      </trkpt>
      <trkpt lat="50.55751" lon="3.29445">
        <ele>59.206291</ele>
        <time>2018-10-09T13:54:45Z</time>
      </trkpt>
      <trkpt lat="50.55744" lon="3.29454">
        <ele>59.290535</ele>
        <time>2018-10-09T13:54:47Z</time>
      </trkpt>
      <trkpt lat="50.55736" lon="3.29462">
        <ele>59.374199</ele>
        <time>2018-10-09T13:54:49Z</time>
      </trkpt>
      <trkpt lat="50.55729" lon="3.29471">
        <ele>59.45805</ele>
        <time>2018-10-09T13:54:51Z</time>
      </trkpt>
      <trkpt lat="50.55721" lon="3.2948">
        <ele>59.632282</ele>
        <time>2018-10-09T13:54:53Z</time>
      </trkpt>
      <trkpt lat="50.55713" lon="3.29488">
        <ele>59.737041</ele>
        <time>2018-10-09T13:54:55Z</time>
      </trkpt>
      <trkpt lat="50.55705" lon="3.29496">
        <ele>59.852348</ele>
        <time>2018-10-09T13:54:57Z</time>
      </trkpt>
      <trkpt lat="50.55697" lon="3.29505">
        <ele>59.893963</ele>
        <time>2018-10-09T13:54:59Z</time>
      </trkpt>
      <trkpt lat="50.55689" lon="3.29512">
        <ele>60.021637</ele>
        <time>2018-10-09T13:55:01Z</time>
      </trkpt>
      <trkpt lat="50.55681" lon="3.2952">
        <ele>60.129803</ele>
        <time>2018-10-09T13:55:03Z</time>
      </trkpt>
      <trkpt lat="50.55673" lon="3.29527">
        <ele>60.171112</ele>
        <time>2018-10-09T13:55:05Z</time>
      </trkpt>
      <trkpt lat="50.55665" lon="3.29535">
        <ele>60.31955</ele>
        <time>2018-10-09T13:55:07Z</time>
      </trkpt>
      <trkpt lat="50.55657" lon="3.29542">
        <ele>60.454674</ele>
        <time>2018-10-09T13:55:09Z</time>
      </trkpt>
      <trkpt lat="50.55648" lon="3.29548">
        <ele>60.548542</ele>
        <time>2018-10-09T13:55:11Z</time>
      </trkpt>
      <trkpt lat="50.55641" lon="3.29555">
        <ele>60.66671</ele>
        <time>2018-10-09T13:55:13Z</time>
      </trkpt>
      <trkpt lat="50.55633" lon="3.29561">
        <ele>60.801781</ele>
        <time>2018-10-09T13:55:15Z</time>
      </trkpt>
      <trkpt lat="50.55626" lon="3.29567">
        <ele>61.003918</ele>
        <time>2018-10-09T13:55:17Z</time>
      </trkpt>
      <trkpt lat="50.55619" lon="3.29572">
        <ele>61.131683</ele>
        <time>2018-10-09T13:55:19Z</time>
      </trkpt>
      <trkpt lat="50.55613" lon="3.29577">
        <ele>61.285473</ele>
        <time>2018-10-09T13:55:21Z</time>
      </trkpt>
      <trkpt lat="50.55609" lon="3.2958">
        <ele>61.430614</ele>
        <time>2018-10-09T13:55:23Z</time>
      </trkpt>
      <trkpt lat="50.55606" lon="3.29583">
        <ele>61.599281</ele>
        <time>2018-10-09T13:55:25Z</time>
      </trkpt>
      <trkpt lat="50.55604" lon="3.29585">
        <ele>61.743965</ele>
        <time>2018-10-09T13:55:27Z</time>
      </trkpt>
      <trkpt lat="50.55601" lon="3.29588">
        <ele>61.904823</ele>
        <time>2018-10-09T13:55:29Z</time>
      </trkpt>
      <trkpt lat="50.55598" lon="3.29591">
        <ele>62.092812</ele>
        <time>2018-10-09T13:55:31Z</time>
      </trkpt>
      <trkpt lat="50.55597" lon="3.29596">
        <ele>62.239582</ele>
        <time>2018-10-09T13:55:33Z</time>
      </trkpt>
      <trkpt lat="50.55596" lon="3.29605">
        <ele>62.357079</ele>
        <time>2018-10-09T13:55:35Z</time>
      </trkpt>
      <trkpt lat="50.55597" lon="3.29616">
        <ele>62.478901</ele>
        <time>2018-10-09T13:55:37Z</time>
      </trkpt>
      <trkpt lat="50.55598" lon="3.29629">
        <ele>62.576366</ele>
        <time>2018-10-09T13:55:39Z</time>
      </trkpt>
      <trkpt lat="50.55598" lon="3.29642">
        <ele>62.666576</ele>
        <time>2018-10-09T13:55:41Z</time>
      </trkpt>
      <trkpt lat="50.55598" lon="3.29655">
        <ele>62.696156</ele>
        <time>2018-10-09T13:55:43Z</time>
      </trkpt>
      <trkpt lat="50.55597" lon="3.29668">
        <ele>62.813911</ele>
        <time>2018-10-09T13:55:45Z</time>
      </trkpt>
      <trkpt lat="50.55595" lon="3.29681">
        <ele>62.830982</ele>
        <time>2018-10-09T13:55:47Z</time>
      </trkpt>
      <trkpt lat="50.55592" lon="3.29694">
        <ele>62.882862</ele>
        <time>2018-10-09T13:55:49Z</time>
      </trkpt>
      <trkpt lat="50.5559" lon="3.29707">
        <ele>62.977772</ele>
        <time>2018-10-09T13:55:51Z</time>
      </trkpt>
      <trkpt lat="50.55587" lon="3.29721">
        <ele>63.085926</ele>
        <time>2018-10-09T13:55:53Z</time>
      </trkpt>
      <trkpt lat="50.55585" lon="3.29735">
        <ele>63.180016</ele>
        <time>2018-10-09T13:55:55Z</time>
      </trkpt>
      <trkpt lat="50.55583" lon="3.29749">
        <ele>63.232506</ele>
        <time>2018-10-09T13:55:57Z</time>
      </trkpt>
      <trkpt lat="50.55581" lon="3.29764">
        <ele>63.290356</ele>
        <time>2018-10-09T13:55:59Z</time>
      </trkpt>
      <trkpt lat="50.55579" lon="3.29778">
        <ele>63.350525</ele>
        <time>2018-10-09T13:56:01Z</time>
      </trkpt>
      <trkpt lat="50.55576" lon="3.29792">
        <ele>63.378174</ele>
        <time>2018-10-09T13:56:03Z</time>
      </trkpt>
      <trkpt lat="50.55574" lon="3.29806">
        <ele>63.419056</ele>
        <time>2018-10-09T13:56:05Z</time>
      </trkpt>
      <trkpt lat="50.55573" lon="3.2982">
        <ele>63.429821</ele>
        <time>2018-10-09T13:56:07Z</time>
      </trkpt>
      <trkpt lat="50.5557" lon="3.29834">
        <ele>63.459644</ele>
        <time>2018-10-09T13:56:09Z</time>
      </trkpt>
      <trkpt lat="50.55568" lon="3.29849">
        <ele>63.485512</ele>
        <time>2018-10-09T13:56:11Z</time>
      </trkpt>
      <trkpt lat="50.55566" lon="3.29863">
        <ele>63.493324</ele>
        <time>2018-10-09T13:56:13Z</time>
      </trkpt>
      <trkpt lat="50.55564" lon="3.29877">
        <ele>63.530773</ele>
        <time>2018-10-09T13:56:15Z</time>
      </trkpt>
      <trkpt lat="50.55562" lon="3.29892">
        <ele>63.559925</ele>
        <time>2018-10-09T13:56:17Z</time>
      </trkpt>
      <trkpt lat="50.55559" lon="3.29906">
        <ele>63.641651</ele>
        <time>2018-10-09T13:56:19Z</time>
      </trkpt>
      <trkpt lat="50.55557" lon="3.29921">
        <ele>63.679771</ele>
        <time>2018-10-09T13:56:21Z</time>
      </trkpt>
      <trkpt lat="50.55556" lon="3.29935">
        <ele>63.752003</ele>
        <time>2018-10-09T13:56:23Z</time>
      </trkpt>
      <trkpt lat="50.55554" lon="3.29949">
        <ele>63.789551</ele>
        <time>2018-10-09T13:56:25Z</time>
      </trkpt>
      <trkpt lat="50.55553" lon="3.29962">
        <ele>63.832245</ele>
        <time>2018-10-09T13:56:27Z</time>
      </trkpt>
      <trkpt lat="50.55552" lon="3.29978">
        <ele>63.936638</ele>
        <time>2018-10-09T13:56:29Z</time>
      </trkpt>
      <trkpt lat="50.55552" lon="3.29993">
        <ele>63.957794</ele>
        <time>2018-10-09T13:56:31Z</time>
      </trkpt>
      <trkpt lat="50.55552" lon="3.30008">
        <ele>63.985527</ele>
        <time>2018-10-09T13:56:33Z</time>
      </trkpt>
      <trkpt lat="50.55553" lon="3.30024">
        <ele>63.963387</ele>
        <time>2018-10-09T13:56:35Z</time>
      </trkpt>
      <trkpt lat="50.55553" lon="3.30039">
        <ele>63.985527</ele>
        <time>2018-10-09T13:56:37Z</time>
      </trkpt>
      <trkpt lat="50.55553" lon="3.30055">
        <ele>64.016205</ele>
        <time>2018-10-09T13:56:39Z</time>
      </trkpt>
      <trkpt lat="50.55554" lon="3.3007">
        <ele>64.016739</ele>
        <time>2018-10-09T13:56:41Z</time>
      </trkpt>
      <trkpt lat="50.55555" lon="3.30085">
        <ele>64.040527</ele>
        <time>2018-10-09T13:56:43Z</time>
      </trkpt>
      <trkpt lat="50.55555" lon="3.30101">
        <ele>64.043434</ele>
        <time>2018-10-09T13:56:45Z</time>
      </trkpt>
      <trkpt lat="50.55556" lon="3.30116">
        <ele>64.111465</ele>
        <time>2018-10-09T13:56:47Z</time>
      </trkpt>
      <trkpt lat="50.55556" lon="3.30132">
        <ele>64.112442</ele>
        <time>2018-10-09T13:56:49Z</time>
      </trkpt>
      <trkpt lat="50.55555" lon="3.30146">
        <ele>64.119431</ele>
        <time>2018-10-09T13:56:51Z</time>
      </trkpt>
      <trkpt lat="50.55555" lon="3.30161">
        <ele>64.151031</ele>
        <time>2018-10-09T13:56:53Z</time>
      </trkpt>
      <trkpt lat="50.55555" lon="3.30177">
        <ele>64.171066</ele>
        <time>2018-10-09T13:56:55Z</time>
      </trkpt>
      <trkpt lat="50.55554" lon="3.30192">
        <ele>64.193596</ele>
        <time>2018-10-09T13:56:57Z</time>
      </trkpt>
      <trkpt lat="50.55554" lon="3.30206">
        <ele>64.202293</ele>
        <time>2018-10-09T13:56:59Z</time>
      </trkpt>
      <trkpt lat="50.55555" lon="3.3022">
        <ele>64.16246</ele>
        <time>2018-10-09T13:57:01Z</time>
      </trkpt>
      <trkpt lat="50.55556" lon="3.30234">
        <ele>64.165756</ele>
        <time>2018-10-09T13:57:03Z</time>
      </trkpt>
      <trkpt lat="50.55558" lon="3.30247">
        <ele>64.16217</ele>
        <time>2018-10-09T13:57:05Z</time>
      </trkpt>
      <trkpt lat="50.55561" lon="3.3026">
        <ele>64.143066</ele>
        <time>2018-10-09T13:57:07Z</time>
      </trkpt>
      <trkpt lat="50.55563" lon="3.30273">
        <ele>64.14418</ele>
        <time>2018-10-09T13:57:09Z</time>
      </trkpt>
      <trkpt lat="50.55567" lon="3.30286">
        <ele>64.134506</ele>
        <time>2018-10-09T13:57:11Z</time>
      </trkpt>
      <trkpt lat="50.5557" lon="3.30297">
        <ele>64.125603</ele>
        <time>2018-10-09T13:57:13Z</time>
      </trkpt>
      <trkpt lat="50.55573" lon="3.30308">
        <ele>64.173584</ele>
        <time>2018-10-09T13:57:15Z</time>
      </trkpt>
      <trkpt lat="50.55576" lon="3.30319">
        <ele>64.230705</ele>
        <time>2018-10-09T13:57:17Z</time>
      </trkpt>
      <trkpt lat="50.55579" lon="3.30329">
        <ele>64.200783</ele>
        <time>2018-10-09T13:57:19Z</time>
      </trkpt>
      <trkpt lat="50.55582" lon="3.30339">
        <ele>64.188103</ele>
        <time>2018-10-09T13:57:21Z</time>
      </trkpt>
      <trkpt lat="50.55584" lon="3.30348">
        <ele>64.208809</ele>
        <time>2018-10-09T13:57:23Z</time>
      </trkpt>
      <trkpt lat="50.55586" lon="3.30356">
        <ele>64.266342</ele>
        <time>2018-10-09T13:57:25Z</time>
      </trkpt>
      <trkpt lat="50.55587" lon="3.30363">
        <ele>64.288559</ele>
        <time>2018-10-09T13:57:27Z</time>
      </trkpt>
      <trkpt lat="50.55587" lon="3.30368">
        <ele>64.277321</ele>
        <time>2018-10-09T13:57:29Z</time>
      </trkpt>
      <trkpt lat="50.55585" lon="3.30374">
        <ele>64.342918</ele>
        <time>2018-10-09T13:57:31Z</time>
      </trkpt>
      <trkpt lat="50.55582" lon="3.30378">
        <ele>64.355423</ele>
        <time>2018-10-09T13:57:33Z</time>
      </trkpt>
      <trkpt lat="50.55578" lon="3.30382">
        <ele>64.370483</ele>
        <time>2018-10-09T13:57:35Z</time>
      </trkpt>
      <trkpt lat="50.55575" lon="3.30387">
        <ele>64.424545</ele>
        <time>2018-10-09T13:57:37Z</time>
      </trkpt>
      <trkpt lat="50.55574" lon="3.30392">
        <ele>64.398766</ele>
        <time>2018-10-09T13:57:39Z</time>
      </trkpt>
    </trkseg>
  </trk>
</gpx>